<?xml version="1.0" encoding="utf-8"?>
<gpx xmlns:xsi="http://www.w3.org/2001/XMLSchema-instance" xmlns:xsd="http://www.w3.org/2001/XMLSchema" version="1.1" creator="Shapelink.com" xmlns="http://www.topografix.com/GPX/1/1" xmlns:gpxtpx="http://www.garmin.com/xmlschemas/TrackPointExtension/v1">
  <metadata>
    <name>Ciclismo 73.88 km, 2020-03-22</name>
    <desc></desc>
    <author><name>Per Rooth</name></author> 
    <time>2020-03-22T08:44:20Z</time>
  </metadata>
  <trk>
    <name>Ciclismo 73.88 km, 2020-03-22</name>
    <trkseg>
      <trkpt lat="56.873306337189" lon="14.792894618506">
        <ele>175.4</ele>
        <time>2020-03-22T08:44:20Z</time>
      </trkpt>
      <trkpt lat="56.873365597222" lon="14.792941808603">
        <ele>175.6</ele>
        <time>2020-03-22T08:44:23Z</time>
      </trkpt>
      <trkpt lat="56.87357279779" lon="14.793096035563">
        <ele>176</ele>
        <time>2020-03-22T08:44:29Z</time>
      </trkpt>
      <trkpt lat="56.873838084925" lon="14.793562907393">
        <ele>176.6</ele>
        <time>2020-03-22T08:44:38Z</time>
      </trkpt>
      <trkpt lat="56.874204709231" lon="14.794495309949">
        <ele>176.8</ele>
        <time>2020-03-22T08:44:51Z</time>
      </trkpt>
      <trkpt lat="56.874645010438" lon="14.795116073463">
        <ele>176.2</ele>
        <time>2020-03-22T08:45:01Z</time>
      </trkpt>
      <trkpt lat="56.874778450286" lon="14.795314053941">
        <ele>175.8</ele>
        <time>2020-03-22T08:45:04Z</time>
      </trkpt>
      <trkpt lat="56.8748879179" lon="14.795556626127">
        <ele>175.4</ele>
        <time>2020-03-22T08:45:07Z</time>
      </trkpt>
      <trkpt lat="56.875000402998" lon="14.795802383435">
        <ele>175</ele>
        <time>2020-03-22T08:45:10Z</time>
      </trkpt>
      <trkpt lat="56.87509411264" lon="14.795936829111">
        <ele>174.6</ele>
        <time>2020-03-22T08:45:12Z</time>
      </trkpt>
      <trkpt lat="56.87514105128" lon="14.796003046121">
        <ele>174.2</ele>
        <time>2020-03-22T08:45:13Z</time>
      </trkpt>
      <trkpt lat="56.875206933014" lon="14.796170432664">
        <ele>173.2</ele>
        <time>2020-03-22T08:45:15Z</time>
      </trkpt>
      <trkpt lat="56.875208274118" lon="14.796379225793">
        <ele>172.2</ele>
        <time>2020-03-22T08:45:17Z</time>
      </trkpt>
      <trkpt lat="56.875163598591" lon="14.796744760452">
        <ele>171</ele>
        <time>2020-03-22T08:45:20Z</time>
      </trkpt>
      <trkpt lat="56.875121437634" lon="14.797121526857">
        <ele>169.6</ele>
        <time>2020-03-22T08:45:23Z</time>
      </trkpt>
      <trkpt lat="56.875066200913" lon="14.797719910698">
        <ele>168.8</ele>
        <time>2020-03-22T08:45:28Z</time>
      </trkpt>
      <trkpt lat="56.875000402998" lon="14.798048732635">
        <ele>168.6</ele>
        <time>2020-03-22T08:45:31Z</time>
      </trkpt>
      <trkpt lat="56.874883391674" lon="14.798577546706">
        <ele>167.8</ele>
        <time>2020-03-22T08:45:36Z</time>
      </trkpt>
      <trkpt lat="56.874793705344" lon="14.799634923391">
        <ele>168.8</ele>
        <time>2020-03-22T08:45:47Z</time>
      </trkpt>
      <trkpt lat="56.874696307666" lon="14.800530613225">
        <ele>169.6</ele>
        <time>2020-03-22T08:45:56Z</time>
      </trkpt>
      <trkpt lat="56.874630342113" lon="14.801576339069">
        <ele>170.2</ele>
        <time>2020-03-22T08:46:08Z</time>
      </trkpt>
      <trkpt lat="56.87462556443" lon="14.801733918789">
        <ele>170.8</ele>
        <time>2020-03-22T08:46:10Z</time>
      </trkpt>
      <trkpt lat="56.874605112594" lon="14.802119653827">
        <ele>171.8</ele>
        <time>2020-03-22T08:46:15Z</time>
      </trkpt>
      <trkpt lat="56.874573093736" lon="14.802490971997">
        <ele>173</ele>
        <time>2020-03-22T08:46:20Z</time>
      </trkpt>
      <trkpt lat="56.87452665801" lon="14.802796492252">
        <ele>174.2</ele>
        <time>2020-03-22T08:46:24Z</time>
      </trkpt>
      <trkpt lat="56.87451659973" lon="14.802956670361">
        <ele>174.6</ele>
        <time>2020-03-22T08:46:26Z</time>
      </trkpt>
      <trkpt lat="56.874477959171" lon="14.803517168014">
        <ele>175.4</ele>
        <time>2020-03-22T08:46:33Z</time>
      </trkpt>
      <trkpt lat="56.87438835666" lon="14.804560966021">
        <ele>176.2</ele>
        <time>2020-03-22T08:46:45Z</time>
      </trkpt>
      <trkpt lat="56.874370838489" lon="14.804932200372">
        <ele>175.8</ele>
        <time>2020-03-22T08:46:49Z</time>
      </trkpt>
      <trkpt lat="56.874428673599" lon="14.8050673166">
        <ele>175.4</ele>
        <time>2020-03-22T08:46:51Z</time>
      </trkpt>
      <trkpt lat="56.874989003614" lon="14.805207797244">
        <ele>175.6</ele>
        <time>2020-03-22T08:47:02Z</time>
      </trkpt>
      <trkpt lat="56.875328973478" lon="14.805271164408">
        <ele>176.2</ele>
        <time>2020-03-22T08:47:09Z</time>
      </trkpt>
      <trkpt lat="56.875421090559" lon="14.805338387246">
        <ele>176.4</ele>
        <time>2020-03-22T08:47:11Z</time>
      </trkpt>
      <trkpt lat="56.875449672838" lon="14.80541013631">
        <ele>176.6</ele>
        <time>2020-03-22T08:47:12Z</time>
      </trkpt>
      <trkpt lat="56.875447158268" lon="14.805493033301">
        <ele>176.6</ele>
        <time>2020-03-22T08:47:13Z</time>
      </trkpt>
      <trkpt lat="56.875431232658" lon="14.805669472296">
        <ele>177</ele>
        <time>2020-03-22T08:47:15Z</time>
      </trkpt>
      <trkpt lat="56.87542352131" lon="14.805760583549">
        <ele>177.2</ele>
        <time>2020-03-22T08:47:16Z</time>
      </trkpt>
      <trkpt lat="56.875388233511" lon="14.806128716597">
        <ele>177.6</ele>
        <time>2020-03-22T08:47:20Z</time>
      </trkpt>
      <trkpt lat="56.875351101694" lon="14.806686867318">
        <ele>178</ele>
        <time>2020-03-22T08:47:26Z</time>
      </trkpt>
      <trkpt lat="56.875271725101" lon="14.807704681435">
        <ele>176.8</ele>
        <time>2020-03-22T08:47:35Z</time>
      </trkpt>
      <trkpt lat="56.875257643509" lon="14.807829068831">
        <ele>176.4</ele>
        <time>2020-03-22T08:47:36Z</time>
      </trkpt>
      <trkpt lat="56.875219422045" lon="14.808226873805">
        <ele>175</ele>
        <time>2020-03-22T08:47:39Z</time>
      </trkpt>
      <trkpt lat="56.875189079567" lon="14.808638257457">
        <ele>173.8</ele>
        <time>2020-03-22T08:47:42Z</time>
      </trkpt>
      <trkpt lat="56.875155719605" lon="14.809052658593">
        <ele>172.8</ele>
        <time>2020-03-22T08:47:45Z</time>
      </trkpt>
      <trkpt lat="56.875127556421" lon="14.809530007798">
        <ele>171.4</ele>
        <time>2020-03-22T08:47:49Z</time>
      </trkpt>
      <trkpt lat="56.875165107333" lon="14.809724467878">
        <ele>170.6</ele>
        <time>2020-03-22T08:47:51Z</time>
      </trkpt>
      <trkpt lat="56.875192013232" lon="14.809808873611">
        <ele>170.2</ele>
        <time>2020-03-22T08:47:52Z</time>
      </trkpt>
      <trkpt lat="56.87523241399" lon="14.809874084793">
        <ele>169.8</ele>
        <time>2020-03-22T08:47:53Z</time>
      </trkpt>
      <trkpt lat="56.87534556964" lon="14.809951533549">
        <ele>169.2</ele>
        <time>2020-03-22T08:47:55Z</time>
      </trkpt>
      <trkpt lat="56.875408852985" lon="14.809973661765">
        <ele>169</ele>
        <time>2020-03-22T08:47:56Z</time>
      </trkpt>
      <trkpt lat="56.87574370989" lon="14.810100982826">
        <ele>167.8</ele>
        <time>2020-03-22T08:48:01Z</time>
      </trkpt>
      <trkpt lat="56.876019139124" lon="14.81016854094">
        <ele>166.8</ele>
        <time>2020-03-22T08:48:05Z</time>
      </trkpt>
      <trkpt lat="56.876085775229" lon="14.810195530658">
        <ele>166.6</ele>
        <time>2020-03-22T08:48:06Z</time>
      </trkpt>
      <trkpt lat="56.876336645496" lon="14.810304160082">
        <ele>166.8</ele>
        <time>2020-03-22T08:48:10Z</time>
      </trkpt>
      <trkpt lat="56.876441167789" lon="14.810386637978">
        <ele>167</ele>
        <time>2020-03-22T08:48:12Z</time>
      </trkpt>
      <trkpt lat="56.876525908798" lon="14.810530303744">
        <ele>167.4</ele>
        <time>2020-03-22T08:48:14Z</time>
      </trkpt>
      <trkpt lat="56.876719865964" lon="14.810935736247">
        <ele>167.8</ele>
        <time>2020-03-22T08:48:19Z</time>
      </trkpt>
      <trkpt lat="56.876764541491" lon="14.811142350082">
        <ele>167.8</ele>
        <time>2020-03-22T08:48:21Z</time>
      </trkpt>
      <trkpt lat="56.876713998634" lon="14.81211984726">
        <ele>167.2</ele>
        <time>2020-03-22T08:48:30Z</time>
      </trkpt>
      <trkpt lat="56.876688014744" lon="14.81257079348">
        <ele>166.6</ele>
        <time>2020-03-22T08:48:34Z</time>
      </trkpt>
      <trkpt lat="56.876683237061" lon="14.812795847495">
        <ele>166.4</ele>
        <time>2020-03-22T08:48:36Z</time>
      </trkpt>
      <trkpt lat="56.876723637819" lon="14.812970107196">
        <ele>166.4</ele>
        <time>2020-03-22T08:48:38Z</time>
      </trkpt>
      <trkpt lat="56.876803936421" lon="14.813020482415">
        <ele>166.4</ele>
        <time>2020-03-22T08:48:40Z</time>
      </trkpt>
      <trkpt lat="56.876998899415" lon="14.813019057492">
        <ele>166.8</ele>
        <time>2020-03-22T08:48:44Z</time>
      </trkpt>
      <trkpt lat="56.8774108698" lon="14.813128273649">
        <ele>167.8</ele>
        <time>2020-03-22T08:48:52Z</time>
      </trkpt>
      <trkpt lat="56.877571299366" lon="14.813174960832">
        <ele>168.2</ele>
        <time>2020-03-22T08:48:55Z</time>
      </trkpt>
      <trkpt lat="56.877936079654" lon="14.813295492554">
        <ele>168.8</ele>
        <time>2020-03-22T08:49:02Z</time>
      </trkpt>
      <trkpt lat="56.878516777686" lon="14.813430860239">
        <ele>169.4</ele>
        <time>2020-03-22T08:49:14Z</time>
      </trkpt>
      <trkpt lat="56.878793631843" lon="14.813480900182">
        <ele>169.2</ele>
        <time>2020-03-22T08:49:19Z</time>
      </trkpt>
      <trkpt lat="56.878891280978" lon="14.813565808829">
        <ele>169.4</ele>
        <time>2020-03-22T08:49:21Z</time>
      </trkpt>
      <trkpt lat="56.878961186024" lon="14.813730596983">
        <ele>169.4</ele>
        <time>2020-03-22T08:49:23Z</time>
      </trkpt>
      <trkpt lat="56.8789950489" lon="14.8140359496">
        <ele>169.2</ele>
        <time>2020-03-22T08:49:26Z</time>
      </trkpt>
      <trkpt lat="56.879057410236" lon="14.814198223184">
        <ele>168.8</ele>
        <time>2020-03-22T08:49:28Z</time>
      </trkpt>
      <trkpt lat="56.879161261977" lon="14.814244575091">
        <ele>168.8</ele>
        <time>2020-03-22T08:49:30Z</time>
      </trkpt>
      <trkpt lat="56.879746570054" lon="14.814364603899">
        <ele>169</ele>
        <time>2020-03-22T08:49:40Z</time>
      </trkpt>
      <trkpt lat="56.879848913053" lon="14.814470551115">
        <ele>169.2</ele>
        <time>2020-03-22T08:49:42Z</time>
      </trkpt>
      <trkpt lat="56.879930971854" lon="14.81461597708">
        <ele>169.2</ele>
        <time>2020-03-22T08:49:44Z</time>
      </trkpt>
      <trkpt lat="56.8799757312" lon="14.814667441946">
        <ele>169.2</ele>
        <time>2020-03-22T08:49:45Z</time>
      </trkpt>
      <trkpt lat="56.880231211512" lon="14.814762827968">
        <ele>170.2</ele>
        <time>2020-03-22T08:49:50Z</time>
      </trkpt>
      <trkpt lat="56.880809311155" lon="14.814926694113">
        <ele>170.6</ele>
        <time>2020-03-22T08:50:01Z</time>
      </trkpt>
      <trkpt lat="56.881068228046" lon="14.814989055449">
        <ele>170.4</ele>
        <time>2020-03-22T08:50:06Z</time>
      </trkpt>
      <trkpt lat="56.881158333471" lon="14.815084692928">
        <ele>170.4</ele>
        <time>2020-03-22T08:50:08Z</time>
      </trkpt>
      <trkpt lat="56.881210636527" lon="14.815253504394">
        <ele>170.8</ele>
        <time>2020-03-22T08:50:10Z</time>
      </trkpt>
      <trkpt lat="56.881263107221" lon="14.815528933628">
        <ele>171.2</ele>
        <time>2020-03-22T08:50:13Z</time>
      </trkpt>
      <trkpt lat="56.881298478839" lon="14.815696152533">
        <ele>171.4</ele>
        <time>2020-03-22T08:50:15Z</time>
      </trkpt>
      <trkpt lat="56.881361510727" lon="14.81574669539">
        <ele>171.6</ele>
        <time>2020-03-22T08:50:17Z</time>
      </trkpt>
      <trkpt lat="56.881448347211" lon="14.815759854973">
        <ele>171.8</ele>
        <time>2020-03-22T08:50:19Z</time>
      </trkpt>
      <trkpt lat="56.881577093195" lon="14.815738062033">
        <ele>172.4</ele>
        <time>2020-03-22T08:50:22Z</time>
      </trkpt>
      <trkpt lat="56.881782533564" lon="14.815639071794">
        <ele>173.6</ele>
        <time>2020-03-22T08:50:27Z</time>
      </trkpt>
      <trkpt lat="56.881823185779" lon="14.815630438437">
        <ele>173.8</ele>
        <time>2020-03-22T08:50:28Z</time>
      </trkpt>
      <trkpt lat="56.881889989522" lon="14.815685004606">
        <ele>174.2</ele>
        <time>2020-03-22T08:50:30Z</time>
      </trkpt>
      <trkpt lat="56.881913123566" lon="14.815801596835">
        <ele>174.8</ele>
        <time>2020-03-22T08:50:32Z</time>
      </trkpt>
      <trkpt lat="56.881896695042" lon="14.815985998635">
        <ele>176</ele>
        <time>2020-03-22T08:50:35Z</time>
      </trkpt>
      <trkpt lat="56.881876159387" lon="14.816164700743">
        <ele>177.4</ele>
        <time>2020-03-22T08:50:38Z</time>
      </trkpt>
      <trkpt lat="56.881867777487" lon="14.816286154474">
        <ele>178.2</ele>
        <time>2020-03-22T08:50:40Z</time>
      </trkpt>
      <trkpt lat="56.881865262917" lon="14.816349186362">
        <ele>178.6</ele>
        <time>2020-03-22T08:50:41Z</time>
      </trkpt>
      <trkpt lat="56.881847828565" lon="14.816535683637">
        <ele>179.8</ele>
        <time>2020-03-22T08:50:44Z</time>
      </trkpt>
      <trkpt lat="56.881821760856" lon="14.816797953288">
        <ele>181</ele>
        <time>2020-03-22T08:50:48Z</time>
      </trkpt>
      <trkpt lat="56.881806170522" lon="14.816979337604">
        <ele>182.2</ele>
        <time>2020-03-22T08:50:51Z</time>
      </trkpt>
      <trkpt lat="56.881796196061" lon="14.817164661413">
        <ele>183.4</ele>
        <time>2020-03-22T08:50:54Z</time>
      </trkpt>
      <trkpt lat="56.881780857184" lon="14.81742475177">
        <ele>184.6</ele>
        <time>2020-03-22T08:50:58Z</time>
      </trkpt>
      <trkpt lat="56.881769038705" lon="14.817741503771">
        <ele>185.8</ele>
        <time>2020-03-22T08:51:03Z</time>
      </trkpt>
      <trkpt lat="56.881764847755" lon="14.817944010475">
        <ele>187</ele>
        <time>2020-03-22T08:51:06Z</time>
      </trkpt>
      <trkpt lat="56.881774989854" lon="14.819007841223">
        <ele>187.8</ele>
        <time>2020-03-22T08:51:19Z</time>
      </trkpt>
      <trkpt lat="56.881769876895" lon="14.81929726823">
        <ele>187.2</ele>
        <time>2020-03-22T08:51:22Z</time>
      </trkpt>
      <trkpt lat="56.881792508025" lon="14.819478233451">
        <ele>186.6</ele>
        <time>2020-03-22T08:51:24Z</time>
      </trkpt>
      <trkpt lat="56.881897449413" lon="14.819552748542">
        <ele>185.8</ele>
        <time>2020-03-22T08:51:27Z</time>
      </trkpt>
      <trkpt lat="56.882095262253" lon="14.819603459037">
        <ele>184.8</ele>
        <time>2020-03-22T08:51:31Z</time>
      </trkpt>
      <trkpt lat="56.882182517832" lon="14.819699347973">
        <ele>184.8</ele>
        <time>2020-03-22T08:51:33Z</time>
      </trkpt>
      <trkpt lat="56.882231635766" lon="14.819882743945">
        <ele>184.8</ele>
        <time>2020-03-22T08:51:35Z</time>
      </trkpt>
      <trkpt lat="56.882242783693" lon="14.820111234539">
        <ele>185</ele>
        <time>2020-03-22T08:51:37Z</time>
      </trkpt>
      <trkpt lat="56.882214871966" lon="14.82057131703">
        <ele>184.6</ele>
        <time>2020-03-22T08:51:41Z</time>
      </trkpt>
      <trkpt lat="56.882184780945" lon="14.821273049698">
        <ele>183.8</ele>
        <time>2020-03-22T08:51:48Z</time>
      </trkpt>
      <trkpt lat="56.882161311625" lon="14.82142962359">
        <ele>184</ele>
        <time>2020-03-22T08:51:50Z</time>
      </trkpt>
      <trkpt lat="56.882019154601" lon="14.82151595716">
        <ele>183.8</ele>
        <time>2020-03-22T08:51:54Z</time>
      </trkpt>
      <trkpt lat="56.881917482154" lon="14.82148159137">
        <ele>183.6</ele>
        <time>2020-03-22T08:51:56Z</time>
      </trkpt>
      <trkpt lat="56.881696954365" lon="14.821440268603">
        <ele>183.4</ele>
        <time>2020-03-22T08:52:00Z</time>
      </trkpt>
      <trkpt lat="56.881605256379" lon="14.82148159137">
        <ele>183.6</ele>
        <time>2020-03-22T08:52:02Z</time>
      </trkpt>
      <trkpt lat="56.881537111532" lon="14.821606146404">
        <ele>183.6</ele>
        <time>2020-03-22T08:52:04Z</time>
      </trkpt>
      <trkpt lat="56.88150542795" lon="14.821791805489">
        <ele>183.6</ele>
        <time>2020-03-22T08:52:06Z</time>
      </trkpt>
      <trkpt lat="56.881444491537" lon="14.822805177199">
        <ele>183.8</ele>
        <time>2020-03-22T08:52:16Z</time>
      </trkpt>
      <trkpt lat="56.881424542615" lon="14.823210944978">
        <ele>183.6</ele>
        <time>2020-03-22T08:52:20Z</time>
      </trkpt>
      <trkpt lat="56.881368383885" lon="14.824197243151">
        <ele>183.4</ele>
        <time>2020-03-22T08:52:30Z</time>
      </trkpt>
      <trkpt lat="56.881336281208" lon="14.825197120002">
        <ele>183.6</ele>
        <time>2020-03-22T08:52:41Z</time>
      </trkpt>
      <trkpt lat="56.881352961189" lon="14.826201271622">
        <ele>184</ele>
        <time>2020-03-22T08:52:51Z</time>
      </trkpt>
      <trkpt lat="56.881354218474" lon="14.826941812487">
        <ele>184.6</ele>
        <time>2020-03-22T08:52:59Z</time>
      </trkpt>
      <trkpt lat="56.881325384738" lon="14.827823672186">
        <ele>184.8</ele>
        <time>2020-03-22T08:53:08Z</time>
      </trkpt>
      <trkpt lat="56.881314823544" lon="14.828135562685">
        <ele>183.8</ele>
        <time>2020-03-22T08:53:11Z</time>
      </trkpt>
      <trkpt lat="56.881330497697" lon="14.828236145485">
        <ele>183.4</ele>
        <time>2020-03-22T08:53:12Z</time>
      </trkpt>
      <trkpt lat="56.88135455375" lon="14.828321724684">
        <ele>183.2</ele>
        <time>2020-03-22T08:53:13Z</time>
      </trkpt>
      <trkpt lat="56.881702989333" lon="14.828909044417">
        <ele>182.2</ele>
        <time>2020-03-22T08:53:21Z</time>
      </trkpt>
      <trkpt lat="56.881763925746" lon="14.829009627217">
        <ele>181.6</ele>
        <time>2020-03-22T08:53:22Z</time>
      </trkpt>
      <trkpt lat="56.881812792223" lon="14.829113646596">
        <ele>181</ele>
        <time>2020-03-22T08:53:23Z</time>
      </trkpt>
      <trkpt lat="56.881849253488" lon="14.829221773106">
        <ele>180.6</ele>
        <time>2020-03-22T08:53:24Z</time>
      </trkpt>
      <trkpt lat="56.881909770806" lon="14.82948714406">
        <ele>179.8</ele>
        <time>2020-03-22T08:53:26Z</time>
      </trkpt>
      <trkpt lat="56.88209383733" lon="14.830442848298">
        <ele>179</ele>
        <time>2020-03-22T08:53:34Z</time>
      </trkpt>
      <trkpt lat="56.882195090682" lon="14.830969566894">
        <ele>179.2</ele>
        <time>2020-03-22T08:53:39Z</time>
      </trkpt>
      <trkpt lat="56.882175644674" lon="14.831180958412">
        <ele>178.8</ele>
        <time>2020-03-22T08:53:41Z</time>
      </trkpt>
      <trkpt lat="56.882130801509" lon="14.831262262842">
        <ele>178.4</ele>
        <time>2020-03-22T08:53:42Z</time>
      </trkpt>
      <trkpt lat="56.882078833729" lon="14.831320600866">
        <ele>178</ele>
        <time>2020-03-22T08:53:43Z</time>
      </trkpt>
      <trkpt lat="56.881960900396" lon="14.831404000771">
        <ele>177.4</ele>
        <time>2020-03-22T08:53:45Z</time>
      </trkpt>
      <trkpt lat="56.881691422311" lon="14.831578009015">
        <ele>176.4</ele>
        <time>2020-03-22T08:53:50Z</time>
      </trkpt>
      <trkpt lat="56.881650183363" lon="14.831644561301">
        <ele>176.4</ele>
        <time>2020-03-22T08:53:51Z</time>
      </trkpt>
      <trkpt lat="56.8816185836" lon="14.831741372246">
        <ele>176.2</ele>
        <time>2020-03-22T08:53:52Z</time>
      </trkpt>
      <trkpt lat="56.881612548632" lon="14.831934742679">
        <ele>176.2</ele>
        <time>2020-03-22T08:53:54Z</time>
      </trkpt>
      <trkpt lat="56.88176610504" lon="14.832507226449">
        <ele>176</ele>
        <time>2020-03-22T08:54:00Z</time>
      </trkpt>
      <trkpt lat="56.882095932805" lon="14.833119608063">
        <ele>177.4</ele>
        <time>2020-03-22T08:54:09Z</time>
      </trkpt>
      <trkpt lat="56.882282932994" lon="14.833369556321">
        <ele>178.4</ele>
        <time>2020-03-22T08:54:14Z</time>
      </trkpt>
      <trkpt lat="56.882393741712" lon="14.833521603987">
        <ele>179.2</ele>
        <time>2020-03-22T08:54:17Z</time>
      </trkpt>
      <trkpt lat="56.882425173837" lon="14.833575918699">
        <ele>179.4</ele>
        <time>2020-03-22T08:54:18Z</time>
      </trkpt>
      <trkpt lat="56.882598343891" lon="14.833862747317">
        <ele>180.6</ele>
        <time>2020-03-22T08:54:23Z</time>
      </trkpt>
      <trkpt lat="56.882740584734" lon="14.834168519029">
        <ele>181.6</ele>
        <time>2020-03-22T08:54:28Z</time>
      </trkpt>
      <trkpt lat="56.883050463577" lon="14.834673360866">
        <ele>182</ele>
        <time>2020-03-22T08:54:36Z</time>
      </trkpt>
      <trkpt lat="56.883144257038" lon="14.834742427722">
        <ele>182</ele>
        <time>2020-03-22T08:54:38Z</time>
      </trkpt>
      <trkpt lat="56.88368556014" lon="14.83506362213">
        <ele>182</ele>
        <time>2020-03-22T08:54:47Z</time>
      </trkpt>
      <trkpt lat="56.884183193543" lon="14.835627221086">
        <ele>182</ele>
        <time>2020-03-22T08:54:57Z</time>
      </trkpt>
      <trkpt lat="56.88431084988" lon="14.835790919593">
        <ele>183.4</ele>
        <time>2020-03-22T08:55:01Z</time>
      </trkpt>
      <trkpt lat="56.884341192358" lon="14.835828805781">
        <ele>184.2</ele>
        <time>2020-03-22T08:55:02Z</time>
      </trkpt>
      <trkpt lat="56.884360806004" lon="14.835869206539">
        <ele>184.8</ele>
        <time>2020-03-22T08:55:03Z</time>
      </trkpt>
      <trkpt lat="56.884446552841" lon="14.836005831509">
        <ele>186.2</ele>
        <time>2020-03-22T08:55:06Z</time>
      </trkpt>
      <trkpt lat="56.884909652816" lon="14.836647549773">
        <ele>186.8</ele>
        <time>2020-03-22T08:55:17Z</time>
      </trkpt>
      <trkpt lat="56.885244844997" lon="14.83716244989">
        <ele>187.2</ele>
        <time>2020-03-22T08:55:25Z</time>
      </trkpt>
      <trkpt lat="56.885440813819" lon="14.837340649084">
        <ele>188.4</ele>
        <time>2020-03-22T08:55:30Z</time>
      </trkpt>
      <trkpt lat="56.885639213392" lon="14.837503509401">
        <ele>189.4</ele>
        <time>2020-03-22T08:55:35Z</time>
      </trkpt>
      <trkpt lat="56.885789836135" lon="14.837631165738">
        <ele>190.6</ele>
        <time>2020-03-22T08:55:39Z</time>
      </trkpt>
      <trkpt lat="56.885960575438" lon="14.837811041312">
        <ele>191.8</ele>
        <time>2020-03-22T08:55:44Z</time>
      </trkpt>
      <trkpt lat="56.886087142128" lon="14.837970548869">
        <ele>193.2</ele>
        <time>2020-03-22T08:55:48Z</time>
      </trkpt>
      <trkpt lat="56.886508919336" lon="14.838626181087">
        <ele>193.8</ele>
        <time>2020-03-22T08:55:59Z</time>
      </trkpt>
      <trkpt lat="56.886973025139" lon="14.839253985397">
        <ele>192.8</ele>
        <time>2020-03-22T08:56:09Z</time>
      </trkpt>
      <trkpt lat="56.887284161267" lon="14.840179179519">
        <ele>192.8</ele>
        <time>2020-03-22T08:56:20Z</time>
      </trkpt>
      <trkpt lat="56.887363286403" lon="14.840419572411">
        <ele>192</ele>
        <time>2020-03-22T08:56:23Z</time>
      </trkpt>
      <trkpt lat="56.887437717675" lon="14.84061243993">
        <ele>191.6</ele>
        <time>2020-03-22T08:56:30Z</time>
      </trkpt>
      <trkpt lat="56.887511813671" lon="14.840581259262">
        <ele>191.2</ele>
        <time>2020-03-22T08:59:55Z</time>
      </trkpt>
      <trkpt lat="56.887239904835" lon="14.839692442586">
        <ele>192</ele>
        <time>2020-03-22T09:00:09Z</time>
      </trkpt>
      <trkpt lat="56.88715315217" lon="14.839421958673">
        <ele>192.6</ele>
        <time>2020-03-22T09:00:13Z</time>
      </trkpt>
      <trkpt lat="56.887016359562" lon="14.839142673765">
        <ele>193</ele>
        <time>2020-03-22T09:00:17Z</time>
      </trkpt>
      <trkpt lat="56.886876214194" lon="14.838985010226">
        <ele>192.6</ele>
        <time>2020-03-22T09:00:21Z</time>
      </trkpt>
      <trkpt lat="56.886544374773" lon="14.838621403404">
        <ele>193.2</ele>
        <time>2020-03-22T09:00:28Z</time>
      </trkpt>
      <trkpt lat="56.886244135115" lon="14.838146568769">
        <ele>194.2</ele>
        <time>2020-03-22T09:00:34Z</time>
      </trkpt>
      <trkpt lat="56.885734850871" lon="14.837614318119">
        <ele>193.8</ele>
        <time>2020-03-22T09:00:42Z</time>
      </trkpt>
      <trkpt lat="56.885586910336" lon="14.837499486089">
        <ele>192.6</ele>
        <time>2020-03-22T09:00:44Z</time>
      </trkpt>
      <trkpt lat="56.885504180983" lon="14.837441734798">
        <ele>191.4</ele>
        <time>2020-03-22T09:00:46Z</time>
      </trkpt>
      <trkpt lat="56.885329083092" lon="14.837276108454">
        <ele>190.6</ele>
        <time>2020-03-22T09:00:48Z</time>
      </trkpt>
      <trkpt lat="56.885261105883" lon="14.837189691065">
        <ele>190.2</ele>
        <time>2020-03-22T09:00:49Z</time>
      </trkpt>
      <trkpt lat="56.885126660207" lon="14.836982825773">
        <ele>190</ele>
        <time>2020-03-22T09:00:50Z</time>
      </trkpt>
      <trkpt lat="56.884944605339" lon="14.836657524234">
        <ele>189</ele>
        <time>2020-03-22T09:00:53Z</time>
      </trkpt>
      <trkpt lat="56.884773698398" lon="14.836394332574">
        <ele>187.8</ele>
        <time>2020-03-22T09:00:56Z</time>
      </trkpt>
      <trkpt lat="56.884340437987" lon="14.835756889079">
        <ele>188</ele>
        <time>2020-03-22T09:01:04Z</time>
      </trkpt>
      <trkpt lat="56.884036258836" lon="14.835386912013">
        <ele>186.8</ele>
        <time>2020-03-22T09:01:08Z</time>
      </trkpt>
      <trkpt lat="56.883887983025" lon="14.835184824404">
        <ele>185.2</ele>
        <time>2020-03-22T09:01:10Z</time>
      </trkpt>
      <trkpt lat="56.883749933132" lon="14.835032106186">
        <ele>184.2</ele>
        <time>2020-03-22T09:01:12Z</time>
      </trkpt>
      <trkpt lat="56.883680028086" lon="14.834971253592">
        <ele>183.6</ele>
        <time>2020-03-22T09:01:13Z</time>
      </trkpt>
      <trkpt lat="56.883613224343" lon="14.834929008816">
        <ele>183.2</ele>
        <time>2020-03-22T09:01:14Z</time>
      </trkpt>
      <trkpt lat="56.883327904467" lon="14.834815182614">
        <ele>182.6</ele>
        <time>2020-03-22T09:01:18Z</time>
      </trkpt>
      <trkpt lat="56.883195470447" lon="14.834753659468">
        <ele>182.6</ele>
        <time>2020-03-22T09:01:20Z</time>
      </trkpt>
      <trkpt lat="56.883134617853" lon="14.834697165462">
        <ele>182.4</ele>
        <time>2020-03-22T09:01:22Z</time>
      </trkpt>
      <trkpt lat="56.882799760948" lon="14.834133315049">
        <ele>182.6</ele>
        <time>2020-03-22T09:01:28Z</time>
      </trkpt>
      <trkpt lat="56.882413020082" lon="14.833435521874">
        <ele>181.8</ele>
        <time>2020-03-22T09:01:35Z</time>
      </trkpt>
      <trkpt lat="56.882348814728" lon="14.833342482784">
        <ele>181.6</ele>
        <time>2020-03-22T09:01:36Z</time>
      </trkpt>
      <trkpt lat="56.882150582793" lon="14.833057498184">
        <ele>180.2</ele>
        <time>2020-03-22T09:01:39Z</time>
      </trkpt>
      <trkpt lat="56.88202678213" lon="14.832862954285">
        <ele>179.8</ele>
        <time>2020-03-22T09:01:41Z</time>
      </trkpt>
      <trkpt lat="56.881893174644" lon="14.832509238105">
        <ele>179</ele>
        <time>2020-03-22T09:01:44Z</time>
      </trkpt>
      <trkpt lat="56.881789909636" lon="14.832127610198">
        <ele>178</ele>
        <time>2020-03-22T09:01:47Z</time>
      </trkpt>
      <trkpt lat="56.881701061496" lon="14.831778252606">
        <ele>177</ele>
        <time>2020-03-22T09:01:50Z</time>
      </trkpt>
      <trkpt lat="56.881612883908" lon="14.831681944575">
        <ele>176.4</ele>
        <time>2020-03-22T09:01:52Z</time>
      </trkpt>
      <trkpt lat="56.881479527879" lon="14.831709437207">
        <ele>176</ele>
        <time>2020-03-22T09:01:54Z</time>
      </trkpt>
      <trkpt lat="56.881359163795" lon="14.831821419391">
        <ele>176</ele>
        <time>2020-03-22T09:01:56Z</time>
      </trkpt>
      <trkpt lat="56.880887011368" lon="14.832055022944">
        <ele>176.4</ele>
        <time>2020-03-22T09:02:03Z</time>
      </trkpt>
      <trkpt lat="56.880507478936" lon="14.832123335429">
        <ele>176.2</ele>
        <time>2020-03-22T09:02:09Z</time>
      </trkpt>
      <trkpt lat="56.87999752414" lon="14.83244595476">
        <ele>175.6</ele>
        <time>2020-03-22T09:02:17Z</time>
      </trkpt>
      <trkpt lat="56.879668199289" lon="14.832634296053">
        <ele>175.8</ele>
        <time>2020-03-22T09:02:23Z</time>
      </trkpt>
      <trkpt lat="56.879594773845" lon="14.832768741729">
        <ele>175.6</ele>
        <time>2020-03-22T09:02:25Z</time>
      </trkpt>
      <trkpt lat="56.879610196541" lon="14.833041321117">
        <ele>175.2</ele>
        <time>2020-03-22T09:02:28Z</time>
      </trkpt>
      <trkpt lat="56.87984329718" lon="14.833923599911">
        <ele>175.4</ele>
        <time>2020-03-22T09:02:38Z</time>
      </trkpt>
      <trkpt lat="56.879915968253" lon="14.834079084156">
        <ele>175.4</ele>
        <time>2020-03-22T09:02:41Z</time>
      </trkpt>
      <trkpt lat="56.880050162472" lon="14.834392315759">
        <ele>175.4</ele>
        <time>2020-03-22T09:02:44Z</time>
      </trkpt>
      <trkpt lat="56.880055778345" lon="14.834589960961">
        <ele>175.6</ele>
        <time>2020-03-22T09:02:46Z</time>
      </trkpt>
      <trkpt lat="56.880026944609" lon="14.834681072214">
        <ele>175.8</ele>
        <time>2020-03-22T09:02:48Z</time>
      </trkpt>
      <trkpt lat="56.879899539729" lon="14.835126151104">
        <ele>177</ele>
        <time>2020-03-22T09:02:52Z</time>
      </trkpt>
      <trkpt lat="56.879790072115" lon="14.835520268042">
        <ele>178</ele>
        <time>2020-03-22T09:02:57Z</time>
      </trkpt>
      <trkpt lat="56.879768446813" lon="14.835604506137">
        <ele>178.4</ele>
        <time>2020-03-22T09:02:58Z</time>
      </trkpt>
      <trkpt lat="56.879776158161" lon="14.835744148591">
        <ele>178.8</ele>
        <time>2020-03-22T09:03:01Z</time>
      </trkpt>
      <trkpt lat="56.879889146173" lon="14.835897202085">
        <ele>178.8</ele>
        <time>2020-03-22T09:03:03Z</time>
      </trkpt>
      <trkpt lat="56.880402621367" lon="14.836415790238">
        <ele>178.8</ele>
        <time>2020-03-22T09:03:14Z</time>
      </trkpt>
      <trkpt lat="56.880637398386" lon="14.836673952758">
        <ele>178.8</ele>
        <time>2020-03-22T09:03:19Z</time>
      </trkpt>
      <trkpt lat="56.880711578201" lon="14.836799597439">
        <ele>179</ele>
        <time>2020-03-22T09:03:21Z</time>
      </trkpt>
      <trkpt lat="56.880850047189" lon="14.836944939585">
        <ele>179.2</ele>
        <time>2020-03-22T09:03:24Z</time>
      </trkpt>
      <trkpt lat="56.880914504" lon="14.837104866237">
        <ele>179.4</ele>
        <time>2020-03-22T09:03:26Z</time>
      </trkpt>
      <trkpt lat="56.880906541195" lon="14.837300164507">
        <ele>179.6</ele>
        <time>2020-03-22T09:03:28Z</time>
      </trkpt>
      <trkpt lat="56.880828421887" lon="14.837809951665">
        <ele>180.4</ele>
        <time>2020-03-22T09:03:34Z</time>
      </trkpt>
      <trkpt lat="56.880771592605" lon="14.838231896511">
        <ele>181.6</ele>
        <time>2020-03-22T09:03:39Z</time>
      </trkpt>
      <trkpt lat="56.880746111629" lon="14.838584942139">
        <ele>182.2</ele>
        <time>2020-03-22T09:03:45Z</time>
      </trkpt>
      <trkpt lat="56.880746111629" lon="14.838584942139">
        <ele>182.2</ele>
        <time>2020-03-22T09:03:46Z</time>
      </trkpt>
      <trkpt lat="56.880852561759" lon="14.838712179381">
        <ele>182.4</ele>
        <time>2020-03-22T09:05:06Z</time>
      </trkpt>
      <trkpt lat="56.880852561759" lon="14.838712179381">
        <ele>182.6</ele>
        <time>2020-03-22T09:05:07Z</time>
      </trkpt>
      <trkpt lat="56.880843174031" lon="14.838715029227">
        <ele>182.6</ele>
        <time>2020-03-22T09:05:09Z</time>
      </trkpt>
      <trkpt lat="56.880798749961" lon="14.838688123328">
        <ele>182.8</ele>
        <time>2020-03-22T09:05:11Z</time>
      </trkpt>
      <trkpt lat="56.880762037239" lon="14.838587456709">
        <ele>182.8</ele>
        <time>2020-03-22T09:05:13Z</time>
      </trkpt>
      <trkpt lat="56.880766814922" lon="14.838434989948">
        <ele>182.8</ele>
        <time>2020-03-22T09:05:15Z</time>
      </trkpt>
      <trkpt lat="56.880829930629" lon="14.837835767917">
        <ele>181.4</ele>
        <time>2020-03-22T09:05:26Z</time>
      </trkpt>
      <trkpt lat="56.880855243967" lon="14.837553716982">
        <ele>180.2</ele>
        <time>2020-03-22T09:05:30Z</time>
      </trkpt>
      <trkpt lat="56.880877958916" lon="14.837249202555">
        <ele>179.2</ele>
        <time>2020-03-22T09:05:34Z</time>
      </trkpt>
      <trkpt lat="56.880896231458" lon="14.83710712935">
        <ele>179</ele>
        <time>2020-03-22T09:05:36Z</time>
      </trkpt>
      <trkpt lat="56.880858932003" lon="14.836986513809">
        <ele>179</ele>
        <time>2020-03-22T09:05:38Z</time>
      </trkpt>
      <trkpt lat="56.880738065005" lon="14.836864305707">
        <ele>178.8</ele>
        <time>2020-03-22T09:05:41Z</time>
      </trkpt>
      <trkpt lat="56.88063873949" lon="14.836675377681">
        <ele>178.4</ele>
        <time>2020-03-22T09:05:44Z</time>
      </trkpt>
      <trkpt lat="56.880481578865" lon="14.836512768821">
        <ele>178.2</ele>
        <time>2020-03-22T09:05:48Z</time>
      </trkpt>
      <trkpt lat="56.879976988485" lon="14.835973561194">
        <ele>178</ele>
        <time>2020-03-22T09:05:59Z</time>
      </trkpt>
      <trkpt lat="56.879773140677" lon="14.835858058612">
        <ele>178</ele>
        <time>2020-03-22T09:06:04Z</time>
      </trkpt>
      <trkpt lat="56.879701559251" lon="14.835950091874">
        <ele>178</ele>
        <time>2020-03-22T09:06:06Z</time>
      </trkpt>
      <trkpt lat="56.87957004724" lon="14.836373796919">
        <ele>178.2</ele>
        <time>2020-03-22T09:06:11Z</time>
      </trkpt>
      <trkpt lat="56.879468039517" lon="14.836807811701">
        <ele>179.2</ele>
        <time>2020-03-22T09:06:16Z</time>
      </trkpt>
      <trkpt lat="56.879418251031" lon="14.837250711297">
        <ele>180.2</ele>
        <time>2020-03-22T09:06:21Z</time>
      </trkpt>
      <trkpt lat="56.879384052879" lon="14.837673410514">
        <ele>181.4</ele>
        <time>2020-03-22T09:06:26Z</time>
      </trkpt>
      <trkpt lat="56.879335689316" lon="14.838182778577">
        <ele>182.4</ele>
        <time>2020-03-22T09:06:33Z</time>
      </trkpt>
      <trkpt lat="56.879299479508" lon="14.838547307408">
        <ele>182.6</ele>
        <time>2020-03-22T09:06:36Z</time>
      </trkpt>
      <trkpt lat="56.879240387113" lon="14.839258008709">
        <ele>183.4</ele>
        <time>2020-03-22T09:06:44Z</time>
      </trkpt>
      <trkpt lat="56.879147348023" lon="14.840030149337">
        <ele>184.6</ele>
        <time>2020-03-22T09:06:53Z</time>
      </trkpt>
      <trkpt lat="56.879094290596" lon="14.840515126071">
        <ele>185.6</ele>
        <time>2020-03-22T09:06:59Z</time>
      </trkpt>
      <trkpt lat="56.879065792136" lon="14.840809582218">
        <ele>186.6</ele>
        <time>2020-03-22T09:07:03Z</time>
      </trkpt>
      <trkpt lat="56.879016087469" lon="14.841213170703">
        <ele>188</ele>
        <time>2020-03-22T09:07:08Z</time>
      </trkpt>
      <trkpt lat="56.878981889317" lon="14.841573592403">
        <ele>189</ele>
        <time>2020-03-22T09:07:13Z</time>
      </trkpt>
      <trkpt lat="56.878926652596" lon="14.841889338576">
        <ele>190.2</ele>
        <time>2020-03-22T09:07:17Z</time>
      </trkpt>
      <trkpt lat="56.878916929592" lon="14.841965362409">
        <ele>190.4</ele>
        <time>2020-03-22T09:07:18Z</time>
      </trkpt>
      <trkpt lat="56.878854400618" lon="14.842417817371">
        <ele>191.2</ele>
        <time>2020-03-22T09:07:24Z</time>
      </trkpt>
      <trkpt lat="56.878810479462" lon="14.842638848074">
        <ele>192.4</ele>
        <time>2020-03-22T09:07:27Z</time>
      </trkpt>
      <trkpt lat="56.87873437181" lon="14.842996671385">
        <ele>193.4</ele>
        <time>2020-03-22T09:07:32Z</time>
      </trkpt>
      <trkpt lat="56.878628843689" lon="14.843410401969">
        <ele>194.6</ele>
        <time>2020-03-22T09:07:38Z</time>
      </trkpt>
      <trkpt lat="56.878534631133" lon="14.843694296922">
        <ele>195.6</ele>
        <time>2020-03-22T09:07:43Z</time>
      </trkpt>
      <trkpt lat="56.878370848807" lon="14.844209532315">
        <ele>196.2</ele>
        <time>2020-03-22T09:07:51Z</time>
      </trkpt>
      <trkpt lat="56.878201702065" lon="14.844666345865">
        <ele>196.6</ele>
        <time>2020-03-22T09:07:57Z</time>
      </trkpt>
      <trkpt lat="56.878173538881" lon="14.844735747997">
        <ele>196.8</ele>
        <time>2020-03-22T09:07:58Z</time>
      </trkpt>
      <trkpt lat="56.877998105714" lon="14.845162554345">
        <ele>197.8</ele>
        <time>2020-03-22T09:08:04Z</time>
      </trkpt>
      <trkpt lat="56.877760814125" lon="14.845815671993">
        <ele>198.8</ele>
        <time>2020-03-22T09:08:13Z</time>
      </trkpt>
      <trkpt lat="56.877568198063" lon="14.84643450767">
        <ele>199.8</ele>
        <time>2020-03-22T09:08:22Z</time>
      </trkpt>
      <trkpt lat="56.87743685369" lon="14.846914287626">
        <ele>201</ele>
        <time>2020-03-22T09:08:29Z</time>
      </trkpt>
      <trkpt lat="56.87727759759" lon="14.847435893263">
        <ele>202.2</ele>
        <time>2020-03-22T09:08:36Z</time>
      </trkpt>
      <trkpt lat="56.87710493045" lon="14.847953978502">
        <ele>203.4</ele>
        <time>2020-03-22T09:08:44Z</time>
      </trkpt>
      <trkpt lat="56.876939974658" lon="14.848498466726">
        <ele>204.4</ele>
        <time>2020-03-22T09:08:52Z</time>
      </trkpt>
      <trkpt lat="56.876699665585" lon="14.849359204037">
        <ele>205.6</ele>
        <time>2020-03-22T09:09:03Z</time>
      </trkpt>
      <trkpt lat="56.876421973238" lon="14.850248439808">
        <ele>206</ele>
        <time>2020-03-22T09:09:14Z</time>
      </trkpt>
      <trkpt lat="56.876273948884" lon="14.85063803052">
        <ele>206.6</ele>
        <time>2020-03-22T09:09:20Z</time>
      </trkpt>
      <trkpt lat="56.876147549832" lon="14.850923769491">
        <ele>206.6</ele>
        <time>2020-03-22T09:09:23Z</time>
      </trkpt>
      <trkpt lat="56.875743206976" lon="14.851560123339">
        <ele>207</ele>
        <time>2020-03-22T09:09:33Z</time>
      </trkpt>
      <trkpt lat="56.875255380396" lon="14.85208809922">
        <ele>207.2</ele>
        <time>2020-03-22T09:09:43Z</time>
      </trkpt>
      <trkpt lat="56.874854641757" lon="14.852468972756">
        <ele>207.6</ele>
        <time>2020-03-22T09:09:51Z</time>
      </trkpt>
      <trkpt lat="56.874292216267" lon="14.852983118502">
        <ele>208.2</ele>
        <time>2020-03-22T09:10:02Z</time>
      </trkpt>
      <trkpt lat="56.873802713307" lon="14.853491564556">
        <ele>208.4</ele>
        <time>2020-03-22T09:10:12Z</time>
      </trkpt>
      <trkpt lat="56.87330709156" lon="14.853996993126">
        <ele>207.4</ele>
        <time>2020-03-22T09:10:21Z</time>
      </trkpt>
      <trkpt lat="56.87290643674" lon="14.854419859981">
        <ele>206.6</ele>
        <time>2020-03-22T09:10:28Z</time>
      </trkpt>
      <trkpt lat="56.872800657162" lon="14.854557826055">
        <ele>206</ele>
        <time>2020-03-22T09:10:30Z</time>
      </trkpt>
      <trkpt lat="56.872705774054" lon="14.854697719966">
        <ele>205.6</ele>
        <time>2020-03-22T09:10:33Z</time>
      </trkpt>
      <trkpt lat="56.872267400684" lon="14.85538553868">
        <ele>204.6</ele>
        <time>2020-03-22T09:10:41Z</time>
      </trkpt>
      <trkpt lat="56.871842103078" lon="14.856138568576">
        <ele>204.2</ele>
        <time>2020-03-22T09:10:51Z</time>
      </trkpt>
      <trkpt lat="56.871580923074" lon="14.856669729579">
        <ele>205.6</ele>
        <time>2020-03-22T09:10:58Z</time>
      </trkpt>
      <trkpt lat="56.87145385347" lon="14.856895705603">
        <ele>206.8</ele>
        <time>2020-03-22T09:11:02Z</time>
      </trkpt>
      <trkpt lat="56.871194349846" lon="14.857309855282">
        <ele>207.8</ele>
        <time>2020-03-22T09:11:08Z</time>
      </trkpt>
      <trkpt lat="56.870858990027" lon="14.85793698904">
        <ele>208.8</ele>
        <time>2020-03-22T09:11:16Z</time>
      </trkpt>
      <trkpt lat="56.870478032672" lon="14.858664286503">
        <ele>209</ele>
        <time>2020-03-22T09:11:26Z</time>
      </trkpt>
      <trkpt lat="56.870070169418" lon="14.859438271149">
        <ele>209.4</ele>
        <time>2020-03-22T09:11:36Z</time>
      </trkpt>
      <trkpt lat="56.86968443438" lon="14.860215440917">
        <ele>208.8</ele>
        <time>2020-03-22T09:11:47Z</time>
      </trkpt>
      <trkpt lat="56.869407915499" lon="14.860841485028">
        <ele>207.8</ele>
        <time>2020-03-22T09:11:54Z</time>
      </trkpt>
      <trkpt lat="56.869347817276" lon="14.861034855461">
        <ele>207.6</ele>
        <time>2020-03-22T09:11:55Z</time>
      </trkpt>
      <trkpt lat="56.869141371079" lon="14.861652936767">
        <ele>206.6</ele>
        <time>2020-03-22T09:12:02Z</time>
      </trkpt>
      <trkpt lat="56.868968955396" lon="14.862170770549">
        <ele>205.6</ele>
        <time>2020-03-22T09:12:06Z</time>
      </trkpt>
      <trkpt lat="56.868704338813" lon="14.863057324112">
        <ele>205</ele>
        <time>2020-03-22T09:12:15Z</time>
      </trkpt>
      <trkpt lat="56.868430669778" lon="14.863926443323">
        <ele>205</ele>
        <time>2020-03-22T09:12:24Z</time>
      </trkpt>
      <trkpt lat="56.868093633579" lon="14.864975521927">
        <ele>205</ele>
        <time>2020-03-22T09:12:34Z</time>
      </trkpt>
      <trkpt lat="56.867995649168" lon="14.865281880372">
        <ele>204.4</ele>
        <time>2020-03-22T09:12:38Z</time>
      </trkpt>
      <trkpt lat="56.867710329292" lon="14.866163069519">
        <ele>203.6</ele>
        <time>2020-03-22T09:12:46Z</time>
      </trkpt>
      <trkpt lat="56.867409754358" lon="14.867044593942">
        <ele>203.6</ele>
        <time>2020-03-22T09:12:55Z</time>
      </trkpt>
      <trkpt lat="56.867379830975" lon="14.867137213937">
        <ele>203.4</ele>
        <time>2020-03-22T09:12:56Z</time>
      </trkpt>
      <trkpt lat="56.867263993117" lon="14.86741859432">
        <ele>203.2</ele>
        <time>2020-03-22T09:12:59Z</time>
      </trkpt>
      <trkpt lat="56.866881946115" lon="14.868157961719">
        <ele>202.2</ele>
        <time>2020-03-22T09:13:10Z</time>
      </trkpt>
      <trkpt lat="56.866906756539" lon="14.868242451271">
        <ele>202.2</ele>
        <time>2020-03-22T09:13:12Z</time>
      </trkpt>
      <trkpt lat="56.866980349621" lon="14.868288970816">
        <ele>202.4</ele>
        <time>2020-03-22T09:13:14Z</time>
      </trkpt>
      <trkpt lat="56.86734504609" lon="14.86840430576">
        <ele>203.2</ele>
        <time>2020-03-22T09:13:21Z</time>
      </trkpt>
      <trkpt lat="56.867587283" lon="14.868534644305">
        <ele>204.4</ele>
        <time>2020-03-22T09:13:27Z</time>
      </trkpt>
      <trkpt lat="56.867752490249" lon="14.868609159396">
        <ele>205.6</ele>
        <time>2020-03-22T09:13:31Z</time>
      </trkpt>
      <trkpt lat="56.868066308585" lon="14.868749723859">
        <ele>206.6</ele>
        <time>2020-03-22T09:13:36Z</time>
      </trkpt>
      <trkpt lat="56.868451875985" lon="14.868918619144">
        <ele>207.8</ele>
        <time>2020-03-22T09:13:44Z</time>
      </trkpt>
      <trkpt lat="56.868814979893" lon="14.869080808909">
        <ele>208.8</ele>
        <time>2020-03-22T09:13:52Z</time>
      </trkpt>
      <trkpt lat="56.868948000646" lon="14.869137470553">
        <ele>209.2</ele>
        <time>2020-03-22T09:13:55Z</time>
      </trkpt>
      <trkpt lat="56.868992592354" lon="14.869152977068">
        <ele>209.6</ele>
        <time>2020-03-22T09:13:57Z</time>
      </trkpt>
      <trkpt lat="56.869180095457" lon="14.869237382801">
        <ele>210</ele>
        <time>2020-03-22T09:14:00Z</time>
      </trkpt>
      <trkpt lat="56.869729193726" lon="14.869496132054">
        <ele>210.6</ele>
        <time>2020-03-22T09:14:11Z</time>
      </trkpt>
      <trkpt lat="56.870025996805" lon="14.869679947121">
        <ele>211</ele>
        <time>2020-03-22T09:14:17Z</time>
      </trkpt>
      <trkpt lat="56.870444421253" lon="14.869924028049">
        <ele>212</ele>
        <time>2020-03-22T09:14:27Z</time>
      </trkpt>
      <trkpt lat="56.870827306445" lon="14.870141789811">
        <ele>213</ele>
        <time>2020-03-22T09:14:34Z</time>
      </trkpt>
      <trkpt lat="56.871375147429" lon="14.870411519353">
        <ele>213.6</ele>
        <time>2020-03-22T09:14:45Z</time>
      </trkpt>
      <trkpt lat="56.871922988413" lon="14.870463319495">
        <ele>213.6</ele>
        <time>2020-03-22T09:14:55Z</time>
      </trkpt>
      <trkpt lat="56.872498405848" lon="14.870546384124">
        <ele>213.6</ele>
        <time>2020-03-22T09:15:05Z</time>
      </trkpt>
      <trkpt lat="56.872971647922" lon="14.870618217007">
        <ele>213.4</ele>
        <time>2020-03-22T09:15:13Z</time>
      </trkpt>
      <trkpt lat="56.873481686537" lon="14.870687200044">
        <ele>214.2</ele>
        <time>2020-03-22T09:15:23Z</time>
      </trkpt>
      <trkpt lat="56.874128350122" lon="14.870774958537">
        <ele>214.4</ele>
        <time>2020-03-22T09:15:33Z</time>
      </trkpt>
      <trkpt lat="56.874705360118" lon="14.870877720631">
        <ele>214.2</ele>
        <time>2020-03-22T09:15:43Z</time>
      </trkpt>
      <trkpt lat="56.874814827732" lon="14.870895741716">
        <ele>214.2</ele>
        <time>2020-03-22T09:15:45Z</time>
      </trkpt>
      <trkpt lat="56.875376834127" lon="14.870968161332">
        <ele>214.8</ele>
        <time>2020-03-22T09:15:56Z</time>
      </trkpt>
      <trkpt lat="56.875516392762" lon="14.870992049747">
        <ele>215.2</ele>
        <time>2020-03-22T09:16:00Z</time>
      </trkpt>
      <trkpt lat="56.875934565753" lon="14.871056590377">
        <ele>214.6</ele>
        <time>2020-03-22T09:16:10Z</time>
      </trkpt>
      <trkpt lat="56.876510402283" lon="14.871099002791">
        <ele>214.6</ele>
        <time>2020-03-22T09:16:22Z</time>
      </trkpt>
      <trkpt lat="56.877085149166" lon="14.87118961113">
        <ele>214.4</ele>
        <time>2020-03-22T09:16:33Z</time>
      </trkpt>
      <trkpt lat="56.877647658475" lon="14.871207799853">
        <ele>215.2</ele>
        <time>2020-03-22T09:16:43Z</time>
      </trkpt>
      <trkpt lat="56.877888219005" lon="14.871217355219">
        <ele>215.8</ele>
        <time>2020-03-22T09:16:48Z</time>
      </trkpt>
      <trkpt lat="56.878137748168" lon="14.871219953608">
        <ele>215.8</ele>
        <time>2020-03-22T09:16:52Z</time>
      </trkpt>
      <trkpt lat="56.87869413869" lon="14.871008226814">
        <ele>215</ele>
        <time>2020-03-22T09:17:04Z</time>
      </trkpt>
      <trkpt lat="56.878917767782" lon="14.870915523">
        <ele>214.8</ele>
        <time>2020-03-22T09:17:08Z</time>
      </trkpt>
      <trkpt lat="56.879462591282" lon="14.870691223356">
        <ele>215</ele>
        <time>2020-03-22T09:17:17Z</time>
      </trkpt>
      <trkpt lat="56.880003894384" lon="14.870421493814">
        <ele>215</ele>
        <time>2020-03-22T09:17:26Z</time>
      </trkpt>
      <trkpt lat="56.880170694194" lon="14.87031370258">
        <ele>214</ele>
        <time>2020-03-22T09:17:29Z</time>
      </trkpt>
      <trkpt lat="56.880821632548" lon="14.87002620341">
        <ele>213.8</ele>
        <time>2020-03-22T09:17:38Z</time>
      </trkpt>
      <trkpt lat="56.881259503004" lon="14.869837443022">
        <ele>213</ele>
        <time>2020-03-22T09:17:46Z</time>
      </trkpt>
      <trkpt lat="56.88179879445" lon="14.869616663776">
        <ele>213.2</ele>
        <time>2020-03-22T09:17:55Z</time>
      </trkpt>
      <trkpt lat="56.882337331525" lon="14.869416671642">
        <ele>212.8</ele>
        <time>2020-03-22T09:18:04Z</time>
      </trkpt>
      <trkpt lat="56.882878466989" lon="14.869221624829">
        <ele>212</ele>
        <time>2020-03-22T09:18:13Z</time>
      </trkpt>
      <trkpt lat="56.883017019796" lon="14.869141661503">
        <ele>211.8</ele>
        <time>2020-03-22T09:18:16Z</time>
      </trkpt>
      <trkpt lat="56.883320696033" lon="14.869009311302">
        <ele>211</ele>
        <time>2020-03-22T09:18:23Z</time>
      </trkpt>
      <trkpt lat="56.883834590322" lon="14.868876625825">
        <ele>210</ele>
        <time>2020-03-22T09:18:36Z</time>
      </trkpt>
      <trkpt lat="56.883939615529" lon="14.868777887043">
        <ele>209.4</ele>
        <time>2020-03-22T09:18:50Z</time>
      </trkpt>
      <trkpt lat="56.883992002404" lon="14.86874628728">
        <ele>209.4</ele>
        <time>2020-03-22T09:18:52Z</time>
      </trkpt>
      <trkpt lat="56.884526851443" lon="14.868632209621">
        <ele>209.6</ele>
        <time>2020-03-22T09:19:09Z</time>
      </trkpt>
      <trkpt lat="56.885027837606" lon="14.868507067854">
        <ele>209.2</ele>
        <time>2020-03-22T09:19:21Z</time>
      </trkpt>
      <trkpt lat="56.88559830972" lon="14.868326186452">
        <ele>209.2</ele>
        <time>2020-03-22T09:19:32Z</time>
      </trkpt>
      <trkpt lat="56.885807773401" lon="14.868242786547">
        <ele>209</ele>
        <time>2020-03-22T09:19:36Z</time>
      </trkpt>
      <trkpt lat="56.886364666837" lon="14.868126194318">
        <ele>209</ele>
        <time>2020-03-22T09:19:48Z</time>
      </trkpt>
      <trkpt lat="56.886537669253" lon="14.869108133903">
        <ele>209.2</ele>
        <time>2020-03-22T09:19:59Z</time>
      </trkpt>
      <trkpt lat="56.886686028883" lon="14.869916065244">
        <ele>208.8</ele>
        <time>2020-03-22T09:20:07Z</time>
      </trkpt>
      <trkpt lat="56.8867147788" lon="14.870028131247">
        <ele>208.8</ele>
        <time>2020-03-22T09:20:08Z</time>
      </trkpt>
      <trkpt lat="56.886935893322" lon="14.870938237949">
        <ele>208.2</ele>
        <time>2020-03-22T09:20:15Z</time>
      </trkpt>
      <trkpt lat="56.886986519998" lon="14.871175278081">
        <ele>207.6</ele>
        <time>2020-03-22T09:20:18Z</time>
      </trkpt>
      <trkpt lat="56.88718081244" lon="14.872066860784">
        <ele>206.6</ele>
        <time>2020-03-22T09:20:24Z</time>
      </trkpt>
      <trkpt lat="56.887439980788" lon="14.873189197194">
        <ele>205.6</ele>
        <time>2020-03-22T09:20:33Z</time>
      </trkpt>
      <trkpt lat="56.887566296021" lon="14.873731422305">
        <ele>204.4</ele>
        <time>2020-03-22T09:20:38Z</time>
      </trkpt>
      <trkpt lat="56.887742148283" lon="14.874430724222">
        <ele>203.4</ele>
        <time>2020-03-22T09:20:42Z</time>
      </trkpt>
      <trkpt lat="56.887956222009" lon="14.875364970796">
        <ele>202.2</ele>
        <time>2020-03-22T09:20:49Z</time>
      </trkpt>
      <trkpt lat="56.888154202487" lon="14.876396866505">
        <ele>202</ele>
        <time>2020-03-22T09:20:57Z</time>
      </trkpt>
      <trkpt lat="56.888412532645" lon="14.877416692278">
        <ele>202.4</ele>
        <time>2020-03-22T09:21:05Z</time>
      </trkpt>
      <trkpt lat="56.888653931365" lon="14.878444480856">
        <ele>202.4</ele>
        <time>2020-03-22T09:21:13Z</time>
      </trkpt>
      <trkpt lat="56.888856438069" lon="14.87937705105">
        <ele>202.2</ele>
        <time>2020-03-22T09:21:20Z</time>
      </trkpt>
      <trkpt lat="56.88896531895" lon="14.879914498478">
        <ele>201.2</ele>
        <time>2020-03-22T09:21:24Z</time>
      </trkpt>
      <trkpt lat="56.889111331648" lon="14.880864335386">
        <ele>201</ele>
        <time>2020-03-22T09:21:31Z</time>
      </trkpt>
      <trkpt lat="56.889201101797" lon="14.881848286627">
        <ele>200.4</ele>
        <time>2020-03-22T09:21:39Z</time>
      </trkpt>
      <trkpt lat="56.889277377087" lon="14.883044551395">
        <ele>200.2</ele>
        <time>2020-03-22T09:21:47Z</time>
      </trkpt>
      <trkpt lat="56.889295733448" lon="14.884080470416">
        <ele>201.6</ele>
        <time>2020-03-22T09:21:55Z</time>
      </trkpt>
      <trkpt lat="56.889295733448" lon="14.884080470416">
        <ele>201.8</ele>
        <time>2020-03-22T09:21:56Z</time>
      </trkpt>
      <trkpt lat="56.889272850861" lon="14.884851940492">
        <ele>202.2</ele>
        <time>2020-03-22T09:22:01Z</time>
      </trkpt>
      <trkpt lat="56.889300762588" lon="14.885701613695">
        <ele>203.4</ele>
        <time>2020-03-22T09:22:08Z</time>
      </trkpt>
      <trkpt lat="56.889329847781" lon="14.886501079317">
        <ele>204.4</ele>
        <time>2020-03-22T09:22:15Z</time>
      </trkpt>
      <trkpt lat="56.889329344867" lon="14.886813808006">
        <ele>205.2</ele>
        <time>2020-03-22T09:22:18Z</time>
      </trkpt>
      <trkpt lat="56.889330685971" lon="14.886924532905">
        <ele>205.4</ele>
        <time>2020-03-22T09:22:19Z</time>
      </trkpt>
      <trkpt lat="56.889357340413" lon="14.888031530438">
        <ele>205.4</ele>
        <time>2020-03-22T09:22:27Z</time>
      </trkpt>
      <trkpt lat="56.889365470856" lon="14.888504185779">
        <ele>204.2</ele>
        <time>2020-03-22T09:22:30Z</time>
      </trkpt>
      <trkpt lat="56.889370080901" lon="14.888984971563">
        <ele>202.6</ele>
        <time>2020-03-22T09:22:34Z</time>
      </trkpt>
      <trkpt lat="56.889362118096" lon="14.889614619891">
        <ele>201.6</ele>
        <time>2020-03-22T09:22:37Z</time>
      </trkpt>
      <trkpt lat="56.889333368179" lon="14.890211746447">
        <ele>200.2</ele>
        <time>2020-03-22T09:22:41Z</time>
      </trkpt>
      <trkpt lat="56.88929556581" lon="14.890555488166">
        <ele>199.6</ele>
        <time>2020-03-22T09:22:45Z</time>
      </trkpt>
      <trkpt lat="56.889208477869" lon="14.890995537916">
        <ele>199.8</ele>
        <time>2020-03-22T09:22:50Z</time>
      </trkpt>
      <trkpt lat="56.889104709947" lon="14.891334585771">
        <ele>200.6</ele>
        <time>2020-03-22T09:22:55Z</time>
      </trkpt>
      <trkpt lat="56.889134214235" lon="14.891470959284">
        <ele>200.8</ele>
        <time>2020-03-22T09:22:57Z</time>
      </trkpt>
      <trkpt lat="56.889207639679" lon="14.891552096076">
        <ele>201</ele>
        <time>2020-03-22T09:22:59Z</time>
      </trkpt>
      <trkpt lat="56.889344935201" lon="14.891581516545">
        <ele>201.2</ele>
        <time>2020-03-22T09:23:01Z</time>
      </trkpt>
      <trkpt lat="56.889897134773" lon="14.891511276223">
        <ele>199.6</ele>
        <time>2020-03-22T09:23:16Z</time>
      </trkpt>
      <trkpt lat="56.890370293028" lon="14.891445981222">
        <ele>199.2</ele>
        <time>2020-03-22T09:23:25Z</time>
      </trkpt>
      <trkpt lat="56.890943782626" lon="14.891335172504">
        <ele>198.6</ele>
        <time>2020-03-22T09:23:35Z</time>
      </trkpt>
      <trkpt lat="56.891490701601" lon="14.891178682431">
        <ele>198.2</ele>
        <time>2020-03-22T09:23:45Z</time>
      </trkpt>
      <trkpt lat="56.891736458909" lon="14.891170300531">
        <ele>197.2</ele>
        <time>2020-03-22T09:23:49Z</time>
      </trkpt>
      <trkpt lat="56.892144154525" lon="14.891198212258">
        <ele>196</ele>
        <time>2020-03-22T09:23:55Z</time>
      </trkpt>
      <trkpt lat="56.892570206502" lon="14.891168288875">
        <ele>195</ele>
        <time>2020-03-22T09:24:01Z</time>
      </trkpt>
      <trkpt lat="56.893150904534" lon="14.891189746539">
        <ele>194.6</ele>
        <time>2020-03-22T09:24:07Z</time>
      </trkpt>
      <trkpt lat="56.893331199203" lon="14.891169127065">
        <ele>194</ele>
        <time>2020-03-22T09:24:09Z</time>
      </trkpt>
      <trkpt lat="56.893842830379" lon="14.891160745165">
        <ele>192.8</ele>
        <time>2020-03-22T09:24:16Z</time>
      </trkpt>
      <trkpt lat="56.893932181433" lon="14.891180191173">
        <ele>192.6</ele>
        <time>2020-03-22T09:24:17Z</time>
      </trkpt>
      <trkpt lat="56.894362591998" lon="14.891423769187">
        <ele>192.8</ele>
        <time>2020-03-22T09:24:23Z</time>
      </trkpt>
      <trkpt lat="56.894829044733" lon="14.891937831114">
        <ele>192</ele>
        <time>2020-03-22T09:24:31Z</time>
      </trkpt>
      <trkpt lat="56.894889394413" lon="14.892001701192">
        <ele>191.8</ele>
        <time>2020-03-22T09:24:32Z</time>
      </trkpt>
      <trkpt lat="56.895182677094" lon="14.892284590317">
        <ele>190.8</ele>
        <time>2020-03-22T09:24:37Z</time>
      </trkpt>
      <trkpt lat="56.895355176596" lon="14.892478379845">
        <ele>190.4</ele>
        <time>2020-03-22T09:24:40Z</time>
      </trkpt>
      <trkpt lat="56.895426422746" lon="14.892664374206">
        <ele>190.2</ele>
        <time>2020-03-22T09:24:42Z</time>
      </trkpt>
      <trkpt lat="56.895517953094" lon="14.89353156558">
        <ele>189.6</ele>
        <time>2020-03-22T09:24:49Z</time>
      </trkpt>
      <trkpt lat="56.895523066053" lon="14.893635752597">
        <ele>189.2</ele>
        <time>2020-03-22T09:24:50Z</time>
      </trkpt>
      <trkpt lat="56.89552080294" lon="14.893739017605">
        <ele>188.6</ele>
        <time>2020-03-22T09:24:51Z</time>
      </trkpt>
      <trkpt lat="56.895524910071" lon="14.894011596993">
        <ele>187.2</ele>
        <time>2020-03-22T09:24:54Z</time>
      </trkpt>
      <trkpt lat="56.895509738832" lon="14.894196669345">
        <ele>185.8</ele>
        <time>2020-03-22T09:24:57Z</time>
      </trkpt>
      <trkpt lat="56.895529268659" lon="14.89432784608">
        <ele>184.6</ele>
        <time>2020-03-22T09:24:59Z</time>
      </trkpt>
      <trkpt lat="56.895520551483" lon="14.894624397702">
        <ele>183</ele>
        <time>2020-03-22T09:25:03Z</time>
      </trkpt>
      <trkpt lat="56.895491801566" lon="14.894745348519">
        <ele>181.4</ele>
        <time>2020-03-22T09:25:05Z</time>
      </trkpt>
      <trkpt lat="56.89542860204" lon="14.894824725112">
        <ele>180.8</ele>
        <time>2020-03-22T09:25:06Z</time>
      </trkpt>
      <trkpt lat="56.895327013412" lon="14.894969983439">
        <ele>180.2</ele>
        <time>2020-03-22T09:25:08Z</time>
      </trkpt>
      <trkpt lat="56.895270938501" lon="14.895037876829">
        <ele>180.2</ele>
        <time>2020-03-22T09:25:09Z</time>
      </trkpt>
      <trkpt lat="56.894784788301" lon="14.895607929848">
        <ele>179.2</ele>
        <time>2020-03-22T09:25:18Z</time>
      </trkpt>
      <trkpt lat="56.89465579086" lon="14.895744638637">
        <ele>178.8</ele>
        <time>2020-03-22T09:25:20Z</time>
      </trkpt>
      <trkpt lat="56.89439427558" lon="14.896033227454">
        <ele>177.8</ele>
        <time>2020-03-22T09:25:24Z</time>
      </trkpt>
      <trkpt lat="56.894193361437" lon="14.896186783862">
        <ele>177.8</ele>
        <time>2020-03-22T09:25:26Z</time>
      </trkpt>
      <trkpt lat="56.893901838955" lon="14.896396079905">
        <ele>177</ele>
        <time>2020-03-22T09:25:30Z</time>
      </trkpt>
      <trkpt lat="56.893681311166" lon="14.89657503347">
        <ele>176.8</ele>
        <time>2020-03-22T09:25:33Z</time>
      </trkpt>
      <trkpt lat="56.893609143007" lon="14.896618367893">
        <ele>176.8</ele>
        <time>2020-03-22T09:25:35Z</time>
      </trkpt>
      <trkpt lat="56.893443935758" lon="14.896747952067">
        <ele>177</ele>
        <time>2020-03-22T09:25:37Z</time>
      </trkpt>
      <trkpt lat="56.893197172622" lon="14.896970156236">
        <ele>177.8</ele>
        <time>2020-03-22T09:25:39Z</time>
      </trkpt>
      <trkpt lat="56.893068342819" lon="14.897101668247">
        <ele>178</ele>
        <time>2020-03-22T09:25:40Z</time>
      </trkpt>
      <trkpt lat="56.892851754523" lon="14.897315406697">
        <ele>177.8</ele>
        <time>2020-03-22T09:25:43Z</time>
      </trkpt>
      <trkpt lat="56.892686295817" lon="14.897492264787">
        <ele>177.6</ele>
        <time>2020-03-22T09:25:45Z</time>
      </trkpt>
      <trkpt lat="56.892504743863" lon="14.897786972391">
        <ele>177.4</ele>
        <time>2020-03-22T09:25:49Z</time>
      </trkpt>
      <trkpt lat="56.892416314818" lon="14.898081428538">
        <ele>177</ele>
        <time>2020-03-22T09:25:51Z</time>
      </trkpt>
      <trkpt lat="56.892416314818" lon="14.898081428538">
        <ele>176.6</ele>
        <time>2020-03-22T09:25:52Z</time>
      </trkpt>
      <trkpt lat="56.892437688663" lon="14.898302375422">
        <ele>176.2</ele>
        <time>2020-03-22T09:25:53Z</time>
      </trkpt>
      <trkpt lat="56.892477083593" lon="14.898571182955">
        <ele>175.2</ele>
        <time>2020-03-22T09:25:55Z</time>
      </trkpt>
      <trkpt lat="56.89252930283" lon="14.898887012947">
        <ele>173.6</ele>
        <time>2020-03-22T09:25:57Z</time>
      </trkpt>
      <trkpt lat="56.892553275064" lon="14.899155317566">
        <ele>171.8</ele>
        <time>2020-03-22T09:25:59Z</time>
      </trkpt>
      <trkpt lat="56.892582024981" lon="14.899301162626">
        <ele>170.6</ele>
        <time>2020-03-22T09:26:01Z</time>
      </trkpt>
      <trkpt lat="56.89271370463" lon="14.899869539265">
        <ele>170.2</ele>
        <time>2020-03-22T09:26:06Z</time>
      </trkpt>
      <trkpt lat="56.892734827018" lon="14.900094509461">
        <ele>172</ele>
        <time>2020-03-22T09:26:09Z</time>
      </trkpt>
      <trkpt lat="56.892716386838" lon="14.900195092261">
        <ele>173.4</ele>
        <time>2020-03-22T09:26:11Z</time>
      </trkpt>
      <trkpt lat="56.892696689373" lon="14.900308164092">
        <ele>174.6</ele>
        <time>2020-03-22T09:26:13Z</time>
      </trkpt>
      <trkpt lat="56.892735581389" lon="14.900513855918">
        <ele>176</ele>
        <time>2020-03-22T09:26:17Z</time>
      </trkpt>
      <trkpt lat="56.89274555585" lon="14.900690714008">
        <ele>177.4</ele>
        <time>2020-03-22T09:26:20Z</time>
      </trkpt>
      <trkpt lat="56.892824513348" lon="14.900931442176">
        <ele>178.4</ele>
        <time>2020-03-22T09:26:24Z</time>
      </trkpt>
      <trkpt lat="56.892855777835" lon="14.900995144616">
        <ele>178.4</ele>
        <time>2020-03-22T09:26:25Z</time>
      </trkpt>
      <trkpt lat="56.8931856056" lon="14.901859234687">
        <ele>178</ele>
        <time>2020-03-22T09:26:35Z</time>
      </trkpt>
      <trkpt lat="56.89322080958" lon="14.901976078373">
        <ele>177.6</ele>
        <time>2020-03-22T09:26:36Z</time>
      </trkpt>
      <trkpt lat="56.89325349899" lon="14.902097280647">
        <ele>177</ele>
        <time>2020-03-22T09:26:37Z</time>
      </trkpt>
      <trkpt lat="56.893293983567" lon="14.902213872876">
        <ele>176.4</ele>
        <time>2020-03-22T09:26:38Z</time>
      </trkpt>
      <trkpt lat="56.893337569447" lon="14.902331554752">
        <ele>175.8</ele>
        <time>2020-03-22T09:26:39Z</time>
      </trkpt>
      <trkpt lat="56.893418287144" lon="14.90255300455">
        <ele>174.4</ele>
        <time>2020-03-22T09:26:41Z</time>
      </trkpt>
      <trkpt lat="56.893477463358" lon="14.902783842076">
        <ele>173.6</ele>
        <time>2020-03-22T09:26:43Z</time>
      </trkpt>
      <trkpt lat="56.893533538269" lon="14.903245936223">
        <ele>173.6</ele>
        <time>2020-03-22T09:26:46Z</time>
      </trkpt>
      <trkpt lat="56.893536891029" lon="14.903455064628">
        <ele>174.2</ele>
        <time>2020-03-22T09:26:48Z</time>
      </trkpt>
      <trkpt lat="56.893538567409" lon="14.903704090877">
        <ele>175.6</ele>
        <time>2020-03-22T09:26:52Z</time>
      </trkpt>
      <trkpt lat="56.893516523012" lon="14.903859323665">
        <ele>176.8</ele>
        <time>2020-03-22T09:26:54Z</time>
      </trkpt>
      <trkpt lat="56.893505291266" lon="14.90398882402">
        <ele>178</ele>
        <time>2020-03-22T09:26:56Z</time>
      </trkpt>
      <trkpt lat="56.893486348172" lon="14.904187558869">
        <ele>179.2</ele>
        <time>2020-03-22T09:26:59Z</time>
      </trkpt>
      <trkpt lat="56.893468578544" lon="14.90484629239">
        <ele>180.4</ele>
        <time>2020-03-22T09:27:07Z</time>
      </trkpt>
      <trkpt lat="56.893474445874" lon="14.905458338728">
        <ele>181</ele>
        <time>2020-03-22T09:27:14Z</time>
      </trkpt>
      <trkpt lat="56.893454413133" lon="14.905636537922">
        <ele>180.8</ele>
        <time>2020-03-22T09:27:16Z</time>
      </trkpt>
      <trkpt lat="56.893439828627" lon="14.905803924465">
        <ele>180.2</ele>
        <time>2020-03-22T09:27:19Z</time>
      </trkpt>
      <trkpt lat="56.893394566367" lon="14.905979944365">
        <ele>179.8</ele>
        <time>2020-03-22T09:27:21Z</time>
      </trkpt>
      <trkpt lat="56.89325349899" lon="14.906363919204">
        <ele>179.4</ele>
        <time>2020-03-22T09:27:26Z</time>
      </trkpt>
      <trkpt lat="56.893190886197" lon="14.90649752669">
        <ele>179.2</ele>
        <time>2020-03-22T09:27:28Z</time>
      </trkpt>
      <trkpt lat="56.893072366131" lon="14.906653849125">
        <ele>178.4</ele>
        <time>2020-03-22T09:27:31Z</time>
      </trkpt>
      <trkpt lat="56.893074377787" lon="14.906735824107">
        <ele>178</ele>
        <time>2020-03-22T09:27:32Z</time>
      </trkpt>
      <trkpt lat="56.892947140545" lon="14.906829282292">
        <ele>176.8</ele>
        <time>2020-03-22T09:27:34Z</time>
      </trkpt>
      <trkpt lat="56.892804396788" lon="14.906905976677">
        <ele>175.8</ele>
        <time>2020-03-22T09:27:36Z</time>
      </trkpt>
      <trkpt lat="56.892586718845" lon="14.906976216999">
        <ele>174.4</ele>
        <time>2020-03-22T09:27:39Z</time>
      </trkpt>
      <trkpt lat="56.892389073643" lon="14.906974875895">
        <ele>173.6</ele>
        <time>2020-03-22T09:27:42Z</time>
      </trkpt>
      <trkpt lat="56.892080452085" lon="14.906959872294">
        <ele>174.6</ele>
        <time>2020-03-22T09:27:49Z</time>
      </trkpt>
      <trkpt lat="56.891912562628" lon="14.906928104893">
        <ele>175.6</ele>
        <time>2020-03-22T09:27:54Z</time>
      </trkpt>
      <trkpt lat="56.891863025599" lon="14.906965320529">
        <ele>175.6</ele>
        <time>2020-03-22T09:27:55Z</time>
      </trkpt>
      <trkpt lat="56.891824217402" lon="14.907088115364">
        <ele>175.6</ele>
        <time>2020-03-22T09:27:57Z</time>
      </trkpt>
      <trkpt lat="56.891682144197" lon="14.907740646279">
        <ele>174.4</ele>
        <time>2020-03-22T09:28:01Z</time>
      </trkpt>
      <trkpt lat="56.891575107334" lon="14.908137613063">
        <ele>173.4</ele>
        <time>2020-03-22T09:28:03Z</time>
      </trkpt>
      <trkpt lat="56.89152431302" lon="14.908497867125">
        <ele>172.2</ele>
        <time>2020-03-22T09:28:05Z</time>
      </trkpt>
      <trkpt lat="56.89147821257" lon="14.908844291052">
        <ele>171</ele>
        <time>2020-03-22T09:28:07Z</time>
      </trkpt>
      <trkpt lat="56.89115550942" lon="14.909762192921">
        <ele>170</ele>
        <time>2020-03-22T09:28:13Z</time>
      </trkpt>
      <trkpt lat="56.890733648393" lon="14.910638520566">
        <ele>169.4</ele>
        <time>2020-03-22T09:28:21Z</time>
      </trkpt>
      <trkpt lat="56.890505157799" lon="14.911560697204">
        <ele>169.4</ele>
        <time>2020-03-22T09:28:30Z</time>
      </trkpt>
      <trkpt lat="56.89021589843" lon="14.912461416178">
        <ele>170.8</ele>
        <time>2020-03-22T09:28:39Z</time>
      </trkpt>
      <trkpt lat="56.89021589843" lon="14.912461416178">
        <ele>171</ele>
        <time>2020-03-22T09:28:40Z</time>
      </trkpt>
      <trkpt lat="56.890174743301" lon="14.912656043896">
        <ele>171</ele>
        <time>2020-03-22T09:28:41Z</time>
      </trkpt>
      <trkpt lat="56.890151860714" lon="14.913067762824">
        <ele>171</ele>
        <time>2020-03-22T09:28:45Z</time>
      </trkpt>
      <trkpt lat="56.89016476884" lon="14.913286530414">
        <ele>172</ele>
        <time>2020-03-22T09:28:48Z</time>
      </trkpt>
      <trkpt lat="56.890169714161" lon="14.913412091276">
        <ele>173.6</ele>
        <time>2020-03-22T09:28:51Z</time>
      </trkpt>
      <trkpt lat="56.89018823816" lon="14.91358023219">
        <ele>174.6</ele>
        <time>2020-03-22T09:28:54Z</time>
      </trkpt>
      <trkpt lat="56.890207684168" lon="14.913748289285">
        <ele>175.6</ele>
        <time>2020-03-22T09:28:57Z</time>
      </trkpt>
      <trkpt lat="56.890229896203" lon="14.913906958652">
        <ele>176.8</ele>
        <time>2020-03-22T09:29:00Z</time>
      </trkpt>
      <trkpt lat="56.890318828162" lon="14.914206108663">
        <ele>177.8</ele>
        <time>2020-03-22T09:29:05Z</time>
      </trkpt>
      <trkpt lat="56.890438605513" lon="14.914480196793">
        <ele>178</ele>
        <time>2020-03-22T09:29:09Z</time>
      </trkpt>
      <trkpt lat="56.890573470284" lon="14.914681446212">
        <ele>178.2</ele>
        <time>2020-03-22T09:29:12Z</time>
      </trkpt>
      <trkpt lat="56.890645806081" lon="14.91480482778">
        <ele>178</ele>
        <time>2020-03-22T09:29:14Z</time>
      </trkpt>
      <trkpt lat="56.890934059622" lon="14.915446462225">
        <ele>177.6</ele>
        <time>2020-03-22T09:29:23Z</time>
      </trkpt>
      <trkpt lat="56.891240669524" lon="14.91631105521">
        <ele>177.6</ele>
        <time>2020-03-22T09:29:35Z</time>
      </trkpt>
      <trkpt lat="56.891796640951" lon="14.91725318077">
        <ele>179.4</ele>
        <time>2020-03-22T09:29:52Z</time>
      </trkpt>
      <trkpt lat="56.891830671465" lon="14.917324762196">
        <ele>179.8</ele>
        <time>2020-03-22T09:29:56Z</time>
      </trkpt>
      <trkpt lat="56.891836035881" lon="14.917346638955">
        <ele>179.8</ele>
        <time>2020-03-22T09:29:57Z</time>
      </trkpt>
      <trkpt lat="56.891876771915" lon="14.917442444072">
        <ele>180.2</ele>
        <time>2020-03-22T09:30:09Z</time>
      </trkpt>
      <trkpt lat="56.891882303969" lon="14.917481084631">
        <ele>180.4</ele>
        <time>2020-03-22T09:30:11Z</time>
      </trkpt>
      <trkpt lat="56.891813069475" lon="14.917614524479">
        <ele>180.8</ele>
        <time>2020-03-22T09:30:17Z</time>
      </trkpt>
      <trkpt lat="56.891659177791" lon="14.918031272547">
        <ele>180.8</ele>
        <time>2020-03-22T09:30:31Z</time>
      </trkpt>
      <trkpt lat="56.891722209679" lon="14.918431843548">
        <ele>182</ele>
        <time>2020-03-22T09:30:40Z</time>
      </trkpt>
      <trkpt lat="56.89189814576" lon="14.919106670317">
        <ele>182</ele>
        <time>2020-03-22T09:30:52Z</time>
      </trkpt>
      <trkpt lat="56.892180951066" lon="14.919317391283">
        <ele>183</ele>
        <time>2020-03-22T09:31:08Z</time>
      </trkpt>
      <trkpt lat="56.892317324579" lon="14.919280175647">
        <ele>184.4</ele>
        <time>2020-03-22T09:31:14Z</time>
      </trkpt>
      <trkpt lat="56.89242536727" lon="14.919262154562">
        <ele>184.8</ele>
        <time>2020-03-22T09:31:19Z</time>
      </trkpt>
      <trkpt lat="56.892455458291" lon="14.919288725185">
        <ele>184.6</ele>
        <time>2020-03-22T09:31:22Z</time>
      </trkpt>
      <trkpt lat="56.892637345521" lon="14.919219406872">
        <ele>184.2</ele>
        <time>2020-03-22T09:31:29Z</time>
      </trkpt>
      <trkpt lat="56.892770785369" lon="14.919079932056">
        <ele>185.4</ele>
        <time>2020-03-22T09:31:36Z</time>
      </trkpt>
      <trkpt lat="56.892899196077" lon="14.919002734757">
        <ele>186.6</ele>
        <time>2020-03-22T09:31:41Z</time>
      </trkpt>
      <trkpt lat="56.893030456631" lon="14.918920759775">
        <ele>187.8</ele>
        <time>2020-03-22T09:31:46Z</time>
      </trkpt>
      <trkpt lat="56.893195160966" lon="14.918951269891">
        <ele>188.8</ele>
        <time>2020-03-22T09:31:53Z</time>
      </trkpt>
      <trkpt lat="56.893355506713" lon="14.918956550488">
        <ele>190</ele>
        <time>2020-03-22T09:32:01Z</time>
      </trkpt>
      <trkpt lat="56.893526162197" lon="14.919032825778">
        <ele>191</ele>
        <time>2020-03-22T09:32:10Z</time>
      </trkpt>
      <trkpt lat="56.893712743291" lon="14.919107173231">
        <ele>192</ele>
        <time>2020-03-22T09:32:23Z</time>
      </trkpt>
      <trkpt lat="56.893727495435" lon="14.919103736652">
        <ele>192.2</ele>
        <time>2020-03-22T09:32:24Z</time>
      </trkpt>
      <trkpt lat="56.89376479489" lon="14.919028383371">
        <ele>192.2</ele>
        <time>2020-03-22T09:32:33Z</time>
      </trkpt>
      <trkpt lat="56.893771751867" lon="14.918905756174">
        <ele>192.4</ele>
        <time>2020-03-22T09:32:37Z</time>
      </trkpt>
      <trkpt lat="56.893866970251" lon="14.918717247243">
        <ele>193</ele>
        <time>2020-03-22T09:32:43Z</time>
      </trkpt>
      <trkpt lat="56.893892786503" lon="14.918704758212">
        <ele>193.2</ele>
        <time>2020-03-22T09:32:44Z</time>
      </trkpt>
      <trkpt lat="56.894433083777" lon="14.918943558543">
        <ele>194.4</ele>
        <time>2020-03-22T09:33:01Z</time>
      </trkpt>
      <trkpt lat="56.894973045775" lon="14.919271709928">
        <ele>195.2</ele>
        <time>2020-03-22T09:33:19Z</time>
      </trkpt>
      <trkpt lat="56.89501369799" lon="14.919281516751">
        <ele>195.4</ele>
        <time>2020-03-22T09:33:20Z</time>
      </trkpt>
      <trkpt lat="56.895168344045" lon="14.919294257239">
        <ele>196.4</ele>
        <time>2020-03-22T09:33:24Z</time>
      </trkpt>
      <trkpt lat="56.895289294862" lon="14.919259388535">
        <ele>197.8</ele>
        <time>2020-03-22T09:33:28Z</time>
      </trkpt>
      <trkpt lat="56.895360876288" lon="14.919244887848">
        <ele>199</ele>
        <time>2020-03-22T09:33:31Z</time>
      </trkpt>
      <trkpt lat="56.895428937316" lon="14.919256873965">
        <ele>200.4</ele>
        <time>2020-03-22T09:33:34Z</time>
      </trkpt>
      <trkpt lat="56.895519378017" lon="14.9192958498">
        <ele>201.6</ele>
        <time>2020-03-22T09:33:37Z</time>
      </trkpt>
      <trkpt lat="56.895622726844" lon="14.919347314666">
        <ele>203</ele>
        <time>2020-03-22T09:33:41Z</time>
      </trkpt>
      <trkpt lat="56.895727332956" lon="14.91936793414">
        <ele>204.2</ele>
        <time>2020-03-22T09:33:45Z</time>
      </trkpt>
      <trkpt lat="56.895839063683" lon="14.919357205308">
        <ele>205.4</ele>
        <time>2020-03-22T09:33:49Z</time>
      </trkpt>
      <trkpt lat="56.895973090264" lon="14.91933524473">
        <ele>206.4</ele>
        <time>2020-03-22T09:33:53Z</time>
      </trkpt>
      <trkpt lat="56.89613435802" lon="14.91930758446">
        <ele>207.8</ele>
        <time>2020-03-22T09:33:57Z</time>
      </trkpt>
      <trkpt lat="56.896189846198" lon="14.919299370198">
        <ele>209</ele>
        <time>2020-03-22T09:34:00Z</time>
      </trkpt>
      <trkpt lat="56.896331835584" lon="14.919286881167">
        <ele>210.2</ele>
        <time>2020-03-22T09:34:04Z</time>
      </trkpt>
      <trkpt lat="56.896429819995" lon="14.919270117367">
        <ele>211.2</ele>
        <time>2020-03-22T09:34:07Z</time>
      </trkpt>
      <trkpt lat="56.89660374442" lon="14.919261986924">
        <ele>212.2</ele>
        <time>2020-03-22T09:34:11Z</time>
      </trkpt>
      <trkpt lat="56.89683257029" lon="14.919241702726">
        <ele>213.4</ele>
        <time>2020-03-22T09:34:17Z</time>
      </trkpt>
      <trkpt lat="56.897270440746" lon="14.91915000474">
        <ele>214.4</ele>
        <time>2020-03-22T09:34:28Z</time>
      </trkpt>
      <trkpt lat="56.897792465478" lon="14.91908462592">
        <ele>215.6</ele>
        <time>2020-03-22T09:34:44Z</time>
      </trkpt>
      <trkpt lat="56.898294625107" lon="14.919497769771">
        <ele>216.2</ele>
        <time>2020-03-22T09:34:58Z</time>
      </trkpt>
      <trkpt lat="56.898488749911" lon="14.919920217531">
        <ele>216.4</ele>
        <time>2020-03-22T09:35:04Z</time>
      </trkpt>
      <trkpt lat="56.898645156165" lon="14.920158095853">
        <ele>216.6</ele>
        <time>2020-03-22T09:35:09Z</time>
      </trkpt>
      <trkpt lat="56.898766442258" lon="14.920260774128">
        <ele>216.8</ele>
        <time>2020-03-22T09:35:12Z</time>
      </trkpt>
      <trkpt lat="56.899064502622" lon="14.920179134422">
        <ele>217.6</ele>
        <time>2020-03-22T09:35:21Z</time>
      </trkpt>
      <trkpt lat="56.899410758911" lon="14.920014933001">
        <ele>218.6</ele>
        <time>2020-03-22T09:35:28Z</time>
      </trkpt>
      <trkpt lat="56.899613349434" lon="14.919904459559">
        <ele>219.8</ele>
        <time>2020-03-22T09:35:32Z</time>
      </trkpt>
      <trkpt lat="56.899816861966" lon="14.919787112959">
        <ele>220.8</ele>
        <time>2020-03-22T09:35:36Z</time>
      </trkpt>
      <trkpt lat="56.899915349291" lon="14.919713938972">
        <ele>221</ele>
        <time>2020-03-22T09:35:37Z</time>
      </trkpt>
      <trkpt lat="56.900240315554" lon="14.919378495334">
        <ele>221.8</ele>
        <time>2020-03-22T09:35:45Z</time>
      </trkpt>
      <trkpt lat="56.900646753885" lon="14.918686401851">
        <ele>222.8</ele>
        <time>2020-03-22T09:35:55Z</time>
      </trkpt>
      <trkpt lat="56.901041457556" lon="14.917887942057">
        <ele>221.6</ele>
        <time>2020-03-22T09:36:05Z</time>
      </trkpt>
      <trkpt lat="56.901288220692" lon="14.917481755183">
        <ele>220.6</ele>
        <time>2020-03-22T09:36:10Z</time>
      </trkpt>
      <trkpt lat="56.901399532324" lon="14.917256701168">
        <ele>219.8</ele>
        <time>2020-03-22T09:36:13Z</time>
      </trkpt>
      <trkpt lat="56.901482177858" lon="14.917196351488">
        <ele>219.4</ele>
        <time>2020-03-22T09:36:15Z</time>
      </trkpt>
      <trkpt lat="56.90157421112" lon="14.917233650943">
        <ele>219.4</ele>
        <time>2020-03-22T09:36:17Z</time>
      </trkpt>
      <trkpt lat="56.901710668452" lon="14.917393577595">
        <ele>219.2</ele>
        <time>2020-03-22T09:36:20Z</time>
      </trkpt>
      <trkpt lat="56.901779400032" lon="14.917559790672">
        <ele>219.4</ele>
        <time>2020-03-22T09:36:22Z</time>
      </trkpt>
      <trkpt lat="56.901837151323" lon="14.917810744758">
        <ele>220.6</ele>
        <time>2020-03-22T09:36:25Z</time>
      </trkpt>
      <trkpt lat="56.902094810929" lon="14.918866193606">
        <ele>219.6</ele>
        <time>2020-03-22T09:36:34Z</time>
      </trkpt>
      <trkpt lat="56.902130517823" lon="14.918990329545">
        <ele>219.2</ele>
        <time>2020-03-22T09:36:35Z</time>
      </trkpt>
      <trkpt lat="56.902206793113" lon="14.919227453496">
        <ele>217.8</ele>
        <time>2020-03-22T09:36:38Z</time>
      </trkpt>
      <trkpt lat="56.902320032582" lon="14.919546887705">
        <ele>216.8</ele>
        <time>2020-03-22T09:36:41Z</time>
      </trkpt>
      <trkpt lat="56.902362193539" lon="14.919640764985">
        <ele>216.6</ele>
        <time>2020-03-22T09:36:42Z</time>
      </trkpt>
      <trkpt lat="56.902478534311" lon="14.919792309737">
        <ele>216.4</ele>
        <time>2020-03-22T09:36:44Z</time>
      </trkpt>
      <trkpt lat="56.902614824005" lon="14.919891551433">
        <ele>215.8</ele>
        <time>2020-03-22T09:36:46Z</time>
      </trkpt>
      <trkpt lat="56.902758908866" lon="14.92002172234">
        <ele>215.6</ele>
        <time>2020-03-22T09:36:48Z</time>
      </trkpt>
      <trkpt lat="56.902884637366" lon="14.920211823832">
        <ele>215.2</ele>
        <time>2020-03-22T09:36:50Z</time>
      </trkpt>
      <trkpt lat="56.902935012585" lon="14.920319866523">
        <ele>214.8</ele>
        <time>2020-03-22T09:36:51Z</time>
      </trkpt>
      <trkpt lat="56.90303266172" lon="14.920560343234">
        <ele>213.6</ele>
        <time>2020-03-22T09:36:53Z</time>
      </trkpt>
      <trkpt lat="56.903122934783" lon="14.920828564034">
        <ele>212</ele>
        <time>2020-03-22T09:36:55Z</time>
      </trkpt>
      <trkpt lat="56.903204909765" lon="14.921113464815">
        <ele>210.4</ele>
        <time>2020-03-22T09:36:57Z</time>
      </trkpt>
      <trkpt lat="56.903306414574" lon="14.921411525179">
        <ele>209</ele>
        <time>2020-03-22T09:36:59Z</time>
      </trkpt>
      <trkpt lat="56.903475477497" lon="14.921871272394">
        <ele>207.6</ele>
        <time>2020-03-22T09:37:01Z</time>
      </trkpt>
      <trkpt lat="56.903529959847" lon="14.922035557634">
        <ele>206.2</ele>
        <time>2020-03-22T09:37:03Z</time>
      </trkpt>
      <trkpt lat="56.903627608982" lon="14.922388184167">
        <ele>205</ele>
        <time>2020-03-22T09:37:05Z</time>
      </trkpt>
      <trkpt lat="56.903726850678" lon="14.922731674429">
        <ele>203.4</ele>
        <time>2020-03-22T09:37:07Z</time>
      </trkpt>
      <trkpt lat="56.903875377946" lon="14.92322025538">
        <ele>201.8</ele>
        <time>2020-03-22T09:37:09Z</time>
      </trkpt>
      <trkpt lat="56.903979397325" lon="14.923528206386">
        <ele>200.6</ele>
        <time>2020-03-22T09:37:11Z</time>
      </trkpt>
      <trkpt lat="56.904126918765" lon="14.923950737965">
        <ele>199.2</ele>
        <time>2020-03-22T09:37:14Z</time>
      </trkpt>
      <trkpt lat="56.90417008555" lon="14.924095577197">
        <ele>198</ele>
        <time>2020-03-22T09:37:16Z</time>
      </trkpt>
      <trkpt lat="56.904332023858" lon="14.924636628842">
        <ele>197</ele>
        <time>2020-03-22T09:37:19Z</time>
      </trkpt>
      <trkpt lat="56.904360773775" lon="14.924780462246">
        <ele>196.8</ele>
        <time>2020-03-22T09:37:20Z</time>
      </trkpt>
      <trkpt lat="56.904400671619" lon="14.925057735498">
        <ele>195.8</ele>
        <time>2020-03-22T09:37:23Z</time>
      </trkpt>
      <trkpt lat="56.904447442621" lon="14.925593422727">
        <ele>195.6</ele>
        <time>2020-03-22T09:37:26Z</time>
      </trkpt>
      <trkpt lat="56.904545846127" lon="14.926681812442">
        <ele>196.2</ele>
        <time>2020-03-22T09:37:35Z</time>
      </trkpt>
      <trkpt lat="56.904697139422" lon="14.92731900448">
        <ele>195</ele>
        <time>2020-03-22T09:37:40Z</time>
      </trkpt>
      <trkpt lat="56.904781377517" lon="14.927568366005">
        <ele>194.6</ele>
        <time>2020-03-22T09:37:42Z</time>
      </trkpt>
      <trkpt lat="56.9049118837" lon="14.92794261784">
        <ele>194</ele>
        <time>2020-03-22T09:37:45Z</time>
      </trkpt>
      <trkpt lat="56.904965276403" lon="14.928220394006">
        <ele>193.4</ele>
        <time>2020-03-22T09:37:47Z</time>
      </trkpt>
      <trkpt lat="56.904970137905" lon="14.928366825799">
        <ele>192.8</ele>
        <time>2020-03-22T09:37:48Z</time>
      </trkpt>
      <trkpt lat="56.904939041056" lon="14.92865927029">
        <ele>192</ele>
        <time>2020-03-22T09:37:50Z</time>
      </trkpt>
      <trkpt lat="56.904810546529" lon="14.929041149654">
        <ele>191.4</ele>
        <time>2020-03-22T09:37:52Z</time>
      </trkpt>
      <trkpt lat="56.904664366193" lon="14.929348011013">
        <ele>191</ele>
        <time>2020-03-22T09:37:56Z</time>
      </trkpt>
      <trkpt lat="56.904558586615" lon="14.929633079432">
        <ele>191</ele>
        <time>2020-03-22T09:37:58Z</time>
      </trkpt>
      <trkpt lat="56.904471666312" lon="14.929776996655">
        <ele>191.6</ele>
        <time>2020-03-22T09:38:00Z</time>
      </trkpt>
      <trkpt lat="56.904426990785" lon="14.929828293883">
        <ele>192.2</ele>
        <time>2020-03-22T09:38:02Z</time>
      </trkpt>
      <trkpt lat="56.904305704692" lon="14.929954692935">
        <ele>193.2</ele>
        <time>2020-03-22T09:38:05Z</time>
      </trkpt>
      <trkpt lat="56.90420864229" lon="14.930065250196">
        <ele>192.8</ele>
        <time>2020-03-22T09:38:07Z</time>
      </trkpt>
      <trkpt lat="56.904133540466" lon="14.930226434133">
        <ele>192.4</ele>
        <time>2020-03-22T09:38:09Z</time>
      </trkpt>
      <trkpt lat="56.904104036178" lon="14.930312683884">
        <ele>192</ele>
        <time>2020-03-22T09:38:10Z</time>
      </trkpt>
      <trkpt lat="56.90408375198" lon="14.930402454033">
        <ele>191.8</ele>
        <time>2020-03-22T09:38:11Z</time>
      </trkpt>
      <trkpt lat="56.904055085882" lon="14.93058710729">
        <ele>192</ele>
        <time>2020-03-22T09:38:13Z</time>
      </trkpt>
      <trkpt lat="56.904058773918" lon="14.930744854648">
        <ele>193.4</ele>
        <time>2020-03-22T09:38:15Z</time>
      </trkpt>
      <trkpt lat="56.904059025375" lon="14.93088298836">
        <ele>194.8</ele>
        <time>2020-03-22T09:38:17Z</time>
      </trkpt>
      <trkpt lat="56.90409800121" lon="14.931093122593">
        <ele>196</ele>
        <time>2020-03-22T09:38:20Z</time>
      </trkpt>
      <trkpt lat="56.904300675552" lon="14.931768200819">
        <ele>196.8</ele>
        <time>2020-03-22T09:38:29Z</time>
      </trkpt>
      <trkpt lat="56.904325402157" lon="14.931987806599">
        <ele>196.6</ele>
        <time>2020-03-22T09:38:31Z</time>
      </trkpt>
      <trkpt lat="56.90431760699" lon="14.932220907238">
        <ele>196.2</ele>
        <time>2020-03-22T09:38:33Z</time>
      </trkpt>
      <trkpt lat="56.904263040821" lon="14.932563810767">
        <ele>194.8</ele>
        <time>2020-03-22T09:38:36Z</time>
      </trkpt>
      <trkpt lat="56.904233620352" lon="14.932820129269">
        <ele>194.6</ele>
        <time>2020-03-22T09:38:38Z</time>
      </trkpt>
      <trkpt lat="56.904214928715" lon="14.933148867387">
        <ele>193.8</ele>
        <time>2020-03-22T09:38:41Z</time>
      </trkpt>
      <trkpt lat="56.90418098202" lon="14.933621438909">
        <ele>193.4</ele>
        <time>2020-03-22T09:38:44Z</time>
      </trkpt>
      <trkpt lat="56.904162709478" lon="14.933733169636">
        <ele>193.2</ele>
        <time>2020-03-22T09:38:46Z</time>
      </trkpt>
      <trkpt lat="56.904145023669" lon="14.933846912019">
        <ele>192.8</ele>
        <time>2020-03-22T09:38:47Z</time>
      </trkpt>
      <trkpt lat="56.904141167995" lon="14.933950512303">
        <ele>192.4</ele>
        <time>2020-03-22T09:38:48Z</time>
      </trkpt>
      <trkpt lat="56.904165475505" lon="14.934137093397">
        <ele>191.6</ele>
        <time>2020-03-22T09:38:50Z</time>
      </trkpt>
      <trkpt lat="56.904218365294" lon="14.934265587924">
        <ele>191.4</ele>
        <time>2020-03-22T09:38:52Z</time>
      </trkpt>
      <trkpt lat="56.904289611444" lon="14.934380000859">
        <ele>191.6</ele>
        <time>2020-03-22T09:38:54Z</time>
      </trkpt>
      <trkpt lat="56.904485496447" lon="14.934626009624">
        <ele>191.8</ele>
        <time>2020-03-22T09:38:59Z</time>
      </trkpt>
      <trkpt lat="56.904569315447" lon="14.934781996783">
        <ele>192</ele>
        <time>2020-03-22T09:39:01Z</time>
      </trkpt>
      <trkpt lat="56.904630503317" lon="14.934975618673">
        <ele>192.4</ele>
        <time>2020-03-22T09:39:03Z</time>
      </trkpt>
      <trkpt lat="56.904658498863" lon="14.935180891404">
        <ele>192.6</ele>
        <time>2020-03-22T09:39:05Z</time>
      </trkpt>
      <trkpt lat="56.904685823857" lon="14.935589592848">
        <ele>192.2</ele>
        <time>2020-03-22T09:39:09Z</time>
      </trkpt>
      <trkpt lat="56.904725889339" lon="14.936615034494">
        <ele>192.6</ele>
        <time>2020-03-22T09:39:19Z</time>
      </trkpt>
      <trkpt lat="56.904727984814" lon="14.936717964226">
        <ele>192.6</ele>
        <time>2020-03-22T09:39:20Z</time>
      </trkpt>
      <trkpt lat="56.904710969557" lon="14.937080481401">
        <ele>192.8</ele>
        <time>2020-03-22T09:39:24Z</time>
      </trkpt>
      <trkpt lat="56.904696720327" lon="14.937264212649">
        <ele>192.6</ele>
        <time>2020-03-22T09:39:26Z</time>
      </trkpt>
      <trkpt lat="56.904681968183" lon="14.937821189904">
        <ele>192.8</ele>
        <time>2020-03-22T09:39:32Z</time>
      </trkpt>
      <trkpt lat="56.904643746719" lon="14.937992348302">
        <ele>193.2</ele>
        <time>2020-03-22T09:39:34Z</time>
      </trkpt>
      <trkpt lat="56.90457828408" lon="14.938156633542">
        <ele>193.2</ele>
        <time>2020-03-22T09:39:36Z</time>
      </trkpt>
      <trkpt lat="56.904160949279" lon="14.938902706461">
        <ele>192.2</ele>
        <time>2020-03-22T09:39:46Z</time>
      </trkpt>
      <trkpt lat="56.903968249398" lon="14.939109487934">
        <ele>191.8</ele>
        <time>2020-03-22T09:39:50Z</time>
      </trkpt>
      <trkpt lat="56.903853920282" lon="14.939186517595">
        <ele>192</ele>
        <time>2020-03-22T09:39:52Z</time>
      </trkpt>
      <trkpt lat="56.903749984722" lon="14.939296404304">
        <ele>191.6</ele>
        <time>2020-03-22T09:39:54Z</time>
      </trkpt>
      <trkpt lat="56.90369147906" lon="14.939431017618">
        <ele>191.6</ele>
        <time>2020-03-22T09:39:56Z</time>
      </trkpt>
      <trkpt lat="56.903732634189" lon="14.940127134413">
        <ele>191.2</ele>
        <time>2020-03-22T09:40:02Z</time>
      </trkpt>
      <trkpt lat="56.903765491237" lon="14.940408095701">
        <ele>190.6</ele>
        <time>2020-03-22T09:40:04Z</time>
      </trkpt>
      <trkpt lat="56.903895913601" lon="14.941297918205">
        <ele>189.8</ele>
        <time>2020-03-22T09:40:11Z</time>
      </trkpt>
      <trkpt lat="56.903927178088" lon="14.941367990889">
        <ele>189.6</ele>
        <time>2020-03-22T09:40:13Z</time>
      </trkpt>
      <trkpt lat="56.903939415662" lon="14.941432363881">
        <ele>189.4</ele>
        <time>2020-03-22T09:40:14Z</time>
      </trkpt>
      <trkpt lat="56.903990293795" lon="14.941481733272">
        <ele>189.2</ele>
        <time>2020-03-22T09:40:16Z</time>
      </trkpt>
      <trkpt lat="56.90407201732" lon="14.941445774921">
        <ele>189.2</ele>
        <time>2020-03-22T09:40:18Z</time>
      </trkpt>
      <trkpt lat="56.904642740891" lon="14.941261540759">
        <ele>190</ele>
        <time>2020-03-22T09:40:29Z</time>
      </trkpt>
      <trkpt lat="56.904969467353" lon="14.941239244905">
        <ele>190.2</ele>
        <time>2020-03-22T09:40:35Z</time>
      </trkpt>
      <trkpt lat="56.905132998222" lon="14.941357764971">
        <ele>190.6</ele>
        <time>2020-03-22T09:40:38Z</time>
      </trkpt>
      <trkpt lat="56.905606240296" lon="14.941664793968">
        <ele>190.2</ele>
        <time>2020-03-22T09:40:47Z</time>
      </trkpt>
      <trkpt lat="56.905757785048" lon="14.941629506169">
        <ele>190</ele>
        <time>2020-03-22T09:40:50Z</time>
      </trkpt>
      <trkpt lat="56.905850237405" lon="14.941548453196">
        <ele>190</ele>
        <time>2020-03-22T09:40:52Z</time>
      </trkpt>
      <trkpt lat="56.906062634751" lon="14.941318034765">
        <ele>189.6</ele>
        <time>2020-03-22T09:40:57Z</time>
      </trkpt>
      <trkpt lat="56.906103286966" lon="14.941296158006">
        <ele>189.4</ele>
        <time>2020-03-22T09:40:58Z</time>
      </trkpt>
      <trkpt lat="56.906190794002" lon="14.941334798565">
        <ele>189.2</ele>
        <time>2020-03-22T09:41:00Z</time>
      </trkpt>
      <trkpt lat="56.906241085402" lon="14.941469244241">
        <ele>189</ele>
        <time>2020-03-22T09:41:02Z</time>
      </trkpt>
      <trkpt lat="56.906360527477" lon="14.94173922524">
        <ele>189</ele>
        <time>2020-03-22T09:41:05Z</time>
      </trkpt>
      <trkpt lat="56.906454488576" lon="14.941887165775">
        <ele>189.4</ele>
        <time>2020-03-22T09:41:07Z</time>
      </trkpt>
      <trkpt lat="56.906677028021" lon="14.942134264187">
        <ele>189.8</ele>
        <time>2020-03-22T09:41:10Z</time>
      </trkpt>
      <trkpt lat="56.906817424846" lon="14.942416315122">
        <ele>190.2</ele>
        <time>2020-03-22T09:41:13Z</time>
      </trkpt>
      <trkpt lat="56.906864363486" lon="14.942532069161">
        <ele>190</ele>
        <time>2020-03-22T09:41:15Z</time>
      </trkpt>
      <trkpt lat="56.90696796377" lon="14.94285904708">
        <ele>189.8</ele>
        <time>2020-03-22T09:41:18Z</time>
      </trkpt>
      <trkpt lat="56.907214475449" lon="14.943349974963">
        <ele>189.6</ele>
        <time>2020-03-22T09:41:22Z</time>
      </trkpt>
      <trkpt lat="56.907252780732" lon="14.943477715119">
        <ele>189.6</ele>
        <time>2020-03-22T09:41:24Z</time>
      </trkpt>
      <trkpt lat="56.907344059623" lon="14.944347085787">
        <ele>189.2</ele>
        <time>2020-03-22T09:41:31Z</time>
      </trkpt>
      <trkpt lat="56.907377587223" lon="14.945418963159">
        <ele>189.4</ele>
        <time>2020-03-22T09:41:40Z</time>
      </trkpt>
      <trkpt lat="56.907380437069" lon="14.945529688058">
        <ele>189.4</ele>
        <time>2020-03-22T09:41:41Z</time>
      </trkpt>
      <trkpt lat="56.907382700182" lon="14.945761112317">
        <ele>189.4</ele>
        <time>2020-03-22T09:41:43Z</time>
      </trkpt>
      <trkpt lat="56.907346071279" lon="14.946742465169">
        <ele>190.2</ele>
        <time>2020-03-22T09:41:52Z</time>
      </trkpt>
      <trkpt lat="56.907325284167" lon="14.946925777322">
        <ele>191</ele>
        <time>2020-03-22T09:41:53Z</time>
      </trkpt>
      <trkpt lat="56.907314806792" lon="14.947001801155">
        <ele>192</ele>
        <time>2020-03-22T09:41:55Z</time>
      </trkpt>
      <trkpt lat="56.907277842613" lon="14.947218305632">
        <ele>193.4</ele>
        <time>2020-03-22T09:41:58Z</time>
      </trkpt>
      <trkpt lat="56.907254792388" lon="14.947452076823">
        <ele>194.4</ele>
        <time>2020-03-22T09:42:01Z</time>
      </trkpt>
      <trkpt lat="56.90724624285" lon="14.947539835316">
        <ele>194.8</ele>
        <time>2020-03-22T09:42:02Z</time>
      </trkpt>
      <trkpt lat="56.907247667773" lon="14.947719794709">
        <ele>195</ele>
        <time>2020-03-22T09:42:04Z</time>
      </trkpt>
      <trkpt lat="56.907240291701" lon="14.948016765426">
        <ele>195.2</ele>
        <time>2020-03-22T09:42:07Z</time>
      </trkpt>
      <trkpt lat="56.907212631431" lon="14.948236957939">
        <ele>195</ele>
        <time>2020-03-22T09:42:09Z</time>
      </trkpt>
      <trkpt lat="56.907090507148" lon="14.948634008542">
        <ele>194.4</ele>
        <time>2020-03-22T09:42:13Z</time>
      </trkpt>
      <trkpt lat="56.906999395895" lon="14.948886974284">
        <ele>194</ele>
        <time>2020-03-22T09:42:16Z</time>
      </trkpt>
      <trkpt lat="56.90696209644" lon="14.94904572747">
        <ele>194</ele>
        <time>2020-03-22T09:42:18Z</time>
      </trkpt>
      <trkpt lat="56.906893281041" lon="14.949502960115">
        <ele>195.8</ele>
        <time>2020-03-22T09:42:24Z</time>
      </trkpt>
      <trkpt lat="56.906876684879" lon="14.949646793519">
        <ele>197</ele>
        <time>2020-03-22T09:42:26Z</time>
      </trkpt>
      <trkpt lat="56.906844666021" lon="14.949857011571">
        <ele>198.2</ele>
        <time>2020-03-22T09:42:29Z</time>
      </trkpt>
      <trkpt lat="56.906832679904" lon="14.950081227396">
        <ele>199.4</ele>
        <time>2020-03-22T09:42:32Z</time>
      </trkpt>
      <trkpt lat="56.906829830058" lon="14.950267976128">
        <ele>199.8</ele>
        <time>2020-03-22T09:42:34Z</time>
      </trkpt>
      <trkpt lat="56.90681038405" lon="14.951054198348">
        <ele>200</ele>
        <time>2020-03-22T09:42:42Z</time>
      </trkpt>
      <trkpt lat="56.906748190352" lon="14.951343290079">
        <ele>200</ele>
        <time>2020-03-22T09:42:45Z</time>
      </trkpt>
      <trkpt lat="56.906463960123" lon="14.951755092826">
        <ele>198.2</ele>
        <time>2020-03-22T09:42:51Z</time>
      </trkpt>
      <trkpt lat="56.906309062611" lon="14.951948211802">
        <ele>197.8</ele>
        <time>2020-03-22T09:42:53Z</time>
      </trkpt>
      <trkpt lat="56.906194733495" lon="14.952131021041">
        <ele>197.4</ele>
        <time>2020-03-22T09:42:56Z</time>
      </trkpt>
      <trkpt lat="56.906136227833" lon="14.952356745608">
        <ele>197</ele>
        <time>2020-03-22T09:42:58Z</time>
      </trkpt>
      <trkpt lat="56.906141676068" lon="14.952757987161">
        <ele>196.8</ele>
        <time>2020-03-22T09:43:00Z</time>
      </trkpt>
      <trkpt lat="56.906160870619" lon="14.953141375267">
        <ele>196.2</ele>
        <time>2020-03-22T09:43:04Z</time>
      </trkpt>
      <trkpt lat="56.906222896679" lon="14.953570444728">
        <ele>196</ele>
        <time>2020-03-22T09:43:07Z</time>
      </trkpt>
      <trkpt lat="56.906407549936" lon="14.954317607294">
        <ele>196</ele>
        <time>2020-03-22T09:43:14Z</time>
      </trkpt>
      <trkpt lat="56.906543336716" lon="14.954563783697">
        <ele>196</ele>
        <time>2020-03-22T09:43:17Z</time>
      </trkpt>
      <trkpt lat="56.906627407173" lon="14.954845666994">
        <ele>196</ele>
        <time>2020-03-22T09:43:19Z</time>
      </trkpt>
      <trkpt lat="56.906651798502" lon="14.954941723568">
        <ele>196</ele>
        <time>2020-03-22T09:43:21Z</time>
      </trkpt>
      <trkpt lat="56.906666047732" lon="14.955227546358">
        <ele>196</ele>
        <time>2020-03-22T09:43:23Z</time>
      </trkpt>
      <trkpt lat="56.906665712456" lon="14.955639432924">
        <ele>195.8</ele>
        <time>2020-03-22T09:43:29Z</time>
      </trkpt>
      <trkpt lat="56.90658155818" lon="14.956335130624">
        <ele>197.4</ele>
        <time>2020-03-22T09:43:37Z</time>
      </trkpt>
      <trkpt lat="56.906470749462" lon="14.957030912143">
        <ele>198.4</ele>
        <time>2020-03-22T09:43:43Z</time>
      </trkpt>
      <trkpt lat="56.906340243279" lon="14.95781570944">
        <ele>199.2</ele>
        <time>2020-03-22T09:43:50Z</time>
      </trkpt>
      <trkpt lat="56.906329430628" lon="14.957927775443">
        <ele>199.4</ele>
        <time>2020-03-22T09:43:51Z</time>
      </trkpt>
      <trkpt lat="56.906310990448" lon="14.958052749572">
        <ele>199.6</ele>
        <time>2020-03-22T09:43:52Z</time>
      </trkpt>
      <trkpt lat="56.906319875262" lon="14.958232038413">
        <ele>200</ele>
        <time>2020-03-22T09:43:54Z</time>
      </trkpt>
      <trkpt lat="56.906361868581" lon="14.958375787998">
        <ele>200.4</ele>
        <time>2020-03-22T09:43:56Z</time>
      </trkpt>
      <trkpt lat="56.906386511367" lon="14.958443765207">
        <ele>200.8</ele>
        <time>2020-03-22T09:43:57Z</time>
      </trkpt>
      <trkpt lat="56.906484579597" lon="14.958703017374">
        <ele>201.8</ele>
        <time>2020-03-22T09:44:01Z</time>
      </trkpt>
      <trkpt lat="56.906528668391" lon="14.958891274848">
        <ele>203</ele>
        <time>2020-03-22T09:44:04Z</time>
      </trkpt>
      <trkpt lat="56.906577199592" lon="14.959093027181">
        <ele>204</ele>
        <time>2020-03-22T09:44:07Z</time>
      </trkpt>
      <trkpt lat="56.90666286261" lon="14.959376251582">
        <ele>205.2</ele>
        <time>2020-03-22T09:44:11Z</time>
      </trkpt>
      <trkpt lat="56.906893951593" lon="14.959930211353">
        <ele>206</ele>
        <time>2020-03-22T09:44:19Z</time>
      </trkpt>
      <trkpt lat="56.906935106722" lon="14.960076056413">
        <ele>206.2</ele>
        <time>2020-03-22T09:44:21Z</time>
      </trkpt>
      <trkpt lat="56.906963353725" lon="14.960238749092">
        <ele>206.4</ele>
        <time>2020-03-22T09:44:22Z</time>
      </trkpt>
      <trkpt lat="56.906975004566" lon="14.960403034332">
        <ele>206.6</ele>
        <time>2020-03-22T09:44:25Z</time>
      </trkpt>
      <trkpt lat="56.906937453654" lon="14.961132846365">
        <ele>206.6</ele>
        <time>2020-03-22T09:44:33Z</time>
      </trkpt>
      <trkpt lat="56.906873164481" lon="14.962000289196">
        <ele>205</ele>
        <time>2020-03-22T09:44:42Z</time>
      </trkpt>
      <trkpt lat="56.906844163107" lon="14.962454671995">
        <ele>204</ele>
        <time>2020-03-22T09:44:47Z</time>
      </trkpt>
      <trkpt lat="56.906820945244" lon="14.962969404474">
        <ele>203</ele>
        <time>2020-03-22T09:44:56Z</time>
      </trkpt>
      <trkpt lat="56.906832428447" lon="14.963084152685">
        <ele>202.6</ele>
        <time>2020-03-22T09:44:58Z</time>
      </trkpt>
      <trkpt lat="56.906923623519" lon="14.963159003052">
        <ele>202.4</ele>
        <time>2020-03-22T09:45:00Z</time>
      </trkpt>
      <trkpt lat="56.907474984901" lon="14.96318683096">
        <ele>203</ele>
        <time>2020-03-22T09:45:13Z</time>
      </trkpt>
      <trkpt lat="56.907853762962" lon="14.963197978887">
        <ele>204.2</ele>
        <time>2020-03-22T09:45:21Z</time>
      </trkpt>
      <trkpt lat="56.908221476915" lon="14.963215413239">
        <ele>205.2</ele>
        <time>2020-03-22T09:45:29Z</time>
      </trkpt>
      <trkpt lat="56.908662281036" lon="14.963248186468">
        <ele>206.4</ele>
        <time>2020-03-22T09:45:38Z</time>
      </trkpt>
      <trkpt lat="56.90923442953" lon="14.963301243895">
        <ele>206.6</ele>
        <time>2020-03-22T09:45:48Z</time>
      </trkpt>
      <trkpt lat="56.909283296007" lon="14.963287497579">
        <ele>206.4</ele>
        <time>2020-03-22T09:45:50Z</time>
      </trkpt>
      <trkpt lat="56.909431655637" lon="14.963187585331">
        <ele>206.4</ele>
        <time>2020-03-22T09:45:52Z</time>
      </trkpt>
      <trkpt lat="56.909893498327" lon="14.962529270905">
        <ele>207.6</ele>
        <time>2020-03-22T09:46:04Z</time>
      </trkpt>
      <trkpt lat="56.910372523912" lon="14.961900376948">
        <ele>208.6</ele>
        <time>2020-03-22T09:46:15Z</time>
      </trkpt>
      <trkpt lat="56.910420216923" lon="14.96185578524">
        <ele>208.6</ele>
        <time>2020-03-22T09:46:16Z</time>
      </trkpt>
      <trkpt lat="56.910865631089" lon="14.961248851861">
        <ele>208.8</ele>
        <time>2020-03-22T09:46:26Z</time>
      </trkpt>
      <trkpt lat="56.911325043028" lon="14.960856327484">
        <ele>207.6</ele>
        <time>2020-03-22T09:46:34Z</time>
      </trkpt>
      <trkpt lat="56.91153023194" lon="14.960800839306">
        <ele>207</ele>
        <time>2020-03-22T09:46:36Z</time>
      </trkpt>
      <trkpt lat="56.911729469703" lon="14.960808131559">
        <ele>206.4</ele>
        <time>2020-03-22T09:46:39Z</time>
      </trkpt>
      <trkpt lat="56.912336319263" lon="14.960934865887">
        <ele>206</ele>
        <time>2020-03-22T09:46:48Z</time>
      </trkpt>
      <trkpt lat="56.912407733051" lon="14.960953641343">
        <ele>206</ele>
        <time>2020-03-22T09:46:49Z</time>
      </trkpt>
      <trkpt lat="56.912640749871" lon="14.960963615804">
        <ele>205.4</ele>
        <time>2020-03-22T09:46:52Z</time>
      </trkpt>
      <trkpt lat="56.913199654963" lon="14.961067719002">
        <ele>204.4</ele>
        <time>2020-03-22T09:46:59Z</time>
      </trkpt>
      <trkpt lat="56.913755710209" lon="14.961229405853">
        <ele>204.2</ele>
        <time>2020-03-22T09:47:07Z</time>
      </trkpt>
      <trkpt lat="56.913953271592" lon="14.961361169321">
        <ele>204</ele>
        <time>2020-03-22T09:47:10Z</time>
      </trkpt>
      <trkpt lat="56.914399104853" lon="14.962028787656">
        <ele>204.4</ele>
        <time>2020-03-22T09:47:19Z</time>
      </trkpt>
      <trkpt lat="56.914675791372" lon="14.962575036079">
        <ele>204.8</ele>
        <time>2020-03-22T09:47:26Z</time>
      </trkpt>
      <trkpt lat="56.915125815583" lon="14.963301243895">
        <ele>204.4</ele>
        <time>2020-03-22T09:47:35Z</time>
      </trkpt>
      <trkpt lat="56.91557282231" lon="14.963970622429">
        <ele>204.2</ele>
        <time>2020-03-22T09:47:44Z</time>
      </trkpt>
      <trkpt lat="56.915962748298" lon="14.96475005531">
        <ele>203.8</ele>
        <time>2020-03-22T09:47:52Z</time>
      </trkpt>
      <trkpt lat="56.916363067842" lon="14.965250370921">
        <ele>204.6</ele>
        <time>2020-03-22T09:48:00Z</time>
      </trkpt>
      <trkpt lat="56.916520563743" lon="14.965334022283">
        <ele>204.6</ele>
        <time>2020-03-22T09:48:03Z</time>
      </trkpt>
      <trkpt lat="56.916694991082" lon="14.965316755569">
        <ele>204.6</ele>
        <time>2020-03-22T09:48:06Z</time>
      </trkpt>
      <trkpt lat="56.917278203684" lon="14.965285239625">
        <ele>204.8</ele>
        <time>2020-03-22T09:48:15Z</time>
      </trkpt>
      <trkpt lat="56.917504598803" lon="14.965349612617">
        <ele>205.4</ele>
        <time>2020-03-22T09:48:19Z</time>
      </trkpt>
      <trkpt lat="56.917670225147" lon="14.965417841283">
        <ele>206.8</ele>
        <time>2020-03-22T09:48:22Z</time>
      </trkpt>
      <trkpt lat="56.917855800413" lon="14.965503671939">
        <ele>208</ele>
        <time>2020-03-22T09:48:25Z</time>
      </trkpt>
      <trkpt lat="56.918270033911" lon="14.965880438344">
        <ele>209</ele>
        <time>2020-03-22T09:48:33Z</time>
      </trkpt>
      <trkpt lat="56.91849978179" lon="14.966178917803">
        <ele>210.2</ele>
        <time>2020-03-22T09:48:38Z</time>
      </trkpt>
      <trkpt lat="56.918878140756" lon="14.966583344478">
        <ele>211.2</ele>
        <time>2020-03-22T09:48:47Z</time>
      </trkpt>
      <trkpt lat="56.91924912365" lon="14.966894899701">
        <ele>212.4</ele>
        <time>2020-03-22T09:48:54Z</time>
      </trkpt>
      <trkpt lat="56.919670649401" lon="14.967264960586">
        <ele>213.6</ele>
        <time>2020-03-22T09:49:01Z</time>
      </trkpt>
      <trkpt lat="56.919813309339" lon="14.967401417918">
        <ele>214</ele>
        <time>2020-03-22T09:49:04Z</time>
      </trkpt>
      <trkpt lat="56.920015480767" lon="14.967587496098">
        <ele>214.6</ele>
        <time>2020-03-22T09:49:08Z</time>
      </trkpt>
      <trkpt lat="56.920266853948" lon="14.967884215358">
        <ele>215.8</ele>
        <time>2020-03-22T09:49:14Z</time>
      </trkpt>
      <trkpt lat="56.920329634379" lon="14.968005417632">
        <ele>216.4</ele>
        <time>2020-03-22T09:49:16Z</time>
      </trkpt>
      <trkpt lat="56.920393923552" lon="14.968165931017">
        <ele>217</ele>
        <time>2020-03-22T09:49:18Z</time>
      </trkpt>
      <trkpt lat="56.920460056743" lon="14.968617631608">
        <ele>217</ele>
        <time>2020-03-22T09:49:22Z</time>
      </trkpt>
      <trkpt lat="56.920464163874" lon="14.968751909646">
        <ele>216.6</ele>
        <time>2020-03-22T09:49:24Z</time>
      </trkpt>
      <trkpt lat="56.920471120851" lon="14.969033038572">
        <ele>216.2</ele>
        <time>2020-03-22T09:49:26Z</time>
      </trkpt>
      <trkpt lat="56.920473970697" lon="14.969171926655">
        <ele>215.8</ele>
        <time>2020-03-22T09:49:27Z</time>
      </trkpt>
      <trkpt lat="56.920468103367" lon="14.96930980891">
        <ele>215.6</ele>
        <time>2020-03-22T09:49:28Z</time>
      </trkpt>
      <trkpt lat="56.920448070626" lon="14.969574593131">
        <ele>215</ele>
        <time>2020-03-22T09:49:30Z</time>
      </trkpt>
      <trkpt lat="56.920428708437" lon="14.969686826772">
        <ele>214.8</ele>
        <time>2020-03-22T09:49:31Z</time>
      </trkpt>
      <trkpt lat="56.920405071479" lon="14.969782380432">
        <ele>214.6</ele>
        <time>2020-03-22T09:49:32Z</time>
      </trkpt>
      <trkpt lat="56.92031027219" lon="14.97001556489">
        <ele>214.2</ele>
        <time>2020-03-22T09:49:35Z</time>
      </trkpt>
      <trkpt lat="56.920153865936" lon="14.970342123714">
        <ele>214</ele>
        <time>2020-03-22T09:49:39Z</time>
      </trkpt>
      <trkpt lat="56.920019168803" lon="14.970729116037">
        <ele>214</ele>
        <time>2020-03-22T09:49:44Z</time>
      </trkpt>
      <trkpt lat="56.919901486927" lon="14.971018710682">
        <ele>214.4</ele>
        <time>2020-03-22T09:49:48Z</time>
      </trkpt>
      <trkpt lat="56.919763856129" lon="14.97124854238">
        <ele>214.4</ele>
        <time>2020-03-22T09:49:51Z</time>
      </trkpt>
      <trkpt lat="56.919601917821" lon="14.971439482062">
        <ele>214.4</ele>
        <time>2020-03-22T09:49:54Z</time>
      </trkpt>
      <trkpt lat="56.919347108061" lon="14.971741733376">
        <ele>214.4</ele>
        <time>2020-03-22T09:49:58Z</time>
      </trkpt>
      <trkpt lat="56.918955421874" lon="14.972454111057">
        <ele>215.4</ele>
        <time>2020-03-22T09:50:07Z</time>
      </trkpt>
      <trkpt lat="56.918824831872" lon="14.972658545598">
        <ele>216</ele>
        <time>2020-03-22T09:50:09Z</time>
      </trkpt>
      <trkpt lat="56.918479581411" lon="14.973169338584">
        <ele>216.6</ele>
        <time>2020-03-22T09:50:17Z</time>
      </trkpt>
      <trkpt lat="56.918174647889" lon="14.973891439269">
        <ele>216.4</ele>
        <time>2020-03-22T09:50:25Z</time>
      </trkpt>
      <trkpt lat="56.918002148387" lon="14.974462581935">
        <ele>216</ele>
        <time>2020-03-22T09:50:30Z</time>
      </trkpt>
      <trkpt lat="56.917968704606" lon="14.974689731425">
        <ele>215.8</ele>
        <time>2020-03-22T09:50:33Z</time>
      </trkpt>
      <trkpt lat="56.917937104843" lon="14.975758423675">
        <ele>216.4</ele>
        <time>2020-03-22T09:50:44Z</time>
      </trkpt>
      <trkpt lat="56.918039028747" lon="14.97633887025">
        <ele>216.6</ele>
        <time>2020-03-22T09:50:49Z</time>
      </trkpt>
      <trkpt lat="56.918124775584" lon="14.976606671955">
        <ele>217.2</ele>
        <time>2020-03-22T09:50:52Z</time>
      </trkpt>
      <trkpt lat="56.918205828557" lon="14.976852093987">
        <ele>218.4</ele>
        <time>2020-03-22T09:50:57Z</time>
      </trkpt>
      <trkpt lat="56.918255197948" lon="14.977020570177">
        <ele>219.8</ele>
        <time>2020-03-22T09:51:00Z</time>
      </trkpt>
      <trkpt lat="56.918324097166" lon="14.977265237838">
        <ele>221</ele>
        <time>2020-03-22T09:51:04Z</time>
      </trkpt>
      <trkpt lat="56.918374975299" lon="14.977451232199">
        <ele>222</ele>
        <time>2020-03-22T09:51:07Z</time>
      </trkpt>
      <trkpt lat="56.918441443766" lon="14.977712160746">
        <ele>223</ele>
        <time>2020-03-22T09:51:11Z</time>
      </trkpt>
      <trkpt lat="56.918514953029" lon="14.977979627175">
        <ele>224.4</ele>
        <time>2020-03-22T09:51:15Z</time>
      </trkpt>
      <trkpt lat="56.91853163301" lon="14.978060763967">
        <ele>224.4</ele>
        <time>2020-03-22T09:51:16Z</time>
      </trkpt>
      <trkpt lat="56.918582846419" lon="14.97830945494">
        <ele>225</ele>
        <time>2020-03-22T09:51:19Z</time>
      </trkpt>
      <trkpt lat="56.918588127016" lon="14.978624698199">
        <ele>225.2</ele>
        <time>2020-03-22T09:51:23Z</time>
      </trkpt>
      <trkpt lat="56.91858108622" lon="14.978699380928">
        <ele>225.4</ele>
        <time>2020-03-22T09:51:24Z</time>
      </trkpt>
      <trkpt lat="56.918553258312" lon="14.978981767139">
        <ele>226.4</ele>
        <time>2020-03-22T09:51:28Z</time>
      </trkpt>
      <trkpt lat="56.918523670205" lon="14.979345122504">
        <ele>227.6</ele>
        <time>2020-03-22T09:51:33Z</time>
      </trkpt>
      <trkpt lat="56.91850564912" lon="14.979612924209">
        <ele>228.8</ele>
        <time>2020-03-22T09:51:37Z</time>
      </trkpt>
      <trkpt lat="56.918474384633" lon="14.979915175523">
        <ele>230</ele>
        <time>2020-03-22T09:51:41Z</time>
      </trkpt>
      <trkpt lat="56.918475306642" lon="14.980156658062">
        <ele>231</ele>
        <time>2020-03-22T09:51:44Z</time>
      </trkpt>
      <trkpt lat="56.918491818985" lon="14.980395039298">
        <ele>231.6</ele>
        <time>2020-03-22T09:51:47Z</time>
      </trkpt>
      <trkpt lat="56.918674460586" lon="14.981385779878">
        <ele>231.6</ele>
        <time>2020-03-22T09:51:59Z</time>
      </trkpt>
      <trkpt lat="56.918724751986" lon="14.981698676205">
        <ele>232</ele>
        <time>2020-03-22T09:52:03Z</time>
      </trkpt>
      <trkpt lat="56.918754340093" lon="14.981921970021">
        <ele>233.4</ele>
        <time>2020-03-22T09:52:06Z</time>
      </trkpt>
      <trkpt lat="56.918689464187" lon="14.982381968693">
        <ele>234</ele>
        <time>2020-03-22T09:52:12Z</time>
      </trkpt>
      <trkpt lat="56.918598101477" lon="14.983197024649">
        <ele>232.2</ele>
        <time>2020-03-22T09:52:18Z</time>
      </trkpt>
      <trkpt lat="56.918563316592" lon="14.983561888756">
        <ele>232</ele>
        <time>2020-03-22T09:52:22Z</time>
      </trkpt>
      <trkpt lat="56.918576140899" lon="14.983922310456">
        <ele>232.4</ele>
        <time>2020-03-22T09:52:25Z</time>
      </trkpt>
      <trkpt lat="56.918789711711" lon="14.984991924715">
        <ele>232.6</ele>
        <time>2020-03-22T09:52:34Z</time>
      </trkpt>
      <trkpt lat="56.918819299818" lon="14.985306245965">
        <ele>232.8</ele>
        <time>2020-03-22T09:52:37Z</time>
      </trkpt>
      <trkpt lat="56.918815863239" lon="14.985574550584">
        <ele>233.4</ele>
        <time>2020-03-22T09:52:40Z</time>
      </trkpt>
      <trkpt lat="56.918774875748" lon="14.986080733525">
        <ele>234.6</ele>
        <time>2020-03-22T09:52:46Z</time>
      </trkpt>
      <trkpt lat="56.918742773071" lon="14.986334369819">
        <ele>235.8</ele>
        <time>2020-03-22T09:52:50Z</time>
      </trkpt>
      <trkpt lat="56.91872441671" lon="14.98649773305">
        <ele>236.2</ele>
        <time>2020-03-22T09:52:52Z</time>
      </trkpt>
      <trkpt lat="56.918715364258" lon="14.986729408766">
        <ele>236.6</ele>
        <time>2020-03-22T09:52:54Z</time>
      </trkpt>
      <trkpt lat="56.918708826376" lon="14.986883635726">
        <ele>237</ele>
        <time>2020-03-22T09:52:56Z</time>
      </trkpt>
      <trkpt lat="56.918702120856" lon="14.986966113622">
        <ele>237.4</ele>
        <time>2020-03-22T09:52:57Z</time>
      </trkpt>
      <trkpt lat="56.91869088911" lon="14.987045490215">
        <ele>238.2</ele>
        <time>2020-03-22T09:52:59Z</time>
      </trkpt>
      <trkpt lat="56.918671191645" lon="14.987120927315">
        <ele>238.4</ele>
        <time>2020-03-22T09:53:00Z</time>
      </trkpt>
      <trkpt lat="56.918588210835" lon="14.987228299454">
        <ele>238.4</ele>
        <time>2020-03-22T09:53:02Z</time>
      </trkpt>
      <trkpt lat="56.918482766533" lon="14.987264425443">
        <ele>238.4</ele>
        <time>2020-03-22T09:53:04Z</time>
      </trkpt>
      <trkpt lat="56.917930231685" lon="14.987189826533">
        <ele>238</ele>
        <time>2020-03-22T09:53:13Z</time>
      </trkpt>
      <trkpt lat="56.917421282717" lon="14.987106175171">
        <ele>237.6</ele>
        <time>2020-03-22T09:53:22Z</time>
      </trkpt>
      <trkpt lat="56.916882745642" lon="14.987054626486">
        <ele>237.2</ele>
        <time>2020-03-22T09:53:31Z</time>
      </trkpt>
      <trkpt lat="56.916882745642" lon="14.987054626486">
        <ele>237.2</ele>
        <time>2020-03-22T09:53:32Z</time>
      </trkpt>
      <trkpt lat="56.916223928302" lon="14.987043646197">
        <ele>236.6</ele>
        <time>2020-03-22T09:53:41Z</time>
      </trkpt>
      <trkpt lat="56.915663263011" lon="14.986877097844">
        <ele>236.2</ele>
        <time>2020-03-22T09:53:50Z</time>
      </trkpt>
      <trkpt lat="56.915555890872" lon="14.986796631604">
        <ele>236</ele>
        <time>2020-03-22T09:53:53Z</time>
      </trkpt>
      <trkpt lat="56.915416164599" lon="14.98669638408">
        <ele>235.8</ele>
        <time>2020-03-22T09:53:56Z</time>
      </trkpt>
      <trkpt lat="56.915338632024" lon="14.986732845345">
        <ele>235.6</ele>
        <time>2020-03-22T09:53:58Z</time>
      </trkpt>
      <trkpt lat="56.915311474668" lon="14.986994360625">
        <ele>235.6</ele>
        <time>2020-03-22T09:54:01Z</time>
      </trkpt>
      <trkpt lat="56.915376099117" lon="14.98731329192">
        <ele>235.8</ele>
        <time>2020-03-22T09:54:05Z</time>
      </trkpt>
      <trkpt lat="56.915463354696" lon="14.98780866221">
        <ele>235.4</ele>
        <time>2020-03-22T09:54:10Z</time>
      </trkpt>
      <trkpt lat="56.915482968342" lon="14.988135723948">
        <ele>235.2</ele>
        <time>2020-03-22T09:54:14Z</time>
      </trkpt>
      <trkpt lat="56.915467797103" lon="14.988350049131">
        <ele>235</ele>
        <time>2020-03-22T09:54:16Z</time>
      </trkpt>
      <trkpt lat="56.915447177629" lon="14.988450212836">
        <ele>235</ele>
        <time>2020-03-22T09:54:17Z</time>
      </trkpt>
      <trkpt lat="56.915420104092" lon="14.988548029609">
        <ele>235</ele>
        <time>2020-03-22T09:54:18Z</time>
      </trkpt>
      <trkpt lat="56.915154314043" lon="14.989641280826">
        <ele>234.8</ele>
        <time>2020-03-22T09:54:27Z</time>
      </trkpt>
      <trkpt lat="56.915127408144" lon="14.99032993773">
        <ele>234</ele>
        <time>2020-03-22T09:54:32Z</time>
      </trkpt>
      <trkpt lat="56.915100837521" lon="14.991349679684">
        <ele>233.6</ele>
        <time>2020-03-22T09:54:41Z</time>
      </trkpt>
      <trkpt lat="56.915106118118" lon="14.992426921472">
        <ele>234.2</ele>
        <time>2020-03-22T09:54:50Z</time>
      </trkpt>
      <trkpt lat="56.915076194735" lon="14.993072243953">
        <ele>234.4</ele>
        <time>2020-03-22T09:55:09Z</time>
      </trkpt>
      <trkpt lat="56.915071165595" lon="14.993450854376">
        <ele>235.2</ele>
        <time>2020-03-22T09:55:13Z</time>
      </trkpt>
      <trkpt lat="56.915053479786" lon="14.994475793108">
        <ele>235.2</ele>
        <time>2020-03-22T09:55:20Z</time>
      </trkpt>
      <trkpt lat="56.915069153939" lon="14.994959931652">
        <ele>234</ele>
        <time>2020-03-22T09:55:23Z</time>
      </trkpt>
      <trkpt lat="56.915106034299" lon="14.995260506586">
        <ele>233</ele>
        <time>2020-03-22T09:55:25Z</time>
      </trkpt>
      <trkpt lat="56.915345337544" lon="14.996267591871">
        <ele>233.2</ele>
        <time>2020-03-22T09:55:32Z</time>
      </trkpt>
      <trkpt lat="56.915599057657" lon="14.997142159317">
        <ele>233.2</ele>
        <time>2020-03-22T09:55:39Z</time>
      </trkpt>
      <trkpt lat="56.915621688787" lon="14.99725087256">
        <ele>233.2</ele>
        <time>2020-03-22T09:55:41Z</time>
      </trkpt>
      <trkpt lat="56.915930645621" lon="14.998251084687">
        <ele>234.4</ele>
        <time>2020-03-22T09:55:53Z</time>
      </trkpt>
      <trkpt lat="56.916021589236" lon="14.998511677958">
        <ele>235.2</ele>
        <time>2020-03-22T09:55:56Z</time>
      </trkpt>
      <trkpt lat="56.916096607241" lon="14.998790879047">
        <ele>236</ele>
        <time>2020-03-22T09:56:01Z</time>
      </trkpt>
      <trkpt lat="56.91613189504" lon="14.998943513446">
        <ele>236.4</ele>
        <time>2020-03-22T09:56:02Z</time>
      </trkpt>
      <trkpt lat="56.916172379617" lon="14.999155994611">
        <ele>237.6</ele>
        <time>2020-03-22T09:56:05Z</time>
      </trkpt>
      <trkpt lat="56.916336664857" lon="15.000120164568">
        <ele>237.4</ele>
        <time>2020-03-22T09:56:17Z</time>
      </trkpt>
      <trkpt lat="56.916405312618" lon="15.000334489751">
        <ele>236.6</ele>
        <time>2020-03-22T09:56:19Z</time>
      </trkpt>
      <trkpt lat="56.916508996721" lon="15.000576391385">
        <ele>235.2</ele>
        <time>2020-03-22T09:56:21Z</time>
      </trkpt>
      <trkpt lat="56.916703205344" lon="15.000960952957">
        <ele>233.8</ele>
        <time>2020-03-22T09:56:23Z</time>
      </trkpt>
      <trkpt lat="56.916773026571" lon="15.001085340353">
        <ele>232.4</ele>
        <time>2020-03-22T09:56:25Z</time>
      </trkpt>
      <trkpt lat="56.916970336497" lon="15.001467303536">
        <ele>231.2</ele>
        <time>2020-03-22T09:56:27Z</time>
      </trkpt>
      <trkpt lat="56.91715616322" lon="15.001837196783">
        <ele>230.2</ele>
        <time>2020-03-22T09:56:30Z</time>
      </trkpt>
      <trkpt lat="56.917333775681" lon="15.002210275152">
        <ele>228.8</ele>
        <time>2020-03-22T09:56:33Z</time>
      </trkpt>
      <trkpt lat="56.91745707343" lon="15.002459971953">
        <ele>227.6</ele>
        <time>2020-03-22T09:56:36Z</time>
      </trkpt>
      <trkpt lat="56.917692018087" lon="15.00294888818">
        <ele>226.2</ele>
        <time>2020-03-22T09:56:39Z</time>
      </trkpt>
      <trkpt lat="56.917831660541" lon="15.00336882137">
        <ele>225</ele>
        <time>2020-03-22T09:56:42Z</time>
      </trkpt>
      <trkpt lat="56.917870384919" lon="15.003514079697">
        <ele>223.8</ele>
        <time>2020-03-22T09:56:44Z</time>
      </trkpt>
      <trkpt lat="56.917965351846" lon="15.003936778914">
        <ele>222.6</ele>
        <time>2020-03-22T09:56:47Z</time>
      </trkpt>
      <trkpt lat="56.918185879635" lon="15.00494461857">
        <ele>222</ele>
        <time>2020-03-22T09:56:56Z</time>
      </trkpt>
      <trkpt lat="56.918428032726" lon="15.006011382983">
        <ele>221.6</ele>
        <time>2020-03-22T09:57:05Z</time>
      </trkpt>
      <trkpt lat="56.918604723178" lon="15.00699986045">
        <ele>222</ele>
        <time>2020-03-22T09:57:15Z</time>
      </trkpt>
      <trkpt lat="56.918658786433" lon="15.007248635242">
        <ele>222.6</ele>
        <time>2020-03-22T09:57:18Z</time>
      </trkpt>
      <trkpt lat="56.918811923746" lon="15.007856993544">
        <ele>223.6</ele>
        <time>2020-03-22T09:57:26Z</time>
      </trkpt>
      <trkpt lat="56.918855844902" lon="15.0080769346">
        <ele>225</ele>
        <time>2020-03-22T09:57:30Z</time>
      </trkpt>
      <trkpt lat="56.918893311995" lon="15.008217834339">
        <ele>226</ele>
        <time>2020-03-22T09:57:32Z</time>
      </trkpt>
      <trkpt lat="56.918934886219" lon="15.008364769046">
        <ele>226.4</ele>
        <time>2020-03-22T09:57:33Z</time>
      </trkpt>
      <trkpt lat="56.919032702992" lon="15.008789647557">
        <ele>227.2</ele>
        <time>2020-03-22T09:57:40Z</time>
      </trkpt>
      <trkpt lat="56.91909573488" lon="15.009070692664">
        <ele>228.4</ele>
        <time>2020-03-22T09:57:44Z</time>
      </trkpt>
      <trkpt lat="56.919129765394" lon="15.009211508584">
        <ele>228.6</ele>
        <time>2020-03-22T09:57:46Z</time>
      </trkpt>
      <trkpt lat="56.919170501428" lon="15.009433796572">
        <ele>229</ele>
        <time>2020-03-22T09:57:49Z</time>
      </trkpt>
      <trkpt lat="56.919201263001" lon="15.009585592781">
        <ele>229.2</ele>
        <time>2020-03-22T09:57:51Z</time>
      </trkpt>
      <trkpt lat="56.919240322655" lon="15.009832691193">
        <ele>229.4</ele>
        <time>2020-03-22T09:57:53Z</time>
      </trkpt>
      <trkpt lat="56.919359680911" lon="15.010548505453">
        <ele>230.2</ele>
        <time>2020-03-22T09:58:03Z</time>
      </trkpt>
      <trkpt lat="56.919376109435" lon="15.010760651342">
        <ele>230.4</ele>
        <time>2020-03-22T09:58:06Z</time>
      </trkpt>
      <trkpt lat="56.919411900148" lon="15.010970198842">
        <ele>230.4</ele>
        <time>2020-03-22T09:58:08Z</time>
      </trkpt>
      <trkpt lat="56.919472836561" lon="15.011109422201">
        <ele>230.4</ele>
        <time>2020-03-22T09:58:11Z</time>
      </trkpt>
      <trkpt lat="56.919770729287" lon="15.011379989933">
        <ele>231.4</ele>
        <time>2020-03-22T09:58:20Z</time>
      </trkpt>
      <trkpt lat="56.920102736346" lon="15.01153949749">
        <ele>232.6</ele>
        <time>2020-03-22T09:58:27Z</time>
      </trkpt>
      <trkpt lat="56.920492243239" lon="15.011760192917">
        <ele>233</ele>
        <time>2020-03-22T09:58:34Z</time>
      </trkpt>
      <trkpt lat="56.920575224049" lon="15.011864296115">
        <ele>233.2</ele>
        <time>2020-03-22T09:58:37Z</time>
      </trkpt>
      <trkpt lat="56.920638172118" lon="15.012051380123">
        <ele>232.8</ele>
        <time>2020-03-22T09:58:39Z</time>
      </trkpt>
      <trkpt lat="56.92070925063" lon="15.012499560316">
        <ele>231.6</ele>
        <time>2020-03-22T09:58:43Z</time>
      </trkpt>
      <trkpt lat="56.920692570649" lon="15.012732996231">
        <ele>231</ele>
        <time>2020-03-22T09:58:45Z</time>
      </trkpt>
      <trkpt lat="56.92066817932" lon="15.012852689763">
        <ele>230.4</ele>
        <time>2020-03-22T09:58:46Z</time>
      </trkpt>
      <trkpt lat="56.9206279462" lon="15.013104146763">
        <ele>229.6</ele>
        <time>2020-03-22T09:58:47Z</time>
      </trkpt>
      <trkpt lat="56.920624174345" lon="15.013235072041">
        <ele>228.8</ele>
        <time>2020-03-22T09:58:48Z</time>
      </trkpt>
      <trkpt lat="56.9206279462" lon="15.013367170785">
        <ele>228</ele>
        <time>2020-03-22T09:58:49Z</time>
      </trkpt>
      <trkpt lat="56.9206279462" lon="15.013367170785">
        <ele>227</ele>
        <time>2020-03-22T09:58:50Z</time>
      </trkpt>
      <trkpt lat="56.920663233999" lon="15.01360982679">
        <ele>226.2</ele>
        <time>2020-03-22T09:58:51Z</time>
      </trkpt>
      <trkpt lat="56.920663233999" lon="15.01360982679">
        <ele>225.8</ele>
        <time>2020-03-22T09:58:52Z</time>
      </trkpt>
      <trkpt lat="56.920732636131" lon="15.014022635365">
        <ele>225.2</ele>
        <time>2020-03-22T09:58:56Z</time>
      </trkpt>
      <trkpt lat="56.920787789033" lon="15.014390684594">
        <ele>225.8</ele>
        <time>2020-03-22T09:59:00Z</time>
      </trkpt>
      <trkpt lat="56.920794410734" lon="15.01477239632">
        <ele>226.2</ele>
        <time>2020-03-22T09:59:06Z</time>
      </trkpt>
      <trkpt lat="56.92078301135" lon="15.014981357087">
        <ele>226.8</ele>
        <time>2020-03-22T09:59:09Z</time>
      </trkpt>
      <trkpt lat="56.920761721324" lon="15.015728016739">
        <ele>228</ele>
        <time>2020-03-22T09:59:19Z</time>
      </trkpt>
      <trkpt lat="56.92078301135" lon="15.015903869001">
        <ele>228.2</ele>
        <time>2020-03-22T09:59:21Z</time>
      </trkpt>
      <trkpt lat="56.920792399078" lon="15.01623587606">
        <ele>228.4</ele>
        <time>2020-03-22T09:59:25Z</time>
      </trkpt>
      <trkpt lat="56.920784520092" lon="15.016535193709">
        <ele>228.4</ele>
        <time>2020-03-22T09:59:28Z</time>
      </trkpt>
      <trkpt lat="56.920793656363" lon="15.01703634751">
        <ele>228</ele>
        <time>2020-03-22T09:59:33Z</time>
      </trkpt>
      <trkpt lat="56.920708496259" lon="15.017239776223">
        <ele>228</ele>
        <time>2020-03-22T09:59:35Z</time>
      </trkpt>
      <trkpt lat="56.920613445513" lon="15.017309094536">
        <ele>228</ele>
        <time>2020-03-22T09:59:37Z</time>
      </trkpt>
      <trkpt lat="56.920449495549" lon="15.017437756701">
        <ele>227.2</ele>
        <time>2020-03-22T09:59:41Z</time>
      </trkpt>
      <trkpt lat="56.920316223339" lon="15.017622158501">
        <ele>227</ele>
        <time>2020-03-22T09:59:43Z</time>
      </trkpt>
      <trkpt lat="56.920246402112" lon="15.01777982204">
        <ele>226.6</ele>
        <time>2020-03-22T09:59:46Z</time>
      </trkpt>
      <trkpt lat="56.920109358047" lon="15.018263206213">
        <ele>226.2</ele>
        <time>2020-03-22T09:59:51Z</time>
      </trkpt>
      <trkpt lat="56.920070130755" lon="15.018790260085">
        <ele>226</ele>
        <time>2020-03-22T09:59:56Z</time>
      </trkpt>
      <trkpt lat="56.919997375863" lon="15.019841434164">
        <ele>225.8</ele>
        <time>2020-03-22T10:00:05Z</time>
      </trkpt>
      <trkpt lat="56.919973655086" lon="15.02088615418">
        <ele>225.4</ele>
        <time>2020-03-22T10:00:16Z</time>
      </trkpt>
      <trkpt lat="56.919915233243" lon="15.021871614163">
        <ele>225.2</ele>
        <time>2020-03-22T10:00:26Z</time>
      </trkpt>
      <trkpt lat="56.919927554636" lon="15.022590948821">
        <ele>225.4</ele>
        <time>2020-03-22T10:00:33Z</time>
      </trkpt>
      <trkpt lat="56.919992179085" lon="15.022737799709">
        <ele>225.6</ele>
        <time>2020-03-22T10:00:35Z</time>
      </trkpt>
      <trkpt lat="56.920095024998" lon="15.022823630365">
        <ele>225.8</ele>
        <time>2020-03-22T10:00:37Z</time>
      </trkpt>
      <trkpt lat="56.920343967428" lon="15.022867719159">
        <ele>226</ele>
        <time>2020-03-22T10:00:41Z</time>
      </trkpt>
      <trkpt lat="56.920912595524" lon="15.023011552563">
        <ele>226.4</ele>
        <time>2020-03-22T10:00:50Z</time>
      </trkpt>
      <trkpt lat="56.921478625231" lon="15.023193188336">
        <ele>226.4</ele>
        <time>2020-03-22T10:01:01Z</time>
      </trkpt>
      <trkpt lat="56.921582979886" lon="15.023205342091">
        <ele>226.6</ele>
        <time>2020-03-22T10:01:02Z</time>
      </trkpt>
      <trkpt lat="56.921896379127" lon="15.023230403972">
        <ele>226.6</ele>
        <time>2020-03-22T10:01:08Z</time>
      </trkpt>
      <trkpt lat="56.921948682183" lon="15.0232565555">
        <ele>226.4</ele>
        <time>2020-03-22T10:01:10Z</time>
      </trkpt>
      <trkpt lat="56.922036440676" lon="15.023364430553">
        <ele>226.4</ele>
        <time>2020-03-22T10:01:12Z</time>
      </trkpt>
      <trkpt lat="56.922095868347" lon="15.023542881204">
        <ele>226.4</ele>
        <time>2020-03-22T10:01:14Z</time>
      </trkpt>
      <trkpt lat="56.922270714781" lon="15.024097846803">
        <ele>225.6</ele>
        <time>2020-03-22T10:01:21Z</time>
      </trkpt>
      <trkpt lat="56.922406920656" lon="15.024153251162">
        <ele>225.2</ele>
        <time>2020-03-22T10:01:25Z</time>
      </trkpt>
      <trkpt lat="56.92282735676" lon="15.023778496413">
        <ele>227</ele>
        <time>2020-03-22T10:01:35Z</time>
      </trkpt>
      <trkpt lat="56.922934225985" lon="15.023733317972">
        <ele>227</ele>
        <time>2020-03-22T10:01:36Z</time>
      </trkpt>
      <trkpt lat="56.923048555101" lon="15.023703981322">
        <ele>227.4</ele>
        <time>2020-03-22T10:01:38Z</time>
      </trkpt>
      <trkpt lat="56.923597066637" lon="15.023580851211">
        <ele>227</ele>
        <time>2020-03-22T10:01:48Z</time>
      </trkpt>
      <trkpt lat="56.924145578173" lon="15.023505162654">
        <ele>226</ele>
        <time>2020-03-22T10:01:57Z</time>
      </trkpt>
      <trkpt lat="56.924328890326" lon="15.023536259503">
        <ele>225.8</ele>
        <time>2020-03-22T10:02:00Z</time>
      </trkpt>
      <trkpt lat="56.9247769867" lon="15.023628460403">
        <ele>224.8</ele>
        <time>2020-03-22T10:02:05Z</time>
      </trkpt>
      <trkpt lat="56.925409317236" lon="15.023930795536">
        <ele>224.8</ele>
        <time>2020-03-22T10:02:14Z</time>
      </trkpt>
      <trkpt lat="56.925975263124" lon="15.024199183974">
        <ele>225.2</ele>
        <time>2020-03-22T10:02:24Z</time>
      </trkpt>
      <trkpt lat="56.926155054879" lon="15.024284595535">
        <ele>226</ele>
        <time>2020-03-22T10:02:27Z</time>
      </trkpt>
      <trkpt lat="56.926698704913" lon="15.024527335359">
        <ele>226</ele>
        <time>2020-03-22T10:02:37Z</time>
      </trkpt>
      <trkpt lat="56.926822002662" lon="15.024577878216">
        <ele>225.8</ele>
        <time>2020-03-22T10:02:39Z</time>
      </trkpt>
      <trkpt lat="56.927388702921" lon="15.024763118206">
        <ele>225.6</ele>
        <time>2020-03-22T10:02:49Z</time>
      </trkpt>
      <trkpt lat="56.927667820191" lon="15.024794885607">
        <ele>224.8</ele>
        <time>2020-03-22T10:02:53Z</time>
      </trkpt>
      <trkpt lat="56.928012567738" lon="15.024775607237">
        <ele>225.4</ele>
        <time>2020-03-22T10:02:59Z</time>
      </trkpt>
      <trkpt lat="56.928060428387" lon="15.024767392975">
        <ele>225.4</ele>
        <time>2020-03-22T10:03:01Z</time>
      </trkpt>
      <trkpt lat="56.928213481881" lon="15.024755909772">
        <ele>225.2</ele>
        <time>2020-03-22T10:03:03Z</time>
      </trkpt>
      <trkpt lat="56.928327056626" lon="15.024747946967">
        <ele>225.6</ele>
        <time>2020-03-22T10:03:06Z</time>
      </trkpt>
      <trkpt lat="56.928371648334" lon="15.024742079637">
        <ele>225.8</ele>
        <time>2020-03-22T10:03:07Z</time>
      </trkpt>
      <trkpt lat="56.928643976265" lon="15.024700170137">
        <ele>226.6</ele>
        <time>2020-03-22T10:03:12Z</time>
      </trkpt>
      <trkpt lat="56.928798370863" lon="15.024663960329">
        <ele>226.8</ele>
        <time>2020-03-22T10:03:14Z</time>
      </trkpt>
      <trkpt lat="56.929092994648" lon="15.024650716927">
        <ele>227.8</ele>
        <time>2020-03-22T10:03:20Z</time>
      </trkpt>
      <trkpt lat="56.929636644682" lon="15.024516522708">
        <ele>228.6</ele>
        <time>2020-03-22T10:03:28Z</time>
      </trkpt>
      <trkpt lat="56.93012631528" lon="15.02442499236">
        <ele>228.2</ele>
        <time>2020-03-22T10:03:42Z</time>
      </trkpt>
      <trkpt lat="56.930148862591" lon="15.024417281012">
        <ele>228.4</ele>
        <time>2020-03-22T10:03:44Z</time>
      </trkpt>
      <trkpt lat="56.930378945746" lon="15.024382496127">
        <ele>229</ele>
        <time>2020-03-22T10:03:50Z</time>
      </trkpt>
      <trkpt lat="56.930627720538" lon="15.024225419321">
        <ele>228</ele>
        <time>2020-03-22T10:04:04Z</time>
      </trkpt>
      <trkpt lat="56.930691171521" lon="15.024098852631">
        <ele>227.6</ele>
        <time>2020-03-22T10:04:13Z</time>
      </trkpt>
      <trkpt lat="56.93071053371" lon="15.024150149859">
        <ele>227.8</ele>
        <time>2020-03-22T10:04:19Z</time>
      </trkpt>
      <trkpt lat="56.930770967209" lon="15.024147467651">
        <ele>228</ele>
        <time>2020-03-22T10:04:24Z</time>
      </trkpt>
      <trkpt lat="56.931182686137" lon="15.02381143728">
        <ele>229</ele>
        <time>2020-03-22T10:04:38Z</time>
      </trkpt>
      <trkpt lat="56.931665315939" lon="15.023360574879">
        <ele>229.4</ele>
        <time>2020-03-22T10:04:56Z</time>
      </trkpt>
      <trkpt lat="56.932230423637" lon="15.02324062989">
        <ele>229.8</ele>
        <time>2020-03-22T10:05:11Z</time>
      </trkpt>
      <trkpt lat="56.932793854955" lon="15.023172904138">
        <ele>229.4</ele>
        <time>2020-03-22T10:05:24Z</time>
      </trkpt>
      <trkpt lat="56.93337430153" lon="15.023084558912">
        <ele>229</ele>
        <time>2020-03-22T10:05:36Z</time>
      </trkpt>
      <trkpt lat="56.933482595678" lon="15.023070309682">
        <ele>229.2</ele>
        <time>2020-03-22T10:05:38Z</time>
      </trkpt>
      <trkpt lat="56.933962962367" lon="15.022968888692">
        <ele>229.2</ele>
        <time>2020-03-22T10:05:47Z</time>
      </trkpt>
      <trkpt lat="56.934345847559" lon="15.022831509351">
        <ele>230.2</ele>
        <time>2020-03-22T10:05:54Z</time>
      </trkpt>
      <trkpt lat="56.934488172221" lon="15.022778703381">
        <ele>231.4</ele>
        <time>2020-03-22T10:05:57Z</time>
      </trkpt>
      <trkpt lat="56.934742562886" lon="15.022685245196">
        <ele>231.6</ele>
        <time>2020-03-22T10:06:02Z</time>
      </trkpt>
      <trkpt lat="56.935280764685" lon="15.022524647992">
        <ele>232</ele>
        <time>2020-03-22T10:06:12Z</time>
      </trkpt>
      <trkpt lat="56.935638671815" lon="15.022404870641">
        <ele>230.4</ele>
        <time>2020-03-22T10:06:18Z</time>
      </trkpt>
      <trkpt lat="56.935811422774" lon="15.022319039985">
        <ele>229.8</ele>
        <time>2020-03-22T10:06:21Z</time>
      </trkpt>
      <trkpt lat="56.936033626943" lon="15.0221417628">
        <ele>229.4</ele>
        <time>2020-03-22T10:06:24Z</time>
      </trkpt>
      <trkpt lat="56.93614871043" lon="15.02203028353">
        <ele>229.2</ele>
        <time>2020-03-22T10:06:26Z</time>
      </trkpt>
      <trkpt lat="56.936286844142" lon="15.021812018854">
        <ele>228.6</ele>
        <time>2020-03-22T10:06:30Z</time>
      </trkpt>
      <trkpt lat="56.936369657314" lon="15.021586964839">
        <ele>228.8</ele>
        <time>2020-03-22T10:06:32Z</time>
      </trkpt>
      <trkpt lat="56.936472503227" lon="15.021402143944">
        <ele>228.8</ele>
        <time>2020-03-22T10:06:35Z</time>
      </trkpt>
      <trkpt lat="56.936806019028" lon="15.020636457379">
        <ele>229.4</ele>
        <time>2020-03-22T10:06:50Z</time>
      </trkpt>
      <trkpt lat="56.937056554019" lon="15.019735654586">
        <ele>229</ele>
        <time>2020-03-22T10:07:05Z</time>
      </trkpt>
      <trkpt lat="56.937409683466" lon="15.019079267997">
        <ele>229.2</ele>
        <time>2020-03-22T10:07:20Z</time>
      </trkpt>
      <trkpt lat="56.937738589222" lon="15.018710883492">
        <ele>228.4</ele>
        <time>2020-03-22T10:07:30Z</time>
      </trkpt>
      <trkpt lat="56.938262541791" lon="15.018427575272">
        <ele>228</ele>
        <time>2020-03-22T10:07:46Z</time>
      </trkpt>
      <trkpt lat="56.938305624757" lon="15.018407877807">
        <ele>228</ele>
        <time>2020-03-22T10:07:47Z</time>
      </trkpt>
      <trkpt lat="56.93867752966" lon="15.018382983564">
        <ele>227.6</ele>
        <time>2020-03-22T10:07:56Z</time>
      </trkpt>
      <trkpt lat="56.938764449963" lon="15.0183950535">
        <ele>227.4</ele>
        <time>2020-03-22T10:07:59Z</time>
      </trkpt>
      <trkpt lat="56.938874420491" lon="15.018389353808">
        <ele>227.2</ele>
        <time>2020-03-22T10:08:01Z</time>
      </trkpt>
      <trkpt lat="56.939372724446" lon="15.018267480982">
        <ele>227</ele>
        <time>2020-03-22T10:08:10Z</time>
      </trkpt>
      <trkpt lat="56.939876225179" lon="15.017883422324">
        <ele>226.6</ele>
        <time>2020-03-22T10:08:21Z</time>
      </trkpt>
      <trkpt lat="56.940109074361" lon="15.017583853218">
        <ele>226.8</ele>
        <time>2020-03-22T10:08:28Z</time>
      </trkpt>
      <trkpt lat="56.940307054839" lon="15.017404732015">
        <ele>226.4</ele>
        <time>2020-03-22T10:08:31Z</time>
      </trkpt>
      <trkpt lat="56.940395986798" lon="15.017291911641">
        <ele>226.2</ele>
        <time>2020-03-22T10:08:34Z</time>
      </trkpt>
      <trkpt lat="56.940566307006" lon="15.017054117138">
        <ele>226.2</ele>
        <time>2020-03-22T10:08:37Z</time>
      </trkpt>
      <trkpt lat="56.940602600633" lon="15.016976752201">
        <ele>226</ele>
        <time>2020-03-22T10:08:39Z</time>
      </trkpt>
      <trkpt lat="56.940700752682" lon="15.01671615893">
        <ele>225.8</ele>
        <time>2020-03-22T10:08:41Z</time>
      </trkpt>
      <trkpt lat="56.940841065688" lon="15.016227913255">
        <ele>225.2</ele>
        <time>2020-03-22T10:08:46Z</time>
      </trkpt>
      <trkpt lat="56.941113058343" lon="15.015335324724">
        <ele>225.4</ele>
        <time>2020-03-22T10:08:57Z</time>
      </trkpt>
      <trkpt lat="56.941131163247" lon="15.015233484639">
        <ele>225.2</ele>
        <time>2020-03-22T10:08:58Z</time>
      </trkpt>
      <trkpt lat="56.941164942304" lon="15.015045897717">
        <ele>225</ele>
        <time>2020-03-22T10:09:00Z</time>
      </trkpt>
      <trkpt lat="56.941340124014" lon="15.014539714776">
        <ele>225</ele>
        <time>2020-03-22T10:09:06Z</time>
      </trkpt>
      <trkpt lat="56.941432157276" lon="15.014281049342">
        <ele>225</ele>
        <time>2020-03-22T10:09:09Z</time>
      </trkpt>
      <trkpt lat="56.941584121123" lon="15.013843178886">
        <ele>224.8</ele>
        <time>2020-03-22T10:09:13Z</time>
      </trkpt>
      <trkpt lat="56.941672969263" lon="15.013585435461">
        <ele>224.8</ele>
        <time>2020-03-22T10:09:17Z</time>
      </trkpt>
      <trkpt lat="56.941747903449" lon="15.013322243801">
        <ele>224.8</ele>
        <time>2020-03-22T10:09:20Z</time>
      </trkpt>
      <trkpt lat="56.941805068007" lon="15.013071205896">
        <ele>224.6</ele>
        <time>2020-03-22T10:09:23Z</time>
      </trkpt>
      <trkpt lat="56.942027020719" lon="15.012462596137">
        <ele>224</ele>
        <time>2020-03-22T10:09:30Z</time>
      </trkpt>
      <trkpt lat="56.942242938463" lon="15.011882233381">
        <ele>224</ele>
        <time>2020-03-22T10:09:36Z</time>
      </trkpt>
      <trkpt lat="56.942595313539" lon="15.01110028593">
        <ele>223.4</ele>
        <time>2020-03-22T10:09:44Z</time>
      </trkpt>
      <trkpt lat="56.942679970729" lon="15.01093348612">
        <ele>223.2</ele>
        <time>2020-03-22T10:09:46Z</time>
      </trkpt>
      <trkpt lat="56.942940228724" lon="15.010491173257">
        <ele>223</ele>
        <time>2020-03-22T10:09:53Z</time>
      </trkpt>
      <trkpt lat="56.943009127942" lon="15.010338203582">
        <ele>222.8</ele>
        <time>2020-03-22T10:09:55Z</time>
      </trkpt>
      <trkpt lat="56.943155392097" lon="15.00998716961">
        <ele>222</ele>
        <time>2020-03-22T10:09:59Z</time>
      </trkpt>
      <trkpt lat="56.943287490841" lon="15.009737808085">
        <ele>221.8</ele>
        <time>2020-03-22T10:10:02Z</time>
      </trkpt>
      <trkpt lat="56.943393857152" lon="15.009645271909">
        <ele>221.8</ele>
        <time>2020-03-22T10:10:04Z</time>
      </trkpt>
      <trkpt lat="56.943993414459" lon="15.009419379704">
        <ele>221.6</ele>
        <time>2020-03-22T10:10:12Z</time>
      </trkpt>
      <trkpt lat="56.944504123626" lon="15.009066334076">
        <ele>221.6</ele>
        <time>2020-03-22T10:10:19Z</time>
      </trkpt>
      <trkpt lat="56.945028579109" lon="15.008692417517">
        <ele>221.8</ele>
        <time>2020-03-22T10:10:27Z</time>
      </trkpt>
      <trkpt lat="56.945462845348" lon="15.008387148719">
        <ele>221</ele>
        <time>2020-03-22T10:10:34Z</time>
      </trkpt>
      <trkpt lat="56.946018062404" lon="15.008060506076">
        <ele>221.6</ele>
        <time>2020-03-22T10:10:44Z</time>
      </trkpt>
      <trkpt lat="56.94654226643" lon="15.007942405105">
        <ele>221.8</ele>
        <time>2020-03-22T10:10:51Z</time>
      </trkpt>
      <trkpt lat="56.947075606727" lon="15.008226551515">
        <ele>221.4</ele>
        <time>2020-03-22T10:11:01Z</time>
      </trkpt>
      <trkpt lat="56.947543400566" lon="15.008625865231">
        <ele>222</ele>
        <time>2020-03-22T10:11:09Z</time>
      </trkpt>
      <trkpt lat="56.947601068038" lon="15.008677330097">
        <ele>222</ele>
        <time>2020-03-22T10:11:10Z</time>
      </trkpt>
      <trkpt lat="56.947887896656" lon="15.00888830252">
        <ele>222</ele>
        <time>2020-03-22T10:11:14Z</time>
      </trkpt>
      <trkpt lat="56.948139940389" lon="15.008976228651">
        <ele>222.2</ele>
        <time>2020-03-22T10:11:19Z</time>
      </trkpt>
      <trkpt lat="56.948247731623" lon="15.008956028272">
        <ele>222</ele>
        <time>2020-03-22T10:11:21Z</time>
      </trkpt>
      <trkpt lat="56.948352002459" lon="15.008742206003">
        <ele>221.6</ele>
        <time>2020-03-22T10:11:23Z</time>
      </trkpt>
      <trkpt lat="56.948677555455" lon="15.007943327114">
        <ele>221.4</ele>
        <time>2020-03-22T10:11:32Z</time>
      </trkpt>
      <trkpt lat="56.948730948158" lon="15.007873086792">
        <ele>221.6</ele>
        <time>2020-03-22T10:11:34Z</time>
      </trkpt>
      <trkpt lat="56.94891937327" lon="15.007723972791">
        <ele>221.6</ele>
        <time>2020-03-22T10:11:37Z</time>
      </trkpt>
      <trkpt lat="56.949046107598" lon="15.007661779093">
        <ele>221.8</ele>
        <time>2020-03-22T10:11:39Z</time>
      </trkpt>
      <trkpt lat="56.949586069596" lon="15.00769807272">
        <ele>222.8</ele>
        <time>2020-03-22T10:11:47Z</time>
      </trkpt>
      <trkpt lat="56.949652538063" lon="15.007698324177">
        <ele>222.6</ele>
        <time>2020-03-22T10:11:48Z</time>
      </trkpt>
      <trkpt lat="56.94991765756" lon="15.007639315601">
        <ele>222.4</ele>
        <time>2020-03-22T10:11:52Z</time>
      </trkpt>
      <trkpt lat="56.950291909395" lon="15.007348798947">
        <ele>222</ele>
        <time>2020-03-22T10:11:57Z</time>
      </trkpt>
      <trkpt lat="56.950445884898" lon="15.007110082435">
        <ele>221.8</ele>
        <time>2020-03-22T10:12:01Z</time>
      </trkpt>
      <trkpt lat="56.95053205083" lon="15.006869857181">
        <ele>221.6</ele>
        <time>2020-03-22T10:12:03Z</time>
      </trkpt>
      <trkpt lat="56.950571529579" lon="15.006620411837">
        <ele>221.4</ele>
        <time>2020-03-22T10:12:05Z</time>
      </trkpt>
      <trkpt lat="56.950543953128" lon="15.006116659647">
        <ele>221.2</ele>
        <time>2020-03-22T10:12:09Z</time>
      </trkpt>
      <trkpt lat="56.950570775208" lon="15.005870399425">
        <ele>220.8</ele>
        <time>2020-03-22T10:12:11Z</time>
      </trkpt>
      <trkpt lat="56.950731875326" lon="15.005303950623">
        <ele>220.2</ele>
        <time>2020-03-22T10:12:15Z</time>
      </trkpt>
      <trkpt lat="56.950780657984" lon="15.005210073343">
        <ele>220</ele>
        <time>2020-03-22T10:12:17Z</time>
      </trkpt>
      <trkpt lat="56.950966903802" lon="15.004998095092">
        <ele>219.8</ele>
        <time>2020-03-22T10:12:19Z</time>
      </trkpt>
      <trkpt lat="56.951412820882" lon="15.004670949535">
        <ele>219.6</ele>
        <time>2020-03-22T10:12:26Z</time>
      </trkpt>
      <trkpt lat="56.952010953266" lon="15.004589309829">
        <ele>219.8</ele>
        <time>2020-03-22T10:12:35Z</time>
      </trkpt>
      <trkpt lat="56.952597770085" lon="15.004698861262">
        <ele>219.4</ele>
        <time>2020-03-22T10:12:44Z</time>
      </trkpt>
      <trkpt lat="56.953154160607" lon="15.004756947829">
        <ele>219.4</ele>
        <time>2020-03-22T10:12:54Z</time>
      </trkpt>
      <trkpt lat="56.953225825852" lon="15.004865409615">
        <ele>219.4</ele>
        <time>2020-03-22T10:12:56Z</time>
      </trkpt>
      <trkpt lat="56.953291037034" lon="15.005124075049">
        <ele>219.4</ele>
        <time>2020-03-22T10:12:58Z</time>
      </trkpt>
      <trkpt lat="56.953483569277" lon="15.006075923613">
        <ele>219.8</ele>
        <time>2020-03-22T10:13:08Z</time>
      </trkpt>
      <trkpt lat="56.95366855781" lon="15.007005392504">
        <ele>220</ele>
        <time>2020-03-22T10:13:19Z</time>
      </trkpt>
      <trkpt lat="56.953783473659" lon="15.007754147631">
        <ele>218.6</ele>
        <time>2020-03-22T10:13:26Z</time>
      </trkpt>
      <trkpt lat="56.953869471953" lon="15.008223031117">
        <ele>217.4</ele>
        <time>2020-03-22T10:13:30Z</time>
      </trkpt>
      <trkpt lat="56.95395940974" lon="15.008721921805">
        <ele>216</ele>
        <time>2020-03-22T10:13:33Z</time>
      </trkpt>
      <trkpt lat="56.953984639259" lon="15.008857205671">
        <ele>215</ele>
        <time>2020-03-22T10:13:35Z</time>
      </trkpt>
      <trkpt lat="56.954072733028" lon="15.009392389986">
        <ele>213.6</ele>
        <time>2020-03-22T10:13:39Z</time>
      </trkpt>
      <trkpt lat="56.954139452952" lon="15.0098958069">
        <ele>212.4</ele>
        <time>2020-03-22T10:13:41Z</time>
      </trkpt>
      <trkpt lat="56.954165939756" lon="15.01007601775">
        <ele>210.8</ele>
        <time>2020-03-22T10:13:43Z</time>
      </trkpt>
      <trkpt lat="56.954249255842" lon="15.01059821012">
        <ele>209.6</ele>
        <time>2020-03-22T10:13:45Z</time>
      </trkpt>
      <trkpt lat="56.954307510047" lon="15.010945136961">
        <ele>208.2</ele>
        <time>2020-03-22T10:13:48Z</time>
      </trkpt>
      <trkpt lat="56.954400716775" lon="15.011465150037">
        <ele>207</ele>
        <time>2020-03-22T10:13:51Z</time>
      </trkpt>
      <trkpt lat="56.954558799409" lon="15.012037717626">
        <ele>205.8</ele>
        <time>2020-03-22T10:13:54Z</time>
      </trkpt>
      <trkpt lat="56.9546584602" lon="15.012269058066">
        <ele>204.6</ele>
        <time>2020-03-22T10:13:57Z</time>
      </trkpt>
      <trkpt lat="56.955078980123" lon="15.013003312506">
        <ele>204.6</ele>
        <time>2020-03-22T10:14:04Z</time>
      </trkpt>
      <trkpt lat="56.955242510992" lon="15.013353927383">
        <ele>204.6</ele>
        <time>2020-03-22T10:14:09Z</time>
      </trkpt>
      <trkpt lat="56.955410232811" lon="15.013934038682">
        <ele>204.2</ele>
        <time>2020-03-22T10:14:14Z</time>
      </trkpt>
      <trkpt lat="56.955424230584" lon="15.014151129892">
        <ele>204.2</ele>
        <time>2020-03-22T10:14:16Z</time>
      </trkpt>
      <trkpt lat="56.955407382965" lon="15.014498727285">
        <ele>204.2</ele>
        <time>2020-03-22T10:14:20Z</time>
      </trkpt>
      <trkpt lat="56.9552535751" lon="15.015488881132">
        <ele>204</ele>
        <time>2020-03-22T10:14:28Z</time>
      </trkpt>
      <trkpt lat="56.955164056408" lon="15.016071255544">
        <ele>203.6</ele>
        <time>2020-03-22T10:14:33Z</time>
      </trkpt>
      <trkpt lat="56.955091133878" lon="15.016543910885">
        <ele>204</ele>
        <time>2020-03-22T10:14:38Z</time>
      </trkpt>
      <trkpt lat="56.955028437266" lon="15.016905338413">
        <ele>204.8</ele>
        <time>2020-03-22T10:14:41Z</time>
      </trkpt>
      <trkpt lat="56.954896254703" lon="15.017747551725">
        <ele>205.8</ele>
        <time>2020-03-22T10:14:50Z</time>
      </trkpt>
      <trkpt lat="56.954852836461" lon="15.018032368687">
        <ele>206.2</ele>
        <time>2020-03-22T10:14:53Z</time>
      </trkpt>
      <trkpt lat="56.954805059631" lon="15.018481219432">
        <ele>206.8</ele>
        <time>2020-03-22T10:14:58Z</time>
      </trkpt>
      <trkpt lat="56.954744374675" lon="15.019123021515">
        <ele>207.8</ele>
        <time>2020-03-22T10:15:05Z</time>
      </trkpt>
      <trkpt lat="56.954618394718" lon="15.020220798958">
        <ele>208.4</ele>
        <time>2020-03-22T10:15:15Z</time>
      </trkpt>
      <trkpt lat="56.954543292894" lon="15.020967039515">
        <ele>208.2</ele>
        <time>2020-03-22T10:15:23Z</time>
      </trkpt>
      <trkpt lat="56.954465173586" lon="15.021753094097">
        <ele>209</ele>
        <time>2020-03-22T10:15:32Z</time>
      </trkpt>
      <trkpt lat="56.954422174439" lon="15.022142517171">
        <ele>210</ele>
        <time>2020-03-22T10:15:36Z</time>
      </trkpt>
      <trkpt lat="56.954291416799" lon="15.023118589426">
        <ele>210.2</ele>
        <time>2020-03-22T10:15:45Z</time>
      </trkpt>
      <trkpt lat="56.954176249493" lon="15.023913864098">
        <ele>211.2</ele>
        <time>2020-03-22T10:15:54Z</time>
      </trkpt>
      <trkpt lat="56.954079187091" lon="15.024427004016">
        <ele>212.2</ele>
        <time>2020-03-22T10:15:59Z</time>
      </trkpt>
      <trkpt lat="56.953902748096" lon="15.025382540616">
        <ele>212.8</ele>
        <time>2020-03-22T10:16:09Z</time>
      </trkpt>
      <trkpt lat="56.953812391214" lon="15.025924095175">
        <ele>213</ele>
        <time>2020-03-22T10:16:14Z</time>
      </trkpt>
      <trkpt lat="56.95370627636" lon="15.026607974396">
        <ele>212.4</ele>
        <time>2020-03-22T10:16:21Z</time>
      </trkpt>
      <trkpt lat="56.95368448342" lon="15.02695464978">
        <ele>212.6</ele>
        <time>2020-03-22T10:16:25Z</time>
      </trkpt>
      <trkpt lat="56.953705019075" lon="15.027243070959">
        <ele>213.6</ele>
        <time>2020-03-22T10:16:29Z</time>
      </trkpt>
      <trkpt lat="56.953722034332" lon="15.027463766386">
        <ele>214.8</ele>
        <time>2020-03-22T10:16:33Z</time>
      </trkpt>
      <trkpt lat="56.953748940231" lon="15.028035244328">
        <ele>215.4</ele>
        <time>2020-03-22T10:16:38Z</time>
      </trkpt>
      <trkpt lat="56.953773415379" lon="15.028363982446">
        <ele>215</ele>
        <time>2020-03-22T10:16:41Z</time>
      </trkpt>
      <trkpt lat="56.953834687068" lon="15.029124053138">
        <ele>215.2</ele>
        <time>2020-03-22T10:16:50Z</time>
      </trkpt>
      <trkpt lat="56.953849187755" lon="15.029425717719">
        <ele>215.4</ele>
        <time>2020-03-22T10:16:52Z</time>
      </trkpt>
      <trkpt lat="56.95383284305" lon="15.029656890521">
        <ele>215.2</ele>
        <time>2020-03-22T10:16:54Z</time>
      </trkpt>
      <trkpt lat="56.953776265225" lon="15.030029382157">
        <ele>214.2</ele>
        <time>2020-03-22T10:16:59Z</time>
      </trkpt>
      <trkpt lat="56.953782970745" lon="15.030222668771">
        <ele>214</ele>
        <time>2020-03-22T10:17:01Z</time>
      </trkpt>
      <trkpt lat="56.953795627414" lon="15.030327023426">
        <ele>213.8</ele>
        <time>2020-03-22T10:17:02Z</time>
      </trkpt>
      <trkpt lat="56.953816246888" lon="15.030434730841">
        <ele>213.8</ele>
        <time>2020-03-22T10:17:03Z</time>
      </trkpt>
      <trkpt lat="56.953915320946" lon="15.030887353441">
        <ele>214</ele>
        <time>2020-03-22T10:17:06Z</time>
      </trkpt>
      <trkpt lat="56.95395605698" lon="15.031105450479">
        <ele>214.2</ele>
        <time>2020-03-22T10:17:08Z</time>
      </trkpt>
      <trkpt lat="56.953968294554" lon="15.031220869242">
        <ele>214.2</ele>
        <time>2020-03-22T10:17:10Z</time>
      </trkpt>
      <trkpt lat="56.95405999254" lon="15.031937018778">
        <ele>213.2</ele>
        <time>2020-03-22T10:17:16Z</time>
      </trkpt>
      <trkpt lat="56.954144314454" lon="15.032226948699">
        <ele>213.6</ele>
        <time>2020-03-22T10:17:21Z</time>
      </trkpt>
      <trkpt lat="56.954258895027" lon="15.032401040762">
        <ele>213.6</ele>
        <time>2020-03-22T10:17:23Z</time>
      </trkpt>
      <trkpt lat="56.954275658827" lon="15.032490391816">
        <ele>213.6</ele>
        <time>2020-03-22T10:17:25Z</time>
      </trkpt>
      <trkpt lat="56.954343719855" lon="15.032656437255">
        <ele>213.4</ele>
        <time>2020-03-22T10:17:27Z</time>
      </trkpt>
      <trkpt lat="56.954466682328" lon="15.032762719747">
        <ele>213</ele>
        <time>2020-03-22T10:17:29Z</time>
      </trkpt>
      <trkpt lat="56.954524601257" lon="15.03275492458">
        <ele>212.8</ele>
        <time>2020-03-22T10:17:30Z</time>
      </trkpt>
      <trkpt lat="56.954631889577" lon="15.032650318468">
        <ele>212.4</ele>
        <time>2020-03-22T10:17:31Z</time>
      </trkpt>
      <trkpt lat="56.954768430728" lon="15.032443285538">
        <ele>211.8</ele>
        <time>2020-03-22T10:17:34Z</time>
      </trkpt>
      <trkpt lat="56.954819141223" lon="15.032387964998">
        <ele>211.8</ele>
        <time>2020-03-22T10:17:35Z</time>
      </trkpt>
      <trkpt lat="56.955311158753" lon="15.032002062322">
        <ele>211.8</ele>
        <time>2020-03-22T10:17:45Z</time>
      </trkpt>
      <trkpt lat="56.955568566902" lon="15.031939030434">
        <ele>212</ele>
        <time>2020-03-22T10:17:49Z</time>
      </trkpt>
      <trkpt lat="56.956061757898" lon="15.031816570875">
        <ele>212.2</ele>
        <time>2020-03-22T10:17:58Z</time>
      </trkpt>
      <trkpt lat="56.956456713026" lon="15.031547176609">
        <ele>212.6</ele>
        <time>2020-03-22T10:18:05Z</time>
      </trkpt>
      <trkpt lat="56.956625524492" lon="15.031458915202">
        <ele>212.8</ele>
        <time>2020-03-22T10:18:07Z</time>
      </trkpt>
      <trkpt lat="56.956961638682" lon="15.03132748701">
        <ele>212.2</ele>
        <time>2020-03-22T10:18:13Z</time>
      </trkpt>
      <trkpt lat="56.957068759364" lon="15.031338886394">
        <ele>212</ele>
        <time>2020-03-22T10:18:15Z</time>
      </trkpt>
      <trkpt lat="56.957187530887" lon="15.031445755619">
        <ele>212.2</ele>
        <time>2020-03-22T10:18:17Z</time>
      </trkpt>
      <trkpt lat="56.957412836359" lon="15.03222099755">
        <ele>211.8</ele>
        <time>2020-03-22T10:18:26Z</time>
      </trkpt>
      <trkpt lat="56.957511491322" lon="15.032472203093">
        <ele>211.8</ele>
        <time>2020-03-22T10:18:29Z</time>
      </trkpt>
      <trkpt lat="56.957670831241" lon="15.03295273742">
        <ele>212.6</ele>
        <time>2020-03-22T10:18:36Z</time>
      </trkpt>
      <trkpt lat="56.957795134818" lon="15.033144096197">
        <ele>212.8</ele>
        <time>2020-03-22T10:18:39Z</time>
      </trkpt>
      <trkpt lat="56.957878953818" lon="15.033291114723">
        <ele>212.8</ele>
        <time>2020-03-22T10:18:40Z</time>
      </trkpt>
      <trkpt lat="56.957956402574" lon="15.033520862602">
        <ele>212.6</ele>
        <time>2020-03-22T10:18:44Z</time>
      </trkpt>
      <trkpt lat="56.958021697575" lon="15.03367274263">
        <ele>212.2</ele>
        <time>2020-03-22T10:18:46Z</time>
      </trkpt>
      <trkpt lat="56.958149773007" lon="15.03384373339">
        <ele>211.6</ele>
        <time>2020-03-22T10:18:49Z</time>
      </trkpt>
      <trkpt lat="56.958230071609" lon="15.033912884065">
        <ele>212</ele>
        <time>2020-03-22T10:18:51Z</time>
      </trkpt>
      <trkpt lat="56.958361918896" lon="15.033954206832">
        <ele>212.6</ele>
        <time>2020-03-22T10:18:53Z</time>
      </trkpt>
      <trkpt lat="56.958459987126" lon="15.033996200151">
        <ele>212.8</ele>
        <time>2020-03-22T10:18:56Z</time>
      </trkpt>
      <trkpt lat="56.958997686011" lon="15.034259978544">
        <ele>212.2</ele>
        <time>2020-03-22T10:19:05Z</time>
      </trkpt>
      <trkpt lat="56.959260039481" lon="15.034365255208">
        <ele>211.8</ele>
        <time>2020-03-22T10:19:11Z</time>
      </trkpt>
      <trkpt lat="56.959471179542" lon="15.034478410858">
        <ele>211.4</ele>
        <time>2020-03-22T10:19:15Z</time>
      </trkpt>
      <trkpt lat="56.959802599868" lon="15.03449333064">
        <ele>212.4</ele>
        <time>2020-03-22T10:19:21Z</time>
      </trkpt>
      <trkpt lat="56.960037293068" lon="15.034419318463">
        <ele>211.8</ele>
        <time>2020-03-22T10:19:26Z</time>
      </trkpt>
      <trkpt lat="56.96037659238" lon="15.034399704817">
        <ele>212.2</ele>
        <time>2020-03-22T10:19:33Z</time>
      </trkpt>
      <trkpt lat="56.960523527087" lon="15.034383192474">
        <ele>212.2</ele>
        <time>2020-03-22T10:19:36Z</time>
      </trkpt>
      <trkpt lat="56.960855617965" lon="15.034269701548">
        <ele>212.2</ele>
        <time>2020-03-22T10:19:42Z</time>
      </trkpt>
      <trkpt lat="56.961134232321" lon="15.034202813986">
        <ele>212.4</ele>
        <time>2020-03-22T10:19:47Z</time>
      </trkpt>
      <trkpt lat="56.961262140115" lon="15.034298702922">
        <ele>212.6</ele>
        <time>2020-03-22T10:19:49Z</time>
      </trkpt>
      <trkpt lat="56.961367668236" lon="15.03440112974">
        <ele>212.6</ele>
        <time>2020-03-22T10:19:52Z</time>
      </trkpt>
      <trkpt lat="56.961792630566" lon="15.03480262275">
        <ele>211.2</ele>
        <time>2020-03-22T10:19:59Z</time>
      </trkpt>
      <trkpt lat="56.961998825306" lon="15.034853584702">
        <ele>210.4</ele>
        <time>2020-03-22T10:20:01Z</time>
      </trkpt>
      <trkpt lat="56.962126984557" lon="15.034847382096">
        <ele>209.6</ele>
        <time>2020-03-22T10:20:03Z</time>
      </trkpt>
      <trkpt lat="56.962192614834" lon="15.034823745138">
        <ele>209</ele>
        <time>2020-03-22T10:20:04Z</time>
      </trkpt>
      <trkpt lat="56.962258999482" lon="15.0347900499">
        <ele>209</ele>
        <time>2020-03-22T10:20:05Z</time>
      </trkpt>
      <trkpt lat="56.9627721394" lon="15.034377995696">
        <ele>209.6</ele>
        <time>2020-03-22T10:20:16Z</time>
      </trkpt>
      <trkpt lat="56.962973388819" lon="15.034255033223">
        <ele>210.2</ele>
        <time>2020-03-22T10:20:20Z</time>
      </trkpt>
      <trkpt lat="56.963084616632" lon="15.034243717658">
        <ele>210.4</ele>
        <time>2020-03-22T10:20:22Z</time>
      </trkpt>
      <trkpt lat="56.963261558541" lon="15.034268528082">
        <ele>210</ele>
        <time>2020-03-22T10:20:25Z</time>
      </trkpt>
      <trkpt lat="56.963491138782" lon="15.034319909129">
        <ele>209.4</ele>
        <time>2020-03-22T10:20:29Z</time>
      </trkpt>
      <trkpt lat="56.963561882018" lon="15.034316388731">
        <ele>209</ele>
        <time>2020-03-22T10:20:30Z</time>
      </trkpt>
      <trkpt lat="56.963778721771" lon="15.034273138127">
        <ele>208.4</ele>
        <time>2020-03-22T10:20:32Z</time>
      </trkpt>
      <trkpt lat="56.96391878332" lon="15.034236173948">
        <ele>208.2</ele>
        <time>2020-03-22T10:20:34Z</time>
      </trkpt>
      <trkpt lat="56.963985167968" lon="15.034223684917">
        <ele>207.8</ele>
        <time>2020-03-22T10:20:36Z</time>
      </trkpt>
      <trkpt lat="56.964533511866" lon="15.034069877052">
        <ele>207.6</ele>
        <time>2020-03-22T10:20:45Z</time>
      </trkpt>
      <trkpt lat="56.964721517883" lon="15.034031571769">
        <ele>207.4</ele>
        <time>2020-03-22T10:20:47Z</time>
      </trkpt>
      <trkpt lat="56.964883791467" lon="15.034047078284">
        <ele>206.8</ele>
        <time>2020-03-22T10:20:51Z</time>
      </trkpt>
      <trkpt lat="56.965065930154" lon="15.03405411908">
        <ele>207</ele>
        <time>2020-03-22T10:20:53Z</time>
      </trkpt>
      <trkpt lat="56.965162741099" lon="15.034073648907">
        <ele>208</ele>
        <time>2020-03-22T10:20:56Z</time>
      </trkpt>
      <trkpt lat="56.965248571755" lon="15.034097537322">
        <ele>209.2</ele>
        <time>2020-03-22T10:20:58Z</time>
      </trkpt>
      <trkpt lat="56.965529365405" lon="15.034158389916">
        <ele>210.2</ele>
        <time>2020-03-22T10:21:04Z</time>
      </trkpt>
      <trkpt lat="56.965797250929" lon="15.034238772337">
        <ele>210.6</ele>
        <time>2020-03-22T10:21:11Z</time>
      </trkpt>
      <trkpt lat="56.966337380565" lon="15.034460473592">
        <ele>209.2</ele>
        <time>2020-03-22T10:21:22Z</time>
      </trkpt>
      <trkpt lat="56.966433604777" lon="15.034530713914">
        <ele>209</ele>
        <time>2020-03-22T10:21:24Z</time>
      </trkpt>
      <trkpt lat="56.966519016338" lon="15.034630290886">
        <ele>209.2</ele>
        <time>2020-03-22T10:21:26Z</time>
      </trkpt>
      <trkpt lat="56.966578527828" lon="15.034749397685">
        <ele>209</ele>
        <time>2020-03-22T10:21:28Z</time>
      </trkpt>
      <trkpt lat="56.966729653485" lon="15.035296065203">
        <ele>210.2</ele>
        <time>2020-03-22T10:21:38Z</time>
      </trkpt>
      <trkpt lat="56.966903074996" lon="15.036071390953">
        <ele>210</ele>
        <time>2020-03-22T10:21:51Z</time>
      </trkpt>
      <trkpt lat="56.967106838985" lon="15.036360147408">
        <ele>208.8</ele>
        <time>2020-03-22T10:21:58Z</time>
      </trkpt>
      <trkpt lat="56.967229047087" lon="15.036491994695">
        <ele>207.8</ele>
        <time>2020-03-22T10:22:03Z</time>
      </trkpt>
      <trkpt lat="56.967350584637" lon="15.03667011007">
        <ele>206.8</ele>
        <time>2020-03-22T10:22:12Z</time>
      </trkpt>
      <trkpt lat="56.967432224343" lon="15.036794832742">
        <ele>206.6</ele>
        <time>2020-03-22T10:22:17Z</time>
      </trkpt>
      <trkpt lat="56.967832040973" lon="15.037179310495">
        <ele>205.6</ele>
        <time>2020-03-22T10:22:27Z</time>
      </trkpt>
      <trkpt lat="56.968187349714" lon="15.037391372565">
        <ele>204</ele>
        <time>2020-03-22T10:22:36Z</time>
      </trkpt>
      <trkpt lat="56.968316598612" lon="15.037391624022">
        <ele>203</ele>
        <time>2020-03-22T10:22:39Z</time>
      </trkpt>
      <trkpt lat="56.968690766628" lon="15.037471922624">
        <ele>202</ele>
        <time>2020-03-22T10:22:50Z</time>
      </trkpt>
      <trkpt lat="56.968720522373" lon="15.03747309609">
        <ele>202</ele>
        <time>2020-03-22T10:22:51Z</time>
      </trkpt>
      <trkpt lat="56.969246570417" lon="15.037172018242">
        <ele>202.6</ele>
        <time>2020-03-22T10:23:05Z</time>
      </trkpt>
      <trkpt lat="56.969301555681" lon="15.037101526463">
        <ele>203</ele>
        <time>2020-03-22T10:23:07Z</time>
      </trkpt>
      <trkpt lat="56.96965703206" lon="15.036521498983">
        <ele>204</ele>
        <time>2020-03-22T10:23:23Z</time>
      </trkpt>
      <trkpt lat="56.969814444142" lon="15.036369786593">
        <ele>203.8</ele>
        <time>2020-03-22T10:23:27Z</time>
      </trkpt>
      <trkpt lat="56.970148881952" lon="15.036480511492">
        <ele>203.8</ele>
        <time>2020-03-22T10:23:37Z</time>
      </trkpt>
      <trkpt lat="56.97044660704" lon="15.036553350203">
        <ele>203</ele>
        <time>2020-03-22T10:23:46Z</time>
      </trkpt>
      <trkpt lat="56.971003751933" lon="15.036602803413">
        <ele>202.6</ele>
        <time>2020-03-22T10:24:00Z</time>
      </trkpt>
      <trkpt lat="56.971563243758" lon="15.036624093439">
        <ele>202.6</ele>
        <time>2020-03-22T10:24:44Z</time>
      </trkpt>
      <trkpt lat="56.971609595665" lon="15.036617052643">
        <ele>202.6</ele>
        <time>2020-03-22T10:24:46Z</time>
      </trkpt>
      <trkpt lat="56.972130111655" lon="15.036265180481">
        <ele>203.4</ele>
        <time>2020-03-22T10:25:01Z</time>
      </trkpt>
      <trkpt lat="56.972410570029" lon="15.036199466385">
        <ele>204.2</ele>
        <time>2020-03-22T10:25:10Z</time>
      </trkpt>
      <trkpt lat="56.972986658016" lon="15.036003916658">
        <ele>204</ele>
        <time>2020-03-22T10:25:25Z</time>
      </trkpt>
      <trkpt lat="56.973186231055" lon="15.035973993275">
        <ele>203.2</ele>
        <time>2020-03-22T10:25:30Z</time>
      </trkpt>
      <trkpt lat="56.97346576742" lon="15.035910542292">
        <ele>202.8</ele>
        <time>2020-03-22T10:25:37Z</time>
      </trkpt>
      <trkpt lat="56.973652516152" lon="15.035860921444">
        <ele>202.4</ele>
        <time>2020-03-22T10:25:41Z</time>
      </trkpt>
      <trkpt lat="56.974209325769" lon="15.035670065581">
        <ele>203.2</ele>
        <time>2020-03-22T10:25:53Z</time>
      </trkpt>
      <trkpt lat="56.974655326668" lon="15.035534194982">
        <ele>204.6</ele>
        <time>2020-03-22T10:26:03Z</time>
      </trkpt>
      <trkpt lat="56.974898569406" lon="15.035502846676">
        <ele>205.4</ele>
        <time>2020-03-22T10:26:08Z</time>
      </trkpt>
      <trkpt lat="56.974946178598" lon="15.035485077048">
        <ele>205.6</ele>
        <time>2020-03-22T10:26:09Z</time>
      </trkpt>
      <trkpt lat="56.97525111212" lon="15.035349709363">
        <ele>205</ele>
        <time>2020-03-22T10:26:15Z</time>
      </trkpt>
      <trkpt lat="56.975481027637" lon="15.035180394983">
        <ele>204.4</ele>
        <time>2020-03-22T10:26:20Z</time>
      </trkpt>
      <trkpt lat="56.975666770541" lon="15.035038070321">
        <ele>203</ele>
        <time>2020-03-22T10:26:23Z</time>
      </trkpt>
      <trkpt lat="56.97580683209" lon="15.034927345422">
        <ele>201.2</ele>
        <time>2020-03-22T10:26:25Z</time>
      </trkpt>
      <trkpt lat="56.975990563338" lon="15.034810920831">
        <ele>200.2</ele>
        <time>2020-03-22T10:26:28Z</time>
      </trkpt>
      <trkpt lat="56.976047979353" lon="15.034782590009">
        <ele>200</ele>
        <time>2020-03-22T10:26:29Z</time>
      </trkpt>
      <trkpt lat="56.976492639148" lon="15.03446231761">
        <ele>199.2</ele>
        <time>2020-03-22T10:26:36Z</time>
      </trkpt>
      <trkpt lat="56.976723476674" lon="15.03435670567">
        <ele>199</ele>
        <time>2020-03-22T10:26:39Z</time>
      </trkpt>
      <trkpt lat="56.976849121355" lon="15.034339271318">
        <ele>199.2</ele>
        <time>2020-03-22T10:26:41Z</time>
      </trkpt>
      <trkpt lat="56.977088927514" lon="15.034301971863">
        <ele>199.2</ele>
        <time>2020-03-22T10:26:44Z</time>
      </trkpt>
      <trkpt lat="56.977197640757" lon="15.034185882548">
        <ele>199</ele>
        <time>2020-03-22T10:26:46Z</time>
      </trkpt>
      <trkpt lat="56.977624111829" lon="15.033541565895">
        <ele>199.4</ele>
        <time>2020-03-22T10:26:57Z</time>
      </trkpt>
      <trkpt lat="56.977727795932" lon="15.033450287004">
        <ele>199.6</ele>
        <time>2020-03-22T10:26:59Z</time>
      </trkpt>
      <trkpt lat="56.978089139641" lon="15.033366970918">
        <ele>199</ele>
        <time>2020-03-22T10:27:04Z</time>
      </trkpt>
      <trkpt lat="56.978500607112" lon="15.033199249099">
        <ele>198</ele>
        <time>2020-03-22T10:27:10Z</time>
      </trkpt>
      <trkpt lat="56.97869355845" lon="15.033133870279">
        <ele>197</ele>
        <time>2020-03-22T10:27:13Z</time>
      </trkpt>
      <trkpt lat="56.978814341629" lon="15.033165050947">
        <ele>196.8</ele>
        <time>2020-03-22T10:27:14Z</time>
      </trkpt>
      <trkpt lat="56.978934035161" lon="15.033190364285">
        <ele>197</ele>
        <time>2020-03-22T10:27:17Z</time>
      </trkpt>
      <trkpt lat="56.979471063494" lon="15.032825919273">
        <ele>197.8</ele>
        <time>2020-03-22T10:27:26Z</time>
      </trkpt>
      <trkpt lat="56.979571311018" lon="15.032704549361">
        <ele>197.8</ele>
        <time>2020-03-22T10:27:28Z</time>
      </trkpt>
      <trkpt lat="56.979612466147" lon="15.032641349835">
        <ele>198</ele>
        <time>2020-03-22T10:27:29Z</time>
      </trkpt>
      <trkpt lat="56.979647502489" lon="15.032574126997">
        <ele>198.2</ele>
        <time>2020-03-22T10:27:30Z</time>
      </trkpt>
      <trkpt lat="56.979933744374" lon="15.03192595467">
        <ele>199.2</ele>
        <time>2020-03-22T10:27:39Z</time>
      </trkpt>
      <trkpt lat="56.980122588581" lon="15.031076449105">
        <ele>199</ele>
        <time>2020-03-22T10:27:48Z</time>
      </trkpt>
      <trkpt lat="56.980314450272" lon="15.030344960692">
        <ele>198.8</ele>
        <time>2020-03-22T10:27:56Z</time>
      </trkpt>
      <trkpt lat="56.980359544894" lon="15.030148069861">
        <ele>198.6</ele>
        <time>2020-03-22T10:27:58Z</time>
      </trkpt>
      <trkpt lat="56.980421235678" lon="15.029885045839">
        <ele>198.2</ele>
        <time>2020-03-22T10:28:01Z</time>
      </trkpt>
      <trkpt lat="56.980537995545" lon="15.029463100993">
        <ele>199.2</ele>
        <time>2020-03-22T10:28:08Z</time>
      </trkpt>
      <trkpt lat="56.980612426817" lon="15.029361260908">
        <ele>200.2</ele>
        <time>2020-03-22T10:28:11Z</time>
      </trkpt>
      <trkpt lat="56.980800516653" lon="15.029226815232">
        <ele>201.2</ele>
        <time>2020-03-22T10:28:17Z</time>
      </trkpt>
      <trkpt lat="56.981132188436" lon="15.029198400591">
        <ele>201.4</ele>
        <time>2020-03-22T10:28:25Z</time>
      </trkpt>
      <trkpt lat="56.981375431174" lon="15.029172165244">
        <ele>199.8</ele>
        <time>2020-03-22T10:28:29Z</time>
      </trkpt>
      <trkpt lat="56.981585649226" lon="15.029125058966">
        <ele>198.4</ele>
        <time>2020-03-22T10:28:32Z</time>
      </trkpt>
      <trkpt lat="56.981895695707" lon="15.029120365102">
        <ele>197.2</ele>
        <time>2020-03-22T10:28:35Z</time>
      </trkpt>
      <trkpt lat="56.982024776967" lon="15.029109971546">
        <ele>196.4</ele>
        <time>2020-03-22T10:28:38Z</time>
      </trkpt>
      <trkpt lat="56.982152684761" lon="15.029118688722">
        <ele>196</ele>
        <time>2020-03-22T10:28:40Z</time>
      </trkpt>
      <trkpt lat="56.982459378482" lon="15.029248356715">
        <ele>194.8</ele>
        <time>2020-03-22T10:28:47Z</time>
      </trkpt>
      <trkpt lat="56.982980816481" lon="15.029180128049">
        <ele>195.4</ele>
        <time>2020-03-22T10:29:00Z</time>
      </trkpt>
      <trkpt lat="56.981640550671" lon="15.029095806135">
        <ele>195.6</ele>
        <time>2020-03-22T10:36:54Z</time>
      </trkpt>
      <trkpt lat="56.981634599522" lon="15.029091028452">
        <ele>195.4</ele>
        <time>2020-03-22T10:36:57Z</time>
      </trkpt>
      <trkpt lat="56.981648681114" lon="15.029092537194">
        <ele>195</ele>
        <time>2020-03-22T10:36:59Z</time>
      </trkpt>
      <trkpt lat="56.98221144188" lon="15.029175937099">
        <ele>194</ele>
        <time>2020-03-22T10:37:15Z</time>
      </trkpt>
      <trkpt lat="56.982257207054" lon="15.02917752966">
        <ele>193.8</ele>
        <time>2020-03-22T10:37:16Z</time>
      </trkpt>
      <trkpt lat="56.982548310441" lon="15.029196724211">
        <ele>193.8</ele>
        <time>2020-03-22T10:37:22Z</time>
      </trkpt>
      <trkpt lat="56.983123979333" lon="15.029154395616">
        <ele>194.8</ele>
        <time>2020-03-22T10:37:33Z</time>
      </trkpt>
      <trkpt lat="56.983169576869" lon="15.029151797227">
        <ele>194.8</ele>
        <time>2020-03-22T10:37:34Z</time>
      </trkpt>
      <trkpt lat="56.983376609799" lon="15.029144924069">
        <ele>194.2</ele>
        <time>2020-03-22T10:37:38Z</time>
      </trkpt>
      <trkpt lat="56.983497644435" lon="15.029139894929">
        <ele>193.8</ele>
        <time>2020-03-22T10:37:40Z</time>
      </trkpt>
      <trkpt lat="56.983944315886" lon="15.029078874697">
        <ele>193.4</ele>
        <time>2020-03-22T10:37:47Z</time>
      </trkpt>
      <trkpt lat="56.98406132721" lon="15.029013328239">
        <ele>193.4</ele>
        <time>2020-03-22T10:37:49Z</time>
      </trkpt>
      <trkpt lat="56.98415855725" lon="15.028927916678">
        <ele>193.4</ele>
        <time>2020-03-22T10:37:51Z</time>
      </trkpt>
      <trkpt lat="56.984256793118" lon="15.028817191779">
        <ele>193.4</ele>
        <time>2020-03-22T10:37:53Z</time>
      </trkpt>
      <trkpt lat="56.984693238651" lon="15.028359791496">
        <ele>195</ele>
        <time>2020-03-22T10:38:02Z</time>
      </trkpt>
      <trkpt lat="56.984833467838" lon="15.02816080519">
        <ele>195.6</ele>
        <time>2020-03-22T10:38:06Z</time>
      </trkpt>
      <trkpt lat="56.985293969424" lon="15.027581364443">
        <ele>196</ele>
        <time>2020-03-22T10:38:19Z</time>
      </trkpt>
      <trkpt lat="56.985359432063" lon="15.027507938999">
        <ele>196.2</ele>
        <time>2020-03-22T10:38:21Z</time>
      </trkpt>
      <trkpt lat="56.985806690247" lon="15.026906621493">
        <ele>196.4</ele>
        <time>2020-03-22T10:38:33Z</time>
      </trkpt>
      <trkpt lat="56.985894700197" lon="15.026786676504">
        <ele>196.4</ele>
        <time>2020-03-22T10:38:35Z</time>
      </trkpt>
      <trkpt lat="56.986233664233" lon="15.026407730805">
        <ele>196</ele>
        <time>2020-03-22T10:38:40Z</time>
      </trkpt>
      <trkpt lat="56.986423262811" lon="15.026159961841">
        <ele>195</ele>
        <time>2020-03-22T10:38:43Z</time>
      </trkpt>
      <trkpt lat="56.9866186449" lon="15.025913114886">
        <ele>194.2</ele>
        <time>2020-03-22T10:38:46Z</time>
      </trkpt>
      <trkpt lat="56.987033968045" lon="15.025241892334">
        <ele>195.6</ele>
        <time>2020-03-22T10:38:55Z</time>
      </trkpt>
      <trkpt lat="56.987146788419" lon="15.025034943223">
        <ele>195.8</ele>
        <time>2020-03-22T10:38:58Z</time>
      </trkpt>
      <trkpt lat="56.987612235326" lon="15.024412168053">
        <ele>194.8</ele>
        <time>2020-03-22T10:39:06Z</time>
      </trkpt>
      <trkpt lat="56.987888586569" lon="15.024077730243">
        <ele>193.8</ele>
        <time>2020-03-22T10:39:10Z</time>
      </trkpt>
      <trkpt lat="56.988071311989" lon="15.023821579379">
        <ele>192.8</ele>
        <time>2020-03-22T10:39:13Z</time>
      </trkpt>
      <trkpt lat="56.988251941934" lon="15.023628208946">
        <ele>192.6</ele>
        <time>2020-03-22T10:39:16Z</time>
      </trkpt>
      <trkpt lat="56.988537345629" lon="15.023473981986">
        <ele>193.4</ele>
        <time>2020-03-22T10:39:22Z</time>
      </trkpt>
      <trkpt lat="56.988968259108" lon="15.023362083621">
        <ele>193</ele>
        <time>2020-03-22T10:39:29Z</time>
      </trkpt>
      <trkpt lat="56.989539653231" lon="15.023215735647">
        <ele>192.8</ele>
        <time>2020-03-22T10:39:38Z</time>
      </trkpt>
      <trkpt lat="56.989665297912" lon="15.023185979902">
        <ele>192.6</ele>
        <time>2020-03-22T10:39:40Z</time>
      </trkpt>
      <trkpt lat="56.990255635129" lon="15.023036614444">
        <ele>193.2</ele>
        <time>2020-03-22T10:39:49Z</time>
      </trkpt>
      <trkpt lat="56.990568531456" lon="15.022938630033">
        <ele>194</ele>
        <time>2020-03-22T10:39:55Z</time>
      </trkpt>
      <trkpt lat="56.9908766501" lon="15.022862941476">
        <ele>195.2</ele>
        <time>2020-03-22T10:40:01Z</time>
      </trkpt>
      <trkpt lat="56.991246208071" lon="15.022776188811">
        <ele>196.4</ele>
        <time>2020-03-22T10:40:07Z</time>
      </trkpt>
      <trkpt lat="56.991412337329" lon="15.022731764741">
        <ele>197.8</ele>
        <time>2020-03-22T10:40:10Z</time>
      </trkpt>
      <trkpt lat="56.991623393571" lon="15.022667559387">
        <ele>199</ele>
        <time>2020-03-22T10:40:14Z</time>
      </trkpt>
      <trkpt lat="56.991995801388" lon="15.022552811176">
        <ele>200</ele>
        <time>2020-03-22T10:40:21Z</time>
      </trkpt>
      <trkpt lat="56.992216748272" lon="15.022503274147">
        <ele>200.2</ele>
        <time>2020-03-22T10:40:25Z</time>
      </trkpt>
      <trkpt lat="56.992687475776" lon="15.022374528163">
        <ele>201.2</ele>
        <time>2020-03-22T10:40:34Z</time>
      </trkpt>
      <trkpt lat="56.993133979589" lon="15.022265228187">
        <ele>202.2</ele>
        <time>2020-03-22T10:40:42Z</time>
      </trkpt>
      <trkpt lat="56.9937264961" lon="15.022134889642">
        <ele>202.4</ele>
        <time>2020-03-22T10:40:52Z</time>
      </trkpt>
      <trkpt lat="56.994279366224" lon="15.02198502127">
        <ele>202.4</ele>
        <time>2020-03-22T10:41:01Z</time>
      </trkpt>
      <trkpt lat="56.994863333197" lon="15.021811348302">
        <ele>201.4</ele>
        <time>2020-03-22T10:41:11Z</time>
      </trkpt>
      <trkpt lat="56.995419891357" lon="15.02167656735">
        <ele>202</ele>
        <time>2020-03-22T10:41:20Z</time>
      </trkpt>
      <trkpt lat="56.995962451744" lon="15.021456626294">
        <ele>202.6</ele>
        <time>2020-03-22T10:41:33Z</time>
      </trkpt>
      <trkpt lat="56.995996146982" lon="15.021402311582">
        <ele>202.6</ele>
        <time>2020-03-22T10:41:34Z</time>
      </trkpt>
      <trkpt lat="56.996046857477" lon="15.020700076">
        <ele>201.8</ele>
        <time>2020-03-22T10:41:43Z</time>
      </trkpt>
      <trkpt lat="56.996028920211" lon="15.020371254063">
        <ele>201</ele>
        <time>2020-03-22T10:41:46Z</time>
      </trkpt>
      <trkpt lat="56.995996649896" lon="15.019983758826">
        <ele>199.8</ele>
        <time>2020-03-22T10:41:49Z</time>
      </trkpt>
      <trkpt lat="56.995959769536" lon="15.019163254635">
        <ele>198.8</ele>
        <time>2020-03-22T10:41:55Z</time>
      </trkpt>
      <trkpt lat="56.995858432365" lon="15.018121216827">
        <ele>198.4</ele>
        <time>2020-03-22T10:42:02Z</time>
      </trkpt>
      <trkpt lat="56.995793975554" lon="15.017050680559">
        <ele>198.6</ele>
        <time>2020-03-22T10:42:10Z</time>
      </trkpt>
      <trkpt lat="56.995763968352" lon="15.016169156136">
        <ele>197.6</ele>
        <time>2020-03-22T10:42:16Z</time>
      </trkpt>
      <trkpt lat="56.995721136843" lon="15.015386538133">
        <ele>196.4</ele>
        <time>2020-03-22T10:42:19Z</time>
      </trkpt>
      <trkpt lat="56.995627091925" lon="15.014570895444">
        <ele>195.2</ele>
        <time>2020-03-22T10:42:23Z</time>
      </trkpt>
      <trkpt lat="56.995561880743" lon="15.013539335011">
        <ele>194.8</ele>
        <time>2020-03-22T10:42:29Z</time>
      </trkpt>
      <trkpt lat="56.995495831371" lon="15.0123852312">
        <ele>195.2</ele>
        <time>2020-03-22T10:42:36Z</time>
      </trkpt>
      <trkpt lat="56.995482168874" lon="15.011603535206">
        <ele>195</ele>
        <time>2020-03-22T10:42:41Z</time>
      </trkpt>
      <trkpt lat="56.995539584889" lon="15.01134755198">
        <ele>194.8</ele>
        <time>2020-03-22T10:42:43Z</time>
      </trkpt>
      <trkpt lat="56.995761034687" lon="15.010831813673">
        <ele>195</ele>
        <time>2020-03-22T10:42:49Z</time>
      </trkpt>
      <trkpt lat="56.995860946935" lon="15.010668785718">
        <ele>195.2</ele>
        <time>2020-03-22T10:42:52Z</time>
      </trkpt>
      <trkpt lat="56.995989776738" lon="15.010521431916">
        <ele>196.4</ele>
        <time>2020-03-22T10:42:59Z</time>
      </trkpt>
      <trkpt lat="56.996119444731" lon="15.010354045373">
        <ele>197.2</ele>
        <time>2020-03-22T10:43:07Z</time>
      </trkpt>
      <trkpt lat="56.996148362286" lon="15.010334096451">
        <ele>197.4</ele>
        <time>2020-03-22T10:43:08Z</time>
      </trkpt>
      <trkpt lat="56.996561003223" lon="15.01025203765">
        <ele>197.2</ele>
        <time>2020-03-22T10:43:18Z</time>
      </trkpt>
      <trkpt lat="56.996611713718" lon="15.010252959659">
        <ele>197</ele>
        <time>2020-03-22T10:43:19Z</time>
      </trkpt>
      <trkpt lat="56.996898458517" lon="15.010285732888">
        <ele>196.4</ele>
        <time>2020-03-22T10:43:24Z</time>
      </trkpt>
      <trkpt lat="56.997449819899" lon="15.010298557195">
        <ele>196.2</ele>
        <time>2020-03-22T10:43:33Z</time>
      </trkpt>
      <trkpt lat="56.997792807247" lon="15.010328648216">
        <ele>197.6</ele>
        <time>2020-03-22T10:43:40Z</time>
      </trkpt>
      <trkpt lat="56.998373337641" lon="15.010362511092">
        <ele>198.4</ele>
        <time>2020-03-22T10:43:49Z</time>
      </trkpt>
      <trkpt lat="56.998923609376" lon="15.010355805572">
        <ele>197.4</ele>
        <time>2020-03-22T10:43:56Z</time>
      </trkpt>
      <trkpt lat="56.999469354885" lon="15.010360583255">
        <ele>198</ele>
        <time>2020-03-22T10:44:04Z</time>
      </trkpt>
      <trkpt lat="56.999715866564" lon="15.01032663656">
        <ele>198.8</ele>
        <time>2020-03-22T10:44:08Z</time>
      </trkpt>
      <trkpt lat="57.00001459748" lon="15.010207697399">
        <ele>199.6</ele>
        <time>2020-03-22T10:44:13Z</time>
      </trkpt>
      <trkpt lat="57.000121634343" lon="15.010118849259">
        <ele>199.8</ele>
        <time>2020-03-22T10:44:15Z</time>
      </trkpt>
      <trkpt lat="57.000387927306" lon="15.009904356438">
        <ele>201</ele>
        <time>2020-03-22T10:44:20Z</time>
      </trkpt>
      <trkpt lat="57.000539052963" lon="15.009817603773">
        <ele>201.8</ele>
        <time>2020-03-22T10:44:23Z</time>
      </trkpt>
      <trkpt lat="57.000591188381" lon="15.009798073946">
        <ele>202</ele>
        <time>2020-03-22T10:44:24Z</time>
      </trkpt>
      <trkpt lat="57.000868545452" lon="15.009716015145">
        <ele>203</ele>
        <time>2020-03-22T10:44:29Z</time>
      </trkpt>
      <trkpt lat="57.001451422778" lon="15.009496074089">
        <ele>203.4</ele>
        <time>2020-03-22T10:44:37Z</time>
      </trkpt>
      <trkpt lat="57.001978811926" lon="15.009255597378">
        <ele>203.4</ele>
        <time>2020-03-22T10:44:46Z</time>
      </trkpt>
      <trkpt lat="57.002208392167" lon="15.009041020738">
        <ele>204</ele>
        <time>2020-03-22T10:44:50Z</time>
      </trkpt>
      <trkpt lat="57.002416179468" lon="15.00880867447">
        <ele>204.6</ele>
        <time>2020-03-22T10:44:54Z</time>
      </trkpt>
      <trkpt lat="57.002587924599" lon="15.008697530476">
        <ele>205.2</ele>
        <time>2020-03-22T10:44:57Z</time>
      </trkpt>
      <trkpt lat="57.002645424433" lon="15.008677749192">
        <ele>205.2</ele>
        <time>2020-03-22T10:44:58Z</time>
      </trkpt>
      <trkpt lat="57.002935102897" lon="15.008651262388">
        <ele>206.2</ele>
        <time>2020-03-22T10:45:03Z</time>
      </trkpt>
      <trkpt lat="57.003298122986" lon="15.008593678735">
        <ele>207.2</ele>
        <time>2020-03-22T10:45:09Z</time>
      </trkpt>
      <trkpt lat="57.003508508676" lon="15.008535089254">
        <ele>208.2</ele>
        <time>2020-03-22T10:45:13Z</time>
      </trkpt>
      <trkpt lat="57.003546813959" lon="15.008496700152">
        <ele>208.4</ele>
        <time>2020-03-22T10:45:14Z</time>
      </trkpt>
      <trkpt lat="57.003592579133" lon="15.008382706312">
        <ele>208.4</ele>
        <time>2020-03-22T10:45:16Z</time>
      </trkpt>
      <trkpt lat="57.003591238029" lon="15.008222947298">
        <ele>208.6</ele>
        <time>2020-03-22T10:45:18Z</time>
      </trkpt>
      <trkpt lat="57.003563242483" lon="15.007837463717">
        <ele>209.2</ele>
        <time>2020-03-22T10:45:22Z</time>
      </trkpt>
      <trkpt lat="57.003553603298" lon="15.007743837894">
        <ele>209.6</ele>
        <time>2020-03-22T10:45:23Z</time>
      </trkpt>
      <trkpt lat="57.003301391927" lon="15.00680707675">
        <ele>209.4</ele>
        <time>2020-03-22T10:45:35Z</time>
      </trkpt>
      <trkpt lat="57.00328102391" lon="15.006720575542">
        <ele>209.4</ele>
        <time>2020-03-22T10:45:36Z</time>
      </trkpt>
      <trkpt lat="57.003259314789" lon="15.006548578954">
        <ele>209.4</ele>
        <time>2020-03-22T10:45:38Z</time>
      </trkpt>
      <trkpt lat="57.003246155206" lon="15.006359902385">
        <ele>209.4</ele>
        <time>2020-03-22T10:45:40Z</time>
      </trkpt>
      <trkpt lat="57.003246071387" lon="15.006175249128">
        <ele>209.6</ele>
        <time>2020-03-22T10:45:42Z</time>
      </trkpt>
      <trkpt lat="57.003269373069" lon="15.005985231455">
        <ele>209.6</ele>
        <time>2020-03-22T10:45:44Z</time>
      </trkpt>
      <trkpt lat="57.003309270913" lon="15.005692786964">
        <ele>209</ele>
        <time>2020-03-22T10:45:47Z</time>
      </trkpt>
      <trkpt lat="57.003301391927" lon="15.005493549201">
        <ele>208.2</ele>
        <time>2020-03-22T10:45:49Z</time>
      </trkpt>
      <trkpt lat="57.003251519622" lon="15.005341166259">
        <ele>207.6</ele>
        <time>2020-03-22T10:45:51Z</time>
      </trkpt>
      <trkpt lat="57.003154373401" lon="15.005132121673">
        <ele>207</ele>
        <time>2020-03-22T10:45:53Z</time>
      </trkpt>
      <trkpt lat="57.003119001783" lon="15.005033215253">
        <ele>206.8</ele>
        <time>2020-03-22T10:45:54Z</time>
      </trkpt>
      <trkpt lat="57.003068626564" lon="15.004780500968">
        <ele>206.4</ele>
        <time>2020-03-22T10:45:56Z</time>
      </trkpt>
      <trkpt lat="57.003021939381" lon="15.004508675951">
        <ele>205.8</ele>
        <time>2020-03-22T10:45:58Z</time>
      </trkpt>
      <trkpt lat="57.003013473662" lon="15.004001403363">
        <ele>204.6</ele>
        <time>2020-03-22T10:46:01Z</time>
      </trkpt>
      <trkpt lat="57.003021939381" lon="15.003499495191">
        <ele>203.2</ele>
        <time>2020-03-22T10:46:04Z</time>
      </trkpt>
      <trkpt lat="57.003040547199" lon="15.00334199929">
        <ele>201.8</ele>
        <time>2020-03-22T10:46:06Z</time>
      </trkpt>
      <trkpt lat="57.003091425332" lon="15.003047459324">
        <ele>201.2</ele>
        <time>2020-03-22T10:46:07Z</time>
      </trkpt>
      <trkpt lat="57.003117995955" lon="15.002722995975">
        <ele>200.6</ele>
        <time>2020-03-22T10:46:09Z</time>
      </trkpt>
      <trkpt lat="57.003106428933" lon="15.002419822652">
        <ele>200.4</ele>
        <time>2020-03-22T10:46:11Z</time>
      </trkpt>
      <trkpt lat="57.003078684844" lon="15.002266350063">
        <ele>200</ele>
        <time>2020-03-22T10:46:13Z</time>
      </trkpt>
      <trkpt lat="57.002964439547" lon="15.002006678801">
        <ele>199.8</ele>
        <time>2020-03-22T10:46:15Z</time>
      </trkpt>
      <trkpt lat="57.002838291952" lon="15.001818924241">
        <ele>199.4</ele>
        <time>2020-03-22T10:46:17Z</time>
      </trkpt>
      <trkpt lat="57.00260711915" lon="15.001489683209">
        <ele>199</ele>
        <time>2020-03-22T10:46:21Z</time>
      </trkpt>
      <trkpt lat="57.002547104746" lon="15.001278878424">
        <ele>198.8</ele>
        <time>2020-03-22T10:46:23Z</time>
      </trkpt>
      <trkpt lat="57.002550541325" lon="15.000923569683">
        <ele>198.6</ele>
        <time>2020-03-22T10:46:26Z</time>
      </trkpt>
      <trkpt lat="57.002569903514" lon="15.000799685201">
        <ele>198.2</ele>
        <time>2020-03-22T10:46:27Z</time>
      </trkpt>
      <trkpt lat="57.002690267598" lon="15.000378662364">
        <ele>198.6</ele>
        <time>2020-03-22T10:46:31Z</time>
      </trkpt>
      <trkpt lat="57.002799148479" lon="14.99972101849">
        <ele>198.6</ele>
        <time>2020-03-22T10:46:37Z</time>
      </trkpt>
      <trkpt lat="57.002813397709" lon="14.999495629199">
        <ele>198.4</ele>
        <time>2020-03-22T10:46:39Z</time>
      </trkpt>
      <trkpt lat="57.002791437131" lon="14.999110397075">
        <ele>198.2</ele>
        <time>2020-03-22T10:46:44Z</time>
      </trkpt>
      <trkpt lat="57.002848014956" lon="14.998853240383">
        <ele>197.8</ele>
        <time>2020-03-22T10:46:47Z</time>
      </trkpt>
      <trkpt lat="57.002861174539" lon="14.998770091935">
        <ele>197.8</ele>
        <time>2020-03-22T10:46:49Z</time>
      </trkpt>
      <trkpt lat="57.002908280817" lon="14.998619804468">
        <ele>198.2</ele>
        <time>2020-03-22T10:46:51Z</time>
      </trkpt>
      <trkpt lat="57.00298095189" lon="14.998500446212">
        <ele>198.8</ele>
        <time>2020-03-22T10:46:53Z</time>
      </trkpt>
      <trkpt lat="57.003110619883" lon="14.998305567037">
        <ele>199</ele>
        <time>2020-03-22T10:46:57Z</time>
      </trkpt>
      <trkpt lat="57.003328633102" lon="14.997963501698">
        <ele>198.4</ele>
        <time>2020-03-22T10:47:02Z</time>
      </trkpt>
      <trkpt lat="57.003461905312" lon="14.997727718851">
        <ele>199</ele>
        <time>2020-03-22T10:47:05Z</time>
      </trkpt>
      <trkpt lat="57.003547987425" lon="14.997632332829">
        <ele>199.2</ele>
        <time>2020-03-22T10:47:07Z</time>
      </trkpt>
      <trkpt lat="57.003593165866" lon="14.997626800775">
        <ele>199.4</ele>
        <time>2020-03-22T10:47:08Z</time>
      </trkpt>
      <trkpt lat="57.003757702563" lon="14.997577347565">
        <ele>200.4</ele>
        <time>2020-03-22T10:47:11Z</time>
      </trkpt>
      <trkpt lat="57.003811681999" lon="14.997581706153">
        <ele>200.8</ele>
        <time>2020-03-22T10:47:12Z</time>
      </trkpt>
      <trkpt lat="57.003864739426" lon="14.997593776089">
        <ele>201.2</ele>
        <time>2020-03-22T10:47:13Z</time>
      </trkpt>
      <trkpt lat="57.004009494839" lon="14.997709530128">
        <ele>201.8</ele>
        <time>2020-03-22T10:47:16Z</time>
      </trkpt>
      <trkpt lat="57.004047716303" lon="14.997761665546">
        <ele>202</ele>
        <time>2020-03-22T10:47:17Z</time>
      </trkpt>
      <trkpt lat="57.00415693246" lon="14.99794237931">
        <ele>203.2</ele>
        <time>2020-03-22T10:47:21Z</time>
      </trkpt>
      <trkpt lat="57.004216192493" lon="14.998027371776">
        <ele>204.6</ele>
        <time>2020-03-22T10:47:23Z</time>
      </trkpt>
      <trkpt lat="57.004268747006" lon="14.998129128042">
        <ele>205.6</ele>
        <time>2020-03-22T10:47:25Z</time>
      </trkpt>
      <trkpt lat="57.00430026295" lon="14.998262400252">
        <ele>206.8</ele>
        <time>2020-03-22T10:47:27Z</time>
      </trkpt>
      <trkpt lat="57.004468320045" lon="14.998641681227">
        <ele>208</ele>
        <time>2020-03-22T10:47:34Z</time>
      </trkpt>
      <trkpt lat="57.004584828455" lon="14.998851061089">
        <ele>209</ele>
        <time>2020-03-22T10:47:38Z</time>
      </trkpt>
      <trkpt lat="57.004657415709" lon="14.998991122638">
        <ele>208.8</ele>
        <time>2020-03-22T10:47:40Z</time>
      </trkpt>
      <trkpt lat="57.004727572212" lon="14.99916865128">
        <ele>207.8</ele>
        <time>2020-03-22T10:47:42Z</time>
      </trkpt>
      <trkpt lat="57.004827735917" lon="14.999276526333">
        <ele>207</ele>
        <time>2020-03-22T10:47:45Z</time>
      </trkpt>
      <trkpt lat="57.004897557144" lon="14.999200251043">
        <ele>207</ele>
        <time>2020-03-22T10:47:47Z</time>
      </trkpt>
      <trkpt lat="57.004969725303" lon="14.999109055971">
        <ele>207.2</ele>
        <time>2020-03-22T10:47:49Z</time>
      </trkpt>
      <trkpt lat="57.005053209027" lon="14.999064883358">
        <ele>207.6</ele>
        <time>2020-03-22T10:47:51Z</time>
      </trkpt>
      <trkpt lat="57.005184385762" lon="14.999059267485">
        <ele>207.8</ele>
        <time>2020-03-22T10:47:54Z</time>
      </trkpt>
      <trkpt lat="57.005270719332" lon="14.999116767319">
        <ele>207.8</ele>
        <time>2020-03-22T10:47:56Z</time>
      </trkpt>
      <trkpt lat="57.005326878062" lon="14.999257583239">
        <ele>207.6</ele>
        <time>2020-03-22T10:47:58Z</time>
      </trkpt>
      <trkpt lat="57.005325536958" lon="14.99944022484">
        <ele>207.6</ele>
        <time>2020-03-22T10:48:00Z</time>
      </trkpt>
      <trkpt lat="57.00530525276" lon="14.999606940831">
        <ele>207.6</ele>
        <time>2020-03-22T10:48:02Z</time>
      </trkpt>
      <trkpt lat="57.005309024615" lon="14.999754965185">
        <ele>208</ele>
        <time>2020-03-22T10:48:04Z</time>
      </trkpt>
      <trkpt lat="57.005362836413" lon="14.999945485772">
        <ele>209.2</ele>
        <time>2020-03-22T10:48:07Z</time>
      </trkpt>
      <trkpt lat="57.005458557711" lon="15.000111531211">
        <ele>209.8</ele>
        <time>2020-03-22T10:48:10Z</time>
      </trkpt>
      <trkpt lat="57.005506166903" lon="15.000227620526">
        <ele>210.2</ele>
        <time>2020-03-22T10:48:12Z</time>
      </trkpt>
      <trkpt lat="57.005589650627" lon="15.000378578545">
        <ele>210.6</ele>
        <time>2020-03-22T10:48:15Z</time>
      </trkpt>
      <trkpt lat="57.005655364723" lon="15.000480334811">
        <ele>210.8</ele>
        <time>2020-03-22T10:48:17Z</time>
      </trkpt>
      <trkpt lat="57.005706159037" lon="15.00061955817">
        <ele>210.8</ele>
        <time>2020-03-22T10:48:19Z</time>
      </trkpt>
      <trkpt lat="57.005744212863" lon="15.000780993564">
        <ele>210.4</ele>
        <time>2020-03-22T10:48:21Z</time>
      </trkpt>
      <trkpt lat="57.005874635227" lon="15.001286589772">
        <ele>209.8</ele>
        <time>2020-03-22T10:48:28Z</time>
      </trkpt>
      <trkpt lat="57.006020396468" lon="15.0015558164">
        <ele>210.6</ele>
        <time>2020-03-22T10:48:33Z</time>
      </trkpt>
      <trkpt lat="57.00610320964" lon="15.001591774751">
        <ele>210.8</ele>
        <time>2020-03-22T10:48:35Z</time>
      </trkpt>
      <trkpt lat="57.006227177941" lon="15.001659500503">
        <ele>211.2</ele>
        <time>2020-03-22T10:48:38Z</time>
      </trkpt>
      <trkpt lat="57.006274284219" lon="15.001698476338">
        <ele>211.4</ele>
        <time>2020-03-22T10:48:39Z</time>
      </trkpt>
      <trkpt lat="57.006453992155" lon="15.001835268946">
        <ele>211</ele>
        <time>2020-03-22T10:48:43Z</time>
      </trkpt>
      <trkpt lat="57.007019267491" lon="15.001938701592">
        <ele>211.2</ele>
        <time>2020-03-22T10:48:54Z</time>
      </trkpt>
      <trkpt lat="57.007122951594" lon="15.0019330019">
        <ele>210.8</ele>
        <time>2020-03-22T10:48:57Z</time>
      </trkpt>
      <trkpt lat="57.00728673392" lon="15.002059820047">
        <ele>210</ele>
        <time>2020-03-22T10:48:59Z</time>
      </trkpt>
      <trkpt lat="57.007422939795" lon="15.002244221847">
        <ele>209</ele>
        <time>2020-03-22T10:49:03Z</time>
      </trkpt>
      <trkpt lat="57.007460071612" lon="15.002293591238">
        <ele>209</ele>
        <time>2020-03-22T10:49:04Z</time>
      </trkpt>
      <trkpt lat="57.007549255028" lon="15.002390821278">
        <ele>208.8</ele>
        <time>2020-03-22T10:49:06Z</time>
      </trkpt>
      <trkpt lat="57.007725358747" lon="15.002543036582">
        <ele>208.6</ele>
        <time>2020-03-22T10:49:10Z</time>
      </trkpt>
      <trkpt lat="57.007910682556" lon="15.002725678183">
        <ele>208.8</ele>
        <time>2020-03-22T10:49:14Z</time>
      </trkpt>
      <trkpt lat="57.007992322262" lon="15.002751494435">
        <ele>208.8</ele>
        <time>2020-03-22T10:49:16Z</time>
      </trkpt>
      <trkpt lat="57.008063652231" lon="15.002688294909">
        <ele>208.8</ele>
        <time>2020-03-22T10:49:18Z</time>
      </trkpt>
      <trkpt lat="57.008303793666" lon="15.002186302918">
        <ele>209.2</ele>
        <time>2020-03-22T10:49:28Z</time>
      </trkpt>
      <trkpt lat="57.008481657584" lon="15.002154619336">
        <ele>209.4</ele>
        <time>2020-03-22T10:49:32Z</time>
      </trkpt>
      <trkpt lat="57.008713584757" lon="15.002258806353">
        <ele>210</ele>
        <time>2020-03-22T10:49:37Z</time>
      </trkpt>
      <trkpt lat="57.008848617166" lon="15.002323179345">
        <ele>210.4</ele>
        <time>2020-03-22T10:49:40Z</time>
      </trkpt>
      <trkpt lat="57.009212810721" lon="15.002286131347">
        <ele>211.2</ele>
        <time>2020-03-22T10:49:46Z</time>
      </trkpt>
      <trkpt lat="57.00938556168" lon="15.002186889651">
        <ele>212</ele>
        <time>2020-03-22T10:49:49Z</time>
      </trkpt>
      <trkpt lat="57.009483294634" lon="15.00210231628">
        <ele>212.4</ele>
        <time>2020-03-22T10:49:51Z</time>
      </trkpt>
      <trkpt lat="57.009622685631" lon="15.00200173348">
        <ele>213.8</ele>
        <time>2020-03-22T10:49:54Z</time>
      </trkpt>
      <trkpt lat="57.00985243351" lon="15.001782043881">
        <ele>214</ele>
        <time>2020-03-22T10:49:59Z</time>
      </trkpt>
      <trkpt lat="57.009990399584" lon="15.001646508558">
        <ele>213.8</ele>
        <time>2020-03-22T10:50:02Z</time>
      </trkpt>
      <trkpt lat="57.010091988212" lon="15.001603928506">
        <ele>213.6</ele>
        <time>2020-03-22T10:50:04Z</time>
      </trkpt>
      <trkpt lat="57.010207742251" lon="15.001605018153">
        <ele>213.4</ele>
        <time>2020-03-22T10:50:06Z</time>
      </trkpt>
      <trkpt lat="57.010748374801" lon="15.001757317276">
        <ele>213</ele>
        <time>2020-03-22T10:50:15Z</time>
      </trkpt>
      <trkpt lat="57.01132345696" lon="15.001842142104">
        <ele>215</ele>
        <time>2020-03-22T10:50:27Z</time>
      </trkpt>
      <trkpt lat="57.011495705005" lon="15.001883632509">
        <ele>215.8</ele>
        <time>2020-03-22T10:50:30Z</time>
      </trkpt>
      <trkpt lat="57.011599305289" lon="15.001917495385">
        <ele>216.2</ele>
        <time>2020-03-22T10:50:32Z</time>
      </trkpt>
      <trkpt lat="57.011693601664" lon="15.001993435399">
        <ele>216.6</ele>
        <time>2020-03-22T10:50:34Z</time>
      </trkpt>
      <trkpt lat="57.011780186691" lon="15.002118074252">
        <ele>216.8</ele>
        <time>2020-03-22T10:50:36Z</time>
      </trkpt>
      <trkpt lat="57.011971880744" lon="15.002572205594">
        <ele>216.4</ele>
        <time>2020-03-22T10:50:42Z</time>
      </trkpt>
      <trkpt lat="57.012284777071" lon="15.00320453613">
        <ele>216.2</ele>
        <time>2020-03-22T10:50:49Z</time>
      </trkpt>
      <trkpt lat="57.012480326798" lon="15.003458340062">
        <ele>216.2</ele>
        <time>2020-03-22T10:50:53Z</time>
      </trkpt>
      <trkpt lat="57.01267461924" lon="15.0036680552">
        <ele>217.2</ele>
        <time>2020-03-22T10:50:58Z</time>
      </trkpt>
      <trkpt lat="57.013082566313" lon="15.004095783557">
        <ele>217.4</ele>
        <time>2020-03-22T10:51:07Z</time>
      </trkpt>
      <trkpt lat="57.013574667662" lon="15.00464538474">
        <ele>218.2</ele>
        <time>2020-03-22T10:51:18Z</time>
      </trkpt>
      <trkpt lat="57.013627054537" lon="15.004700370004">
        <ele>218.4</ele>
        <time>2020-03-22T10:51:19Z</time>
      </trkpt>
      <trkpt lat="57.013829477422" lon="15.004914695187">
        <ele>219.4</ele>
        <time>2020-03-22T10:51:23Z</time>
      </trkpt>
      <trkpt lat="57.014017902534" lon="15.00515416607">
        <ele>220.2</ele>
        <time>2020-03-22T10:51:26Z</time>
      </trkpt>
      <trkpt lat="57.014152767305" lon="15.005378046619">
        <ele>220.4</ele>
        <time>2020-03-22T10:51:29Z</time>
      </trkpt>
      <trkpt lat="57.0143040606" lon="15.006027057136">
        <ele>220.4</ele>
        <time>2020-03-22T10:51:36Z</time>
      </trkpt>
      <trkpt lat="57.014401206821" lon="15.00651287206">
        <ele>221.6</ele>
        <time>2020-03-22T10:51:41Z</time>
      </trkpt>
      <trkpt lat="57.014516541765" lon="15.007049816574">
        <ele>222.6</ele>
        <time>2020-03-22T10:51:47Z</time>
      </trkpt>
      <trkpt lat="57.014597930014" lon="15.007346368196">
        <ele>224</ele>
        <time>2020-03-22T10:51:51Z</time>
      </trkpt>
      <trkpt lat="57.014733130061" lon="15.007670663907">
        <ele>225.2</ele>
        <time>2020-03-22T10:51:57Z</time>
      </trkpt>
      <trkpt lat="57.01501819848" lon="15.008138541565">
        <ele>225.8</ele>
        <time>2020-03-22T10:52:05Z</time>
      </trkpt>
      <trkpt lat="57.015366214968" lon="15.008796185439">
        <ele>224.8</ele>
        <time>2020-03-22T10:52:13Z</time>
      </trkpt>
      <trkpt lat="57.015528740009" lon="15.009325250967">
        <ele>224.2</ele>
        <time>2020-03-22T10:52:19Z</time>
      </trkpt>
      <trkpt lat="57.015574589002" lon="15.009503785437">
        <ele>224.2</ele>
        <time>2020-03-22T10:52:21Z</time>
      </trkpt>
      <trkpt lat="57.015633178483" lon="15.009658180035">
        <ele>224</ele>
        <time>2020-03-22T10:52:22Z</time>
      </trkpt>
      <trkpt lat="57.015727391039" lon="15.009807126398">
        <ele>223.8</ele>
        <time>2020-03-22T10:52:24Z</time>
      </trkpt>
      <trkpt lat="57.015815652446" lon="15.009968897068">
        <ele>222.8</ele>
        <time>2020-03-22T10:52:27Z</time>
      </trkpt>
      <trkpt lat="57.015906512242" lon="15.010127063521">
        <ele>222.4</ele>
        <time>2020-03-22T10:52:28Z</time>
      </trkpt>
      <trkpt lat="57.015994522192" lon="15.010286738716">
        <ele>221.8</ele>
        <time>2020-03-22T10:52:30Z</time>
      </trkpt>
      <trkpt lat="57.01606928874" lon="15.010436690907">
        <ele>221.6</ele>
        <time>2020-03-22T10:52:32Z</time>
      </trkpt>
      <trkpt lat="57.016197196534" lon="15.010682783491">
        <ele>220.4</ele>
        <time>2020-03-22T10:52:35Z</time>
      </trkpt>
      <trkpt lat="57.01645904709" lon="15.011115792445">
        <ele>219.4</ele>
        <time>2020-03-22T10:52:41Z</time>
      </trkpt>
      <trkpt lat="57.016585278504" lon="15.011378313553">
        <ele>219.2</ele>
        <time>2020-03-22T10:52:44Z</time>
      </trkpt>
      <trkpt lat="57.016657195206" lon="15.011566068113">
        <ele>219.4</ele>
        <time>2020-03-22T10:52:46Z</time>
      </trkpt>
      <trkpt lat="57.016730704469" lon="15.011860021346">
        <ele>219.6</ele>
        <time>2020-03-22T10:52:48Z</time>
      </trkpt>
      <trkpt lat="57.016760711671" lon="15.012207870196">
        <ele>219.6</ele>
        <time>2020-03-22T10:52:50Z</time>
      </trkpt>
      <trkpt lat="57.016793820176" lon="15.01243384622">
        <ele>219.6</ele>
        <time>2020-03-22T10:52:52Z</time>
      </trkpt>
      <trkpt lat="57.01686556924" lon="15.012702737572">
        <ele>219.2</ele>
        <time>2020-03-22T10:52:55Z</time>
      </trkpt>
      <trkpt lat="57.017052401791" lon="15.013212105635">
        <ele>218.4</ele>
        <time>2020-03-22T10:52:58Z</time>
      </trkpt>
      <trkpt lat="57.017112583833" lon="15.01330891658">
        <ele>218.2</ele>
        <time>2020-03-22T10:52:59Z</time>
      </trkpt>
      <trkpt lat="57.017174274617" lon="15.013334732832">
        <ele>217.6</ele>
        <time>2020-03-22T10:53:01Z</time>
      </trkpt>
      <trkpt lat="57.017308887931" lon="15.013437243469">
        <ele>217</ele>
        <time>2020-03-22T10:53:03Z</time>
      </trkpt>
      <trkpt lat="57.01752019563" lon="15.01356540272">
        <ele>216</ele>
        <time>2020-03-22T10:53:06Z</time>
      </trkpt>
      <trkpt lat="57.017846419178" lon="15.013731448159">
        <ele>214.8</ele>
        <time>2020-03-22T10:53:11Z</time>
      </trkpt>
      <trkpt lat="57.01816979288" lon="15.013860194143">
        <ele>216</ele>
        <time>2020-03-22T10:53:18Z</time>
      </trkpt>
      <trkpt lat="57.018373305412" lon="15.013947282084">
        <ele>216.2</ele>
        <time>2020-03-22T10:53:21Z</time>
      </trkpt>
      <trkpt lat="57.018920224387" lon="15.014244168982">
        <ele>215.6</ele>
        <time>2020-03-22T10:53:28Z</time>
      </trkpt>
      <trkpt lat="57.019499246039" lon="15.014532254885">
        <ele>214.6</ele>
        <time>2020-03-22T10:53:36Z</time>
      </trkpt>
      <trkpt lat="57.019679121613" lon="15.014588581253">
        <ele>213.6</ele>
        <time>2020-03-22T10:53:38Z</time>
      </trkpt>
      <trkpt lat="57.019768640305" lon="15.014610458012">
        <ele>213</ele>
        <time>2020-03-22T10:53:39Z</time>
      </trkpt>
      <trkpt lat="57.019895709909" lon="15.014609703641">
        <ele>212.6</ele>
        <time>2020-03-22T10:53:41Z</time>
      </trkpt>
      <trkpt lat="57.019951198087" lon="15.014595035316">
        <ele>212.4</ele>
        <time>2020-03-22T10:53:43Z</time>
      </trkpt>
      <trkpt lat="57.020384374679" lon="15.014306614137">
        <ele>211.4</ele>
        <time>2020-03-22T10:53:49Z</time>
      </trkpt>
      <trkpt lat="57.020979321941" lon="15.013938648727">
        <ele>211</ele>
        <time>2020-03-22T10:53:59Z</time>
      </trkpt>
      <trkpt lat="57.021557673041" lon="15.013446463559">
        <ele>211.2</ele>
        <time>2020-03-22T10:54:10Z</time>
      </trkpt>
      <trkpt lat="57.021765041247" lon="15.01326281613">
        <ele>210.8</ele>
        <time>2020-03-22T10:54:15Z</time>
      </trkpt>
      <trkpt lat="57.021876101422" lon="15.013027117102">
        <ele>210.6</ele>
        <time>2020-03-22T10:54:17Z</time>
      </trkpt>
      <trkpt lat="57.022030831296" lon="15.012049703743">
        <ele>212.4</ele>
        <time>2020-03-22T10:54:27Z</time>
      </trkpt>
      <trkpt lat="57.022048600924" lon="15.011586017035">
        <ele>213.2</ele>
        <time>2020-03-22T10:54:31Z</time>
      </trkpt>
      <trkpt lat="57.022047678915" lon="15.011376972449">
        <ele>213.6</ele>
        <time>2020-03-22T10:54:34Z</time>
      </trkpt>
      <trkpt lat="57.022037955911" lon="15.011070865461">
        <ele>215.2</ele>
        <time>2020-03-22T10:54:37Z</time>
      </trkpt>
      <trkpt lat="57.022014486591" lon="15.0107926702">
        <ele>216.4</ele>
        <time>2020-03-22T10:54:40Z</time>
      </trkpt>
      <trkpt lat="57.021992023099" lon="15.010441887685">
        <ele>217.4</ele>
        <time>2020-03-22T10:54:44Z</time>
      </trkpt>
      <trkpt lat="57.02198942471" lon="15.01027718335">
        <ele>217.6</ele>
        <time>2020-03-22T10:54:46Z</time>
      </trkpt>
      <trkpt lat="57.022042063042" lon="15.009779969042">
        <ele>218.6</ele>
        <time>2020-03-22T10:54:51Z</time>
      </trkpt>
      <trkpt lat="57.022200480952" lon="15.008770704463">
        <ele>218.8</ele>
        <time>2020-03-22T10:55:02Z</time>
      </trkpt>
      <trkpt lat="57.022320425941" lon="15.007730510673">
        <ele>219.2</ele>
        <time>2020-03-22T10:55:13Z</time>
      </trkpt>
      <trkpt lat="57.022371136436" lon="15.007450303756">
        <ele>219.2</ele>
        <time>2020-03-22T10:55:16Z</time>
      </trkpt>
      <trkpt lat="57.022450848305" lon="15.007184513707">
        <ele>219.6</ele>
        <time>2020-03-22T10:55:19Z</time>
      </trkpt>
      <trkpt lat="57.022536427504" lon="15.006947976489">
        <ele>220.8</ele>
        <time>2020-03-22T10:55:23Z</time>
      </trkpt>
      <trkpt lat="57.022627371119" lon="15.006694675471">
        <ele>221</ele>
        <time>2020-03-22T10:55:25Z</time>
      </trkpt>
      <trkpt lat="57.02271362087" lon="15.006256721196">
        <ele>221</ele>
        <time>2020-03-22T10:55:31Z</time>
      </trkpt>
      <trkpt lat="57.022803642476" lon="15.005609051783">
        <ele>221.6</ele>
        <time>2020-03-22T10:55:37Z</time>
      </trkpt>
      <trkpt lat="57.022820406276" lon="15.005526741525">
        <ele>222</ele>
        <time>2020-03-22T10:55:39Z</time>
      </trkpt>
      <trkpt lat="57.022833649678" lon="15.005426745458">
        <ele>222.4</ele>
        <time>2020-03-22T10:55:40Z</time>
      </trkpt>
      <trkpt lat="57.022854269152" lon="15.005221472727">
        <ele>223</ele>
        <time>2020-03-22T10:55:42Z</time>
      </trkpt>
      <trkpt lat="57.022938674885" lon="15.004411613549">
        <ele>224</ele>
        <time>2020-03-22T10:55:50Z</time>
      </trkpt>
      <trkpt lat="57.022945380405" lon="15.004101315611">
        <ele>224.2</ele>
        <time>2020-03-22T10:55:52Z</time>
      </trkpt>
      <trkpt lat="57.022817053516" lon="15.003067743522">
        <ele>225</ele>
        <time>2020-03-22T10:56:03Z</time>
      </trkpt>
      <trkpt lat="57.022797272232" lon="15.002964562333">
        <ele>225</ele>
        <time>2020-03-22T10:56:04Z</time>
      </trkpt>
      <trkpt lat="57.022639441055" lon="15.001953369917">
        <ele>225</ele>
        <time>2020-03-22T10:56:14Z</time>
      </trkpt>
      <trkpt lat="57.022476496919" lon="15.00119790927">
        <ele>224.8</ele>
        <time>2020-03-22T10:56:22Z</time>
      </trkpt>
      <trkpt lat="57.022437688722" lon="15.000955085627">
        <ele>225.2</ele>
        <time>2020-03-22T10:56:25Z</time>
      </trkpt>
      <trkpt lat="57.022428468632" lon="15.000793566414">
        <ele>225.4</ele>
        <time>2020-03-22T10:56:27Z</time>
      </trkpt>
      <trkpt lat="57.02236912478" lon="15.000100048008">
        <ele>226.2</ele>
        <time>2020-03-22T10:56:34Z</time>
      </trkpt>
      <trkpt lat="57.022335429542" lon="14.999820344005">
        <ele>226.8</ele>
        <time>2020-03-22T10:56:37Z</time>
      </trkpt>
      <trkpt lat="57.022306092892" lon="14.999668966891">
        <ele>227.2</ele>
        <time>2020-03-22T10:56:39Z</time>
      </trkpt>
      <trkpt lat="57.022222357711" lon="14.999147109797">
        <ele>228.2</ele>
        <time>2020-03-22T10:56:46Z</time>
      </trkpt>
      <trkpt lat="57.02218891393" lon="14.998886851802">
        <ele>228.2</ele>
        <time>2020-03-22T10:56:49Z</time>
      </trkpt>
      <trkpt lat="57.022146920611" lon="14.998302298096">
        <ele>227.6</ele>
        <time>2020-03-22T10:56:55Z</time>
      </trkpt>
      <trkpt lat="57.02213191701" lon="14.997816231715">
        <ele>227.2</ele>
        <time>2020-03-22T10:56:59Z</time>
      </trkpt>
      <trkpt lat="57.022134683037" lon="14.997427814469">
        <ele>226</ele>
        <time>2020-03-22T10:57:03Z</time>
      </trkpt>
      <trkpt lat="57.02215538633" lon="14.997043923449">
        <ele>224.6</ele>
        <time>2020-03-22T10:57:06Z</time>
      </trkpt>
      <trkpt lat="57.02220232497" lon="14.996505051098">
        <ele>223</ele>
        <time>2020-03-22T10:57:09Z</time>
      </trkpt>
      <trkpt lat="57.022212802345" lon="14.996361720608">
        <ele>221.8</ele>
        <time>2020-03-22T10:57:11Z</time>
      </trkpt>
      <trkpt lat="57.022235684932" lon="14.995845311749">
        <ele>220.8</ele>
        <time>2020-03-22T10:57:15Z</time>
      </trkpt>
      <trkpt lat="57.022217244752" lon="14.995214573774">
        <ele>219.8</ele>
        <time>2020-03-22T10:57:20Z</time>
      </trkpt>
      <trkpt lat="57.022208779033" lon="14.994994967994">
        <ele>218.8</ele>
        <time>2020-03-22T10:57:22Z</time>
      </trkpt>
      <trkpt lat="57.022209449585" lon="14.994881979982">
        <ele>218.2</ele>
        <time>2020-03-22T10:57:23Z</time>
      </trkpt>
      <trkpt lat="57.022209449585" lon="14.994881979982">
        <ele>217.2</ele>
        <time>2020-03-22T10:57:24Z</time>
      </trkpt>
      <trkpt lat="57.022235684932" lon="14.994654076121">
        <ele>216</ele>
        <time>2020-03-22T10:57:25Z</time>
      </trkpt>
      <trkpt lat="57.022235684932" lon="14.994654076121">
        <ele>214.8</ele>
        <time>2020-03-22T10:57:26Z</time>
      </trkpt>
      <trkpt lat="57.02226435103" lon="14.994534131132">
        <ele>214</ele>
        <time>2020-03-22T10:57:27Z</time>
      </trkpt>
      <trkpt lat="57.022343392347" lon="14.994264569228">
        <ele>213.4</ele>
        <time>2020-03-22T10:57:28Z</time>
      </trkpt>
      <trkpt lat="57.022448249916" lon="14.994015794436">
        <ele>211.6</ele>
        <time>2020-03-22T10:57:30Z</time>
      </trkpt>
      <trkpt lat="57.022509270148" lon="14.993918312939">
        <ele>210.6</ele>
        <time>2020-03-22T10:57:31Z</time>
      </trkpt>
      <trkpt lat="57.022558388082" lon="14.993820412347">
        <ele>209.8</ele>
        <time>2020-03-22T10:57:32Z</time>
      </trkpt>
      <trkpt lat="57.022610188224" lon="14.993562166008">
        <ele>208.8</ele>
        <time>2020-03-22T10:57:34Z</time>
      </trkpt>
      <trkpt lat="57.022754356904" lon="14.992752055373">
        <ele>207.6</ele>
        <time>2020-03-22T10:57:39Z</time>
      </trkpt>
      <trkpt lat="57.022878828119" lon="14.992410828224">
        <ele>207.2</ele>
        <time>2020-03-22T10:57:42Z</time>
      </trkpt>
      <trkpt lat="57.023022493885" lon="14.992053424008">
        <ele>206.4</ele>
        <time>2020-03-22T10:57:45Z</time>
      </trkpt>
      <trkpt lat="57.023199519613" lon="14.991387314415">
        <ele>205.6</ele>
        <time>2020-03-22T10:57:50Z</time>
      </trkpt>
      <trkpt lat="57.023278896206" lon="14.991274913136">
        <ele>205.4</ele>
        <time>2020-03-22T10:57:52Z</time>
      </trkpt>
      <trkpt lat="57.023302533164" lon="14.991225459926">
        <ele>205.4</ele>
        <time>2020-03-22T10:57:53Z</time>
      </trkpt>
      <trkpt lat="57.02340848038" lon="14.991077184115">
        <ele>205</ele>
        <time>2020-03-22T10:57:55Z</time>
      </trkpt>
      <trkpt lat="57.02355935458" lon="14.990802090157">
        <ele>204.4</ele>
        <time>2020-03-22T10:58:02Z</time>
      </trkpt>
      <trkpt lat="57.02355935458" lon="14.990802090157">
        <ele>204.4</ele>
        <time>2020-03-22T10:58:03Z</time>
      </trkpt>
      <trkpt lat="57.023584165004" lon="14.990636631451">
        <ele>204.2</ele>
        <time>2020-03-22T10:58:08Z</time>
      </trkpt>
      <trkpt lat="57.023640826648" lon="14.990322729296">
        <ele>204.8</ele>
        <time>2020-03-22T11:14:13Z</time>
      </trkpt>
      <trkpt lat="57.023699667586" lon="14.989787125886">
        <ele>205.4</ele>
        <time>2020-03-22T11:14:24Z</time>
      </trkpt>
      <trkpt lat="57.023743421104" lon="14.989573135979">
        <ele>206.6</ele>
        <time>2020-03-22T11:14:28Z</time>
      </trkpt>
      <trkpt lat="57.023926984714" lon="14.988756571281">
        <ele>207.6</ele>
        <time>2020-03-22T11:14:40Z</time>
      </trkpt>
      <trkpt lat="57.023980042141" lon="14.987741523191">
        <ele>207</ele>
        <time>2020-03-22T11:14:51Z</time>
      </trkpt>
      <trkpt lat="57.023998985235" lon="14.987536837193">
        <ele>206.6</ele>
        <time>2020-03-22T11:14:53Z</time>
      </trkpt>
      <trkpt lat="57.02402538822" lon="14.987205668324">
        <ele>205.2</ele>
        <time>2020-03-22T11:14:56Z</time>
      </trkpt>
      <trkpt lat="57.024035278862" lon="14.986982374508">
        <ele>205</ele>
        <time>2020-03-22T11:14:58Z</time>
      </trkpt>
      <trkpt lat="57.024019939985" lon="14.986230601897">
        <ele>206.4</ele>
        <time>2020-03-22T11:15:06Z</time>
      </trkpt>
      <trkpt lat="57.024011474266" lon="14.985718719264">
        <ele>207.6</ele>
        <time>2020-03-22T11:15:12Z</time>
      </trkpt>
      <trkpt lat="57.023978365761" lon="14.984634269042">
        <ele>207.6</ele>
        <time>2020-03-22T11:15:23Z</time>
      </trkpt>
      <trkpt lat="57.023952130414" lon="14.983939241894">
        <ele>206.4</ele>
        <time>2020-03-22T11:15:29Z</time>
      </trkpt>
      <trkpt lat="57.023978114304" lon="14.983476980109">
        <ele>205.4</ele>
        <time>2020-03-22T11:15:33Z</time>
      </trkpt>
      <trkpt lat="57.024013569741" lon="14.983027123536">
        <ele>205.2</ele>
        <time>2020-03-22T11:15:37Z</time>
      </trkpt>
      <trkpt lat="57.024025304401" lon="14.982692182812">
        <ele>205.2</ele>
        <time>2020-03-22T11:15:40Z</time>
      </trkpt>
      <trkpt lat="57.024016251949" lon="14.982335113872">
        <ele>205</ele>
        <time>2020-03-22T11:15:43Z</time>
      </trkpt>
      <trkpt lat="57.023912400208" lon="14.9814560202">
        <ele>204.4</ele>
        <time>2020-03-22T11:15:50Z</time>
      </trkpt>
      <trkpt lat="57.023904185946" lon="14.98131688066">
        <ele>204.4</ele>
        <time>2020-03-22T11:15:51Z</time>
      </trkpt>
      <trkpt lat="57.023905443231" lon="14.980590924301">
        <ele>203.2</ele>
        <time>2020-03-22T11:15:56Z</time>
      </trkpt>
      <trkpt lat="57.023954561165" lon="14.979898411723">
        <ele>202</ele>
        <time>2020-03-22T11:16:01Z</time>
      </trkpt>
      <trkpt lat="57.023999991063" lon="14.979313690379">
        <ele>201</ele>
        <time>2020-03-22T11:16:05Z</time>
      </trkpt>
      <trkpt lat="57.024027483695" lon="14.978857715019">
        <ele>199.6</ele>
        <time>2020-03-22T11:16:08Z</time>
      </trkpt>
      <trkpt lat="57.024043241667" lon="14.978560744302">
        <ele>198.4</ele>
        <time>2020-03-22T11:16:10Z</time>
      </trkpt>
      <trkpt lat="57.02405975401" lon="14.978097979603">
        <ele>197.6</ele>
        <time>2020-03-22T11:16:13Z</time>
      </trkpt>
      <trkpt lat="57.024072829774" lon="14.977929084318">
        <ele>197.2</ele>
        <time>2020-03-22T11:16:14Z</time>
      </trkpt>
      <trkpt lat="57.024100909139" lon="14.977593892137">
        <ele>195.8</ele>
        <time>2020-03-22T11:16:16Z</time>
      </trkpt>
      <trkpt lat="57.024111973247" lon="14.977250066599">
        <ele>194.4</ele>
        <time>2020-03-22T11:16:18Z</time>
      </trkpt>
      <trkpt lat="57.024124965192" lon="14.976907498346">
        <ele>193.2</ele>
        <time>2020-03-22T11:16:20Z</time>
      </trkpt>
      <trkpt lat="57.024133598549" lon="14.976564762455">
        <ele>192</ele>
        <time>2020-03-22T11:16:22Z</time>
      </trkpt>
      <trkpt lat="57.024142231906" lon="14.976227558618">
        <ele>191.4</ele>
        <time>2020-03-22T11:16:24Z</time>
      </trkpt>
      <trkpt lat="57.024138879146" lon="14.975938885982">
        <ele>190.8</ele>
        <time>2020-03-22T11:16:26Z</time>
      </trkpt>
      <trkpt lat="57.024117756758" lon="14.975546445424">
        <ele>190.2</ele>
        <time>2020-03-22T11:16:29Z</time>
      </trkpt>
      <trkpt lat="57.024060173105" lon="14.975316781364">
        <ele>189.6</ele>
        <time>2020-03-22T11:16:31Z</time>
      </trkpt>
      <trkpt lat="57.023967050196" lon="14.975138079256">
        <ele>189.8</ele>
        <time>2020-03-22T11:16:33Z</time>
      </trkpt>
      <trkpt lat="57.023743002009" lon="14.9747421183">
        <ele>190</ele>
        <time>2020-03-22T11:16:38Z</time>
      </trkpt>
      <trkpt lat="57.023387357992" lon="14.97391566296">
        <ele>190.4</ele>
        <time>2020-03-22T11:16:47Z</time>
      </trkpt>
      <trkpt lat="57.023318542593" lon="14.973609891248">
        <ele>190.8</ele>
        <time>2020-03-22T11:16:50Z</time>
      </trkpt>
      <trkpt lat="57.023302114069" lon="14.9735015971">
        <ele>191</ele>
        <time>2020-03-22T11:16:51Z</time>
      </trkpt>
      <trkpt lat="57.023281243138" lon="14.973155843725">
        <ele>191.2</ele>
        <time>2020-03-22T11:16:54Z</time>
      </trkpt>
      <trkpt lat="57.023309154865" lon="14.972929867701">
        <ele>191.4</ele>
        <time>2020-03-22T11:16:56Z</time>
      </trkpt>
      <trkpt lat="57.023352824564" lon="14.972720068744">
        <ele>191.8</ele>
        <time>2020-03-22T11:16:58Z</time>
      </trkpt>
      <trkpt lat="57.023385346336" lon="14.972627700206">
        <ele>192</ele>
        <time>2020-03-22T11:16:59Z</time>
      </trkpt>
      <trkpt lat="57.023659769742" lon="14.972093689357">
        <ele>193</ele>
        <time>2020-03-22T11:17:06Z</time>
      </trkpt>
      <trkpt lat="57.023911813475" lon="14.97169613584">
        <ele>194.2</ele>
        <time>2020-03-22T11:17:12Z</time>
      </trkpt>
      <trkpt lat="57.023956237545" lon="14.971645676802">
        <ele>194.2</ele>
        <time>2020-03-22T11:17:13Z</time>
      </trkpt>
      <trkpt lat="57.024003008547" lon="14.971603348207">
        <ele>194.4</ele>
        <time>2020-03-22T11:17:14Z</time>
      </trkpt>
      <trkpt lat="57.02458529914" lon="14.971426825393">
        <ele>194.2</ele>
        <time>2020-03-22T11:17:24Z</time>
      </trkpt>
      <trkpt lat="57.025120567274" lon="14.971184253207">
        <ele>194.4</ele>
        <time>2020-03-22T11:17:34Z</time>
      </trkpt>
      <trkpt lat="57.025438073646" lon="14.970927767067">
        <ele>195.2</ele>
        <time>2020-03-22T11:17:40Z</time>
      </trkpt>
      <trkpt lat="57.025725740454" lon="14.970657366973">
        <ele>196.4</ele>
        <time>2020-03-22T11:17:46Z</time>
      </trkpt>
      <trkpt lat="57.026013658719" lon="14.970321923335">
        <ele>197.4</ele>
        <time>2020-03-22T11:17:52Z</time>
      </trkpt>
      <trkpt lat="57.026402327422" lon="14.96999544833">
        <ele>198.4</ele>
        <time>2020-03-22T11:18:00Z</time>
      </trkpt>
      <trkpt lat="57.026577090037" lon="14.969860835016">
        <ele>199</ele>
        <time>2020-03-22T11:18:04Z</time>
      </trkpt>
      <trkpt lat="57.026704494917" lon="14.969741141484">
        <ele>199.4</ele>
        <time>2020-03-22T11:18:07Z</time>
      </trkpt>
      <trkpt lat="57.026931309131" lon="14.969503263162">
        <ele>199.6</ele>
        <time>2020-03-22T11:18:12Z</time>
      </trkpt>
      <trkpt lat="57.027388793233" lon="14.969234539448">
        <ele>199.8</ele>
        <time>2020-03-22T11:18:20Z</time>
      </trkpt>
      <trkpt lat="57.027841583471" lon="14.969105374369">
        <ele>200.4</ele>
        <time>2020-03-22T11:18:28Z</time>
      </trkpt>
      <trkpt lat="57.028156156178" lon="14.968968833218">
        <ele>201.6</ele>
        <time>2020-03-22T11:18:34Z</time>
      </trkpt>
      <trkpt lat="57.028694609434" lon="14.968705138644">
        <ele>202</ele>
        <time>2020-03-22T11:18:43Z</time>
      </trkpt>
      <trkpt lat="57.02922887174" lon="14.968636490883">
        <ele>200.4</ele>
        <time>2020-03-22T11:18:50Z</time>
      </trkpt>
      <trkpt lat="57.029471611564" lon="14.968674879985">
        <ele>199.2</ele>
        <time>2020-03-22T11:18:53Z</time>
      </trkpt>
      <trkpt lat="57.02962785018" lon="14.968704132816">
        <ele>198</ele>
        <time>2020-03-22T11:18:55Z</time>
      </trkpt>
      <trkpt lat="57.029798589483" lon="14.968730703439">
        <ele>197</ele>
        <time>2020-03-22T11:18:57Z</time>
      </trkpt>
      <trkpt lat="57.030074689269" lon="14.968784599056">
        <ele>195.8</ele>
        <time>2020-03-22T11:19:00Z</time>
      </trkpt>
      <trkpt lat="57.030336623644" lon="14.968827598203">
        <ele>194.8</ele>
        <time>2020-03-22T11:19:03Z</time>
      </trkpt>
      <trkpt lat="57.030829311726" lon="14.968911333384">
        <ele>194.6</ele>
        <time>2020-03-22T11:19:10Z</time>
      </trkpt>
      <trkpt lat="57.031300709782" lon="14.96901476603">
        <ele>194.2</ele>
        <time>2020-03-22T11:19:18Z</time>
      </trkpt>
      <trkpt lat="57.031388635913" lon="14.968955086902">
        <ele>194</ele>
        <time>2020-03-22T11:19:21Z</time>
      </trkpt>
      <trkpt lat="57.031451835439" lon="14.968839332863">
        <ele>193.8</ele>
        <time>2020-03-22T11:19:23Z</time>
      </trkpt>
      <trkpt lat="57.031478406062" lon="14.968768002894">
        <ele>193.6</ele>
        <time>2020-03-22T11:19:24Z</time>
      </trkpt>
      <trkpt lat="57.031757858608" lon="14.967857393278">
        <ele>193.8</ele>
        <time>2020-03-22T11:19:33Z</time>
      </trkpt>
      <trkpt lat="57.031964053348" lon="14.966974360113">
        <ele>193.6</ele>
        <time>2020-03-22T11:19:40Z</time>
      </trkpt>
      <trkpt lat="57.03217091864" lon="14.965974231805">
        <ele>193.2</ele>
        <time>2020-03-22T11:19:48Z</time>
      </trkpt>
      <trkpt lat="57.03232263103" lon="14.965158337659">
        <ele>192.8</ele>
        <time>2020-03-22T11:19:55Z</time>
      </trkpt>
      <trkpt lat="57.032486413356" lon="14.964205902362">
        <ele>192.6</ele>
        <time>2020-03-22T11:20:03Z</time>
      </trkpt>
      <trkpt lat="57.032658158487" lon="14.963184651666">
        <ele>192.4</ele>
        <time>2020-03-22T11:20:12Z</time>
      </trkpt>
      <trkpt lat="57.032704342756" lon="14.962754827834">
        <ele>192.2</ele>
        <time>2020-03-22T11:20:16Z</time>
      </trkpt>
      <trkpt lat="57.032652626433" lon="14.962288961832">
        <ele>191.8</ele>
        <time>2020-03-22T11:20:20Z</time>
      </trkpt>
      <trkpt lat="57.032616584263" lon="14.961795603198">
        <ele>191.6</ele>
        <time>2020-03-22T11:20:24Z</time>
      </trkpt>
      <trkpt lat="57.032621948679" lon="14.960852723267">
        <ele>190.4</ele>
        <time>2020-03-22T11:20:31Z</time>
      </trkpt>
      <trkpt lat="57.032668635862" lon="14.960027106117">
        <ele>189.4</ele>
        <time>2020-03-22T11:20:37Z</time>
      </trkpt>
      <trkpt lat="57.032740971659" lon="14.959337191928">
        <ele>188.4</ele>
        <time>2020-03-22T11:20:42Z</time>
      </trkpt>
      <trkpt lat="57.032902826148" lon="14.958269840782">
        <ele>187.4</ele>
        <time>2020-03-22T11:20:50Z</time>
      </trkpt>
      <trkpt lat="57.032982370379" lon="14.957733231544">
        <ele>186.2</ele>
        <time>2020-03-22T11:20:54Z</time>
      </trkpt>
      <trkpt lat="57.033083372274" lon="14.95698003401">
        <ele>185.2</ele>
        <time>2020-03-22T11:21:00Z</time>
      </trkpt>
      <trkpt lat="57.033071889071" lon="14.955927686465">
        <ele>184.8</ele>
        <time>2020-03-22T11:21:08Z</time>
      </trkpt>
      <trkpt lat="57.033011204115" lon="14.954825131339">
        <ele>184.6</ele>
        <time>2020-03-22T11:21:17Z</time>
      </trkpt>
      <trkpt lat="57.032939119775" lon="14.953862470124">
        <ele>184.2</ele>
        <time>2020-03-22T11:21:25Z</time>
      </trkpt>
      <trkpt lat="57.032927049839" lon="14.953237012746">
        <ele>183.8</ele>
        <time>2020-03-22T11:21:30Z</time>
      </trkpt>
      <trkpt lat="57.03285655806" lon="14.952147198108">
        <ele>183.4</ele>
        <time>2020-03-22T11:21:39Z</time>
      </trkpt>
      <trkpt lat="57.032831999093" lon="14.951922647007">
        <ele>183</ele>
        <time>2020-03-22T11:21:41Z</time>
      </trkpt>
      <trkpt lat="57.032708617525" lon="14.95088220176">
        <ele>182</ele>
        <time>2020-03-22T11:21:49Z</time>
      </trkpt>
      <trkpt lat="57.032694452114" lon="14.950779607304">
        <ele>182</ele>
        <time>2020-03-22T11:21:50Z</time>
      </trkpt>
      <trkpt lat="57.032635611176" lon="14.949767744336">
        <ele>182.4</ele>
        <time>2020-03-22T11:21:59Z</time>
      </trkpt>
      <trkpt lat="57.032597389712" lon="14.94874565545">
        <ele>182.8</ele>
        <time>2020-03-22T11:22:07Z</time>
      </trkpt>
      <trkpt lat="57.032590516554" lon="14.948149115627">
        <ele>183</ele>
        <time>2020-03-22T11:22:12Z</time>
      </trkpt>
      <trkpt lat="57.03257995536" lon="14.947920373576">
        <ele>183</ele>
        <time>2020-03-22T11:22:14Z</time>
      </trkpt>
      <trkpt lat="57.032568304519" lon="14.947673275164">
        <ele>183</ele>
        <time>2020-03-22T11:22:16Z</time>
      </trkpt>
      <trkpt lat="57.032587163794" lon="14.947346548702">
        <ele>183.6</ele>
        <time>2020-03-22T11:22:19Z</time>
      </trkpt>
      <trkpt lat="57.03261683572" lon="14.947137336478">
        <ele>184</ele>
        <time>2020-03-22T11:22:21Z</time>
      </trkpt>
      <trkpt lat="57.032633264244" lon="14.947043207741">
        <ele>184</ele>
        <time>2020-03-22T11:22:22Z</time>
      </trkpt>
      <trkpt lat="57.032686154033" lon="14.946717738564">
        <ele>184</ele>
        <time>2020-03-22T11:22:25Z</time>
      </trkpt>
      <trkpt lat="57.032922104518" lon="14.945954901845">
        <ele>183</ele>
        <time>2020-03-22T11:22:32Z</time>
      </trkpt>
      <trkpt lat="57.032962505276" lon="14.94584719443">
        <ele>182.8</ele>
        <time>2020-03-22T11:22:33Z</time>
      </trkpt>
      <trkpt lat="57.033079097505" lon="14.945509906774">
        <ele>182.8</ele>
        <time>2020-03-22T11:22:36Z</time>
      </trkpt>
      <trkpt lat="57.033346480115" lon="14.944923844326">
        <ele>182</ele>
        <time>2020-03-22T11:22:42Z</time>
      </trkpt>
      <trkpt lat="57.033375732946" lon="14.944815801635">
        <ele>181.8</ele>
        <time>2020-03-22T11:22:43Z</time>
      </trkpt>
      <trkpt lat="57.033526355689" lon="14.94417165262">
        <ele>182</ele>
        <time>2020-03-22T11:22:49Z</time>
      </trkpt>
      <trkpt lat="57.033621071159" lon="14.943170769941">
        <ele>181.6</ele>
        <time>2020-03-22T11:22:58Z</time>
      </trkpt>
      <trkpt lat="57.033706817996" lon="14.942158823154">
        <ele>181.8</ele>
        <time>2020-03-22T11:23:07Z</time>
      </trkpt>
      <trkpt lat="57.033760294518" lon="14.941068170326">
        <ele>181.8</ele>
        <time>2020-03-22T11:23:16Z</time>
      </trkpt>
      <trkpt lat="57.033802958389" lon="14.94004859601">
        <ele>181.8</ele>
        <time>2020-03-22T11:23:25Z</time>
      </trkpt>
      <trkpt lat="57.03370145358" lon="14.939070260642">
        <ele>181</ele>
        <time>2020-03-22T11:23:34Z</time>
      </trkpt>
      <trkpt lat="57.033473717357" lon="14.938116232784">
        <ele>181.2</ele>
        <time>2020-03-22T11:23:43Z</time>
      </trkpt>
      <trkpt lat="57.03324128727" lon="14.937268571237">
        <ele>180.8</ele>
        <time>2020-03-22T11:23:51Z</time>
      </trkpt>
      <trkpt lat="57.032972647375" lon="14.936339940536">
        <ele>181.2</ele>
        <time>2020-03-22T11:24:00Z</time>
      </trkpt>
      <trkpt lat="57.032852786205" lon="14.935675004409">
        <ele>181.6</ele>
        <time>2020-03-22T11:24:06Z</time>
      </trkpt>
      <trkpt lat="57.032764692436" lon="14.934659369586">
        <ele>181.8</ele>
        <time>2020-03-22T11:24:14Z</time>
      </trkpt>
      <trkpt lat="57.032765698264" lon="14.933685979539">
        <ele>181.4</ele>
        <time>2020-03-22T11:24:22Z</time>
      </trkpt>
      <trkpt lat="57.032728734085" lon="14.932632542347">
        <ele>181.2</ele>
        <time>2020-03-22T11:24:31Z</time>
      </trkpt>
      <trkpt lat="57.032717586158" lon="14.932111104348">
        <ele>181.4</ele>
        <time>2020-03-22T11:24:36Z</time>
      </trkpt>
      <trkpt lat="57.032741893668" lon="14.9314747505">
        <ele>181</ele>
        <time>2020-03-22T11:24:42Z</time>
      </trkpt>
      <trkpt lat="57.032752287224" lon="14.93125095377">
        <ele>180.8</ele>
        <time>2020-03-22T11:24:44Z</time>
      </trkpt>
      <trkpt lat="57.032756059079" lon="14.930241353915">
        <ele>181.4</ele>
        <time>2020-03-22T11:24:53Z</time>
      </trkpt>
      <trkpt lat="57.032768799567" lon="14.929176852615">
        <ele>181.8</ele>
        <time>2020-03-22T11:25:02Z</time>
      </trkpt>
      <trkpt lat="57.032771146499" lon="14.928190135347">
        <ele>182.2</ele>
        <time>2020-03-22T11:25:09Z</time>
      </trkpt>
      <trkpt lat="57.032743653867" lon="14.927095794483">
        <ele>182</ele>
        <time>2020-03-22T11:25:17Z</time>
      </trkpt>
      <trkpt lat="57.032732673578" lon="14.926721123553">
        <ele>182.4</ele>
        <time>2020-03-22T11:25:20Z</time>
      </trkpt>
      <trkpt lat="57.032755053251" lon="14.925634829313">
        <ele>182.4</ele>
        <time>2020-03-22T11:25:29Z</time>
      </trkpt>
      <trkpt lat="57.032755053251" lon="14.925282705694">
        <ele>182.8</ele>
        <time>2020-03-22T11:25:32Z</time>
      </trkpt>
      <trkpt lat="57.032745749342" lon="14.924527999418">
        <ele>183.8</ele>
        <time>2020-03-22T11:25:39Z</time>
      </trkpt>
      <trkpt lat="57.032654302813" lon="14.923583778383">
        <ele>184.8</ele>
        <time>2020-03-22T11:25:48Z</time>
      </trkpt>
      <trkpt lat="57.032496387817" lon="14.922663781039">
        <ele>185</ele>
        <time>2020-03-22T11:25:56Z</time>
      </trkpt>
      <trkpt lat="57.032307375972" lon="14.921679494522">
        <ele>185.2</ele>
        <time>2020-03-22T11:26:05Z</time>
      </trkpt>
      <trkpt lat="57.03218097692" lon="14.920907102437">
        <ele>183.8</ele>
        <time>2020-03-22T11:26:12Z</time>
      </trkpt>
      <trkpt lat="57.031991210704" lon="14.919889539777">
        <ele>184.2</ele>
        <time>2020-03-22T11:26:21Z</time>
      </trkpt>
      <trkpt lat="57.031879479977" lon="14.919154028052">
        <ele>185</ele>
        <time>2020-03-22T11:26:28Z</time>
      </trkpt>
      <trkpt lat="57.031796163891" lon="14.918671733526">
        <ele>185.6</ele>
        <time>2020-03-22T11:26:33Z</time>
      </trkpt>
      <trkpt lat="57.031721900257" lon="14.918283232461">
        <ele>186</ele>
        <time>2020-03-22T11:26:37Z</time>
      </trkpt>
      <trkpt lat="57.031542779054" lon="14.917340017254">
        <ele>187</ele>
        <time>2020-03-22T11:26:47Z</time>
      </trkpt>
      <trkpt lat="57.031525679978" lon="14.917254102779">
        <ele>187.2</ele>
        <time>2020-03-22T11:26:48Z</time>
      </trkpt>
      <trkpt lat="57.031344547119" lon="14.916229080228">
        <ele>188</ele>
        <time>2020-03-22T11:26:58Z</time>
      </trkpt>
      <trkpt lat="57.031177495852" lon="14.915212942491">
        <ele>188.2</ele>
        <time>2020-03-22T11:27:08Z</time>
      </trkpt>
      <trkpt lat="57.031002817056" lon="14.914165372629">
        <ele>189</ele>
        <time>2020-03-22T11:27:17Z</time>
      </trkpt>
      <trkpt lat="57.030954537312" lon="14.913943587555">
        <ele>189.4</ele>
        <time>2020-03-22T11:27:19Z</time>
      </trkpt>
      <trkpt lat="57.030746247097" lon="14.913237077204">
        <ele>190.4</ele>
        <time>2020-03-22T11:27:26Z</time>
      </trkpt>
      <trkpt lat="57.030655052025" lon="14.912994253561">
        <ele>190.8</ele>
        <time>2020-03-22T11:27:29Z</time>
      </trkpt>
      <trkpt lat="57.030548434257" lon="14.912763248397">
        <ele>191</ele>
        <time>2020-03-22T11:27:32Z</time>
      </trkpt>
      <trkpt lat="57.030368139588" lon="14.912341974103">
        <ele>190.4</ele>
        <time>2020-03-22T11:27:37Z</time>
      </trkpt>
      <trkpt lat="57.030131183275" lon="14.911817770077">
        <ele>189.4</ele>
        <time>2020-03-22T11:27:43Z</time>
      </trkpt>
      <trkpt lat="57.029891963849" lon="14.911248639067">
        <ele>188.4</ele>
        <time>2020-03-22T11:27:48Z</time>
      </trkpt>
      <trkpt lat="57.029552664537" lon="14.91050239851">
        <ele>187.4</ele>
        <time>2020-03-22T11:27:54Z</time>
      </trkpt>
      <trkpt lat="57.029343955227" lon="14.910050027367">
        <ele>186</ele>
        <time>2020-03-22T11:27:58Z</time>
      </trkpt>
      <trkpt lat="57.029241863685" lon="14.909842240066">
        <ele>185.6</ele>
        <time>2020-03-22T11:28:00Z</time>
      </trkpt>
      <trkpt lat="57.029100544851" lon="14.909547029548">
        <ele>184.6</ele>
        <time>2020-03-22T11:28:03Z</time>
      </trkpt>
      <trkpt lat="57.028861409244" lon="14.909021652056">
        <ele>183.6</ele>
        <time>2020-03-22T11:28:08Z</time>
      </trkpt>
      <trkpt lat="57.028704751533" lon="14.908690986101">
        <ele>182.4</ele>
        <time>2020-03-22T11:28:11Z</time>
      </trkpt>
      <trkpt lat="57.028385820238" lon="14.907884479683">
        <ele>181.4</ele>
        <time>2020-03-22T11:28:17Z</time>
      </trkpt>
      <trkpt lat="57.028333601001" lon="14.907739221356">
        <ele>181.4</ele>
        <time>2020-03-22T11:28:18Z</time>
      </trkpt>
      <trkpt lat="57.02799421787" lon="14.906909580894">
        <ele>181.2</ele>
        <time>2020-03-22T11:28:25Z</time>
      </trkpt>
      <trkpt lat="57.027639495862" lon="14.906012549956">
        <ele>181.2</ele>
        <time>2020-03-22T11:28:33Z</time>
      </trkpt>
      <trkpt lat="57.027276894868" lon="14.905179640553">
        <ele>181</ele>
        <time>2020-03-22T11:28:41Z</time>
      </trkpt>
      <trkpt lat="57.026910522019" lon="14.904362489122">
        <ele>181</ele>
        <time>2020-03-22T11:28:49Z</time>
      </trkpt>
      <trkpt lat="57.026530821949" lon="14.90356134712">
        <ele>180.6</ele>
        <time>2020-03-22T11:28:58Z</time>
      </trkpt>
      <trkpt lat="57.026399393757" lon="14.903336376924">
        <ele>180.4</ele>
        <time>2020-03-22T11:29:01Z</time>
      </trkpt>
      <trkpt lat="57.026138884305" lon="14.902811502346">
        <ele>180.6</ele>
        <time>2020-03-22T11:29:07Z</time>
      </trkpt>
      <trkpt lat="57.026053053649" lon="14.902639254301">
        <ele>180.8</ele>
        <time>2020-03-22T11:29:09Z</time>
      </trkpt>
      <trkpt lat="57.025697241994" lon="14.901838196118">
        <ele>181.2</ele>
        <time>2020-03-22T11:29:18Z</time>
      </trkpt>
      <trkpt lat="57.02561208189" lon="14.901627558971">
        <ele>181.4</ele>
        <time>2020-03-22T11:29:20Z</time>
      </trkpt>
      <trkpt lat="57.025290049292" lon="14.900900429146">
        <ele>182.4</ele>
        <time>2020-03-22T11:29:28Z</time>
      </trkpt>
      <trkpt lat="57.025019649198" lon="14.900328196833">
        <ele>183.4</ele>
        <time>2020-03-22T11:29:35Z</time>
      </trkpt>
      <trkpt lat="57.024832397552" lon="14.899956627206">
        <ele>184.6</ele>
        <time>2020-03-22T11:29:40Z</time>
      </trkpt>
      <trkpt lat="57.024582616932" lon="14.899523282976">
        <ele>185.6</ele>
        <time>2020-03-22T11:29:46Z</time>
      </trkpt>
      <trkpt lat="57.024505168176" lon="14.89938380816">
        <ele>185.8</ele>
        <time>2020-03-22T11:29:48Z</time>
      </trkpt>
      <trkpt lat="57.024333423045" lon="14.899085915434">
        <ele>186.4</ele>
        <time>2020-03-22T11:29:53Z</time>
      </trkpt>
      <trkpt lat="57.023949448206" lon="14.898326431475">
        <ele>186.4</ele>
        <time>2020-03-22T11:30:04Z</time>
      </trkpt>
      <trkpt lat="57.023674270429" lon="14.897656717665">
        <ele>186.4</ele>
        <time>2020-03-22T11:30:15Z</time>
      </trkpt>
      <trkpt lat="57.023298845128" lon="14.896917517904">
        <ele>185.8</ele>
        <time>2020-03-22T11:30:27Z</time>
      </trkpt>
      <trkpt lat="57.02290221362" lon="14.896159458868">
        <ele>185.4</ele>
        <time>2020-03-22T11:30:37Z</time>
      </trkpt>
      <trkpt lat="57.022508599596" lon="14.895391341552">
        <ele>185.8</ele>
        <time>2020-03-22T11:30:47Z</time>
      </trkpt>
      <trkpt lat="57.022348337668" lon="14.895099483794">
        <ele>186</ele>
        <time>2020-03-22T11:30:51Z</time>
      </trkpt>
      <trkpt lat="57.021943575717" lon="14.894318206895">
        <ele>185.4</ele>
        <time>2020-03-22T11:31:01Z</time>
      </trkpt>
      <trkpt lat="57.021691196708" lon="14.893849407228">
        <ele>185.6</ele>
        <time>2020-03-22T11:31:10Z</time>
      </trkpt>
      <trkpt lat="57.021662279153" lon="14.893691156956">
        <ele>185.4</ele>
        <time>2020-03-22T11:31:12Z</time>
      </trkpt>
      <trkpt lat="57.021610311373" lon="14.893524776241">
        <ele>185.4</ele>
        <time>2020-03-22T11:31:14Z</time>
      </trkpt>
      <trkpt lat="57.021236059538" lon="14.892776859304">
        <ele>184.8</ele>
        <time>2020-03-22T11:31:23Z</time>
      </trkpt>
      <trkpt lat="57.021047047693" lon="14.892374109009">
        <ele>184.8</ele>
        <time>2020-03-22T11:31:28Z</time>
      </trkpt>
      <trkpt lat="57.021015028835" lon="14.892082754165">
        <ele>184.8</ele>
        <time>2020-03-22T11:31:31Z</time>
      </trkpt>
      <trkpt lat="57.020972951697" lon="14.891891395388">
        <ele>185</ele>
        <time>2020-03-22T11:31:33Z</time>
      </trkpt>
      <trkpt lat="57.020900280624" lon="14.89173113346">
        <ele>185.2</ele>
        <time>2020-03-22T11:31:35Z</time>
      </trkpt>
      <trkpt lat="57.020466349661" lon="14.890984222351">
        <ele>185.2</ele>
        <time>2020-03-22T11:31:45Z</time>
      </trkpt>
      <trkpt lat="57.02003057468" lon="14.890247704798">
        <ele>184.6</ele>
        <time>2020-03-22T11:31:55Z</time>
      </trkpt>
      <trkpt lat="57.019603265418" lon="14.889505403734">
        <ele>185</ele>
        <time>2020-03-22T11:32:05Z</time>
      </trkpt>
      <trkpt lat="57.019136728864" lon="14.888984971563">
        <ele>185.8</ele>
        <time>2020-03-22T11:32:15Z</time>
      </trkpt>
      <trkpt lat="57.018807571651" lon="14.888760839557">
        <ele>186</ele>
        <time>2020-03-22T11:32:22Z</time>
      </trkpt>
      <trkpt lat="57.018665917541" lon="14.888721025532">
        <ele>185.8</ele>
        <time>2020-03-22T11:32:26Z</time>
      </trkpt>
      <trkpt lat="57.018609423535" lon="14.88888966936">
        <ele>185.8</ele>
        <time>2020-03-22T11:32:29Z</time>
      </trkpt>
      <trkpt lat="57.01851764173" lon="14.889484281346">
        <ele>185.2</ele>
        <time>2020-03-22T11:32:36Z</time>
      </trkpt>
      <trkpt lat="57.01844388101" lon="14.889558042066">
        <ele>185.2</ele>
        <time>2020-03-22T11:32:38Z</time>
      </trkpt>
      <trkpt lat="57.018345728961" lon="14.889514791462">
        <ele>185</ele>
        <time>2020-03-22T11:32:40Z</time>
      </trkpt>
      <trkpt lat="57.018191669639" lon="14.889406664952">
        <ele>184.6</ele>
        <time>2020-03-22T11:32:43Z</time>
      </trkpt>
      <trkpt lat="57.017652462012" lon="14.889049679831">
        <ele>184.6</ele>
        <time>2020-03-22T11:32:53Z</time>
      </trkpt>
      <trkpt lat="57.017119959905" lon="14.888690012502">
        <ele>184.4</ele>
        <time>2020-03-22T11:33:03Z</time>
      </trkpt>
      <trkpt lat="57.016579243536" lon="14.888323304377">
        <ele>184.4</ele>
        <time>2020-03-22T11:33:13Z</time>
      </trkpt>
      <trkpt lat="57.016035509683" lon="14.887908567965">
        <ele>183.6</ele>
        <time>2020-03-22T11:33:23Z</time>
      </trkpt>
      <trkpt lat="57.01591673816" lon="14.887825587155">
        <ele>183.6</ele>
        <time>2020-03-22T11:33:25Z</time>
      </trkpt>
      <trkpt lat="57.015386666804" lon="14.887462399428">
        <ele>184.6</ele>
        <time>2020-03-22T11:33:34Z</time>
      </trkpt>
      <trkpt lat="57.014857014543" lon="14.887120585546">
        <ele>184.2</ele>
        <time>2020-03-22T11:33:43Z</time>
      </trkpt>
      <trkpt lat="57.014340521865" lon="14.886784890451">
        <ele>184.4</ele>
        <time>2020-03-22T11:33:52Z</time>
      </trkpt>
      <trkpt lat="57.013829393603" lon="14.886433269746">
        <ele>184</ele>
        <time>2020-03-22T11:34:01Z</time>
      </trkpt>
      <trkpt lat="57.013296472401" lon="14.886002356267">
        <ele>183.4</ele>
        <time>2020-03-22T11:34:10Z</time>
      </trkpt>
      <trkpt lat="57.012746619761" lon="14.885625841319">
        <ele>182.6</ele>
        <time>2020-03-22T11:34:19Z</time>
      </trkpt>
      <trkpt lat="57.012621226537" lon="14.885542692871">
        <ele>182.6</ele>
        <time>2020-03-22T11:34:21Z</time>
      </trkpt>
      <trkpt lat="57.012439506945" lon="14.885414114525">
        <ele>182.4</ele>
        <time>2020-03-22T11:34:24Z</time>
      </trkpt>
      <trkpt lat="57.012320986879" lon="14.885342952194">
        <ele>182.4</ele>
        <time>2020-03-22T11:34:26Z</time>
      </trkpt>
      <trkpt lat="57.011788233315" lon="14.88502058432">
        <ele>182</ele>
        <time>2020-03-22T11:34:35Z</time>
      </trkpt>
      <trkpt lat="57.011397133861" lon="14.88473811429">
        <ele>182</ele>
        <time>2020-03-22T11:34:42Z</time>
      </trkpt>
      <trkpt lat="57.010847784135" lon="14.88438104535">
        <ele>181.8</ele>
        <time>2020-03-22T11:34:51Z</time>
      </trkpt>
      <trkpt lat="57.010653072598" lon="14.884241570534">
        <ele>181.6</ele>
        <time>2020-03-22T11:34:54Z</time>
      </trkpt>
      <trkpt lat="57.01014160906" lon="14.883802442793">
        <ele>181.4</ele>
        <time>2020-03-22T11:35:03Z</time>
      </trkpt>
      <trkpt lat="57.009875399916" lon="14.883632625499">
        <ele>181</ele>
        <time>2020-03-22T11:35:07Z</time>
      </trkpt>
      <trkpt lat="57.009317584471" lon="14.883324674493">
        <ele>180.6</ele>
        <time>2020-03-22T11:35:15Z</time>
      </trkpt>
      <trkpt lat="57.009171404135" lon="14.88328217826">
        <ele>180.4</ele>
        <time>2020-03-22T11:35:17Z</time>
      </trkpt>
      <trkpt lat="57.008614762156" lon="14.883179667623">
        <ele>180.4</ele>
        <time>2020-03-22T11:35:25Z</time>
      </trkpt>
      <trkpt lat="57.008430611813" lon="14.883160975986">
        <ele>180.8</ele>
        <time>2020-03-22T11:35:28Z</time>
      </trkpt>
      <trkpt lat="57.007882854648" lon="14.883099033745">
        <ele>180.8</ele>
        <time>2020-03-22T11:35:37Z</time>
      </trkpt>
      <trkpt lat="57.007578340221" lon="14.883066511973">
        <ele>181</ele>
        <time>2020-03-22T11:35:42Z</time>
      </trkpt>
      <trkpt lat="57.007001665501" lon="14.88302820669">
        <ele>180.8</ele>
        <time>2020-03-22T11:35:51Z</time>
      </trkpt>
      <trkpt lat="57.006406718239" lon="14.882963749879">
        <ele>180.8</ele>
        <time>2020-03-22T11:36:00Z</time>
      </trkpt>
      <trkpt lat="57.006202702793" lon="14.88294941683">
        <ele>180.8</ele>
        <time>2020-03-22T11:36:03Z</time>
      </trkpt>
      <trkpt lat="57.005621334209" lon="14.8828597305">
        <ele>181</ele>
        <time>2020-03-22T11:36:13Z</time>
      </trkpt>
      <trkpt lat="57.005045246222" lon="14.882775240948">
        <ele>180.8</ele>
        <time>2020-03-22T11:36:22Z</time>
      </trkpt>
      <trkpt lat="57.00482748446" lon="14.882771636731">
        <ele>180.8</ele>
        <time>2020-03-22T11:36:26Z</time>
      </trkpt>
      <trkpt lat="57.004238488347" lon="14.88273064924">
        <ele>181</ele>
        <time>2020-03-22T11:36:35Z</time>
      </trkpt>
      <trkpt lat="57.003627447837" lon="14.882688823559">
        <ele>180.8</ele>
        <time>2020-03-22T11:36:44Z</time>
      </trkpt>
      <trkpt lat="57.003119420878" lon="14.882703910979">
        <ele>180.8</ele>
        <time>2020-03-22T11:36:52Z</time>
      </trkpt>
      <trkpt lat="57.002541321235" lon="14.882750179067">
        <ele>180.8</ele>
        <time>2020-03-22T11:37:01Z</time>
      </trkpt>
      <trkpt lat="57.001989205482" lon="14.882739534054">
        <ele>180.6</ele>
        <time>2020-03-22T11:37:09Z</time>
      </trkpt>
      <trkpt lat="57.001428959286" lon="14.882765350306">
        <ele>180.8</ele>
        <time>2020-03-22T11:37:17Z</time>
      </trkpt>
      <trkpt lat="57.000841388096" lon="14.882805331969">
        <ele>181.4</ele>
        <time>2020-03-22T11:37:26Z</time>
      </trkpt>
      <trkpt lat="57.000784558814" lon="14.882814719697">
        <ele>181.6</ele>
        <time>2020-03-22T11:37:27Z</time>
      </trkpt>
      <trkpt lat="57.000253146354" lon="14.882884540924">
        <ele>182.6</ele>
        <time>2020-03-22T11:37:35Z</time>
      </trkpt>
      <trkpt lat="57.000201178574" lon="14.882872638626">
        <ele>182.8</ele>
        <time>2020-03-22T11:37:36Z</time>
      </trkpt>
      <trkpt lat="56.999776970615" lon="14.882772474921">
        <ele>183.8</ele>
        <time>2020-03-22T11:37:44Z</time>
      </trkpt>
      <trkpt lat="56.999578235766" lon="14.88271975277">
        <ele>184.4</ele>
        <time>2020-03-22T11:37:48Z</time>
      </trkpt>
      <trkpt lat="56.999364413497" lon="14.882670215741">
        <ele>184.8</ele>
        <time>2020-03-22T11:37:52Z</time>
      </trkpt>
      <trkpt lat="56.998910282155" lon="14.882575332633">
        <ele>185.8</ele>
        <time>2020-03-22T11:38:00Z</time>
      </trkpt>
      <trkpt lat="56.99836420137" lon="14.882467038485">
        <ele>186.6</ele>
        <time>2020-03-22T11:38:10Z</time>
      </trkpt>
      <trkpt lat="56.998260098172" lon="14.882446419011">
        <ele>187</ele>
        <time>2020-03-22T11:38:12Z</time>
      </trkpt>
      <trkpt lat="56.997678897226" lon="14.882302837064">
        <ele>188</ele>
        <time>2020-03-22T11:38:23Z</time>
      </trkpt>
      <trkpt lat="56.997099288841" lon="14.882117177979">
        <ele>189</ele>
        <time>2020-03-22T11:38:34Z</time>
      </trkpt>
      <trkpt lat="56.996567708743" lon="14.882003351777">
        <ele>190.2</ele>
        <time>2020-03-22T11:38:43Z</time>
      </trkpt>
      <trkpt lat="56.996129503011" lon="14.881891034317">
        <ele>191.2</ele>
        <time>2020-03-22T11:38:51Z</time>
      </trkpt>
      <trkpt lat="56.995555761956" lon="14.881740998307">
        <ele>192</ele>
        <time>2020-03-22T11:39:01Z</time>
      </trkpt>
      <trkpt lat="56.995240183421" lon="14.881650306149">
        <ele>192.2</ele>
        <time>2020-03-22T11:39:07Z</time>
      </trkpt>
      <trkpt lat="56.994675159542" lon="14.881516447206">
        <ele>193</ele>
        <time>2020-03-22T11:39:17Z</time>
      </trkpt>
      <trkpt lat="56.994088091266" lon="14.881358029296">
        <ele>193</ele>
        <time>2020-03-22T11:39:27Z</time>
      </trkpt>
      <trkpt lat="56.993495574755" lon="14.881230792054">
        <ele>193</ele>
        <time>2020-03-22T11:39:36Z</time>
      </trkpt>
      <trkpt lat="56.992965168123" lon="14.881055861801">
        <ele>192.2</ele>
        <time>2020-03-22T11:39:44Z</time>
      </trkpt>
      <trkpt lat="56.992408609963" lon="14.880912447492">
        <ele>192.2</ele>
        <time>2020-03-22T11:39:52Z</time>
      </trkpt>
      <trkpt lat="56.992146927045" lon="14.880855953486">
        <ele>192</ele>
        <time>2020-03-22T11:39:56Z</time>
      </trkpt>
      <trkpt lat="56.991562624796" lon="14.880705246924">
        <ele>191.2</ele>
        <time>2020-03-22T11:40:05Z</time>
      </trkpt>
      <trkpt lat="56.991022076065" lon="14.880546242281">
        <ele>191.2</ele>
        <time>2020-03-22T11:40:14Z</time>
      </trkpt>
      <trkpt lat="56.990966587887" lon="14.880533250336">
        <ele>191.2</ele>
        <time>2020-03-22T11:40:15Z</time>
      </trkpt>
      <trkpt lat="56.9904324094" lon="14.880397212099">
        <ele>191</ele>
        <time>2020-03-22T11:40:24Z</time>
      </trkpt>
      <trkpt lat="56.990331994238" lon="14.880370390019">
        <ele>191</ele>
        <time>2020-03-22T11:40:26Z</time>
      </trkpt>
      <trkpt lat="56.990239038967" lon="14.880339544627">
        <ele>190.8</ele>
        <time>2020-03-22T11:40:28Z</time>
      </trkpt>
      <trkpt lat="56.989661526057" lon="14.8802110501">
        <ele>190.6</ele>
        <time>2020-03-22T11:40:39Z</time>
      </trkpt>
      <trkpt lat="56.989097424187" lon="14.880119435933">
        <ele>190.6</ele>
        <time>2020-03-22T11:40:48Z</time>
      </trkpt>
      <trkpt lat="56.988716466832" lon="14.880101414848">
        <ele>190.2</ele>
        <time>2020-03-22T11:40:54Z</time>
      </trkpt>
      <trkpt lat="56.988124537054" lon="14.880112814232">
        <ele>189.4</ele>
        <time>2020-03-22T11:41:03Z</time>
      </trkpt>
      <trkpt lat="56.987994533785" lon="14.880107282178">
        <ele>189.2</ele>
        <time>2020-03-22T11:41:05Z</time>
      </trkpt>
      <trkpt lat="56.987389863519" lon="14.880129578032">
        <ele>188.8</ele>
        <time>2020-03-22T11:41:14Z</time>
      </trkpt>
      <trkpt lat="56.986834143549" lon="14.880146341832">
        <ele>189.4</ele>
        <time>2020-03-22T11:41:22Z</time>
      </trkpt>
      <trkpt lat="56.986241291762" lon="14.88009957083">
        <ele>188.6</ele>
        <time>2020-03-22T11:41:32Z</time>
      </trkpt>
      <trkpt lat="56.986166441395" lon="14.88009705626">
        <ele>188.6</ele>
        <time>2020-03-22T11:41:33Z</time>
      </trkpt>
      <trkpt lat="56.985556574351" lon="14.880148102031">
        <ele>188.6</ele>
        <time>2020-03-22T11:41:41Z</time>
      </trkpt>
      <trkpt lat="56.98518785457" lon="14.880148940221">
        <ele>188</ele>
        <time>2020-03-22T11:41:46Z</time>
      </trkpt>
      <trkpt lat="56.984618472103" lon="14.880150365144">
        <ele>187.8</ele>
        <time>2020-03-22T11:41:54Z</time>
      </trkpt>
      <trkpt lat="56.984029643628" lon="14.880186491133">
        <ele>187.4</ele>
        <time>2020-03-22T11:42:03Z</time>
      </trkpt>
      <trkpt lat="56.98344274299" lon="14.880207529702">
        <ele>187.6</ele>
        <time>2020-03-22T11:42:12Z</time>
      </trkpt>
      <trkpt lat="56.982886939201" lon="14.880163357089">
        <ele>187.8</ele>
        <time>2020-03-22T11:42:19Z</time>
      </trkpt>
      <trkpt lat="56.98233381762" lon="14.880204596037">
        <ele>188.2</ele>
        <time>2020-03-22T11:42:27Z</time>
      </trkpt>
      <trkpt lat="56.981759406013" lon="14.880247176089">
        <ele>188.8</ele>
        <time>2020-03-22T11:42:36Z</time>
      </trkpt>
      <trkpt lat="56.981696457944" lon="14.88025631236">
        <ele>189</ele>
        <time>2020-03-22T11:42:37Z</time>
      </trkpt>
      <trkpt lat="56.981310136173" lon="14.880284894639">
        <ele>190.2</ele>
        <time>2020-03-22T11:42:43Z</time>
      </trkpt>
      <trkpt lat="56.980723403173" lon="14.880352788029">
        <ele>190.8</ele>
        <time>2020-03-22T11:42:52Z</time>
      </trkpt>
      <trkpt lat="56.980472616725" lon="14.880368965096">
        <ele>191.2</ele>
        <time>2020-03-22T11:42:56Z</time>
      </trkpt>
      <trkpt lat="56.979923099361" lon="14.880395284262">
        <ele>192</ele>
        <time>2020-03-22T11:43:06Z</time>
      </trkpt>
      <trkpt lat="56.97944038574" lon="14.880439289237">
        <ele>192</ele>
        <time>2020-03-22T11:43:15Z</time>
      </trkpt>
      <trkpt lat="56.978990948262" lon="14.880411042234">
        <ele>192.4</ele>
        <time>2020-03-22T11:43:24Z</time>
      </trkpt>
      <trkpt lat="56.978449896617" lon="14.880410455501">
        <ele>192.6</ele>
        <time>2020-03-22T11:43:34Z</time>
      </trkpt>
      <trkpt lat="56.978044883209" lon="14.880399559031">
        <ele>193.4</ele>
        <time>2020-03-22T11:43:42Z</time>
      </trkpt>
      <trkpt lat="56.97749243218" lon="14.880316075307">
        <ele>194.4</ele>
        <time>2020-03-22T11:43:53Z</time>
      </trkpt>
      <trkpt lat="56.977395453597" lon="14.880325546854">
        <ele>194.4</ele>
        <time>2020-03-22T11:43:55Z</time>
      </trkpt>
      <trkpt lat="56.976806206027" lon="14.880446916766">
        <ele>194.8</ele>
        <time>2020-03-22T11:44:07Z</time>
      </trkpt>
      <trkpt lat="56.976264400011" lon="14.880607933065">
        <ele>194.6</ele>
        <time>2020-03-22T11:44:17Z</time>
      </trkpt>
      <trkpt lat="56.975698118847" lon="14.880775235789">
        <ele>194.8</ele>
        <time>2020-03-22T11:44:28Z</time>
      </trkpt>
      <trkpt lat="56.975137034461" lon="14.880771044839">
        <ele>194.4</ele>
        <time>2020-03-22T11:44:40Z</time>
      </trkpt>
      <trkpt lat="56.97456882546" lon="14.880662499234">
        <ele>194.6</ele>
        <time>2020-03-22T11:44:51Z</time>
      </trkpt>
      <trkpt lat="56.974195076539" lon="14.880591253084">
        <ele>194.4</ele>
        <time>2020-03-22T11:44:58Z</time>
      </trkpt>
      <trkpt lat="56.973599291087" lon="14.88043400864">
        <ele>194</ele>
        <time>2020-03-22T11:45:09Z</time>
      </trkpt>
      <trkpt lat="56.973070057921" lon="14.880231250479">
        <ele>194.2</ele>
        <time>2020-03-22T11:45:20Z</time>
      </trkpt>
      <trkpt lat="56.97250017254" lon="14.87992187455">
        <ele>194</ele>
        <time>2020-03-22T11:45:30Z</time>
      </trkpt>
      <trkpt lat="56.972339742974" lon="14.8798338646">
        <ele>193.6</ele>
        <time>2020-03-22T11:45:34Z</time>
      </trkpt>
      <trkpt lat="56.972289451574" lon="14.879803522122">
        <ele>193.4</ele>
        <time>2020-03-22T11:45:35Z</time>
      </trkpt>
      <trkpt lat="56.972074288201" lon="14.87968466678">
        <ele>192.2</ele>
        <time>2020-03-22T11:45:39Z</time>
      </trkpt>
      <trkpt lat="56.97177597638" lon="14.879554244416">
        <ele>191.6</ele>
        <time>2020-03-22T11:45:44Z</time>
      </trkpt>
      <trkpt lat="56.971607164914" lon="14.879450560313">
        <ele>191.2</ele>
        <time>2020-03-22T11:45:47Z</time>
      </trkpt>
      <trkpt lat="56.971435084507" lon="14.8793477144">
        <ele>190.8</ele>
        <time>2020-03-22T11:45:50Z</time>
      </trkpt>
      <trkpt lat="56.97127390057" lon="14.87927982101">
        <ele>190.6</ele>
        <time>2020-03-22T11:45:53Z</time>
      </trkpt>
      <trkpt lat="56.97073997354" lon="14.878939096775">
        <ele>190.4</ele>
        <time>2020-03-22T11:46:03Z</time>
      </trkpt>
      <trkpt lat="56.970325320947" lon="14.878676072753">
        <ele>190.4</ele>
        <time>2020-03-22T11:46:10Z</time>
      </trkpt>
      <trkpt lat="56.969771947909" lon="14.878280447073">
        <ele>190.2</ele>
        <time>2020-03-22T11:46:20Z</time>
      </trkpt>
      <trkpt lat="56.969480676884" lon="14.878138122411">
        <ele>190.4</ele>
        <time>2020-03-22T11:46:27Z</time>
      </trkpt>
      <trkpt lat="56.969334915643" lon="14.87808456207">
        <ele>190.4</ele>
        <time>2020-03-22T11:46:30Z</time>
      </trkpt>
      <trkpt lat="56.968804006097" lon="14.877774934684">
        <ele>190.6</ele>
        <time>2020-03-22T11:46:40Z</time>
      </trkpt>
      <trkpt lat="56.968304528676" lon="14.877483244564">
        <ele>190.6</ele>
        <time>2020-03-22T11:46:48Z</time>
      </trkpt>
      <trkpt lat="56.967737660779" lon="14.877275038168">
        <ele>190.4</ele>
        <time>2020-03-22T11:46:59Z</time>
      </trkpt>
      <trkpt lat="56.967567089114" lon="14.877177137576">
        <ele>190</ele>
        <time>2020-03-22T11:47:01Z</time>
      </trkpt>
      <trkpt lat="56.967058056327" lon="14.876869605665">
        <ele>188.8</ele>
        <time>2020-03-22T11:47:11Z</time>
      </trkpt>
      <trkpt lat="56.966529996627" lon="14.876591578042">
        <ele>188</ele>
        <time>2020-03-22T11:47:20Z</time>
      </trkpt>
      <trkpt lat="56.966302930956" lon="14.876460652764">
        <ele>187.8</ele>
        <time>2020-03-22T11:47:23Z</time>
      </trkpt>
      <trkpt lat="56.965881237567" lon="14.876202657882">
        <ele>186.6</ele>
        <time>2020-03-22T11:47:32Z</time>
      </trkpt>
      <trkpt lat="56.965308418521" lon="14.875874757954">
        <ele>185.4</ele>
        <time>2020-03-22T11:47:40Z</time>
      </trkpt>
      <trkpt lat="56.964999880782" lon="14.875682393349">
        <ele>184.2</ele>
        <time>2020-03-22T11:47:45Z</time>
      </trkpt>
      <trkpt lat="56.964599645057" lon="14.87544426357">
        <ele>183</ele>
        <time>2020-03-22T11:47:51Z</time>
      </trkpt>
      <trkpt lat="56.964339638519" lon="14.87530344765">
        <ele>182</ele>
        <time>2020-03-22T11:47:55Z</time>
      </trkpt>
      <trkpt lat="56.963957759155" lon="14.875086524078">
        <ele>180.8</ele>
        <time>2020-03-22T11:48:01Z</time>
      </trkpt>
      <trkpt lat="56.963452582042" lon="14.874830121757">
        <ele>179.8</ele>
        <time>2020-03-22T11:48:10Z</time>
      </trkpt>
      <trkpt lat="56.962974227009" lon="14.874697520099">
        <ele>180.4</ele>
        <time>2020-03-22T11:48:20Z</time>
      </trkpt>
      <trkpt lat="56.962383470697" lon="14.874702130144">
        <ele>181.4</ele>
        <time>2020-03-22T11:48:31Z</time>
      </trkpt>
      <trkpt lat="56.961826241985" lon="14.874845292996">
        <ele>181.4</ele>
        <time>2020-03-22T11:48:41Z</time>
      </trkpt>
      <trkpt lat="56.961459198584" lon="14.874911761463">
        <ele>181.8</ele>
        <time>2020-03-22T11:48:47Z</time>
      </trkpt>
      <trkpt lat="56.960965420855" lon="14.874945456701">
        <ele>181.6</ele>
        <time>2020-03-22T11:48:56Z</time>
      </trkpt>
      <trkpt lat="56.960541799629" lon="14.874791145922">
        <ele>181.8</ele>
        <time>2020-03-22T11:49:05Z</time>
      </trkpt>
      <trkpt lat="56.960451275109" lon="14.874736747391">
        <ele>181.8</ele>
        <time>2020-03-22T11:49:07Z</time>
      </trkpt>
      <trkpt lat="56.960023211476" lon="14.87448537421">
        <ele>182.8</ele>
        <time>2020-03-22T11:49:16Z</time>
      </trkpt>
      <trkpt lat="56.95946380347" lon="14.874205921664">
        <ele>183.6</ele>
        <time>2020-03-22T11:49:26Z</time>
      </trkpt>
      <trkpt lat="56.959160965423" lon="14.874001487123">
        <ele>184</ele>
        <time>2020-03-22T11:49:32Z</time>
      </trkpt>
      <trkpt lat="56.958638437777" lon="14.873615835904">
        <ele>184.4</ele>
        <time>2020-03-22T11:49:42Z</time>
      </trkpt>
      <trkpt lat="56.95834901077" lon="14.873387764405">
        <ele>185</ele>
        <time>2020-03-22T11:49:48Z</time>
      </trkpt>
      <trkpt lat="56.958039970117" lon="14.873142761468">
        <ele>186</ele>
        <time>2020-03-22T11:49:55Z</time>
      </trkpt>
      <trkpt lat="56.957788345479" lon="14.872890550097">
        <ele>187.2</ele>
        <time>2020-03-22T11:50:02Z</time>
      </trkpt>
      <trkpt lat="56.957711315818" lon="14.872822069974">
        <ele>187.6</ele>
        <time>2020-03-22T11:50:04Z</time>
      </trkpt>
      <trkpt lat="56.957459020628" lon="14.872608415343">
        <ele>188.2</ele>
        <time>2020-03-22T11:50:10Z</time>
      </trkpt>
      <trkpt lat="56.957050486822" lon="14.872292752989">
        <ele>189.2</ele>
        <time>2020-03-22T11:50:19Z</time>
      </trkpt>
      <trkpt lat="56.956534077963" lon="14.871836107077">
        <ele>189.8</ele>
        <time>2020-03-22T11:50:30Z</time>
      </trkpt>
      <trkpt lat="56.956393681138" lon="14.8717453311">
        <ele>190.2</ele>
        <time>2020-03-22T11:50:33Z</time>
      </trkpt>
      <trkpt lat="56.955845253421" lon="14.871492281539">
        <ele>190.4</ele>
        <time>2020-03-22T11:50:44Z</time>
      </trkpt>
      <trkpt lat="56.955261621724" lon="14.871311400137">
        <ele>190.4</ele>
        <time>2020-03-22T11:50:55Z</time>
      </trkpt>
      <trkpt lat="56.955156009784" lon="14.871308801748">
        <ele>190.4</ele>
        <time>2020-03-22T11:50:57Z</time>
      </trkpt>
      <trkpt lat="56.954607582067" lon="14.871331600516">
        <ele>189.8</ele>
        <time>2020-03-22T11:51:06Z</time>
      </trkpt>
      <trkpt lat="56.954237437363" lon="14.871311819232">
        <ele>189.2</ele>
        <time>2020-03-22T11:51:12Z</time>
      </trkpt>
      <trkpt lat="56.95378087527" lon="14.871092464909">
        <ele>188</ele>
        <time>2020-03-22T11:51:19Z</time>
      </trkpt>
      <trkpt lat="56.95357384234" lon="14.871009232642">
        <ele>187.6</ele>
        <time>2020-03-22T11:51:22Z</time>
      </trkpt>
      <trkpt lat="56.953040250586" lon="14.870615199523">
        <ele>187.6</ele>
        <time>2020-03-22T11:51:31Z</time>
      </trkpt>
      <trkpt lat="56.952566924693" lon="14.870066855625">
        <ele>187.4</ele>
        <time>2020-03-22T11:51:40Z</time>
      </trkpt>
      <trkpt lat="56.952437843433" lon="14.869889243164">
        <ele>187.8</ele>
        <time>2020-03-22T11:51:43Z</time>
      </trkpt>
      <trkpt lat="56.952139866888" lon="14.86949982009">
        <ele>189.2</ele>
        <time>2020-03-22T11:51:50Z</time>
      </trkpt>
      <trkpt lat="56.951635527965" lon="14.868915266384">
        <ele>190</ele>
        <time>2020-03-22T11:52:01Z</time>
      </trkpt>
      <trkpt lat="56.951149964498" lon="14.868326270271">
        <ele>189.4</ele>
        <time>2020-03-22T11:52:11Z</time>
      </trkpt>
      <trkpt lat="56.950717709915" lon="14.867798042933">
        <ele>188</ele>
        <time>2020-03-22T11:52:19Z</time>
      </trkpt>
      <trkpt lat="56.950440185206" lon="14.867487409719">
        <ele>186.8</ele>
        <time>2020-03-22T11:52:24Z</time>
      </trkpt>
      <trkpt lat="56.950045984449" lon="14.867012575084">
        <ele>185.8</ele>
        <time>2020-03-22T11:52:31Z</time>
      </trkpt>
      <trkpt lat="56.949844315935" lon="14.866729518321">
        <ele>185.4</ele>
        <time>2020-03-22T11:52:35Z</time>
      </trkpt>
      <trkpt lat="56.949612137305" lon="14.866353590106">
        <ele>185</ele>
        <time>2020-03-22T11:52:40Z</time>
      </trkpt>
      <trkpt lat="56.949287757775" lon="14.865556219959">
        <ele>185</ele>
        <time>2020-03-22T11:52:50Z</time>
      </trkpt>
      <trkpt lat="56.949267473577" lon="14.865462007403">
        <ele>185</ele>
        <time>2020-03-22T11:52:51Z</time>
      </trkpt>
      <trkpt lat="56.949121628517" lon="14.864495071419">
        <ele>185</ele>
        <time>2020-03-22T11:53:01Z</time>
      </trkpt>
      <trkpt lat="56.949108971848" lon="14.8643441134">
        <ele>184.8</ele>
        <time>2020-03-22T11:53:03Z</time>
      </trkpt>
      <trkpt lat="56.949104361803" lon="14.864191059906">
        <ele>184.8</ele>
        <time>2020-03-22T11:53:05Z</time>
      </trkpt>
      <trkpt lat="56.949114420083" lon="14.863884450004">
        <ele>184.8</ele>
        <time>2020-03-22T11:53:09Z</time>
      </trkpt>
      <trkpt lat="56.949152976823" lon="14.863465019728">
        <ele>185</ele>
        <time>2020-03-22T11:53:14Z</time>
      </trkpt>
      <trkpt lat="56.949159179429" lon="14.863313391157">
        <ele>185.4</ele>
        <time>2020-03-22T11:53:16Z</time>
      </trkpt>
      <trkpt lat="56.949149707882" lon="14.863120439819">
        <ele>185.8</ele>
        <time>2020-03-22T11:53:19Z</time>
      </trkpt>
      <trkpt lat="56.949115677368" lon="14.862840568178">
        <ele>186</ele>
        <time>2020-03-22T11:53:23Z</time>
      </trkpt>
      <trkpt lat="56.949098997387" lon="14.862618447828">
        <ele>186.6</ele>
        <time>2020-03-22T11:53:26Z</time>
      </trkpt>
      <trkpt lat="56.949075360429" lon="14.862340587843">
        <ele>187</ele>
        <time>2020-03-22T11:53:29Z</time>
      </trkpt>
      <trkpt lat="56.948911242827" lon="14.86160826124">
        <ele>187.2</ele>
        <time>2020-03-22T11:53:37Z</time>
      </trkpt>
      <trkpt lat="56.948835638089" lon="14.861335178938">
        <ele>187.6</ele>
        <time>2020-03-22T11:53:40Z</time>
      </trkpt>
      <trkpt lat="56.948590383695" lon="14.860721540039">
        <ele>187.6</ele>
        <time>2020-03-22T11:53:47Z</time>
      </trkpt>
      <trkpt lat="56.948418387107" lon="14.860368745868">
        <ele>187.6</ele>
        <time>2020-03-22T11:53:52Z</time>
      </trkpt>
      <trkpt lat="56.948301711059" lon="14.860167244992">
        <ele>187.6</ele>
        <time>2020-03-22T11:53:55Z</time>
      </trkpt>
      <trkpt lat="56.948110687558" lon="14.859849319525">
        <ele>188</ele>
        <time>2020-03-22T11:54:00Z</time>
      </trkpt>
      <trkpt lat="56.948009434206" lon="14.859701546628">
        <ele>188.2</ele>
        <time>2020-03-22T11:54:03Z</time>
      </trkpt>
      <trkpt lat="56.947940702626" lon="14.859611608841">
        <ele>188.4</ele>
        <time>2020-03-22T11:54:05Z</time>
      </trkpt>
      <trkpt lat="56.947581538211" lon="14.858874420736">
        <ele>188</ele>
        <time>2020-03-22T11:54:27Z</time>
      </trkpt>
      <trkpt lat="56.947317256904" lon="14.858493882476">
        <ele>188</ele>
        <time>2020-03-22T11:54:43Z</time>
      </trkpt>
      <trkpt lat="56.947284483675" lon="14.858464042912">
        <ele>188</ele>
        <time>2020-03-22T11:54:45Z</time>
      </trkpt>
      <trkpt lat="56.947074600899" lon="14.858197498492">
        <ele>188.4</ele>
        <time>2020-03-22T11:54:53Z</time>
      </trkpt>
      <trkpt lat="56.946984495474" lon="14.858119546822">
        <ele>188.6</ele>
        <time>2020-03-22T11:54:55Z</time>
      </trkpt>
      <trkpt lat="56.946903442501" lon="14.858071518535">
        <ele>188.4</ele>
        <time>2020-03-22T11:54:57Z</time>
      </trkpt>
      <trkpt lat="56.946761201658" lon="14.858022149144">
        <ele>188.4</ele>
        <time>2020-03-22T11:55:00Z</time>
      </trkpt>
      <trkpt lat="56.946509157925" lon="14.857947131139">
        <ele>188.2</ele>
        <time>2020-03-22T11:55:05Z</time>
      </trkpt>
      <trkpt lat="56.946333305663" lon="14.857889882762">
        <ele>188</ele>
        <time>2020-03-22T11:55:09Z</time>
      </trkpt>
      <trkpt lat="56.945956036344" lon="14.85777354199">
        <ele>187.4</ele>
        <time>2020-03-22T11:55:17Z</time>
      </trkpt>
      <trkpt lat="56.945770209621" lon="14.85779701131">
        <ele>187</ele>
        <time>2020-03-22T11:55:20Z</time>
      </trkpt>
      <trkpt lat="56.945514226395" lon="14.857872196953">
        <ele>186.8</ele>
        <time>2020-03-22T11:55:25Z</time>
      </trkpt>
      <trkpt lat="56.945272660037" lon="14.857921566344">
        <ele>186</ele>
        <time>2020-03-22T11:55:58Z</time>
      </trkpt>
      <trkpt lat="56.945272660037" lon="14.857921566344">
        <ele>185.6</ele>
        <time>2020-03-22T11:57:03Z</time>
      </trkpt>
      <trkpt lat="56.945267966173" lon="14.857925002923">
        <ele>185.6</ele>
        <time>2020-03-22T11:57:13Z</time>
      </trkpt>
      <trkpt lat="56.945224464112" lon="14.857917040118">
        <ele>185.6</ele>
        <time>2020-03-22T11:57:15Z</time>
      </trkpt>
      <trkpt lat="56.945044253262" lon="14.857902036517">
        <ele>184.8</ele>
        <time>2020-03-22T11:57:19Z</time>
      </trkpt>
      <trkpt lat="56.944601353666" lon="14.858040337867">
        <ele>184.6</ele>
        <time>2020-03-22T11:57:27Z</time>
      </trkpt>
      <trkpt lat="56.944287283873" lon="14.858122648125">
        <ele>184.2</ele>
        <time>2020-03-22T11:57:32Z</time>
      </trkpt>
      <trkpt lat="56.944149736894" lon="14.858184925642">
        <ele>184.2</ele>
        <time>2020-03-22T11:57:34Z</time>
      </trkpt>
      <trkpt lat="56.944028953715" lon="14.858264134597">
        <ele>183.6</ele>
        <time>2020-03-22T11:57:36Z</time>
      </trkpt>
      <trkpt lat="56.943913618771" lon="14.858333620548">
        <ele>182.6</ele>
        <time>2020-03-22T11:57:38Z</time>
      </trkpt>
      <trkpt lat="56.943799373474" lon="14.858366896691">
        <ele>182</ele>
        <time>2020-03-22T11:57:40Z</time>
      </trkpt>
      <trkpt lat="56.943545150447" lon="14.85842397743">
        <ele>181.6</ele>
        <time>2020-03-22T11:57:44Z</time>
      </trkpt>
      <trkpt lat="56.942948359167" lon="14.858574516354">
        <ele>181</ele>
        <time>2020-03-22T11:57:53Z</time>
      </trkpt>
      <trkpt lat="56.942405966418" lon="14.858971483138">
        <ele>180.4</ele>
        <time>2020-03-22T11:58:01Z</time>
      </trkpt>
      <trkpt lat="56.941867932257" lon="14.859472301663">
        <ele>180</ele>
        <time>2020-03-22T11:58:10Z</time>
      </trkpt>
      <trkpt lat="56.941740946472" lon="14.859623594958">
        <ele>179.4</ele>
        <time>2020-03-22T11:58:12Z</time>
      </trkpt>
      <trkpt lat="56.941558221052" lon="14.859854516303">
        <ele>178.2</ele>
        <time>2020-03-22T11:58:15Z</time>
      </trkpt>
      <trkpt lat="56.941504493073" lon="14.859928444661">
        <ele>178.2</ele>
        <time>2020-03-22T11:58:16Z</time>
      </trkpt>
      <trkpt lat="56.941200565379" lon="14.860247543594">
        <ele>177.2</ele>
        <time>2020-03-22T11:58:21Z</time>
      </trkpt>
      <trkpt lat="56.941142730269" lon="14.860315939898">
        <ele>177</ele>
        <time>2020-03-22T11:58:22Z</time>
      </trkpt>
      <trkpt lat="56.940912814752" lon="14.860577958092">
        <ele>175.4</ele>
        <time>2020-03-22T11:58:26Z</time>
      </trkpt>
      <trkpt lat="56.940739057965" lon="14.86076252753">
        <ele>174.4</ele>
        <time>2020-03-22T11:58:29Z</time>
      </trkpt>
      <trkpt lat="56.940253913593" lon="14.861276840914">
        <ele>173.6</ele>
        <time>2020-03-22T11:58:37Z</time>
      </trkpt>
      <trkpt lat="56.940196665216" lon="14.861333083463">
        <ele>173</ele>
        <time>2020-03-22T11:58:38Z</time>
      </trkpt>
      <trkpt lat="56.939692493931" lon="14.861842702983">
        <ele>172.6</ele>
        <time>2020-03-22T11:58:46Z</time>
      </trkpt>
      <trkpt lat="56.939330731127" lon="14.862175212956">
        <ele>172.2</ele>
        <time>2020-03-22T11:58:51Z</time>
      </trkpt>
      <trkpt lat="56.939250181068" lon="14.862234724446">
        <ele>171.8</ele>
        <time>2020-03-22T11:58:52Z</time>
      </trkpt>
      <trkpt lat="56.939038873369" lon="14.862357435462">
        <ele>170.6</ele>
        <time>2020-03-22T11:58:55Z</time>
      </trkpt>
      <trkpt lat="56.938833349181" lon="14.862432872562">
        <ele>169.4</ele>
        <time>2020-03-22T11:58:58Z</time>
      </trkpt>
      <trkpt lat="56.938498659914" lon="14.862494479527">
        <ele>169.2</ele>
        <time>2020-03-22T11:59:03Z</time>
      </trkpt>
      <trkpt lat="56.938286849301" lon="14.862427089051">
        <ele>168.8</ele>
        <time>2020-03-22T11:59:06Z</time>
      </trkpt>
      <trkpt lat="56.93801619775" lon="14.862358022195">
        <ele>168.4</ele>
        <time>2020-03-22T11:59:09Z</time>
      </trkpt>
      <trkpt lat="56.937429129474" lon="14.862229862944">
        <ele>167.4</ele>
        <time>2020-03-22T11:59:17Z</time>
      </trkpt>
      <trkpt lat="56.937356039306" lon="14.862217122456">
        <ele>167.4</ele>
        <time>2020-03-22T11:59:18Z</time>
      </trkpt>
      <trkpt lat="56.937289989934" lon="14.862173368938">
        <ele>167.2</ele>
        <time>2020-03-22T11:59:19Z</time>
      </trkpt>
      <trkpt lat="56.936826051769" lon="14.861672047499">
        <ele>167.2</ele>
        <time>2020-03-22T11:59:27Z</time>
      </trkpt>
      <trkpt lat="56.936421205999" lon="14.860853722602">
        <ele>167.4</ele>
        <time>2020-03-22T11:59:36Z</time>
      </trkpt>
      <trkpt lat="56.936182992401" lon="14.860338738666">
        <ele>168.4</ele>
        <time>2020-03-22T11:59:42Z</time>
      </trkpt>
      <trkpt lat="56.93611099188" lon="14.860179314928">
        <ele>168.4</ele>
        <time>2020-03-22T11:59:44Z</time>
      </trkpt>
      <trkpt lat="56.9356231653" lon="14.859563161459">
        <ele>168.4</ele>
        <time>2020-03-22T11:59:54Z</time>
      </trkpt>
      <trkpt lat="56.935147157199" lon="14.858952707682">
        <ele>169.2</ele>
        <time>2020-03-22T12:00:03Z</time>
      </trkpt>
      <trkpt lat="56.935106421165" lon="14.858878024953">
        <ele>169</ele>
        <time>2020-03-22T12:00:04Z</time>
      </trkpt>
      <trkpt lat="56.934823280583" lon="14.858147290911">
        <ele>168.6</ele>
        <time>2020-03-22T12:00:12Z</time>
      </trkpt>
      <trkpt lat="56.934677938437" lon="14.857676563407">
        <ele>169</ele>
        <time>2020-03-22T12:00:17Z</time>
      </trkpt>
      <trkpt lat="56.934624210458" lon="14.857495514367">
        <ele>169.4</ele>
        <time>2020-03-22T12:00:19Z</time>
      </trkpt>
      <trkpt lat="56.934410555827" lon="14.85696971778">
        <ele>170</ele>
        <time>2020-03-22T12:00:25Z</time>
      </trkpt>
      <trkpt lat="56.9342820613" lon="14.85677777227">
        <ele>170.4</ele>
        <time>2020-03-22T12:00:28Z</time>
      </trkpt>
      <trkpt lat="56.934064634814" lon="14.856402514607">
        <ele>170.6</ele>
        <time>2020-03-22T12:00:34Z</time>
      </trkpt>
      <trkpt lat="56.933873192218" lon="14.856092468126">
        <ele>171.2</ele>
        <time>2020-03-22T12:00:39Z</time>
      </trkpt>
      <trkpt lat="56.933781242775" lon="14.85598484453">
        <ele>171.4</ele>
        <time>2020-03-22T12:00:41Z</time>
      </trkpt>
      <trkpt lat="56.933243879166" lon="14.855571281584">
        <ele>170.8</ele>
        <time>2020-03-22T12:00:51Z</time>
      </trkpt>
      <trkpt lat="56.93281271423" lon="14.855270539012">
        <ele>170.2</ele>
        <time>2020-03-22T12:00:58Z</time>
      </trkpt>
      <trkpt lat="56.932684219703" lon="14.855192168247">
        <ele>169.2</ele>
        <time>2020-03-22T12:01:00Z</time>
      </trkpt>
      <trkpt lat="56.932509373269" lon="14.855107427238">
        <ele>167.8</ele>
        <time>2020-03-22T12:01:03Z</time>
      </trkpt>
      <trkpt lat="56.932235871872" lon="14.85493878341">
        <ele>167.8</ele>
        <time>2020-03-22T12:01:08Z</time>
      </trkpt>
      <trkpt lat="56.931710242923" lon="14.854597388623">
        <ele>167.6</ele>
        <time>2020-03-22T12:01:17Z</time>
      </trkpt>
      <trkpt lat="56.931413188387" lon="14.854509043397">
        <ele>169</ele>
        <time>2020-03-22T12:01:22Z</time>
      </trkpt>
      <trkpt lat="56.930861072634" lon="14.854446430604">
        <ele>168.6</ele>
        <time>2020-03-22T12:01:32Z</time>
      </trkpt>
      <trkpt lat="56.930344160861" lon="14.854548941241">
        <ele>168.6</ele>
        <time>2020-03-22T12:01:42Z</time>
      </trkpt>
      <trkpt lat="56.930141318881" lon="14.854596215157">
        <ele>168</ele>
        <time>2020-03-22T12:01:46Z</time>
      </trkpt>
      <trkpt lat="56.929723397347" lon="14.854694283387">
        <ele>166.8</ele>
        <time>2020-03-22T12:01:53Z</time>
      </trkpt>
      <trkpt lat="56.929422068042" lon="14.854768547021">
        <ele>165.6</ele>
        <time>2020-03-22T12:01:58Z</time>
      </trkpt>
      <trkpt lat="56.928878166551" lon="14.854901651593">
        <ele>165.2</ele>
        <time>2020-03-22T12:02:08Z</time>
      </trkpt>
      <trkpt lat="56.928327810997" lon="14.85510223046">
        <ele>165.6</ele>
        <time>2020-03-22T12:02:17Z</time>
      </trkpt>
      <trkpt lat="56.928070654305" lon="14.855199795776">
        <ele>165.8</ele>
        <time>2020-03-22T12:02:22Z</time>
      </trkpt>
      <trkpt lat="56.92753630818" lon="14.855339689687">
        <ele>165.4</ele>
        <time>2020-03-22T12:02:33Z</time>
      </trkpt>
      <trkpt lat="56.92697975002" lon="14.855439099021">
        <ele>164.8</ele>
        <time>2020-03-22T12:02:43Z</time>
      </trkpt>
      <trkpt lat="56.926423108041" lon="14.855616543844">
        <ele>165.2</ele>
        <time>2020-03-22T12:02:52Z</time>
      </trkpt>
      <trkpt lat="56.925898149644" lon="14.855838412737">
        <ele>165</ele>
        <time>2020-03-22T12:03:01Z</time>
      </trkpt>
      <trkpt lat="56.925369922306" lon="14.856053743748">
        <ele>165.2</ele>
        <time>2020-03-22T12:03:11Z</time>
      </trkpt>
      <trkpt lat="56.925184095583" lon="14.856115183075">
        <ele>166</ele>
        <time>2020-03-22T12:03:15Z</time>
      </trkpt>
      <trkpt lat="56.92514243754" lon="14.855969086558">
        <ele>166.8</ele>
        <time>2020-03-22T12:03:18Z</time>
      </trkpt>
      <trkpt lat="56.92512483555" lon="14.855893984734">
        <ele>166.8</ele>
        <time>2020-03-22T12:03:19Z</time>
      </trkpt>
      <trkpt lat="56.925076052892" lon="14.855742356163">
        <ele>167</ele>
        <time>2020-03-22T12:03:21Z</time>
      </trkpt>
      <trkpt lat="56.924944959976" lon="14.855540352373">
        <ele>166.8</ele>
        <time>2020-03-22T12:03:25Z</time>
      </trkpt>
      <trkpt lat="56.924863907003" lon="14.855499113425">
        <ele>167</ele>
        <time>2020-03-22T12:03:27Z</time>
      </trkpt>
      <trkpt lat="56.924392173671" lon="14.855517805062">
        <ele>167.8</ele>
        <time>2020-03-22T12:03:37Z</time>
      </trkpt>
      <trkpt lat="56.923816504779" lon="14.855626518305">
        <ele>168.4</ele>
        <time>2020-03-22T12:03:48Z</time>
      </trkpt>
      <trkpt lat="56.923234800919" lon="14.855845285895">
        <ele>168.4</ele>
        <time>2020-03-22T12:03:59Z</time>
      </trkpt>
      <trkpt lat="56.923130027169" lon="14.855874706364">
        <ele>169.2</ele>
        <time>2020-03-22T12:04:01Z</time>
      </trkpt>
      <trkpt lat="56.922579084882" lon="14.856016360474">
        <ele>169.4</ele>
        <time>2020-03-22T12:04:11Z</time>
      </trkpt>
      <trkpt lat="56.922037530323" lon="14.856147285752">
        <ele>169.2</ele>
        <time>2020-03-22T12:04:20Z</time>
      </trkpt>
      <trkpt lat="56.921464962734" lon="14.856297321762">
        <ele>168.4</ele>
        <time>2020-03-22T12:04:30Z</time>
      </trkpt>
      <trkpt lat="56.921300426037" lon="14.856345433868">
        <ele>168.2</ele>
        <time>2020-03-22T12:04:33Z</time>
      </trkpt>
      <trkpt lat="56.921003539139" lon="14.856349038085">
        <ele>167.6</ele>
        <time>2020-03-22T12:04:38Z</time>
      </trkpt>
      <trkpt lat="56.920743784058" lon="14.856267901293">
        <ele>167</ele>
        <time>2020-03-22T12:04:42Z</time>
      </trkpt>
      <trkpt lat="56.920454943784" lon="14.856188105605">
        <ele>166</ele>
        <time>2020-03-22T12:04:46Z</time>
      </trkpt>
      <trkpt lat="56.920198457644" lon="14.856123816432">
        <ele>166.2</ele>
        <time>2020-03-22T12:04:50Z</time>
      </trkpt>
      <trkpt lat="56.919620274182" lon="14.856193386202">
        <ele>165.6</ele>
        <time>2020-03-22T12:04:58Z</time>
      </trkpt>
      <trkpt lat="56.919079725451" lon="14.856437634768">
        <ele>165.8</ele>
        <time>2020-03-22T12:05:06Z</time>
      </trkpt>
      <trkpt lat="56.918557952176" lon="14.856874583215">
        <ele>165.4</ele>
        <time>2020-03-22T12:05:15Z</time>
      </trkpt>
      <trkpt lat="56.918279840734" lon="14.857281356822">
        <ele>165.4</ele>
        <time>2020-03-22T12:05:21Z</time>
      </trkpt>
      <trkpt lat="56.918225945117" lon="14.857467435002">
        <ele>165.6</ele>
        <time>2020-03-22T12:05:23Z</time>
      </trkpt>
      <trkpt lat="56.918190154404" lon="14.857962050921">
        <ele>166.6</ele>
        <time>2020-03-22T12:05:28Z</time>
      </trkpt>
      <trkpt lat="56.918139024814" lon="14.858099262624">
        <ele>167.2</ele>
        <time>2020-03-22T12:05:30Z</time>
      </trkpt>
      <trkpt lat="56.918055121995" lon="14.858160701951">
        <ele>167.4</ele>
        <time>2020-03-22T12:05:32Z</time>
      </trkpt>
      <trkpt lat="56.917940206146" lon="14.85819263699">
        <ele>167.2</ele>
        <time>2020-03-22T12:05:34Z</time>
      </trkpt>
      <trkpt lat="56.917812968904" lon="14.858158522657">
        <ele>167.2</ele>
        <time>2020-03-22T12:05:36Z</time>
      </trkpt>
      <trkpt lat="56.917253812355" lon="14.857782342985">
        <ele>166.6</ele>
        <time>2020-03-22T12:05:45Z</time>
      </trkpt>
      <trkpt lat="56.917080390844" lon="14.857598863194">
        <ele>166</ele>
        <time>2020-03-22T12:05:48Z</time>
      </trkpt>
      <trkpt lat="56.916538752466" lon="14.857115730478">
        <ele>165.8</ele>
        <time>2020-03-22T12:05:57Z</time>
      </trkpt>
      <trkpt lat="56.916072048274" lon="14.856496559525">
        <ele>165.8</ele>
        <time>2020-03-22T12:06:06Z</time>
      </trkpt>
      <trkpt lat="56.915678098974" lon="14.855824582602">
        <ele>166</ele>
        <time>2020-03-22T12:06:15Z</time>
      </trkpt>
      <trkpt lat="56.915496714658" lon="14.855470112051">
        <ele>167</ele>
        <time>2020-03-22T12:06:20Z</time>
      </trkpt>
      <trkpt lat="56.915352126883" lon="14.855181355596">
        <ele>167.8</ele>
        <time>2020-03-22T12:06:24Z</time>
      </trkpt>
      <trkpt lat="56.915323712242" lon="14.855104577392">
        <ele>168</ele>
        <time>2020-03-22T12:06:25Z</time>
      </trkpt>
      <trkpt lat="56.914972175356" lon="14.854236715466">
        <ele>167.6</ele>
        <time>2020-03-22T12:06:35Z</time>
      </trkpt>
      <trkpt lat="56.914814763274" lon="14.853703710445">
        <ele>167</ele>
        <time>2020-03-22T12:06:40Z</time>
      </trkpt>
      <trkpt lat="56.914695740294" lon="14.852974485145">
        <ele>165.8</ele>
        <time>2020-03-22T12:06:46Z</time>
      </trkpt>
      <trkpt lat="56.914631618759" lon="14.852650776167">
        <ele>165.8</ele>
        <time>2020-03-22T12:06:49Z</time>
      </trkpt>
      <trkpt lat="56.914513769245" lon="14.852253138831">
        <ele>166</ele>
        <time>2020-03-22T12:06:53Z</time>
      </trkpt>
      <trkpt lat="56.914493149771" lon="14.852021630753">
        <ele>165.6</ele>
        <time>2020-03-22T12:06:55Z</time>
      </trkpt>
      <trkpt lat="56.914497759816" lon="14.851779812938">
        <ele>165.2</ele>
        <time>2020-03-22T12:06:57Z</time>
      </trkpt>
      <trkpt lat="56.914514775073" lon="14.851661963424">
        <ele>164.8</ele>
        <time>2020-03-22T12:06:58Z</time>
      </trkpt>
      <trkpt lat="56.914648550197" lon="14.851015048382">
        <ele>164</ele>
        <time>2020-03-22T12:07:04Z</time>
      </trkpt>
      <trkpt lat="56.914654920441" lon="14.850672647767">
        <ele>164.8</ele>
        <time>2020-03-22T12:07:07Z</time>
      </trkpt>
      <trkpt lat="56.914619045909" lon="14.850446755562">
        <ele>165.6</ele>
        <time>2020-03-22T12:07:09Z</time>
      </trkpt>
      <trkpt lat="56.914589541621" lon="14.850338880509">
        <ele>166</ele>
        <time>2020-03-22T12:07:10Z</time>
      </trkpt>
      <trkpt lat="56.91426105496" lon="14.849468084918">
        <ele>167</ele>
        <time>2020-03-22T12:07:19Z</time>
      </trkpt>
      <trkpt lat="56.91423171831" lon="14.849360880417">
        <ele>167</ele>
        <time>2020-03-22T12:07:20Z</time>
      </trkpt>
      <trkpt lat="56.914070869649" lon="14.848470303542">
        <ele>168.2</ele>
        <time>2020-03-22T12:07:28Z</time>
      </trkpt>
      <trkpt lat="56.914030385072" lon="14.847498841332">
        <ele>167</ele>
        <time>2020-03-22T12:07:36Z</time>
      </trkpt>
      <trkpt lat="56.914031893814" lon="14.847245456495">
        <ele>166.2</ele>
        <time>2020-03-22T12:07:38Z</time>
      </trkpt>
      <trkpt lat="56.914038599334" lon="14.847120063271">
        <ele>166</ele>
        <time>2020-03-22T12:07:39Z</time>
      </trkpt>
      <trkpt lat="56.914082269033" lon="14.846599044367">
        <ele>165</ele>
        <time>2020-03-22T12:07:43Z</time>
      </trkpt>
      <trkpt lat="56.914160723617" lon="14.845688267113">
        <ele>164.6</ele>
        <time>2020-03-22T12:07:51Z</time>
      </trkpt>
      <trkpt lat="56.914114623167" lon="14.845234890142">
        <ele>166</ele>
        <time>2020-03-22T12:07:56Z</time>
      </trkpt>
      <trkpt lat="56.914130045863" lon="14.845061300993">
        <ele>166.2</ele>
        <time>2020-03-22T12:07:58Z</time>
      </trkpt>
      <trkpt lat="56.914349148729" lon="14.844139040536">
        <ele>167</ele>
        <time>2020-03-22T12:08:08Z</time>
      </trkpt>
      <trkpt lat="56.9143666669" lon="14.844058155201">
        <ele>167.2</ele>
        <time>2020-03-22T12:08:09Z</time>
      </trkpt>
      <trkpt lat="56.914504716793" lon="14.843362289863">
        <ele>168.2</ele>
        <time>2020-03-22T12:08:17Z</time>
      </trkpt>
      <trkpt lat="56.914652908785" lon="14.842701628505">
        <ele>169.2</ele>
        <time>2020-03-22T12:08:24Z</time>
      </trkpt>
      <trkpt lat="56.91487880099" lon="14.841702589844">
        <ele>169</ele>
        <time>2020-03-22T12:08:34Z</time>
      </trkpt>
      <trkpt lat="56.915033279407" lon="14.840965066463">
        <ele>168.2</ele>
        <time>2020-03-22T12:08:41Z</time>
      </trkpt>
      <trkpt lat="56.915096059838" lon="14.840654433249">
        <ele>168.2</ele>
        <time>2020-03-22T12:08:44Z</time>
      </trkpt>
      <trkpt lat="56.915294040316" lon="14.839627482861">
        <ele>168.2</ele>
        <time>2020-03-22T12:08:54Z</time>
      </trkpt>
      <trkpt lat="56.915480453772" lon="14.838826340859">
        <ele>167.2</ele>
        <time>2020-03-22T12:09:01Z</time>
      </trkpt>
      <trkpt lat="56.915532086276" lon="14.83858485832">
        <ele>166</ele>
        <time>2020-03-22T12:09:03Z</time>
      </trkpt>
      <trkpt lat="56.915659072061" lon="14.8380249474">
        <ele>165</ele>
        <time>2020-03-22T12:09:08Z</time>
      </trkpt>
      <trkpt lat="56.915853783598" lon="14.837046612032">
        <ele>165</ele>
        <time>2020-03-22T12:09:17Z</time>
      </trkpt>
      <trkpt lat="56.915955623683" lon="14.836344544088">
        <ele>165.8</ele>
        <time>2020-03-22T12:09:24Z</time>
      </trkpt>
      <trkpt lat="56.915965011411" lon="14.836139690452">
        <ele>166</ele>
        <time>2020-03-22T12:09:26Z</time>
      </trkpt>
      <trkpt lat="56.915974231501" lon="14.836050926131">
        <ele>166.2</ele>
        <time>2020-03-22T12:09:27Z</time>
      </trkpt>
      <trkpt lat="56.916010273671" lon="14.835375344991">
        <ele>166.8</ele>
        <time>2020-03-22T12:09:34Z</time>
      </trkpt>
      <trkpt lat="56.915974734415" lon="14.834817864822">
        <ele>167.2</ele>
        <time>2020-03-22T12:09:40Z</time>
      </trkpt>
      <trkpt lat="56.915955372226" lon="14.834633546841">
        <ele>167.4</ele>
        <time>2020-03-22T12:09:42Z</time>
      </trkpt>
      <trkpt lat="56.915859399471" lon="14.833970873827">
        <ele>167</ele>
        <time>2020-03-22T12:09:50Z</time>
      </trkpt>
      <trkpt lat="56.915818998713" lon="14.833820083446">
        <ele>166.8</ele>
        <time>2020-03-22T12:09:52Z</time>
      </trkpt>
      <trkpt lat="56.915733000419" lon="14.833377100031">
        <ele>167</ele>
        <time>2020-03-22T12:09:57Z</time>
      </trkpt>
      <trkpt lat="56.915673908024" lon="14.833118350778">
        <ele>167.2</ele>
        <time>2020-03-22T12:10:00Z</time>
      </trkpt>
      <trkpt lat="56.915617330199" lon="14.832735046491">
        <ele>167.2</ele>
        <time>2020-03-22T12:10:03Z</time>
      </trkpt>
      <trkpt lat="56.915593860879" lon="14.83211319333">
        <ele>167.2</ele>
        <time>2020-03-22T12:10:08Z</time>
      </trkpt>
      <trkpt lat="56.915620515321" lon="14.831168804657">
        <ele>167</ele>
        <time>2020-03-22T12:10:16Z</time>
      </trkpt>
      <trkpt lat="56.915639206958" lon="14.830999155001">
        <ele>167</ele>
        <time>2020-03-22T12:10:18Z</time>
      </trkpt>
      <trkpt lat="56.915698131715" lon="14.830639990586">
        <ele>167.2</ele>
        <time>2020-03-22T12:10:22Z</time>
      </trkpt>
      <trkpt lat="56.915960569004" lon="14.829792915772">
        <ele>167</ele>
        <time>2020-03-22T12:10:32Z</time>
      </trkpt>
      <trkpt lat="56.916101971657" lon="14.829394691703">
        <ele>166.8</ele>
        <time>2020-03-22T12:10:36Z</time>
      </trkpt>
      <trkpt lat="56.916256617712" lon="14.828972243943">
        <ele>167.6</ele>
        <time>2020-03-22T12:10:41Z</time>
      </trkpt>
      <trkpt lat="56.916328199138" lon="14.828834948421">
        <ele>168.4</ele>
        <time>2020-03-22T12:10:43Z</time>
      </trkpt>
      <trkpt lat="56.916604131286" lon="14.827916627457">
        <ele>169</ele>
        <time>2020-03-22T12:10:52Z</time>
      </trkpt>
      <trkpt lat="56.916926247703" lon="14.827021859632">
        <ele>167.4</ele>
        <time>2020-03-22T12:11:01Z</time>
      </trkpt>
      <trkpt lat="56.917245933369" lon="14.826238487258">
        <ele>167.2</ele>
        <time>2020-03-22T12:11:09Z</time>
      </trkpt>
      <trkpt lat="56.917557572411" lon="14.825433070487">
        <ele>167.6</ele>
        <time>2020-03-22T12:11:18Z</time>
      </trkpt>
      <trkpt lat="56.9176607536" lon="14.825175075605">
        <ele>167.2</ele>
        <time>2020-03-22T12:11:21Z</time>
      </trkpt>
      <trkpt lat="56.91779067305" lon="14.824839129053">
        <ele>166.8</ele>
        <time>2020-03-22T12:11:25Z</time>
      </trkpt>
      <trkpt lat="56.917985719863" lon="14.824436043482">
        <ele>167.2</ele>
        <time>2020-03-22T12:11:30Z</time>
      </trkpt>
      <trkpt lat="56.918259472717" lon="14.823779992169">
        <ele>168</ele>
        <time>2020-03-22T12:11:38Z</time>
      </trkpt>
      <trkpt lat="56.918323258976" lon="14.823617886223">
        <ele>168.6</ele>
        <time>2020-03-22T12:11:40Z</time>
      </trkpt>
      <trkpt lat="56.918636490579" lon="14.822804841923">
        <ele>169.4</ele>
        <time>2020-03-22T12:11:49Z</time>
      </trkpt>
      <trkpt lat="56.918671443102" lon="14.82271373067">
        <ele>169.6</ele>
        <time>2020-03-22T12:11:50Z</time>
      </trkpt>
      <trkpt lat="56.918991966958" lon="14.82187218791">
        <ele>169.8</ele>
        <time>2020-03-22T12:11:59Z</time>
      </trkpt>
      <trkpt lat="56.919323471103" lon="14.821014551902">
        <ele>168.8</ele>
        <time>2020-03-22T12:12:09Z</time>
      </trkpt>
      <trkpt lat="56.919399830212" lon="14.820835263061">
        <ele>169</ele>
        <time>2020-03-22T12:12:11Z</time>
      </trkpt>
      <trkpt lat="56.919517009174" lon="14.820588751382">
        <ele>169</ele>
        <time>2020-03-22T12:12:14Z</time>
      </trkpt>
      <trkpt lat="56.919712894177" lon="14.820078209853">
        <ele>169.2</ele>
        <time>2020-03-22T12:12:20Z</time>
      </trkpt>
      <trkpt lat="56.919887070059" lon="14.819376644823">
        <ele>168.6</ele>
        <time>2020-03-22T12:12:28Z</time>
      </trkpt>
      <trkpt lat="56.919942055323" lon="14.818734675102">
        <ele>168.8</ele>
        <time>2020-03-22T12:12:36Z</time>
      </trkpt>
      <trkpt lat="56.919952700336" lon="14.818574077898">
        <ele>169.2</ele>
        <time>2020-03-22T12:12:38Z</time>
      </trkpt>
      <trkpt lat="56.919982288443" lon="14.818134614881">
        <ele>169.8</ele>
        <time>2020-03-22T12:12:43Z</time>
      </trkpt>
      <trkpt lat="56.920026880151" lon="14.817667659232">
        <ele>171</ele>
        <time>2020-03-22T12:12:48Z</time>
      </trkpt>
      <trkpt lat="56.920219999127" lon="14.816753529218">
        <ele>172</ele>
        <time>2020-03-22T12:13:00Z</time>
      </trkpt>
      <trkpt lat="56.920238942221" lon="14.816697705764">
        <ele>172</ele>
        <time>2020-03-22T12:13:01Z</time>
      </trkpt>
      <trkpt lat="56.920307087068" lon="14.816421689797">
        <ele>173</ele>
        <time>2020-03-22T12:13:07Z</time>
      </trkpt>
      <trkpt lat="56.920287892517" lon="14.81625128577">
        <ele>173.2</ele>
        <time>2020-03-22T12:13:09Z</time>
      </trkpt>
      <trkpt lat="56.920215724358" lon="14.816142069613">
        <ele>173</ele>
        <time>2020-03-22T12:13:11Z</time>
      </trkpt>
      <trkpt lat="56.920142550371" lon="14.8159721685">
        <ele>172.8</ele>
        <time>2020-03-22T12:13:14Z</time>
      </trkpt>
      <trkpt lat="56.919875083942" lon="14.81568047838">
        <ele>172</ele>
        <time>2020-03-22T12:13:21Z</time>
      </trkpt>
      <trkpt lat="56.919319112515" lon="14.815359619248">
        <ele>171.8</ele>
        <time>2020-03-22T12:13:31Z</time>
      </trkpt>
      <trkpt lat="56.918785520761" lon="14.815081843082">
        <ele>172</ele>
        <time>2020-03-22T12:13:41Z</time>
      </trkpt>
      <trkpt lat="56.918227872954" lon="14.814834241756">
        <ele>172.2</ele>
        <time>2020-03-22T12:13:51Z</time>
      </trkpt>
      <trkpt lat="56.9178954468" lon="14.814625113351">
        <ele>172</ele>
        <time>2020-03-22T12:13:57Z</time>
      </trkpt>
      <trkpt lat="56.917349114558" lon="14.814525704017">
        <ele>173</ele>
        <time>2020-03-22T12:14:07Z</time>
      </trkpt>
      <trkpt lat="56.916784425955" lon="14.814635087812">
        <ele>173.2</ele>
        <time>2020-03-22T12:14:17Z</time>
      </trkpt>
      <trkpt lat="56.916281763412" lon="14.814913702168">
        <ele>171.8</ele>
        <time>2020-03-22T12:14:26Z</time>
      </trkpt>
      <trkpt lat="56.915718751189" lon="14.815299437206">
        <ele>173.2</ele>
        <time>2020-03-22T12:14:36Z</time>
      </trkpt>
      <trkpt lat="56.915194630982" lon="14.815614764284">
        <ele>173</ele>
        <time>2020-03-22T12:14:45Z</time>
      </trkpt>
      <trkpt lat="56.914646203265" lon="14.815960517659">
        <ele>173.6</ele>
        <time>2020-03-22T12:14:55Z</time>
      </trkpt>
      <trkpt lat="56.914124765266" lon="14.816294955469">
        <ele>173.8</ele>
        <time>2020-03-22T12:15:05Z</time>
      </trkpt>
      <trkpt lat="56.913571643685" lon="14.816701309981">
        <ele>173.6</ele>
        <time>2020-03-22T12:15:13Z</time>
      </trkpt>
      <trkpt lat="56.913401658753" lon="14.816801725143">
        <ele>173.4</ele>
        <time>2020-03-22T12:15:16Z</time>
      </trkpt>
      <trkpt lat="56.913164031888" lon="14.816848579964">
        <ele>173</ele>
        <time>2020-03-22T12:15:20Z</time>
      </trkpt>
      <trkpt lat="56.912604037149" lon="14.817173630046">
        <ele>173</ele>
        <time>2020-03-22T12:15:30Z</time>
      </trkpt>
      <trkpt lat="56.912039516184" lon="14.817546456958">
        <ele>173.6</ele>
        <time>2020-03-22T12:15:40Z</time>
      </trkpt>
      <trkpt lat="56.911621091736" lon="14.817828256436">
        <ele>172.2</ele>
        <time>2020-03-22T12:15:47Z</time>
      </trkpt>
      <trkpt lat="56.911093786407" lon="14.818193455819">
        <ele>172.2</ele>
        <time>2020-03-22T12:15:56Z</time>
      </trkpt>
      <trkpt lat="56.910551561296" lon="14.818534012416">
        <ele>172.2</ele>
        <time>2020-03-22T12:16:05Z</time>
      </trkpt>
      <trkpt lat="56.910040852129" lon="14.818887644777">
        <ele>171.2</ele>
        <time>2020-03-22T12:16:13Z</time>
      </trkpt>
      <trkpt lat="56.909581524009" lon="14.819163325468">
        <ele>171.4</ele>
        <time>2020-03-22T12:16:21Z</time>
      </trkpt>
      <trkpt lat="56.909484126331" lon="14.819140442881">
        <ele>171.4</ele>
        <time>2020-03-22T12:16:23Z</time>
      </trkpt>
      <trkpt lat="56.909435427492" lon="14.818990239233">
        <ele>171.4</ele>
        <time>2020-03-22T12:16:25Z</time>
      </trkpt>
      <trkpt lat="56.909313303209" lon="14.818303258709">
        <ele>172.4</ele>
        <time>2020-03-22T12:16:33Z</time>
      </trkpt>
      <trkpt lat="56.909250774235" lon="14.817961025732">
        <ele>173.6</ele>
        <time>2020-03-22T12:16:37Z</time>
      </trkpt>
      <trkpt lat="56.909184557225" lon="14.817641926799">
        <ele>174.6</ele>
        <time>2020-03-22T12:16:41Z</time>
      </trkpt>
      <trkpt lat="56.909123704631" lon="14.817319810382">
        <ele>175.6</ele>
        <time>2020-03-22T12:16:45Z</time>
      </trkpt>
      <trkpt lat="56.909062349123" lon="14.817003393657">
        <ele>176.8</ele>
        <time>2020-03-22T12:16:49Z</time>
      </trkpt>
      <trkpt lat="56.908942823229" lon="14.816545741917">
        <ele>177.4</ele>
        <time>2020-03-22T12:16:55Z</time>
      </trkpt>
      <trkpt lat="56.908839306764" lon="14.816373912967">
        <ele>178</ele>
        <time>2020-03-22T12:16:58Z</time>
      </trkpt>
      <trkpt lat="56.908789685916" lon="14.816354886054">
        <ele>179.2</ele>
        <time>2020-03-22T12:17:00Z</time>
      </trkpt>
      <trkpt lat="56.90868960603" lon="14.816373912967">
        <ele>179.4</ele>
        <time>2020-03-22T12:17:01Z</time>
      </trkpt>
      <trkpt lat="56.908211167178" lon="14.816608103253">
        <ele>178.2</ele>
        <time>2020-03-22T12:17:10Z</time>
      </trkpt>
      <trkpt lat="56.907618063934" lon="14.816724779301">
        <ele>177.2</ele>
        <time>2020-03-22T12:17:20Z</time>
      </trkpt>
      <trkpt lat="56.90706184105" lon="14.816793929976">
        <ele>177.4</ele>
        <time>2020-03-22T12:17:29Z</time>
      </trkpt>
      <trkpt lat="56.906516346998" lon="14.816783368782">
        <ele>177.4</ele>
        <time>2020-03-22T12:17:38Z</time>
      </trkpt>
      <trkpt lat="56.906044529847" lon="14.816747242793">
        <ele>177.8</ele>
        <time>2020-03-22T12:17:46Z</time>
      </trkpt>
      <trkpt lat="56.90593699007" lon="14.816699885058">
        <ele>178.4</ele>
        <time>2020-03-22T12:17:48Z</time>
      </trkpt>
      <trkpt lat="56.905784858585" lon="14.81664355869">
        <ele>179.6</ele>
        <time>2020-03-22T12:17:51Z</time>
      </trkpt>
      <trkpt lat="56.905641695733" lon="14.816593854023">
        <ele>180.6</ele>
        <time>2020-03-22T12:17:54Z</time>
      </trkpt>
      <trkpt lat="56.905452935345" lon="14.816542389157">
        <ele>181.8</ele>
        <time>2020-03-22T12:17:58Z</time>
      </trkpt>
      <trkpt lat="56.905271718667" lon="14.81650525734">
        <ele>182</ele>
        <time>2020-03-22T12:18:03Z</time>
      </trkpt>
      <trkpt lat="56.905184379269" lon="14.816541634786">
        <ele>181.8</ele>
        <time>2020-03-22T12:18:05Z</time>
      </trkpt>
      <trkpt lat="56.904581972116" lon="14.816768365181">
        <ele>182</ele>
        <time>2020-03-22T12:18:16Z</time>
      </trkpt>
      <trkpt lat="56.904046620163" lon="14.816881101736">
        <ele>181.4</ele>
        <time>2020-03-22T12:18:26Z</time>
      </trkpt>
      <trkpt lat="56.903688042481" lon="14.816893423129">
        <ele>180.6</ele>
        <time>2020-03-22T12:18:32Z</time>
      </trkpt>
      <trkpt lat="56.903566421112" lon="14.81687489913">
        <ele>180.4</ele>
        <time>2020-03-22T12:18:34Z</time>
      </trkpt>
      <trkpt lat="56.903129221208" lon="14.816869450895">
        <ele>180.6</ele>
        <time>2020-03-22T12:18:41Z</time>
      </trkpt>
      <trkpt lat="56.903078007799" lon="14.81683298963">
        <ele>180.6</ele>
        <time>2020-03-22T12:18:43Z</time>
      </trkpt>
      <trkpt lat="56.902988740564" lon="14.816498887096">
        <ele>180.4</ele>
        <time>2020-03-22T12:18:46Z</time>
      </trkpt>
      <trkpt lat="56.90291028598" lon="14.816163611096">
        <ele>180.2</ele>
        <time>2020-03-22T12:18:50Z</time>
      </trkpt>
      <trkpt lat="56.902842644047" lon="14.815889103871">
        <ele>181.8</ele>
        <time>2020-03-22T12:18:54Z</time>
      </trkpt>
      <trkpt lat="56.902816241062" lon="14.815723309889">
        <ele>182.2</ele>
        <time>2020-03-22T12:18:55Z</time>
      </trkpt>
      <trkpt lat="56.902782629643" lon="14.815550475111">
        <ele>183.2</ele>
        <time>2020-03-22T12:18:57Z</time>
      </trkpt>
      <trkpt lat="56.902732002967" lon="14.815325840191">
        <ele>184</ele>
        <time>2020-03-22T12:19:00Z</time>
      </trkpt>
      <trkpt lat="56.902659834808" lon="14.81521695931">
        <ele>184.4</ele>
        <time>2020-03-22T12:19:02Z</time>
      </trkpt>
      <trkpt lat="56.902619098774" lon="14.815199944053">
        <ele>184.6</ele>
        <time>2020-03-22T12:19:03Z</time>
      </trkpt>
      <trkpt lat="56.902572663048" lon="14.815195082551">
        <ele>185.4</ele>
        <time>2020-03-22T12:19:05Z</time>
      </trkpt>
      <trkpt lat="56.902295976529" lon="14.815160968218">
        <ele>186.4</ele>
        <time>2020-03-22T12:19:10Z</time>
      </trkpt>
      <trkpt lat="56.902071425428" lon="14.815162309322">
        <ele>184.2</ele>
        <time>2020-03-22T12:19:15Z</time>
      </trkpt>
      <trkpt lat="56.901922479065" lon="14.815130541921">
        <ele>183.2</ele>
        <time>2020-03-22T12:19:19Z</time>
      </trkpt>
      <trkpt lat="56.901876043339" lon="14.815014620244">
        <ele>182.4</ele>
        <time>2020-03-22T12:19:21Z</time>
      </trkpt>
      <trkpt lat="56.901860955919" lon="14.814934740737">
        <ele>182</ele>
        <time>2020-03-22T12:19:22Z</time>
      </trkpt>
      <trkpt lat="56.901833966201" lon="14.814637267106">
        <ele>180.6</ele>
        <time>2020-03-22T12:19:25Z</time>
      </trkpt>
      <trkpt lat="56.901826841586" lon="14.814425205036">
        <ele>179.4</ele>
        <time>2020-03-22T12:19:27Z</time>
      </trkpt>
      <trkpt lat="56.901794319814" lon="14.814095544909">
        <ele>177.8</ele>
        <time>2020-03-22T12:19:30Z</time>
      </trkpt>
      <trkpt lat="56.901771269589" lon="14.813669409113">
        <ele>177</ele>
        <time>2020-03-22T12:19:34Z</time>
      </trkpt>
      <trkpt lat="56.901726594062" lon="14.81304269445">
        <ele>177.4</ele>
        <time>2020-03-22T12:19:40Z</time>
      </trkpt>
      <trkpt lat="56.90171335066" lon="14.812774138374">
        <ele>179.6</ele>
        <time>2020-03-22T12:19:43Z</time>
      </trkpt>
      <trkpt lat="56.901697844145" lon="14.812592167325">
        <ele>180.4</ele>
        <time>2020-03-22T12:19:45Z</time>
      </trkpt>
      <trkpt lat="56.901686444761" lon="14.812499798787">
        <ele>180.6</ele>
        <time>2020-03-22T12:19:46Z</time>
      </trkpt>
      <trkpt lat="56.9016764703" lon="14.812428384999">
        <ele>180.8</ele>
        <time>2020-03-22T12:19:48Z</time>
      </trkpt>
      <trkpt lat="56.901635734266" lon="14.811717013146">
        <ele>179.6</ele>
        <time>2020-03-22T12:19:55Z</time>
      </trkpt>
      <trkpt lat="56.901553004913" lon="14.810697857925">
        <ele>178.8</ele>
        <time>2020-03-22T12:20:05Z</time>
      </trkpt>
      <trkpt lat="56.901528781222" lon="14.810082877922">
        <ele>179.4</ele>
        <time>2020-03-22T12:20:11Z</time>
      </trkpt>
      <trkpt lat="56.901330968382" lon="14.809019969183">
        <ele>180.6</ele>
        <time>2020-03-22T12:20:22Z</time>
      </trkpt>
      <trkpt lat="56.901287969235" lon="14.808308848787">
        <ele>182</ele>
        <time>2020-03-22T12:20:27Z</time>
      </trkpt>
      <trkpt lat="56.901274306738" lon="14.807891681624">
        <ele>183.2</ele>
        <time>2020-03-22T12:20:31Z</time>
      </trkpt>
      <trkpt lat="56.901243293708" lon="14.807702669779">
        <ele>184.2</ele>
        <time>2020-03-22T12:20:33Z</time>
      </trkpt>
      <trkpt lat="56.901148075324" lon="14.807140747203">
        <ele>185.2</ele>
        <time>2020-03-22T12:20:39Z</time>
      </trkpt>
      <trkpt lat="56.901071213301" lon="14.807063382266">
        <ele>185.2</ele>
        <time>2020-03-22T12:20:41Z</time>
      </trkpt>
      <trkpt lat="56.900700398045" lon="14.806990878831">
        <ele>184</ele>
        <time>2020-03-22T12:20:48Z</time>
      </trkpt>
      <trkpt lat="56.900524629602" lon="14.806980820551">
        <ele>183.2</ele>
        <time>2020-03-22T12:20:51Z</time>
      </trkpt>
      <trkpt lat="56.900173511811" lon="14.806950645711">
        <ele>182</ele>
        <time>2020-03-22T12:20:57Z</time>
      </trkpt>
      <trkpt lat="56.899722314134" lon="14.80690211451">
        <ele>181.4</ele>
        <time>2020-03-22T12:21:05Z</time>
      </trkpt>
      <trkpt lat="56.899315624346" lon="14.806937067033">
        <ele>181.4</ele>
        <time>2020-03-22T12:21:12Z</time>
      </trkpt>
      <trkpt lat="56.898778512194" lon="14.807212831543">
        <ele>181.8</ele>
        <time>2020-03-22T12:21:22Z</time>
      </trkpt>
      <trkpt lat="56.89822061293" lon="14.807529332087">
        <ele>181.8</ele>
        <time>2020-03-22T12:21:31Z</time>
      </trkpt>
      <trkpt lat="56.897724907364" lon="14.80783501998">
        <ele>180.8</ele>
        <time>2020-03-22T12:21:39Z</time>
      </trkpt>
      <trkpt lat="56.897199110777" lon="14.808151520524">
        <ele>180.8</ele>
        <time>2020-03-22T12:21:48Z</time>
      </trkpt>
      <trkpt lat="56.897141108029" lon="14.808192675653">
        <ele>180.8</ele>
        <time>2020-03-22T12:21:49Z</time>
      </trkpt>
      <trkpt lat="56.8969574606" lon="14.808247074184">
        <ele>180.8</ele>
        <time>2020-03-22T12:21:52Z</time>
      </trkpt>
      <trkpt lat="56.896458653731" lon="14.808391913416">
        <ele>180.6</ele>
        <time>2020-03-22T12:22:02Z</time>
      </trkpt>
      <trkpt lat="56.896423785027" lon="14.808512193681">
        <ele>180.8</ele>
        <time>2020-03-22T12:22:04Z</time>
      </trkpt>
      <trkpt lat="56.896462174129" lon="14.808904131325">
        <ele>181.2</ele>
        <time>2020-03-22T12:22:08Z</time>
      </trkpt>
      <trkpt lat="56.89643359185" lon="14.80907554118">
        <ele>181.2</ele>
        <time>2020-03-22T12:22:10Z</time>
      </trkpt>
      <trkpt lat="56.89633552362" lon="14.809188948287">
        <ele>181.2</ele>
        <time>2020-03-22T12:22:12Z</time>
      </trkpt>
      <trkpt lat="56.896087670837" lon="14.809250974347">
        <ele>179.6</ele>
        <time>2020-03-22T12:22:16Z</time>
      </trkpt>
      <trkpt lat="56.895837219665" lon="14.809353065889">
        <ele>178.4</ele>
        <time>2020-03-22T12:22:20Z</time>
      </trkpt>
      <trkpt lat="56.89577896546" lon="14.809399753072">
        <ele>178.2</ele>
        <time>2020-03-22T12:22:21Z</time>
      </trkpt>
      <trkpt lat="56.895662708507" lon="14.809500419691">
        <ele>177.6</ele>
        <time>2020-03-22T12:22:23Z</time>
      </trkpt>
      <trkpt lat="56.895598084058" lon="14.809534366386">
        <ele>177.4</ele>
        <time>2020-03-22T12:22:24Z</time>
      </trkpt>
      <trkpt lat="56.895533208152" lon="14.80955079491">
        <ele>177.2</ele>
        <time>2020-03-22T12:22:25Z</time>
      </trkpt>
      <trkpt lat="56.895399768304" lon="14.809508633953">
        <ele>176.8</ele>
        <time>2020-03-22T12:22:27Z</time>
      </trkpt>
      <trkpt lat="56.89528778612" lon="14.80937980415">
        <ele>176</ele>
        <time>2020-03-22T12:22:29Z</time>
      </trkpt>
      <trkpt lat="56.895193405926" lon="14.809272851106">
        <ele>175.2</ele>
        <time>2020-03-22T12:22:31Z</time>
      </trkpt>
      <trkpt lat="56.895141521965" lon="14.809261451722">
        <ele>175</ele>
        <time>2020-03-22T12:22:32Z</time>
      </trkpt>
      <trkpt lat="56.895084022131" lon="14.809266397043">
        <ele>174.6</ele>
        <time>2020-03-22T12:22:33Z</time>
      </trkpt>
      <trkpt lat="56.894964999151" lon="14.80932448361">
        <ele>174.6</ele>
        <time>2020-03-22T12:22:35Z</time>
      </trkpt>
      <trkpt lat="56.894809431087" lon="14.809509304505">
        <ele>173.8</ele>
        <time>2020-03-22T12:22:38Z</time>
      </trkpt>
      <trkpt lat="56.894553196404" lon="14.809752547243">
        <ele>173.6</ele>
        <time>2020-03-22T12:22:43Z</time>
      </trkpt>
      <trkpt lat="56.894056317372" lon="14.810137611729">
        <ele>173.4</ele>
        <time>2020-03-22T12:22:54Z</time>
      </trkpt>
      <trkpt lat="56.893535885201" lon="14.810499039257">
        <ele>173.2</ele>
        <time>2020-03-22T12:23:05Z</time>
      </trkpt>
      <trkpt lat="56.89343873898" lon="14.810550085028">
        <ele>172.8</ele>
        <time>2020-03-22T12:23:07Z</time>
      </trkpt>
      <trkpt lat="56.892964407259" lon="14.810831716868">
        <ele>171.8</ele>
        <time>2020-03-22T12:23:16Z</time>
      </trkpt>
      <trkpt lat="56.892407932918" lon="14.811084095877">
        <ele>172.2</ele>
        <time>2020-03-22T12:23:26Z</time>
      </trkpt>
      <trkpt lat="56.892130575847" lon="14.811222061951">
        <ele>172</ele>
        <time>2020-03-22T12:23:31Z</time>
      </trkpt>
      <trkpt lat="56.891799658435" lon="14.811334547049">
        <ele>172.8</ele>
        <time>2020-03-22T12:23:37Z</time>
      </trkpt>
      <trkpt lat="56.891497574759" lon="14.811435548944">
        <ele>173</ele>
        <time>2020-03-22T12:23:43Z</time>
      </trkpt>
      <trkpt lat="56.891409816266" lon="14.811355669437">
        <ele>173</ele>
        <time>2020-03-22T12:23:45Z</time>
      </trkpt>
      <trkpt lat="56.891371091888" lon="14.811145786661">
        <ele>173.8</ele>
        <time>2020-03-22T12:23:47Z</time>
      </trkpt>
      <trkpt lat="56.891274029486" lon="14.81008639832">
        <ele>171</ele>
        <time>2020-03-22T12:23:55Z</time>
      </trkpt>
      <trkpt lat="56.891259193523" lon="14.80994809697">
        <ele>169.8</ele>
        <time>2020-03-22T12:23:56Z</time>
      </trkpt>
      <trkpt lat="56.891223654267" lon="14.809709631915">
        <ele>168.6</ele>
        <time>2020-03-22T12:23:58Z</time>
      </trkpt>
      <trkpt lat="56.891157269619" lon="14.809537886784">
        <ele>168.2</ele>
        <time>2020-03-22T12:24:00Z</time>
      </trkpt>
      <trkpt lat="56.891060207217" lon="14.809491367239">
        <ele>167.6</ele>
        <time>2020-03-22T12:24:02Z</time>
      </trkpt>
      <trkpt lat="56.89094847649" lon="14.809537467689">
        <ele>167</ele>
        <time>2020-03-22T12:24:04Z</time>
      </trkpt>
      <trkpt lat="56.890706407218" lon="14.809725306068">
        <ele>166.4</ele>
        <time>2020-03-22T12:24:08Z</time>
      </trkpt>
      <trkpt lat="56.890653182153" lon="14.80981063381">
        <ele>166.2</ele>
        <time>2020-03-22T12:24:09Z</time>
      </trkpt>
      <trkpt lat="56.890470875828" lon="14.809990760841">
        <ele>166</ele>
        <time>2020-03-22T12:24:12Z</time>
      </trkpt>
      <trkpt lat="56.890302651095" lon="14.81009897117">
        <ele>166.4</ele>
        <time>2020-03-22T12:24:15Z</time>
      </trkpt>
      <trkpt lat="56.889784482037" lon="14.810616553495">
        <ele>167</ele>
        <time>2020-03-22T12:24:25Z</time>
      </trkpt>
      <trkpt lat="56.889315011818" lon="14.811033888296">
        <ele>165.2</ele>
        <time>2020-03-22T12:24:34Z</time>
      </trkpt>
      <trkpt lat="56.888767422291" lon="14.811413169271">
        <ele>166.2</ele>
        <time>2020-03-22T12:24:44Z</time>
      </trkpt>
      <trkpt lat="56.888563155388" lon="14.811521211962">
        <ele>165.6</ele>
        <time>2020-03-22T12:24:48Z</time>
      </trkpt>
      <trkpt lat="56.888471541221" lon="14.811576448683">
        <ele>165.8</ele>
        <time>2020-03-22T12:24:50Z</time>
      </trkpt>
      <trkpt lat="56.888330138568" lon="14.811634283793">
        <ele>166.2</ele>
        <time>2020-03-22T12:24:53Z</time>
      </trkpt>
      <trkpt lat="56.887780034471" lon="14.811886914259">
        <ele>167.6</ele>
        <time>2020-03-22T12:25:03Z</time>
      </trkpt>
      <trkpt lat="56.887401675505" lon="14.81208045233">
        <ele>168.6</ele>
        <time>2020-03-22T12:25:10Z</time>
      </trkpt>
      <trkpt lat="56.886871687968" lon="14.812255801678">
        <ele>168</ele>
        <time>2020-03-22T12:25:20Z</time>
      </trkpt>
      <trkpt lat="56.886774374109" lon="14.812272733116">
        <ele>168.2</ele>
        <time>2020-03-22T12:25:22Z</time>
      </trkpt>
      <trkpt lat="56.886675048594" lon="14.812222357897">
        <ele>168.8</ele>
        <time>2020-03-22T12:25:24Z</time>
      </trkpt>
      <trkpt lat="56.886603886263" lon="14.812088415135">
        <ele>169</ele>
        <time>2020-03-22T12:25:26Z</time>
      </trkpt>
      <trkpt lat="56.886626098298" lon="14.811107816654">
        <ele>167.8</ele>
        <time>2020-03-22T12:25:35Z</time>
      </trkpt>
      <trkpt lat="56.886623919004" lon="14.811000109239">
        <ele>167.4</ele>
        <time>2020-03-22T12:25:36Z</time>
      </trkpt>
      <trkpt lat="56.886596342553" lon="14.80992965679">
        <ele>168</ele>
        <time>2020-03-22T12:25:46Z</time>
      </trkpt>
      <trkpt lat="56.886508667879" lon="14.809168161175">
        <ele>168.6</ele>
        <time>2020-03-22T12:25:54Z</time>
      </trkpt>
      <trkpt lat="56.886491149708" lon="14.809088197849">
        <ele>168.8</ele>
        <time>2020-03-22T12:25:55Z</time>
      </trkpt>
      <trkpt lat="56.886427447268" lon="14.808849565156">
        <ele>169.6</ele>
        <time>2020-03-22T12:25:58Z</time>
      </trkpt>
      <trkpt lat="56.886357961317" lon="14.808614285223">
        <ele>171</ele>
        <time>2020-03-22T12:26:01Z</time>
      </trkpt>
      <trkpt lat="56.886266850064" lon="14.808316727773">
        <ele>172</ele>
        <time>2020-03-22T12:26:05Z</time>
      </trkpt>
      <trkpt lat="56.886174481526" lon="14.807915234763">
        <ele>173.2</ele>
        <time>2020-03-22T12:26:11Z</time>
      </trkpt>
      <trkpt lat="56.886131566198" lon="14.807686995626">
        <ele>174.4</ele>
        <time>2020-03-22T12:26:15Z</time>
      </trkpt>
      <trkpt lat="56.886133410216" lon="14.807506700957">
        <ele>175.6</ele>
        <time>2020-03-22T12:26:18Z</time>
      </trkpt>
      <trkpt lat="56.886224940564" lon="14.807147787999">
        <ele>176.4</ele>
        <time>2020-03-22T12:26:24Z</time>
      </trkpt>
      <trkpt lat="56.8864130304" lon="14.806995237419">
        <ele>176.4</ele>
        <time>2020-03-22T12:26:28Z</time>
      </trkpt>
      <trkpt lat="56.886500453617" lon="14.806863809227">
        <ele>176</ele>
        <time>2020-03-22T12:26:30Z</time>
      </trkpt>
      <trkpt lat="56.88652786243" lon="14.806658452677">
        <ele>175</ele>
        <time>2020-03-22T12:26:32Z</time>
      </trkpt>
      <trkpt lat="56.886521911281" lon="14.806534652014">
        <ele>174.4</ele>
        <time>2020-03-22T12:26:33Z</time>
      </trkpt>
      <trkpt lat="56.886490562975" lon="14.806296270778">
        <ele>173.2</ele>
        <time>2020-03-22T12:26:35Z</time>
      </trkpt>
      <trkpt lat="56.886465501094" lon="14.806179259454">
        <ele>172.6</ele>
        <time>2020-03-22T12:26:36Z</time>
      </trkpt>
      <trkpt lat="56.886436667358" lon="14.806061577578">
        <ele>172</ele>
        <time>2020-03-22T12:26:37Z</time>
      </trkpt>
      <trkpt lat="56.886323260251" lon="14.805577606672">
        <ele>170.8</ele>
        <time>2020-03-22T12:26:41Z</time>
      </trkpt>
      <trkpt lat="56.886243548382" lon="14.805198325697">
        <ele>169.2</ele>
        <time>2020-03-22T12:26:44Z</time>
      </trkpt>
      <trkpt lat="56.886192167335" lon="14.804949886181">
        <ele>167.8</ele>
        <time>2020-03-22T12:26:46Z</time>
      </trkpt>
      <trkpt lat="56.886144222867" lon="14.804703961235">
        <ele>166.8</ele>
        <time>2020-03-22T12:26:48Z</time>
      </trkpt>
      <trkpt lat="56.886085801024" lon="14.804347395209">
        <ele>165.4</ele>
        <time>2020-03-22T12:26:51Z</time>
      </trkpt>
      <trkpt lat="56.88601153739" lon="14.803929222218">
        <ele>165.4</ele>
        <time>2020-03-22T12:26:55Z</time>
      </trkpt>
      <trkpt lat="56.885980943455" lon="14.803809696324">
        <ele>165.8</ele>
        <time>2020-03-22T12:26:57Z</time>
      </trkpt>
      <trkpt lat="56.885897711188" lon="14.803759572562">
        <ele>166.2</ele>
        <time>2020-03-22T12:26:59Z</time>
      </trkpt>
      <trkpt lat="56.885793188895" lon="14.803771726317">
        <ele>166.2</ele>
        <time>2020-03-22T12:27:01Z</time>
      </trkpt>
      <trkpt lat="56.885253729811" lon="14.804067188292">
        <ele>166.6</ele>
        <time>2020-03-22T12:27:11Z</time>
      </trkpt>
      <trkpt lat="56.885202432583" lon="14.80409669258">
        <ele>166.8</ele>
        <time>2020-03-22T12:27:12Z</time>
      </trkpt>
      <trkpt lat="56.884942928959" lon="14.804212278981">
        <ele>166.8</ele>
        <time>2020-03-22T12:27:17Z</time>
      </trkpt>
      <trkpt lat="56.884830276223" lon="14.804263240933">
        <ele>166.6</ele>
        <time>2020-03-22T12:27:19Z</time>
      </trkpt>
      <trkpt lat="56.884711001786" lon="14.804268689168">
        <ele>166.6</ele>
        <time>2020-03-22T12:27:21Z</time>
      </trkpt>
      <trkpt lat="56.884520900294" lon="14.80420817185">
        <ele>166.2</ele>
        <time>2020-03-22T12:27:24Z</time>
      </trkpt>
      <trkpt lat="56.884276651728" lon="14.804087807766">
        <ele>165.6</ele>
        <time>2020-03-22T12:27:28Z</time>
      </trkpt>
      <trkpt lat="56.8840744803" lon="14.803893682962">
        <ele>165</ele>
        <time>2020-03-22T12:27:32Z</time>
      </trkpt>
      <trkpt lat="56.883978842821" lon="14.803730487369">
        <ele>164.6</ele>
        <time>2020-03-22T12:27:34Z</time>
      </trkpt>
      <trkpt lat="56.883745826001" lon="14.803120452687">
        <ele>165.8</ele>
        <time>2020-03-22T12:27:41Z</time>
      </trkpt>
      <trkpt lat="56.883717495179" lon="14.802923980951">
        <ele>166.2</ele>
        <time>2020-03-22T12:27:43Z</time>
      </trkpt>
      <trkpt lat="56.883711292573" lon="14.802715523098">
        <ele>166.6</ele>
        <time>2020-03-22T12:27:45Z</time>
      </trkpt>
      <trkpt lat="56.883706766347" lon="14.802616281402">
        <ele>166.8</ele>
        <time>2020-03-22T12:27:46Z</time>
      </trkpt>
      <trkpt lat="56.883662845191" lon="14.802469095238">
        <ele>167.2</ele>
        <time>2020-03-22T12:27:48Z</time>
      </trkpt>
      <trkpt lat="56.883576176345" lon="14.802411176309">
        <ele>167.2</ele>
        <time>2020-03-22T12:27:50Z</time>
      </trkpt>
      <trkpt lat="56.883478778667" lon="14.80239684326">
        <ele>166.6</ele>
        <time>2020-03-22T12:27:52Z</time>
      </trkpt>
      <trkpt lat="56.883303010224" lon="14.802264744516">
        <ele>166.4</ele>
        <time>2020-03-22T12:27:56Z</time>
      </trkpt>
      <trkpt lat="56.883199745216" lon="14.802236581332">
        <ele>166.4</ele>
        <time>2020-03-22T12:27:58Z</time>
      </trkpt>
      <trkpt lat="56.88297477502" lon="14.802173297987">
        <ele>165.2</ele>
        <time>2020-03-22T12:28:02Z</time>
      </trkpt>
      <trkpt lat="56.882861116456" lon="14.802145302441">
        <ele>164.8</ele>
        <time>2020-03-22T12:28:04Z</time>
      </trkpt>
      <trkpt lat="56.882737483431" lon="14.802113032126">
        <ele>164.8</ele>
        <time>2020-03-22T12:28:06Z</time>
      </trkpt>
      <trkpt lat="56.882289303238" lon="14.802008509833">
        <ele>164.2</ele>
        <time>2020-03-22T12:28:14Z</time>
      </trkpt>
      <trkpt lat="56.882080174833" lon="14.801984286142">
        <ele>164.2</ele>
        <time>2020-03-22T12:28:18Z</time>
      </trkpt>
      <trkpt lat="56.881864340908" lon="14.801984789056">
        <ele>164.4</ele>
        <time>2020-03-22T12:28:21Z</time>
      </trkpt>
      <trkpt lat="56.881295964269" lon="14.801934832932">
        <ele>164</ele>
        <time>2020-03-22T12:28:31Z</time>
      </trkpt>
      <trkpt lat="56.880977871164" lon="14.801849589009">
        <ele>163.6</ele>
        <time>2020-03-22T12:28:37Z</time>
      </trkpt>
      <trkpt lat="56.880888687748" lon="14.80180591931">
        <ele>163.8</ele>
        <time>2020-03-22T12:28:39Z</time>
      </trkpt>
      <trkpt lat="56.880352832881" lon="14.801808936794">
        <ele>164.6</ele>
        <time>2020-03-22T12:28:49Z</time>
      </trkpt>
      <trkpt lat="56.879893169485" lon="14.80173299678">
        <ele>164.2</ele>
        <time>2020-03-22T12:28:57Z</time>
      </trkpt>
      <trkpt lat="56.879340047904" lon="14.801523952194">
        <ele>164.8</ele>
        <time>2020-03-22T12:29:09Z</time>
      </trkpt>
      <trkpt lat="56.879286487563" lon="14.801443737411">
        <ele>165.2</ele>
        <time>2020-03-22T12:29:11Z</time>
      </trkpt>
      <trkpt lat="56.879265532813" lon="14.801464356885">
        <ele>165.4</ele>
        <time>2020-03-22T12:29:12Z</time>
      </trkpt>
      <trkpt lat="56.879229406824" lon="14.801289929546">
        <ele>166</ele>
        <time>2020-03-22T12:29:15Z</time>
      </trkpt>
      <trkpt lat="56.879201495097" lon="14.801136624595">
        <ele>166.4</ele>
        <time>2020-03-22T12:29:17Z</time>
      </trkpt>
      <trkpt lat="56.879199902536" lon="14.8001303775">
        <ele>166.8</ele>
        <time>2020-03-22T12:29:28Z</time>
      </trkpt>
      <trkpt lat="56.879190095713" lon="14.799723939169">
        <ele>167.2</ele>
        <time>2020-03-22T12:29:33Z</time>
      </trkpt>
      <trkpt lat="56.879082136841" lon="14.799577507376">
        <ele>167.2</ele>
        <time>2020-03-22T12:29:36Z</time>
      </trkpt>
      <trkpt lat="56.878775610758" lon="14.799548338364">
        <ele>166.4</ele>
        <time>2020-03-22T12:29:43Z</time>
      </trkpt>
      <trkpt lat="56.878683828953" lon="14.79946066369">
        <ele>166.6</ele>
        <time>2020-03-22T12:29:45Z</time>
      </trkpt>
      <trkpt lat="56.878535804599" lon="14.799374749215">
        <ele>166.8</ele>
        <time>2020-03-22T12:29:48Z</time>
      </trkpt>
      <trkpt lat="56.878468749399" lon="14.799217504771">
        <ele>167</ele>
        <time>2020-03-22T12:29:50Z</time>
      </trkpt>
      <trkpt lat="56.878448968115" lon="14.799012315859">
        <ele>167.2</ele>
        <time>2020-03-22T12:29:52Z</time>
      </trkpt>
      <trkpt lat="56.878442849328" lon="14.798597411809">
        <ele>167.2</ele>
        <time>2020-03-22T12:29:56Z</time>
      </trkpt>
      <trkpt lat="56.878422481311" lon="14.798159708991">
        <ele>166.8</ele>
        <time>2020-03-22T12:30:00Z</time>
      </trkpt>
      <trkpt lat="56.878409740823" lon="14.797803310603">
        <ele>166.2</ele>
        <time>2020-03-22T12:30:04Z</time>
      </trkpt>
      <trkpt lat="56.878341093062" lon="14.797633074214">
        <ele>166</ele>
        <time>2020-03-22T12:30:06Z</time>
      </trkpt>
      <trkpt lat="56.878250484723" lon="14.797599630433">
        <ele>165.6</ele>
        <time>2020-03-22T12:30:08Z</time>
      </trkpt>
      <trkpt lat="56.878199187495" lon="14.797607006505">
        <ele>165.2</ele>
        <time>2020-03-22T12:30:09Z</time>
      </trkpt>
      <trkpt lat="56.878094162288" lon="14.797609772532">
        <ele>164.8</ele>
        <time>2020-03-22T12:30:11Z</time>
      </trkpt>
      <trkpt lat="56.877809932059" lon="14.797563169168">
        <ele>165.6</ele>
        <time>2020-03-22T12:30:16Z</time>
      </trkpt>
      <trkpt lat="56.877720916281" lon="14.797412714063">
        <ele>166.2</ele>
        <time>2020-03-22T12:30:18Z</time>
      </trkpt>
      <trkpt lat="56.877714546037" lon="14.797308610865">
        <ele>166.2</ele>
        <time>2020-03-22T12:30:19Z</time>
      </trkpt>
      <trkpt lat="56.877721922109" lon="14.797196209586">
        <ele>166.4</ele>
        <time>2020-03-22T12:30:20Z</time>
      </trkpt>
      <trkpt lat="56.877765340351" lon="14.796772755998">
        <ele>166.6</ele>
        <time>2020-03-22T12:30:24Z</time>
      </trkpt>
      <trkpt lat="56.87775620408" lon="14.795788134205">
        <ele>166.8</ele>
        <time>2020-03-22T12:30:33Z</time>
      </trkpt>
      <trkpt lat="56.877726615973" lon="14.794770823002">
        <ele>166.8</ele>
        <time>2020-03-22T12:30:42Z</time>
      </trkpt>
      <trkpt lat="56.877712534381" lon="14.793752925066">
        <ele>167</ele>
        <time>2020-03-22T12:30:51Z</time>
      </trkpt>
      <trkpt lat="56.877704068662" lon="14.793433071762">
        <ele>167.4</ele>
        <time>2020-03-22T12:30:54Z</time>
      </trkpt>
      <trkpt lat="56.87767741422" lon="14.792822534166">
        <ele>168.2</ele>
        <time>2020-03-22T12:31:00Z</time>
      </trkpt>
      <trkpt lat="56.877641455869" lon="14.792628409362">
        <ele>168.6</ele>
        <time>2020-03-22T12:31:02Z</time>
      </trkpt>
      <trkpt lat="56.87730358148" lon="14.791725091999">
        <ele>168.8</ele>
        <time>2020-03-22T12:31:12Z</time>
      </trkpt>
      <trkpt lat="56.877138038955" lon="14.791340446608">
        <ele>168.2</ele>
        <time>2020-03-22T12:31:16Z</time>
      </trkpt>
      <trkpt lat="56.877093028152" lon="14.79110223301">
        <ele>167.4</ele>
        <time>2020-03-22T12:31:18Z</time>
      </trkpt>
      <trkpt lat="56.877042820571" lon="14.790111576249">
        <ele>168</ele>
        <time>2020-03-22T12:31:27Z</time>
      </trkpt>
      <trkpt lat="56.877048687901" lon="14.789109771561">
        <ele>168</ele>
        <time>2020-03-22T12:31:36Z</time>
      </trkpt>
      <trkpt lat="56.877075342343" lon="14.788069326314">
        <ele>167.8</ele>
        <time>2020-03-22T12:31:45Z</time>
      </trkpt>
      <trkpt lat="56.877055812516" lon="14.787172295376">
        <ele>166.2</ele>
        <time>2020-03-22T12:31:53Z</time>
      </trkpt>
      <trkpt lat="56.876983979633" lon="14.786973476708">
        <ele>165.6</ele>
        <time>2020-03-22T12:31:56Z</time>
      </trkpt>
      <trkpt lat="56.876880966082" lon="14.7869959402">
        <ele>165.2</ele>
        <time>2020-03-22T12:31:58Z</time>
      </trkpt>
      <trkpt lat="56.876417111736" lon="14.787202805492">
        <ele>164</ele>
        <time>2020-03-22T12:32:05Z</time>
      </trkpt>
      <trkpt lat="56.876216113774" lon="14.787236752187">
        <ele>162.8</ele>
        <time>2020-03-22T12:32:08Z</time>
      </trkpt>
      <trkpt lat="56.875653855922" lon="14.787157878508">
        <ele>162.8</ele>
        <time>2020-03-22T12:32:17Z</time>
      </trkpt>
      <trkpt lat="56.875320088664" lon="14.786996610752">
        <ele>163.8</ele>
        <time>2020-03-22T12:32:23Z</time>
      </trkpt>
      <trkpt lat="56.875071397691" lon="14.78685428609">
        <ele>164.4</ele>
        <time>2020-03-22T12:32:28Z</time>
      </trkpt>
      <trkpt lat="56.874970311977" lon="14.786838695756">
        <ele>164.6</ele>
        <time>2020-03-22T12:32:30Z</time>
      </trkpt>
      <trkpt lat="56.874739809727" lon="14.786870044062">
        <ele>164.8</ele>
        <time>2020-03-22T12:32:35Z</time>
      </trkpt>
      <trkpt lat="56.874712903828" lon="14.787019325701">
        <ele>165</ele>
        <time>2020-03-22T12:32:37Z</time>
      </trkpt>
      <trkpt lat="56.874724303212" lon="14.787223844061">
        <ele>165.2</ele>
        <time>2020-03-22T12:32:39Z</time>
      </trkpt>
      <trkpt lat="56.87465825384" lon="14.788281639841">
        <ele>165.6</ele>
        <time>2020-03-22T12:32:50Z</time>
      </trkpt>
      <trkpt lat="56.874647608827" lon="14.788371326171">
        <ele>165.6</ele>
        <time>2020-03-22T12:32:51Z</time>
      </trkpt>
      <trkpt lat="56.874630509751" lon="14.788458246474">
        <ele>165.8</ele>
        <time>2020-03-22T12:32:52Z</time>
      </trkpt>
      <trkpt lat="56.874618775091" lon="14.78854407713">
        <ele>166.2</ele>
        <time>2020-03-22T12:32:53Z</time>
      </trkpt>
      <trkpt lat="56.874590695726" lon="14.788696208615">
        <ele>166.6</ele>
        <time>2020-03-22T12:32:55Z</time>
      </trkpt>
      <trkpt lat="56.874446946141" lon="14.78871925884">
        <ele>166.8</ele>
        <time>2020-03-22T12:32:58Z</time>
      </trkpt>
      <trkpt lat="56.874372179593" lon="14.788796875234">
        <ele>166.6</ele>
        <time>2020-03-22T12:33:00Z</time>
      </trkpt>
      <trkpt lat="56.874206804706" lon="14.789031736072">
        <ele>166.6</ele>
        <time>2020-03-22T12:33:04Z</time>
      </trkpt>
      <trkpt lat="56.87414360518" lon="14.789180514797">
        <ele>166.6</ele>
        <time>2020-03-22T12:33:06Z</time>
      </trkpt>
      <trkpt lat="56.874058445076" lon="14.789805720718">
        <ele>166.8</ele>
        <time>2020-03-22T12:33:13Z</time>
      </trkpt>
      <trkpt lat="56.874045620769" lon="14.790255996386">
        <ele>167.2</ele>
        <time>2020-03-22T12:33:18Z</time>
      </trkpt>
      <trkpt lat="56.87405308066" lon="14.790534526923">
        <ele>167</ele>
        <time>2020-03-22T12:33:21Z</time>
      </trkpt>
      <trkpt lat="56.874015445929" lon="14.790677019223">
        <ele>167</ele>
        <time>2020-03-22T12:33:23Z</time>
      </trkpt>
      <trkpt lat="56.873939505915" lon="14.7907426495">
        <ele>167.2</ele>
        <time>2020-03-22T12:33:25Z</time>
      </trkpt>
      <trkpt lat="56.873748063319" lon="14.790757317825">
        <ele>167.2</ele>
        <time>2020-03-22T12:33:29Z</time>
      </trkpt>
      <trkpt lat="56.873657706437" lon="14.790805178474">
        <ele>167.2</ele>
        <time>2020-03-22T12:33:31Z</time>
      </trkpt>
      <trkpt lat="56.87360967815" lon="14.790913975536">
        <ele>167.4</ele>
        <time>2020-03-22T12:33:33Z</time>
      </trkpt>
      <trkpt lat="56.873604732829" lon="14.791075578568">
        <ele>167.8</ele>
        <time>2020-03-22T12:33:35Z</time>
      </trkpt>
      <trkpt lat="56.873622921552" lon="14.791241037274">
        <ele>167.8</ele>
        <time>2020-03-22T12:33:37Z</time>
      </trkpt>
      <trkpt lat="56.873670195468" lon="14.791651331279">
        <ele>167.4</ele>
        <time>2020-03-22T12:33:42Z</time>
      </trkpt>
      <trkpt lat="56.873689809114" lon="14.792045112941">
        <ele>169</ele>
        <time>2020-03-22T12:33:47Z</time>
      </trkpt>
      <trkpt lat="56.873718559031" lon="14.792248290197">
        <ele>170.2</ele>
        <time>2020-03-22T12:33:50Z</time>
      </trkpt>
      <trkpt lat="56.87376055235" lon="14.79259588759">
        <ele>171.2</ele>
        <time>2020-03-22T12:33:55Z</time>
      </trkpt>
      <trkpt lat="56.873775053037" lon="14.79297894042">
        <ele>172.4</ele>
        <time>2020-03-22T12:34:01Z</time>
      </trkpt>
      <trkpt lat="56.873753092459" lon="14.793023029214">
        <ele>172.8</ele>
        <time>2020-03-22T12:34:02Z</time>
      </trkpt>
      <trkpt lat="56.873677822997" lon="14.793053036416">
        <ele>173.2</ele>
        <time>2020-03-22T12:34:04Z</time>
      </trkpt>
      <trkpt lat="56.873636667868" lon="14.793044654516">
        <ele>173.6</ele>
        <time>2020-03-22T12:34:05Z</time>
      </trkpt>
      <trkpt lat="56.873326789025" lon="14.792897049257">
        <ele>173.8</ele>
        <time>2020-03-22T12:34:13Z</time>
      </trkpt>
      <trkpt lat="56.873304828447" lon="14.792800741226">
        <ele>175.6</ele>
        <time>2020-03-22T12:34:15Z</time>
      </trkpt>
      <trkpt lat="56.873340283884" lon="14.792585745491">
        <ele>175.4</ele>
        <time>2020-03-22T12:34:24Z</time>
      </trkpt>
    </trkseg>
  </trk>
</gpx>